<?xml version="1.0" encoding="UTF-8" standalone="no" ?>
<gpx xmlns="http://www.topografix.com/GPX/1/1" xmlns:xsi="http://www.w3.org/2001/XMLSchema-instance" xsi:schemaLocation="http://www.topografix.com/GPX/1/1 http://www.topografix.com/GPX/1/1/gpx.xsd" version="1.1" creator="VisuGPX - https://www.visugpx.com">
  <metadata>
    <name>O-N-Nantes Coueron Gournerie Route de Vannes Nantes</name>
    <desc><![CDATA[O-N-Nantes Coueron Gournerie Route de Vannes Nantes]]></desc>
  </metadata>
  <trk>
    <name><![CDATA[2021-04-12 13:38 +02:00]]></name>
    <trkseg>
      <trkpt lat="47.16788" lon="-1.6266">
        <ele>80</ele>
        <time>2021-04-12T11:38:12.997Z</time>
      </trkpt>
      <trkpt lat="47.16781" lon="-1.62649">
        <ele>72</ele>
        <time>2021-04-12T11:39:42.000Z</time>
      </trkpt>
      <trkpt lat="47.16791" lon="-1.62648">
        <ele>69</ele>
        <time>2021-04-12T11:42:12.000Z</time>
      </trkpt>
      <trkpt lat="47.16798" lon="-1.62637">
        <ele>70</ele>
        <time>2021-04-12T11:42:14.000Z</time>
      </trkpt>
      <trkpt lat="47.16806" lon="-1.62624">
        <ele>69</ele>
        <time>2021-04-12T11:42:16.000Z</time>
      </trkpt>
      <trkpt lat="47.16814" lon="-1.62611">
        <ele>68</ele>
        <time>2021-04-12T11:42:18.000Z</time>
      </trkpt>
      <trkpt lat="47.16821" lon="-1.62598">
        <ele>68</ele>
        <time>2021-04-12T11:42:20.000Z</time>
      </trkpt>
      <trkpt lat="47.16829" lon="-1.62585">
        <ele>68</ele>
        <time>2021-04-12T11:42:22.000Z</time>
      </trkpt>
      <trkpt lat="47.16828" lon="-1.62569">
        <ele>68</ele>
        <time>2021-04-12T11:42:24.000Z</time>
      </trkpt>
      <trkpt lat="47.16819" lon="-1.62557">
        <ele>68</ele>
        <time>2021-04-12T11:42:26.000Z</time>
      </trkpt>
      <trkpt lat="47.16804" lon="-1.62545">
        <ele>67</ele>
        <time>2021-04-12T11:42:29.000Z</time>
      </trkpt>
      <trkpt lat="47.16793" lon="-1.62538">
        <ele>67</ele>
        <time>2021-04-12T11:42:31.000Z</time>
      </trkpt>
      <trkpt lat="47.16782" lon="-1.6253">
        <ele>66</ele>
        <time>2021-04-12T11:42:33.000Z</time>
      </trkpt>
      <trkpt lat="47.16771" lon="-1.62523">
        <ele>66</ele>
        <time>2021-04-12T11:42:35.000Z</time>
      </trkpt>
      <trkpt lat="47.16759" lon="-1.62517">
        <ele>65</ele>
        <time>2021-04-12T11:42:37.000Z</time>
      </trkpt>
      <trkpt lat="47.16741" lon="-1.62508">
        <ele>65</ele>
        <time>2021-04-12T11:42:40.000Z</time>
      </trkpt>
      <trkpt lat="47.1673" lon="-1.62504">
        <ele>64</ele>
        <time>2021-04-12T11:42:42.000Z</time>
      </trkpt>
      <trkpt lat="47.16719" lon="-1.62498">
        <ele>63</ele>
        <time>2021-04-12T11:42:44.000Z</time>
      </trkpt>
      <trkpt lat="47.16712" lon="-1.62485">
        <ele>63</ele>
        <time>2021-04-12T11:42:46.000Z</time>
      </trkpt>
      <trkpt lat="47.16714" lon="-1.62467">
        <ele>63</ele>
        <time>2021-04-12T11:42:48.000Z</time>
      </trkpt>
      <trkpt lat="47.16716" lon="-1.62453">
        <ele>62</ele>
        <time>2021-04-12T11:42:50.000Z</time>
      </trkpt>
      <trkpt lat="47.16717" lon="-1.6244">
        <ele>63</ele>
        <time>2021-04-12T11:42:52.000Z</time>
      </trkpt>
      <trkpt lat="47.16718" lon="-1.62424">
        <ele>63</ele>
        <time>2021-04-12T11:42:54.000Z</time>
      </trkpt>
      <trkpt lat="47.16727" lon="-1.624">
        <ele>62</ele>
        <time>2021-04-12T11:42:57.000Z</time>
      </trkpt>
      <trkpt lat="47.16735" lon="-1.62375">
        <ele>62</ele>
        <time>2021-04-12T11:43:00.000Z</time>
      </trkpt>
      <trkpt lat="47.16748" lon="-1.62355">
        <ele>62</ele>
        <time>2021-04-12T11:43:03.000Z</time>
      </trkpt>
      <trkpt lat="47.16758" lon="-1.62345">
        <ele>63</ele>
        <time>2021-04-12T11:43:05.000Z</time>
      </trkpt>
      <trkpt lat="47.16769" lon="-1.62337">
        <ele>63</ele>
        <time>2021-04-12T11:43:07.000Z</time>
      </trkpt>
      <trkpt lat="47.1678" lon="-1.6233">
        <ele>63</ele>
        <time>2021-04-12T11:43:09.000Z</time>
      </trkpt>
      <trkpt lat="47.16792" lon="-1.62325">
        <ele>63</ele>
        <time>2021-04-12T11:43:11.000Z</time>
      </trkpt>
      <trkpt lat="47.16803" lon="-1.62319">
        <ele>63</ele>
        <time>2021-04-12T11:43:13.000Z</time>
      </trkpt>
      <trkpt lat="47.16814" lon="-1.62312">
        <ele>64</ele>
        <time>2021-04-12T11:43:15.000Z</time>
      </trkpt>
      <trkpt lat="47.16825" lon="-1.62302">
        <ele>64</ele>
        <time>2021-04-12T11:43:17.000Z</time>
      </trkpt>
      <trkpt lat="47.16836" lon="-1.62293">
        <ele>64</ele>
        <time>2021-04-12T11:43:19.000Z</time>
      </trkpt>
      <trkpt lat="47.16845" lon="-1.6228">
        <ele>64</ele>
        <time>2021-04-12T11:43:21.000Z</time>
      </trkpt>
      <trkpt lat="47.16855" lon="-1.62268">
        <ele>64</ele>
        <time>2021-04-12T11:43:23.000Z</time>
      </trkpt>
      <trkpt lat="47.16865" lon="-1.62255">
        <ele>63</ele>
        <time>2021-04-12T11:43:25.000Z</time>
      </trkpt>
      <trkpt lat="47.16875" lon="-1.62243">
        <ele>63</ele>
        <time>2021-04-12T11:43:27.000Z</time>
      </trkpt>
      <trkpt lat="47.16884" lon="-1.62231">
        <ele>63</ele>
        <time>2021-04-12T11:43:29.000Z</time>
      </trkpt>
      <trkpt lat="47.16894" lon="-1.62217">
        <ele>63</ele>
        <time>2021-04-12T11:43:31.000Z</time>
      </trkpt>
      <trkpt lat="47.16903" lon="-1.62204">
        <ele>63</ele>
        <time>2021-04-12T11:43:33.000Z</time>
      </trkpt>
      <trkpt lat="47.16913" lon="-1.6219">
        <ele>64</ele>
        <time>2021-04-12T11:43:35.000Z</time>
      </trkpt>
      <trkpt lat="47.16921" lon="-1.62174">
        <ele>64</ele>
        <time>2021-04-12T11:43:37.000Z</time>
      </trkpt>
      <trkpt lat="47.16929" lon="-1.62158">
        <ele>64</ele>
        <time>2021-04-12T11:43:39.000Z</time>
      </trkpt>
      <trkpt lat="47.16937" lon="-1.62142">
        <ele>64</ele>
        <time>2021-04-12T11:43:41.000Z</time>
      </trkpt>
      <trkpt lat="47.16945" lon="-1.62126">
        <ele>64</ele>
        <time>2021-04-12T11:43:43.000Z</time>
      </trkpt>
      <trkpt lat="47.16954" lon="-1.6211">
        <ele>64</ele>
        <time>2021-04-12T11:43:45.000Z</time>
      </trkpt>
      <trkpt lat="47.16962" lon="-1.62095">
        <ele>64</ele>
        <time>2021-04-12T11:43:47.000Z</time>
      </trkpt>
      <trkpt lat="47.16969" lon="-1.6208">
        <ele>64</ele>
        <time>2021-04-12T11:43:49.000Z</time>
      </trkpt>
      <trkpt lat="47.16978" lon="-1.62064">
        <ele>64</ele>
        <time>2021-04-12T11:43:51.000Z</time>
      </trkpt>
      <trkpt lat="47.16991" lon="-1.62041">
        <ele>64</ele>
        <time>2021-04-12T11:43:54.000Z</time>
      </trkpt>
      <trkpt lat="47.16999" lon="-1.62027">
        <ele>64</ele>
        <time>2021-04-12T11:43:56.000Z</time>
      </trkpt>
      <trkpt lat="47.17009" lon="-1.62014">
        <ele>64</ele>
        <time>2021-04-12T11:43:58.000Z</time>
      </trkpt>
      <trkpt lat="47.17018" lon="-1.62">
        <ele>64</ele>
        <time>2021-04-12T11:44:00.000Z</time>
      </trkpt>
      <trkpt lat="47.17027" lon="-1.61987">
        <ele>65</ele>
        <time>2021-04-12T11:44:02.000Z</time>
      </trkpt>
      <trkpt lat="47.17036" lon="-1.61975">
        <ele>65</ele>
        <time>2021-04-12T11:44:04.000Z</time>
      </trkpt>
      <trkpt lat="47.17045" lon="-1.61962">
        <ele>65</ele>
        <time>2021-04-12T11:44:06.000Z</time>
      </trkpt>
      <trkpt lat="47.17054" lon="-1.6195">
        <ele>66</ele>
        <time>2021-04-12T11:44:08.000Z</time>
      </trkpt>
      <trkpt lat="47.17063" lon="-1.61938">
        <ele>65</ele>
        <time>2021-04-12T11:44:10.000Z</time>
      </trkpt>
      <trkpt lat="47.17073" lon="-1.61926">
        <ele>65</ele>
        <time>2021-04-12T11:44:12.000Z</time>
      </trkpt>
      <trkpt lat="47.17083" lon="-1.61916">
        <ele>64</ele>
        <time>2021-04-12T11:44:14.000Z</time>
      </trkpt>
      <trkpt lat="47.17093" lon="-1.61905">
        <ele>64</ele>
        <time>2021-04-12T11:44:16.000Z</time>
      </trkpt>
      <trkpt lat="47.17104" lon="-1.61895">
        <ele>64</ele>
        <time>2021-04-12T11:44:18.000Z</time>
      </trkpt>
      <trkpt lat="47.17115" lon="-1.61885">
        <ele>64</ele>
        <time>2021-04-12T11:44:20.000Z</time>
      </trkpt>
      <trkpt lat="47.17126" lon="-1.61875">
        <ele>63</ele>
        <time>2021-04-12T11:44:22.000Z</time>
      </trkpt>
      <trkpt lat="47.17136" lon="-1.61865">
        <ele>63</ele>
        <time>2021-04-12T11:44:24.000Z</time>
      </trkpt>
      <trkpt lat="47.17146" lon="-1.61854">
        <ele>63</ele>
        <time>2021-04-12T11:44:26.000Z</time>
      </trkpt>
      <trkpt lat="47.17157" lon="-1.61845">
        <ele>63</ele>
        <time>2021-04-12T11:44:28.000Z</time>
      </trkpt>
      <trkpt lat="47.17167" lon="-1.61835">
        <ele>63</ele>
        <time>2021-04-12T11:44:30.000Z</time>
      </trkpt>
      <trkpt lat="47.17178" lon="-1.61825">
        <ele>63</ele>
        <time>2021-04-12T11:44:32.000Z</time>
      </trkpt>
      <trkpt lat="47.17188" lon="-1.61814">
        <ele>63</ele>
        <time>2021-04-12T11:44:34.000Z</time>
      </trkpt>
      <trkpt lat="47.17198" lon="-1.61804">
        <ele>62</ele>
        <time>2021-04-12T11:44:36.000Z</time>
      </trkpt>
      <trkpt lat="47.17208" lon="-1.61793">
        <ele>62</ele>
        <time>2021-04-12T11:44:38.000Z</time>
      </trkpt>
      <trkpt lat="47.17217" lon="-1.6178">
        <ele>62</ele>
        <time>2021-04-12T11:44:40.000Z</time>
      </trkpt>
      <trkpt lat="47.17222" lon="-1.61764">
        <ele>61</ele>
        <time>2021-04-12T11:44:42.000Z</time>
      </trkpt>
      <trkpt lat="47.17229" lon="-1.61749">
        <ele>62</ele>
        <time>2021-04-12T11:44:44.000Z</time>
      </trkpt>
      <trkpt lat="47.17237" lon="-1.61736">
        <ele>62</ele>
        <time>2021-04-12T11:44:46.000Z</time>
      </trkpt>
      <trkpt lat="47.17246" lon="-1.61723">
        <ele>62</ele>
        <time>2021-04-12T11:44:48.000Z</time>
      </trkpt>
      <trkpt lat="47.17254" lon="-1.61708">
        <ele>63</ele>
        <time>2021-04-12T11:44:50.000Z</time>
      </trkpt>
      <trkpt lat="47.17261" lon="-1.61692">
        <ele>63</ele>
        <time>2021-04-12T11:44:52.000Z</time>
      </trkpt>
      <trkpt lat="47.17268" lon="-1.61677">
        <ele>63</ele>
        <time>2021-04-12T11:44:54.000Z</time>
      </trkpt>
      <trkpt lat="47.17276" lon="-1.61662">
        <ele>64</ele>
        <time>2021-04-12T11:44:56.000Z</time>
      </trkpt>
      <trkpt lat="47.17284" lon="-1.61647">
        <ele>64</ele>
        <time>2021-04-12T11:44:58.000Z</time>
      </trkpt>
      <trkpt lat="47.17292" lon="-1.61632">
        <ele>64</ele>
        <time>2021-04-12T11:45:00.000Z</time>
      </trkpt>
      <trkpt lat="47.17301" lon="-1.61619">
        <ele>65</ele>
        <time>2021-04-12T11:45:02.000Z</time>
      </trkpt>
      <trkpt lat="47.1731" lon="-1.61607">
        <ele>65</ele>
        <time>2021-04-12T11:45:04.000Z</time>
      </trkpt>
      <trkpt lat="47.17318" lon="-1.61593">
        <ele>65</ele>
        <time>2021-04-12T11:45:06.000Z</time>
      </trkpt>
      <trkpt lat="47.17327" lon="-1.61581">
        <ele>65</ele>
        <time>2021-04-12T11:45:08.000Z</time>
      </trkpt>
      <trkpt lat="47.17336" lon="-1.61569">
        <ele>66</ele>
        <time>2021-04-12T11:45:10.000Z</time>
      </trkpt>
      <trkpt lat="47.17346" lon="-1.61558">
        <ele>66</ele>
        <time>2021-04-12T11:45:12.000Z</time>
      </trkpt>
      <trkpt lat="47.17355" lon="-1.61546">
        <ele>66</ele>
        <time>2021-04-12T11:45:14.000Z</time>
      </trkpt>
      <trkpt lat="47.17366" lon="-1.61536">
        <ele>66</ele>
        <time>2021-04-12T11:45:16.000Z</time>
      </trkpt>
      <trkpt lat="47.17377" lon="-1.61526">
        <ele>66</ele>
        <time>2021-04-12T11:45:18.000Z</time>
      </trkpt>
      <trkpt lat="47.17388" lon="-1.61517">
        <ele>65</ele>
        <time>2021-04-12T11:45:20.000Z</time>
      </trkpt>
      <trkpt lat="47.174" lon="-1.61507">
        <ele>64</ele>
        <time>2021-04-12T11:45:22.000Z</time>
      </trkpt>
      <trkpt lat="47.17411" lon="-1.61497">
        <ele>63</ele>
        <time>2021-04-12T11:45:24.000Z</time>
      </trkpt>
      <trkpt lat="47.17424" lon="-1.61488">
        <ele>63</ele>
        <time>2021-04-12T11:45:26.000Z</time>
      </trkpt>
      <trkpt lat="47.17436" lon="-1.6148">
        <ele>62</ele>
        <time>2021-04-12T11:45:28.000Z</time>
      </trkpt>
      <trkpt lat="47.17449" lon="-1.61473">
        <ele>62</ele>
        <time>2021-04-12T11:45:30.000Z</time>
      </trkpt>
      <trkpt lat="47.17462" lon="-1.61467">
        <ele>61</ele>
        <time>2021-04-12T11:45:32.000Z</time>
      </trkpt>
      <trkpt lat="47.17474" lon="-1.61461">
        <ele>61</ele>
        <time>2021-04-12T11:45:34.000Z</time>
      </trkpt>
      <trkpt lat="47.17488" lon="-1.61456">
        <ele>61</ele>
        <time>2021-04-12T11:45:36.000Z</time>
      </trkpt>
      <trkpt lat="47.17499" lon="-1.61451">
        <ele>59</ele>
        <time>2021-04-12T11:45:38.000Z</time>
      </trkpt>
      <trkpt lat="47.17507" lon="-1.61439">
        <ele>58</ele>
        <time>2021-04-12T11:45:40.000Z</time>
      </trkpt>
      <trkpt lat="47.1751" lon="-1.6142">
        <ele>57</ele>
        <time>2021-04-12T11:45:42.000Z</time>
      </trkpt>
      <trkpt lat="47.17516" lon="-1.61398">
        <ele>56</ele>
        <time>2021-04-12T11:45:44.000Z</time>
      </trkpt>
      <trkpt lat="47.17522" lon="-1.61376">
        <ele>55</ele>
        <time>2021-04-12T11:45:46.000Z</time>
      </trkpt>
      <trkpt lat="47.17525" lon="-1.61359">
        <ele>54</ele>
        <time>2021-04-12T11:45:48.000Z</time>
      </trkpt>
      <trkpt lat="47.17524" lon="-1.61341">
        <ele>55</ele>
        <time>2021-04-12T11:45:52.000Z</time>
      </trkpt>
      <trkpt lat="47.17519" lon="-1.61328">
        <ele>55</ele>
        <time>2021-04-12T11:45:54.000Z</time>
      </trkpt>
      <trkpt lat="47.17517" lon="-1.6131">
        <ele>55</ele>
        <time>2021-04-12T11:45:56.000Z</time>
      </trkpt>
      <trkpt lat="47.17517" lon="-1.6129">
        <ele>54</ele>
        <time>2021-04-12T11:45:58.000Z</time>
      </trkpt>
      <trkpt lat="47.17509" lon="-1.61274">
        <ele>54</ele>
        <time>2021-04-12T11:46:00.000Z</time>
      </trkpt>
      <trkpt lat="47.17501" lon="-1.61259">
        <ele>54</ele>
        <time>2021-04-12T11:46:02.000Z</time>
      </trkpt>
      <trkpt lat="47.17494" lon="-1.61242">
        <ele>54</ele>
        <time>2021-04-12T11:46:04.000Z</time>
      </trkpt>
      <trkpt lat="47.17487" lon="-1.61225">
        <ele>54</ele>
        <time>2021-04-12T11:46:06.000Z</time>
      </trkpt>
      <trkpt lat="47.17481" lon="-1.61209">
        <ele>54</ele>
        <time>2021-04-12T11:46:08.000Z</time>
      </trkpt>
      <trkpt lat="47.17474" lon="-1.61192">
        <ele>54</ele>
        <time>2021-04-12T11:46:10.000Z</time>
      </trkpt>
      <trkpt lat="47.17467" lon="-1.61176">
        <ele>54</ele>
        <time>2021-04-12T11:46:12.000Z</time>
      </trkpt>
      <trkpt lat="47.1746" lon="-1.6116">
        <ele>54</ele>
        <time>2021-04-12T11:46:14.000Z</time>
      </trkpt>
      <trkpt lat="47.17452" lon="-1.61143">
        <ele>54</ele>
        <time>2021-04-12T11:46:16.000Z</time>
      </trkpt>
      <trkpt lat="47.17446" lon="-1.61126">
        <ele>54</ele>
        <time>2021-04-12T11:46:18.000Z</time>
      </trkpt>
      <trkpt lat="47.17438" lon="-1.61109">
        <ele>54</ele>
        <time>2021-04-12T11:46:20.000Z</time>
      </trkpt>
      <trkpt lat="47.17431" lon="-1.61093">
        <ele>54</ele>
        <time>2021-04-12T11:46:22.000Z</time>
      </trkpt>
      <trkpt lat="47.17425" lon="-1.6108">
        <ele>54</ele>
        <time>2021-04-12T11:46:24.000Z</time>
      </trkpt>
      <trkpt lat="47.17421" lon="-1.61068">
        <ele>53</ele>
        <time>2021-04-12T11:46:26.000Z</time>
      </trkpt>
      <trkpt lat="47.17423" lon="-1.61052">
        <ele>54</ele>
        <time>2021-04-12T11:46:28.000Z</time>
      </trkpt>
      <trkpt lat="47.1742" lon="-1.61035">
        <ele>53</ele>
        <time>2021-04-12T11:46:30.000Z</time>
      </trkpt>
      <trkpt lat="47.17421" lon="-1.61021">
        <ele>53</ele>
        <time>2021-04-12T11:46:32.000Z</time>
      </trkpt>
      <trkpt lat="47.17432" lon="-1.61026">
        <ele>53</ele>
        <time>2021-04-12T11:46:35.000Z</time>
      </trkpt>
      <trkpt lat="47.17436" lon="-1.61041">
        <ele>53</ele>
        <time>2021-04-12T11:46:37.000Z</time>
      </trkpt>
      <trkpt lat="47.17442" lon="-1.61056">
        <ele>53</ele>
        <time>2021-04-12T11:46:39.000Z</time>
      </trkpt>
      <trkpt lat="47.17449" lon="-1.61073">
        <ele>52</ele>
        <time>2021-04-12T11:46:41.000Z</time>
      </trkpt>
      <trkpt lat="47.17458" lon="-1.61086">
        <ele>52</ele>
        <time>2021-04-12T11:46:43.000Z</time>
      </trkpt>
      <trkpt lat="47.17471" lon="-1.61097">
        <ele>51</ele>
        <time>2021-04-12T11:46:45.000Z</time>
      </trkpt>
      <trkpt lat="47.17484" lon="-1.61104">
        <ele>51</ele>
        <time>2021-04-12T11:46:47.000Z</time>
      </trkpt>
      <trkpt lat="47.17499" lon="-1.61103">
        <ele>51</ele>
        <time>2021-04-12T11:46:49.000Z</time>
      </trkpt>
      <trkpt lat="47.17513" lon="-1.61099">
        <ele>50</ele>
        <time>2021-04-12T11:46:51.000Z</time>
      </trkpt>
      <trkpt lat="47.17525" lon="-1.61089">
        <ele>50</ele>
        <time>2021-04-12T11:46:53.000Z</time>
      </trkpt>
      <trkpt lat="47.17537" lon="-1.61078">
        <ele>50</ele>
        <time>2021-04-12T11:46:55.000Z</time>
      </trkpt>
      <trkpt lat="47.17549" lon="-1.61067">
        <ele>50</ele>
        <time>2021-04-12T11:46:57.000Z</time>
      </trkpt>
      <trkpt lat="47.17561" lon="-1.61056">
        <ele>50</ele>
        <time>2021-04-12T11:46:59.000Z</time>
      </trkpt>
      <trkpt lat="47.17573" lon="-1.61046">
        <ele>50</ele>
        <time>2021-04-12T11:47:01.000Z</time>
      </trkpt>
      <trkpt lat="47.17585" lon="-1.61036">
        <ele>50</ele>
        <time>2021-04-12T11:47:03.000Z</time>
      </trkpt>
      <trkpt lat="47.17597" lon="-1.61025">
        <ele>50</ele>
        <time>2021-04-12T11:47:05.000Z</time>
      </trkpt>
      <trkpt lat="47.17609" lon="-1.61015">
        <ele>50</ele>
        <time>2021-04-12T11:47:07.000Z</time>
      </trkpt>
      <trkpt lat="47.17621" lon="-1.61004">
        <ele>49</ele>
        <time>2021-04-12T11:47:09.000Z</time>
      </trkpt>
      <trkpt lat="47.17634" lon="-1.60994">
        <ele>49</ele>
        <time>2021-04-12T11:47:11.000Z</time>
      </trkpt>
      <trkpt lat="47.17645" lon="-1.60983">
        <ele>49</ele>
        <time>2021-04-12T11:47:13.000Z</time>
      </trkpt>
      <trkpt lat="47.17658" lon="-1.60973">
        <ele>49</ele>
        <time>2021-04-12T11:47:15.000Z</time>
      </trkpt>
      <trkpt lat="47.17671" lon="-1.6097">
        <ele>49</ele>
        <time>2021-04-12T11:47:17.000Z</time>
      </trkpt>
      <trkpt lat="47.17685" lon="-1.60971">
        <ele>49</ele>
        <time>2021-04-12T11:47:19.000Z</time>
      </trkpt>
      <trkpt lat="47.17698" lon="-1.60972">
        <ele>49</ele>
        <time>2021-04-12T11:47:21.000Z</time>
      </trkpt>
      <trkpt lat="47.17711" lon="-1.60966">
        <ele>49</ele>
        <time>2021-04-12T11:47:23.000Z</time>
      </trkpt>
      <trkpt lat="47.17723" lon="-1.60959">
        <ele>49</ele>
        <time>2021-04-12T11:47:25.000Z</time>
      </trkpt>
      <trkpt lat="47.17735" lon="-1.6095">
        <ele>49</ele>
        <time>2021-04-12T11:47:27.000Z</time>
      </trkpt>
      <trkpt lat="47.17747" lon="-1.60941">
        <ele>49</ele>
        <time>2021-04-12T11:47:29.000Z</time>
      </trkpt>
      <trkpt lat="47.17759" lon="-1.60932">
        <ele>49</ele>
        <time>2021-04-12T11:47:31.000Z</time>
      </trkpt>
      <trkpt lat="47.17772" lon="-1.60923">
        <ele>49</ele>
        <time>2021-04-12T11:47:33.000Z</time>
      </trkpt>
      <trkpt lat="47.17783" lon="-1.60913">
        <ele>49</ele>
        <time>2021-04-12T11:47:35.000Z</time>
      </trkpt>
      <trkpt lat="47.17795" lon="-1.60904">
        <ele>50</ele>
        <time>2021-04-12T11:47:37.000Z</time>
      </trkpt>
      <trkpt lat="47.17807" lon="-1.60892">
        <ele>50</ele>
        <time>2021-04-12T11:47:39.000Z</time>
      </trkpt>
      <trkpt lat="47.17818" lon="-1.6088">
        <ele>50</ele>
        <time>2021-04-12T11:47:41.000Z</time>
      </trkpt>
      <trkpt lat="47.17827" lon="-1.60864">
        <ele>51</ele>
        <time>2021-04-12T11:47:43.000Z</time>
      </trkpt>
      <trkpt lat="47.17836" lon="-1.60848">
        <ele>51</ele>
        <time>2021-04-12T11:47:45.000Z</time>
      </trkpt>
      <trkpt lat="47.17843" lon="-1.60831">
        <ele>50</ele>
        <time>2021-04-12T11:47:47.000Z</time>
      </trkpt>
      <trkpt lat="47.17848" lon="-1.60812">
        <ele>50</ele>
        <time>2021-04-12T11:47:49.000Z</time>
      </trkpt>
      <trkpt lat="47.17852" lon="-1.60793">
        <ele>50</ele>
        <time>2021-04-12T11:47:51.000Z</time>
      </trkpt>
      <trkpt lat="47.17856" lon="-1.60774">
        <ele>50</ele>
        <time>2021-04-12T11:47:53.000Z</time>
      </trkpt>
      <trkpt lat="47.1786" lon="-1.60754">
        <ele>49</ele>
        <time>2021-04-12T11:47:55.000Z</time>
      </trkpt>
      <trkpt lat="47.17865" lon="-1.60735">
        <ele>49</ele>
        <time>2021-04-12T11:47:57.000Z</time>
      </trkpt>
      <trkpt lat="47.17869" lon="-1.60717">
        <ele>49</ele>
        <time>2021-04-12T11:47:59.000Z</time>
      </trkpt>
      <trkpt lat="47.17873" lon="-1.60698">
        <ele>49</ele>
        <time>2021-04-12T11:48:01.000Z</time>
      </trkpt>
      <trkpt lat="47.17878" lon="-1.60679">
        <ele>50</ele>
        <time>2021-04-12T11:48:03.000Z</time>
      </trkpt>
      <trkpt lat="47.17884" lon="-1.60662">
        <ele>50</ele>
        <time>2021-04-12T11:48:05.000Z</time>
      </trkpt>
      <trkpt lat="47.17889" lon="-1.60645">
        <ele>51</ele>
        <time>2021-04-12T11:48:07.000Z</time>
      </trkpt>
      <trkpt lat="47.17895" lon="-1.60628">
        <ele>50</ele>
        <time>2021-04-12T11:48:09.000Z</time>
      </trkpt>
      <trkpt lat="47.179" lon="-1.60612">
        <ele>50</ele>
        <time>2021-04-12T11:48:11.000Z</time>
      </trkpt>
      <trkpt lat="47.17903" lon="-1.60598">
        <ele>50</ele>
        <time>2021-04-12T11:48:13.000Z</time>
      </trkpt>
      <trkpt lat="47.1791" lon="-1.60585">
        <ele>51</ele>
        <time>2021-04-12T11:48:16.000Z</time>
      </trkpt>
      <trkpt lat="47.17924" lon="-1.60586">
        <ele>51</ele>
        <time>2021-04-12T11:48:19.000Z</time>
      </trkpt>
      <trkpt lat="47.17935" lon="-1.60584">
        <ele>50</ele>
        <time>2021-04-12T11:48:21.000Z</time>
      </trkpt>
      <trkpt lat="47.17947" lon="-1.60578">
        <ele>50</ele>
        <time>2021-04-12T11:48:23.000Z</time>
      </trkpt>
      <trkpt lat="47.1796" lon="-1.60572">
        <ele>50</ele>
        <time>2021-04-12T11:48:25.000Z</time>
      </trkpt>
      <trkpt lat="47.17973" lon="-1.60568">
        <ele>50</ele>
        <time>2021-04-12T11:48:27.000Z</time>
      </trkpt>
      <trkpt lat="47.17986" lon="-1.60563">
        <ele>50</ele>
        <time>2021-04-12T11:48:29.000Z</time>
      </trkpt>
      <trkpt lat="47.18" lon="-1.60556">
        <ele>50</ele>
        <time>2021-04-12T11:48:31.000Z</time>
      </trkpt>
      <trkpt lat="47.18014" lon="-1.60552">
        <ele>51</ele>
        <time>2021-04-12T11:48:33.000Z</time>
      </trkpt>
      <trkpt lat="47.18027" lon="-1.60552">
        <ele>51</ele>
        <time>2021-04-12T11:48:35.000Z</time>
      </trkpt>
      <trkpt lat="47.18041" lon="-1.60556">
        <ele>51</ele>
        <time>2021-04-12T11:48:37.000Z</time>
      </trkpt>
      <trkpt lat="47.18053" lon="-1.60563">
        <ele>51</ele>
        <time>2021-04-12T11:48:39.000Z</time>
      </trkpt>
      <trkpt lat="47.18065" lon="-1.6057">
        <ele>51</ele>
        <time>2021-04-12T11:48:41.000Z</time>
      </trkpt>
      <trkpt lat="47.18077" lon="-1.60576">
        <ele>51</ele>
        <time>2021-04-12T11:48:43.000Z</time>
      </trkpt>
      <trkpt lat="47.18089" lon="-1.60582">
        <ele>51</ele>
        <time>2021-04-12T11:48:45.000Z</time>
      </trkpt>
      <trkpt lat="47.18102" lon="-1.60587">
        <ele>51</ele>
        <time>2021-04-12T11:48:47.000Z</time>
      </trkpt>
      <trkpt lat="47.18114" lon="-1.60592">
        <ele>51</ele>
        <time>2021-04-12T11:48:49.000Z</time>
      </trkpt>
      <trkpt lat="47.18126" lon="-1.60596">
        <ele>51</ele>
        <time>2021-04-12T11:48:51.000Z</time>
      </trkpt>
      <trkpt lat="47.18139" lon="-1.606">
        <ele>51</ele>
        <time>2021-04-12T11:48:53.000Z</time>
      </trkpt>
      <trkpt lat="47.18151" lon="-1.60601">
        <ele>51</ele>
        <time>2021-04-12T11:48:55.000Z</time>
      </trkpt>
      <trkpt lat="47.18164" lon="-1.60601">
        <ele>51</ele>
        <time>2021-04-12T11:48:57.000Z</time>
      </trkpt>
      <trkpt lat="47.18176" lon="-1.60599">
        <ele>51</ele>
        <time>2021-04-12T11:48:59.000Z</time>
      </trkpt>
      <trkpt lat="47.18187" lon="-1.60592">
        <ele>51</ele>
        <time>2021-04-12T11:49:01.000Z</time>
      </trkpt>
      <trkpt lat="47.18191" lon="-1.60576">
        <ele>51</ele>
        <time>2021-04-12T11:49:03.000Z</time>
      </trkpt>
      <trkpt lat="47.18199" lon="-1.60567">
        <ele>51</ele>
        <time>2021-04-12T11:49:05.000Z</time>
      </trkpt>
      <trkpt lat="47.18211" lon="-1.60563">
        <ele>51</ele>
        <time>2021-04-12T11:49:07.000Z</time>
      </trkpt>
      <trkpt lat="47.18223" lon="-1.60557">
        <ele>52</ele>
        <time>2021-04-12T11:49:09.000Z</time>
      </trkpt>
      <trkpt lat="47.18237" lon="-1.6055">
        <ele>52</ele>
        <time>2021-04-12T11:49:11.000Z</time>
      </trkpt>
      <trkpt lat="47.18249" lon="-1.60541">
        <ele>53</ele>
        <time>2021-04-12T11:49:13.000Z</time>
      </trkpt>
      <trkpt lat="47.18261" lon="-1.60532">
        <ele>52</ele>
        <time>2021-04-12T11:49:15.000Z</time>
      </trkpt>
      <trkpt lat="47.18274" lon="-1.6052">
        <ele>52</ele>
        <time>2021-04-12T11:49:17.000Z</time>
      </trkpt>
      <trkpt lat="47.18285" lon="-1.60508">
        <ele>52</ele>
        <time>2021-04-12T11:49:19.000Z</time>
      </trkpt>
      <trkpt lat="47.18296" lon="-1.60498">
        <ele>51</ele>
        <time>2021-04-12T11:49:21.000Z</time>
      </trkpt>
      <trkpt lat="47.18306" lon="-1.60485">
        <ele>51</ele>
        <time>2021-04-12T11:49:23.000Z</time>
      </trkpt>
      <trkpt lat="47.18317" lon="-1.60473">
        <ele>51</ele>
        <time>2021-04-12T11:49:25.000Z</time>
      </trkpt>
      <trkpt lat="47.18327" lon="-1.60462">
        <ele>51</ele>
        <time>2021-04-12T11:49:27.000Z</time>
      </trkpt>
      <trkpt lat="47.18338" lon="-1.60449">
        <ele>51</ele>
        <time>2021-04-12T11:49:29.000Z</time>
      </trkpt>
      <trkpt lat="47.18348" lon="-1.60437">
        <ele>51</ele>
        <time>2021-04-12T11:49:31.000Z</time>
      </trkpt>
      <trkpt lat="47.18359" lon="-1.60423">
        <ele>50</ele>
        <time>2021-04-12T11:49:33.000Z</time>
      </trkpt>
      <trkpt lat="47.18369" lon="-1.6041">
        <ele>50</ele>
        <time>2021-04-12T11:49:35.000Z</time>
      </trkpt>
      <trkpt lat="47.18379" lon="-1.60397">
        <ele>50</ele>
        <time>2021-04-12T11:49:37.000Z</time>
      </trkpt>
      <trkpt lat="47.18389" lon="-1.60384">
        <ele>50</ele>
        <time>2021-04-12T11:49:39.000Z</time>
      </trkpt>
      <trkpt lat="47.18399" lon="-1.60371">
        <ele>50</ele>
        <time>2021-04-12T11:49:41.000Z</time>
      </trkpt>
      <trkpt lat="47.18408" lon="-1.60358">
        <ele>51</ele>
        <time>2021-04-12T11:49:43.000Z</time>
      </trkpt>
      <trkpt lat="47.18417" lon="-1.60344">
        <ele>50</ele>
        <time>2021-04-12T11:49:45.000Z</time>
      </trkpt>
      <trkpt lat="47.18427" lon="-1.6033">
        <ele>50</ele>
        <time>2021-04-12T11:49:47.000Z</time>
      </trkpt>
      <trkpt lat="47.18436" lon="-1.60315">
        <ele>50</ele>
        <time>2021-04-12T11:49:49.000Z</time>
      </trkpt>
      <trkpt lat="47.18445" lon="-1.603">
        <ele>50</ele>
        <time>2021-04-12T11:49:51.000Z</time>
      </trkpt>
      <trkpt lat="47.18454" lon="-1.60286">
        <ele>51</ele>
        <time>2021-04-12T11:49:53.000Z</time>
      </trkpt>
      <trkpt lat="47.18463" lon="-1.6027">
        <ele>51</ele>
        <time>2021-04-12T11:49:55.000Z</time>
      </trkpt>
      <trkpt lat="47.18471" lon="-1.60254">
        <ele>51</ele>
        <time>2021-04-12T11:49:57.000Z</time>
      </trkpt>
      <trkpt lat="47.18479" lon="-1.60239">
        <ele>51</ele>
        <time>2021-04-12T11:49:59.000Z</time>
      </trkpt>
      <trkpt lat="47.18488" lon="-1.60224">
        <ele>50</ele>
        <time>2021-04-12T11:50:01.000Z</time>
      </trkpt>
      <trkpt lat="47.18496" lon="-1.60209">
        <ele>50</ele>
        <time>2021-04-12T11:50:03.000Z</time>
      </trkpt>
      <trkpt lat="47.18504" lon="-1.60194">
        <ele>50</ele>
        <time>2021-04-12T11:50:05.000Z</time>
      </trkpt>
      <trkpt lat="47.18512" lon="-1.60178">
        <ele>50</ele>
        <time>2021-04-12T11:50:07.000Z</time>
      </trkpt>
      <trkpt lat="47.1852" lon="-1.60162">
        <ele>50</ele>
        <time>2021-04-12T11:50:09.000Z</time>
      </trkpt>
      <trkpt lat="47.18527" lon="-1.60146">
        <ele>50</ele>
        <time>2021-04-12T11:50:11.000Z</time>
      </trkpt>
      <trkpt lat="47.18535" lon="-1.6013">
        <ele>50</ele>
        <time>2021-04-12T11:50:13.000Z</time>
      </trkpt>
      <trkpt lat="47.18542" lon="-1.60113">
        <ele>50</ele>
        <time>2021-04-12T11:50:15.000Z</time>
      </trkpt>
      <trkpt lat="47.18549" lon="-1.60096">
        <ele>50</ele>
        <time>2021-04-12T11:50:17.000Z</time>
      </trkpt>
      <trkpt lat="47.18556" lon="-1.6008">
        <ele>49</ele>
        <time>2021-04-12T11:50:19.000Z</time>
      </trkpt>
      <trkpt lat="47.18563" lon="-1.60063">
        <ele>49</ele>
        <time>2021-04-12T11:50:21.000Z</time>
      </trkpt>
      <trkpt lat="47.18569" lon="-1.60046">
        <ele>49</ele>
        <time>2021-04-12T11:50:23.000Z</time>
      </trkpt>
      <trkpt lat="47.18575" lon="-1.60029">
        <ele>49</ele>
        <time>2021-04-12T11:50:25.000Z</time>
      </trkpt>
      <trkpt lat="47.18581" lon="-1.60012">
        <ele>49</ele>
        <time>2021-04-12T11:50:27.000Z</time>
      </trkpt>
      <trkpt lat="47.18587" lon="-1.59995">
        <ele>49</ele>
        <time>2021-04-12T11:50:29.000Z</time>
      </trkpt>
      <trkpt lat="47.18593" lon="-1.59977">
        <ele>50</ele>
        <time>2021-04-12T11:50:31.000Z</time>
      </trkpt>
      <trkpt lat="47.18598" lon="-1.5996">
        <ele>49</ele>
        <time>2021-04-12T11:50:33.000Z</time>
      </trkpt>
      <trkpt lat="47.18603" lon="-1.59943">
        <ele>49</ele>
        <time>2021-04-12T11:50:35.000Z</time>
      </trkpt>
      <trkpt lat="47.18608" lon="-1.59926">
        <ele>49</ele>
        <time>2021-04-12T11:50:37.000Z</time>
      </trkpt>
      <trkpt lat="47.18612" lon="-1.59909">
        <ele>49</ele>
        <time>2021-04-12T11:50:39.000Z</time>
      </trkpt>
      <trkpt lat="47.18616" lon="-1.59893">
        <ele>49</ele>
        <time>2021-04-12T11:50:41.000Z</time>
      </trkpt>
      <trkpt lat="47.1862" lon="-1.59877">
        <ele>49</ele>
        <time>2021-04-12T11:50:43.000Z</time>
      </trkpt>
      <trkpt lat="47.18622" lon="-1.59861">
        <ele>49</ele>
        <time>2021-04-12T11:50:45.000Z</time>
      </trkpt>
      <trkpt lat="47.18618" lon="-1.59846">
        <ele>49</ele>
        <time>2021-04-12T11:50:47.000Z</time>
      </trkpt>
      <trkpt lat="47.18613" lon="-1.59831">
        <ele>49</ele>
        <time>2021-04-12T11:50:49.000Z</time>
      </trkpt>
      <trkpt lat="47.18619" lon="-1.59819">
        <ele>49</ele>
        <time>2021-04-12T11:50:51.000Z</time>
      </trkpt>
      <trkpt lat="47.18626" lon="-1.59808">
        <ele>49</ele>
        <time>2021-04-12T11:50:55.000Z</time>
      </trkpt>
      <trkpt lat="47.18628" lon="-1.5979">
        <ele>50</ele>
        <time>2021-04-12T11:50:58.000Z</time>
      </trkpt>
      <trkpt lat="47.18633" lon="-1.59773">
        <ele>51</ele>
        <time>2021-04-12T11:51:00.000Z</time>
      </trkpt>
      <trkpt lat="47.18642" lon="-1.5976">
        <ele>50</ele>
        <time>2021-04-12T11:51:02.000Z</time>
      </trkpt>
      <trkpt lat="47.1865" lon="-1.59746">
        <ele>50</ele>
        <time>2021-04-12T11:51:04.000Z</time>
      </trkpt>
      <trkpt lat="47.18654" lon="-1.59728">
        <ele>50</ele>
        <time>2021-04-12T11:51:06.000Z</time>
      </trkpt>
      <trkpt lat="47.18657" lon="-1.59709">
        <ele>50</ele>
        <time>2021-04-12T11:51:08.000Z</time>
      </trkpt>
      <trkpt lat="47.18661" lon="-1.5969">
        <ele>50</ele>
        <time>2021-04-12T11:51:10.000Z</time>
      </trkpt>
      <trkpt lat="47.18665" lon="-1.5967">
        <ele>50</ele>
        <time>2021-04-12T11:51:12.000Z</time>
      </trkpt>
      <trkpt lat="47.1867" lon="-1.59652">
        <ele>50</ele>
        <time>2021-04-12T11:51:14.000Z</time>
      </trkpt>
      <trkpt lat="47.18674" lon="-1.59632">
        <ele>49</ele>
        <time>2021-04-12T11:51:16.000Z</time>
      </trkpt>
      <trkpt lat="47.18677" lon="-1.59612">
        <ele>50</ele>
        <time>2021-04-12T11:51:18.000Z</time>
      </trkpt>
      <trkpt lat="47.18679" lon="-1.59592">
        <ele>49</ele>
        <time>2021-04-12T11:51:20.000Z</time>
      </trkpt>
      <trkpt lat="47.18682" lon="-1.59571">
        <ele>50</ele>
        <time>2021-04-12T11:51:22.000Z</time>
      </trkpt>
      <trkpt lat="47.18684" lon="-1.59552">
        <ele>50</ele>
        <time>2021-04-12T11:51:24.000Z</time>
      </trkpt>
      <trkpt lat="47.18687" lon="-1.59531">
        <ele>50</ele>
        <time>2021-04-12T11:51:26.000Z</time>
      </trkpt>
      <trkpt lat="47.18689" lon="-1.59511">
        <ele>50</ele>
        <time>2021-04-12T11:51:28.000Z</time>
      </trkpt>
      <trkpt lat="47.18691" lon="-1.59491">
        <ele>50</ele>
        <time>2021-04-12T11:51:30.000Z</time>
      </trkpt>
      <trkpt lat="47.18693" lon="-1.59471">
        <ele>51</ele>
        <time>2021-04-12T11:51:32.000Z</time>
      </trkpt>
      <trkpt lat="47.18696" lon="-1.5945">
        <ele>51</ele>
        <time>2021-04-12T11:51:34.000Z</time>
      </trkpt>
      <trkpt lat="47.18698" lon="-1.5943">
        <ele>51</ele>
        <time>2021-04-12T11:51:36.000Z</time>
      </trkpt>
      <trkpt lat="47.187" lon="-1.59409">
        <ele>51</ele>
        <time>2021-04-12T11:51:38.000Z</time>
      </trkpt>
      <trkpt lat="47.18702" lon="-1.59389">
        <ele>51</ele>
        <time>2021-04-12T11:51:40.000Z</time>
      </trkpt>
      <trkpt lat="47.18704" lon="-1.59369">
        <ele>51</ele>
        <time>2021-04-12T11:51:42.000Z</time>
      </trkpt>
      <trkpt lat="47.18706" lon="-1.59348">
        <ele>51</ele>
        <time>2021-04-12T11:51:44.000Z</time>
      </trkpt>
      <trkpt lat="47.18708" lon="-1.59328">
        <ele>51</ele>
        <time>2021-04-12T11:51:46.000Z</time>
      </trkpt>
      <trkpt lat="47.18711" lon="-1.59307">
        <ele>51</ele>
        <time>2021-04-12T11:51:48.000Z</time>
      </trkpt>
      <trkpt lat="47.18713" lon="-1.59287">
        <ele>50</ele>
        <time>2021-04-12T11:51:50.000Z</time>
      </trkpt>
      <trkpt lat="47.18715" lon="-1.59267">
        <ele>51</ele>
        <time>2021-04-12T11:51:52.000Z</time>
      </trkpt>
      <trkpt lat="47.18717" lon="-1.59247">
        <ele>51</ele>
        <time>2021-04-12T11:51:54.000Z</time>
      </trkpt>
      <trkpt lat="47.1872" lon="-1.59226">
        <ele>51</ele>
        <time>2021-04-12T11:51:56.000Z</time>
      </trkpt>
      <trkpt lat="47.18722" lon="-1.59206">
        <ele>51</ele>
        <time>2021-04-12T11:51:58.000Z</time>
      </trkpt>
      <trkpt lat="47.18724" lon="-1.59186">
        <ele>51</ele>
        <time>2021-04-12T11:52:00.000Z</time>
      </trkpt>
      <trkpt lat="47.18726" lon="-1.59165">
        <ele>51</ele>
        <time>2021-04-12T11:52:02.000Z</time>
      </trkpt>
      <trkpt lat="47.18728" lon="-1.59145">
        <ele>51</ele>
        <time>2021-04-12T11:52:04.000Z</time>
      </trkpt>
      <trkpt lat="47.18731" lon="-1.59124">
        <ele>50</ele>
        <time>2021-04-12T11:52:06.000Z</time>
      </trkpt>
      <trkpt lat="47.18733" lon="-1.59105">
        <ele>50</ele>
        <time>2021-04-12T11:52:08.000Z</time>
      </trkpt>
      <trkpt lat="47.18735" lon="-1.59085">
        <ele>50</ele>
        <time>2021-04-12T11:52:10.000Z</time>
      </trkpt>
      <trkpt lat="47.18738" lon="-1.59065">
        <ele>50</ele>
        <time>2021-04-12T11:52:12.000Z</time>
      </trkpt>
      <trkpt lat="47.1874" lon="-1.59045">
        <ele>50</ele>
        <time>2021-04-12T11:52:14.000Z</time>
      </trkpt>
      <trkpt lat="47.18742" lon="-1.59025">
        <ele>50</ele>
        <time>2021-04-12T11:52:16.000Z</time>
      </trkpt>
      <trkpt lat="47.18744" lon="-1.59005">
        <ele>51</ele>
        <time>2021-04-12T11:52:18.000Z</time>
      </trkpt>
      <trkpt lat="47.18746" lon="-1.58986">
        <ele>51</ele>
        <time>2021-04-12T11:52:20.000Z</time>
      </trkpt>
      <trkpt lat="47.18748" lon="-1.58965">
        <ele>51</ele>
        <time>2021-04-12T11:52:22.000Z</time>
      </trkpt>
      <trkpt lat="47.1875" lon="-1.58946">
        <ele>51</ele>
        <time>2021-04-12T11:52:24.000Z</time>
      </trkpt>
      <trkpt lat="47.18752" lon="-1.58926">
        <ele>51</ele>
        <time>2021-04-12T11:52:26.000Z</time>
      </trkpt>
      <trkpt lat="47.18754" lon="-1.58906">
        <ele>51</ele>
        <time>2021-04-12T11:52:28.000Z</time>
      </trkpt>
      <trkpt lat="47.18757" lon="-1.58886">
        <ele>52</ele>
        <time>2021-04-12T11:52:30.000Z</time>
      </trkpt>
      <trkpt lat="47.18759" lon="-1.58866">
        <ele>52</ele>
        <time>2021-04-12T11:52:32.000Z</time>
      </trkpt>
      <trkpt lat="47.18762" lon="-1.58847">
        <ele>52</ele>
        <time>2021-04-12T11:52:34.000Z</time>
      </trkpt>
      <trkpt lat="47.18763" lon="-1.58827">
        <ele>52</ele>
        <time>2021-04-12T11:52:36.000Z</time>
      </trkpt>
      <trkpt lat="47.18764" lon="-1.58807">
        <ele>52</ele>
        <time>2021-04-12T11:52:38.000Z</time>
      </trkpt>
      <trkpt lat="47.18763" lon="-1.58787">
        <ele>52</ele>
        <time>2021-04-12T11:52:40.000Z</time>
      </trkpt>
      <trkpt lat="47.18758" lon="-1.58771">
        <ele>53</ele>
        <time>2021-04-12T11:52:42.000Z</time>
      </trkpt>
      <trkpt lat="47.18755" lon="-1.58751">
        <ele>53</ele>
        <time>2021-04-12T11:52:44.000Z</time>
      </trkpt>
      <trkpt lat="47.18759" lon="-1.5873">
        <ele>53</ele>
        <time>2021-04-12T11:52:46.000Z</time>
      </trkpt>
      <trkpt lat="47.18769" lon="-1.58713">
        <ele>53</ele>
        <time>2021-04-12T11:52:48.000Z</time>
      </trkpt>
      <trkpt lat="47.18779" lon="-1.58699">
        <ele>54</ele>
        <time>2021-04-12T11:52:50.000Z</time>
      </trkpt>
      <trkpt lat="47.18786" lon="-1.58678">
        <ele>54</ele>
        <time>2021-04-12T11:52:52.000Z</time>
      </trkpt>
      <trkpt lat="47.18791" lon="-1.58657">
        <ele>54</ele>
        <time>2021-04-12T11:52:54.000Z</time>
      </trkpt>
      <trkpt lat="47.18796" lon="-1.58637">
        <ele>53</ele>
        <time>2021-04-12T11:52:56.000Z</time>
      </trkpt>
      <trkpt lat="47.18802" lon="-1.58617">
        <ele>52</ele>
        <time>2021-04-12T11:52:58.000Z</time>
      </trkpt>
      <trkpt lat="47.18807" lon="-1.58598">
        <ele>52</ele>
        <time>2021-04-12T11:53:00.000Z</time>
      </trkpt>
      <trkpt lat="47.18812" lon="-1.58579">
        <ele>51</ele>
        <time>2021-04-12T11:53:02.000Z</time>
      </trkpt>
      <trkpt lat="47.18817" lon="-1.5856">
        <ele>51</ele>
        <time>2021-04-12T11:53:04.000Z</time>
      </trkpt>
      <trkpt lat="47.18822" lon="-1.58542">
        <ele>52</ele>
        <time>2021-04-12T11:53:06.000Z</time>
      </trkpt>
      <trkpt lat="47.18827" lon="-1.58523">
        <ele>51</ele>
        <time>2021-04-12T11:53:08.000Z</time>
      </trkpt>
      <trkpt lat="47.18832" lon="-1.58505">
        <ele>52</ele>
        <time>2021-04-12T11:53:10.000Z</time>
      </trkpt>
      <trkpt lat="47.18837" lon="-1.58486">
        <ele>52</ele>
        <time>2021-04-12T11:53:12.000Z</time>
      </trkpt>
      <trkpt lat="47.18843" lon="-1.58468">
        <ele>52</ele>
        <time>2021-04-12T11:53:14.000Z</time>
      </trkpt>
      <trkpt lat="47.18848" lon="-1.58449">
        <ele>52</ele>
        <time>2021-04-12T11:53:16.000Z</time>
      </trkpt>
      <trkpt lat="47.18854" lon="-1.58431">
        <ele>52</ele>
        <time>2021-04-12T11:53:18.000Z</time>
      </trkpt>
      <trkpt lat="47.1886" lon="-1.58413">
        <ele>52</ele>
        <time>2021-04-12T11:53:20.000Z</time>
      </trkpt>
      <trkpt lat="47.18866" lon="-1.58394">
        <ele>52</ele>
        <time>2021-04-12T11:53:22.000Z</time>
      </trkpt>
      <trkpt lat="47.18872" lon="-1.58376">
        <ele>52</ele>
        <time>2021-04-12T11:53:24.000Z</time>
      </trkpt>
      <trkpt lat="47.18878" lon="-1.58357">
        <ele>52</ele>
        <time>2021-04-12T11:53:26.000Z</time>
      </trkpt>
      <trkpt lat="47.18884" lon="-1.58339">
        <ele>52</ele>
        <time>2021-04-12T11:53:28.000Z</time>
      </trkpt>
      <trkpt lat="47.1889" lon="-1.58322">
        <ele>52</ele>
        <time>2021-04-12T11:53:30.000Z</time>
      </trkpt>
      <trkpt lat="47.18895" lon="-1.58305">
        <ele>52</ele>
        <time>2021-04-12T11:53:32.000Z</time>
      </trkpt>
      <trkpt lat="47.18901" lon="-1.58288">
        <ele>52</ele>
        <time>2021-04-12T11:53:34.000Z</time>
      </trkpt>
      <trkpt lat="47.18907" lon="-1.5827">
        <ele>52</ele>
        <time>2021-04-12T11:53:36.000Z</time>
      </trkpt>
      <trkpt lat="47.18914" lon="-1.58252">
        <ele>52</ele>
        <time>2021-04-12T11:53:38.000Z</time>
      </trkpt>
      <trkpt lat="47.1892" lon="-1.58234">
        <ele>52</ele>
        <time>2021-04-12T11:53:40.000Z</time>
      </trkpt>
      <trkpt lat="47.18926" lon="-1.58216">
        <ele>52</ele>
        <time>2021-04-12T11:53:42.000Z</time>
      </trkpt>
      <trkpt lat="47.18932" lon="-1.58198">
        <ele>52</ele>
        <time>2021-04-12T11:53:44.000Z</time>
      </trkpt>
      <trkpt lat="47.18939" lon="-1.5818">
        <ele>52</ele>
        <time>2021-04-12T11:53:46.000Z</time>
      </trkpt>
      <trkpt lat="47.18946" lon="-1.58163">
        <ele>51</ele>
        <time>2021-04-12T11:53:48.000Z</time>
      </trkpt>
      <trkpt lat="47.18952" lon="-1.58145">
        <ele>51</ele>
        <time>2021-04-12T11:53:50.000Z</time>
      </trkpt>
      <trkpt lat="47.18957" lon="-1.58128">
        <ele>51</ele>
        <time>2021-04-12T11:53:52.000Z</time>
      </trkpt>
      <trkpt lat="47.18964" lon="-1.58112">
        <ele>51</ele>
        <time>2021-04-12T11:53:54.000Z</time>
      </trkpt>
      <trkpt lat="47.1897" lon="-1.58094">
        <ele>50</ele>
        <time>2021-04-12T11:53:56.000Z</time>
      </trkpt>
      <trkpt lat="47.18976" lon="-1.58076">
        <ele>50</ele>
        <time>2021-04-12T11:53:58.000Z</time>
      </trkpt>
      <trkpt lat="47.18982" lon="-1.58058">
        <ele>50</ele>
        <time>2021-04-12T11:54:00.000Z</time>
      </trkpt>
      <trkpt lat="47.18988" lon="-1.58038">
        <ele>51</ele>
        <time>2021-04-12T11:54:02.000Z</time>
      </trkpt>
      <trkpt lat="47.18995" lon="-1.5802">
        <ele>51</ele>
        <time>2021-04-12T11:54:04.000Z</time>
      </trkpt>
      <trkpt lat="47.19002" lon="-1.58001">
        <ele>51</ele>
        <time>2021-04-12T11:54:06.000Z</time>
      </trkpt>
      <trkpt lat="47.19009" lon="-1.57984">
        <ele>51</ele>
        <time>2021-04-12T11:54:08.000Z</time>
      </trkpt>
      <trkpt lat="47.19015" lon="-1.57966">
        <ele>51</ele>
        <time>2021-04-12T11:54:10.000Z</time>
      </trkpt>
      <trkpt lat="47.19022" lon="-1.57948">
        <ele>51</ele>
        <time>2021-04-12T11:54:12.000Z</time>
      </trkpt>
      <trkpt lat="47.19027" lon="-1.57931">
        <ele>51</ele>
        <time>2021-04-12T11:54:14.000Z</time>
      </trkpt>
      <trkpt lat="47.19034" lon="-1.57914">
        <ele>52</ele>
        <time>2021-04-12T11:54:16.000Z</time>
      </trkpt>
      <trkpt lat="47.1904" lon="-1.57897">
        <ele>52</ele>
        <time>2021-04-12T11:54:18.000Z</time>
      </trkpt>
      <trkpt lat="47.19046" lon="-1.57878">
        <ele>52</ele>
        <time>2021-04-12T11:54:20.000Z</time>
      </trkpt>
      <trkpt lat="47.19052" lon="-1.5786">
        <ele>52</ele>
        <time>2021-04-12T11:54:22.000Z</time>
      </trkpt>
      <trkpt lat="47.19058" lon="-1.57842">
        <ele>53</ele>
        <time>2021-04-12T11:54:24.000Z</time>
      </trkpt>
      <trkpt lat="47.19065" lon="-1.57823">
        <ele>52</ele>
        <time>2021-04-12T11:54:26.000Z</time>
      </trkpt>
      <trkpt lat="47.19072" lon="-1.57805">
        <ele>52</ele>
        <time>2021-04-12T11:54:28.000Z</time>
      </trkpt>
      <trkpt lat="47.19078" lon="-1.57786">
        <ele>52</ele>
        <time>2021-04-12T11:54:30.000Z</time>
      </trkpt>
      <trkpt lat="47.19084" lon="-1.57768">
        <ele>52</ele>
        <time>2021-04-12T11:54:32.000Z</time>
      </trkpt>
      <trkpt lat="47.19091" lon="-1.5775">
        <ele>52</ele>
        <time>2021-04-12T11:54:34.000Z</time>
      </trkpt>
      <trkpt lat="47.19097" lon="-1.57732">
        <ele>52</ele>
        <time>2021-04-12T11:54:36.000Z</time>
      </trkpt>
      <trkpt lat="47.19104" lon="-1.57713">
        <ele>51</ele>
        <time>2021-04-12T11:54:38.000Z</time>
      </trkpt>
      <trkpt lat="47.1911" lon="-1.57696">
        <ele>52</ele>
        <time>2021-04-12T11:54:40.000Z</time>
      </trkpt>
      <trkpt lat="47.19116" lon="-1.57678">
        <ele>51</ele>
        <time>2021-04-12T11:54:42.000Z</time>
      </trkpt>
      <trkpt lat="47.19123" lon="-1.5766">
        <ele>50</ele>
        <time>2021-04-12T11:54:44.000Z</time>
      </trkpt>
      <trkpt lat="47.1913" lon="-1.57642">
        <ele>50</ele>
        <time>2021-04-12T11:54:46.000Z</time>
      </trkpt>
      <trkpt lat="47.19137" lon="-1.57624">
        <ele>50</ele>
        <time>2021-04-12T11:54:48.000Z</time>
      </trkpt>
      <trkpt lat="47.19143" lon="-1.57606">
        <ele>50</ele>
        <time>2021-04-12T11:54:50.000Z</time>
      </trkpt>
      <trkpt lat="47.19149" lon="-1.57589">
        <ele>50</ele>
        <time>2021-04-12T11:54:52.000Z</time>
      </trkpt>
      <trkpt lat="47.19155" lon="-1.57571">
        <ele>50</ele>
        <time>2021-04-12T11:54:54.000Z</time>
      </trkpt>
      <trkpt lat="47.19161" lon="-1.57554">
        <ele>50</ele>
        <time>2021-04-12T11:54:56.000Z</time>
      </trkpt>
      <trkpt lat="47.19166" lon="-1.57536">
        <ele>50</ele>
        <time>2021-04-12T11:54:58.000Z</time>
      </trkpt>
      <trkpt lat="47.19172" lon="-1.57519">
        <ele>50</ele>
        <time>2021-04-12T11:55:00.000Z</time>
      </trkpt>
      <trkpt lat="47.19179" lon="-1.57501">
        <ele>50</ele>
        <time>2021-04-12T11:55:02.000Z</time>
      </trkpt>
      <trkpt lat="47.19184" lon="-1.57484">
        <ele>50</ele>
        <time>2021-04-12T11:55:04.000Z</time>
      </trkpt>
      <trkpt lat="47.1919" lon="-1.57465">
        <ele>50</ele>
        <time>2021-04-12T11:55:06.000Z</time>
      </trkpt>
      <trkpt lat="47.19195" lon="-1.57446">
        <ele>50</ele>
        <time>2021-04-12T11:55:08.000Z</time>
      </trkpt>
      <trkpt lat="47.192" lon="-1.57427">
        <ele>50</ele>
        <time>2021-04-12T11:55:10.000Z</time>
      </trkpt>
      <trkpt lat="47.19206" lon="-1.57408">
        <ele>50</ele>
        <time>2021-04-12T11:55:12.000Z</time>
      </trkpt>
      <trkpt lat="47.19211" lon="-1.57389">
        <ele>50</ele>
        <time>2021-04-12T11:55:14.000Z</time>
      </trkpt>
      <trkpt lat="47.19216" lon="-1.57369">
        <ele>50</ele>
        <time>2021-04-12T11:55:16.000Z</time>
      </trkpt>
      <trkpt lat="47.19222" lon="-1.5735">
        <ele>50</ele>
        <time>2021-04-12T11:55:18.000Z</time>
      </trkpt>
      <trkpt lat="47.19226" lon="-1.57332">
        <ele>50</ele>
        <time>2021-04-12T11:55:20.000Z</time>
      </trkpt>
      <trkpt lat="47.19229" lon="-1.57313">
        <ele>50</ele>
        <time>2021-04-12T11:55:22.000Z</time>
      </trkpt>
      <trkpt lat="47.19233" lon="-1.57295">
        <ele>49</ele>
        <time>2021-04-12T11:55:24.000Z</time>
      </trkpt>
      <trkpt lat="47.19236" lon="-1.57277">
        <ele>49</ele>
        <time>2021-04-12T11:55:26.000Z</time>
      </trkpt>
      <trkpt lat="47.19238" lon="-1.57258">
        <ele>49</ele>
        <time>2021-04-12T11:55:28.000Z</time>
      </trkpt>
      <trkpt lat="47.1924" lon="-1.5724">
        <ele>49</ele>
        <time>2021-04-12T11:55:30.000Z</time>
      </trkpt>
      <trkpt lat="47.19243" lon="-1.57222">
        <ele>48</ele>
        <time>2021-04-12T11:55:32.000Z</time>
      </trkpt>
      <trkpt lat="47.19246" lon="-1.57204">
        <ele>48</ele>
        <time>2021-04-12T11:55:34.000Z</time>
      </trkpt>
      <trkpt lat="47.19249" lon="-1.57186">
        <ele>47</ele>
        <time>2021-04-12T11:55:36.000Z</time>
      </trkpt>
      <trkpt lat="47.19252" lon="-1.57167">
        <ele>47</ele>
        <time>2021-04-12T11:55:38.000Z</time>
      </trkpt>
      <trkpt lat="47.19254" lon="-1.57148">
        <ele>46</ele>
        <time>2021-04-12T11:55:40.000Z</time>
      </trkpt>
      <trkpt lat="47.19256" lon="-1.57129">
        <ele>46</ele>
        <time>2021-04-12T11:55:42.000Z</time>
      </trkpt>
      <trkpt lat="47.19258" lon="-1.5711">
        <ele>47</ele>
        <time>2021-04-12T11:55:44.000Z</time>
      </trkpt>
      <trkpt lat="47.1926" lon="-1.5709">
        <ele>47</ele>
        <time>2021-04-12T11:55:46.000Z</time>
      </trkpt>
      <trkpt lat="47.1926" lon="-1.5707">
        <ele>48</ele>
        <time>2021-04-12T11:55:48.000Z</time>
      </trkpt>
      <trkpt lat="47.19256" lon="-1.57049">
        <ele>48</ele>
        <time>2021-04-12T11:55:50.000Z</time>
      </trkpt>
      <trkpt lat="47.19261" lon="-1.57027">
        <ele>48</ele>
        <time>2021-04-12T11:55:52.000Z</time>
      </trkpt>
      <trkpt lat="47.19269" lon="-1.5701">
        <ele>48</ele>
        <time>2021-04-12T11:55:54.000Z</time>
      </trkpt>
      <trkpt lat="47.19273" lon="-1.56989">
        <ele>49</ele>
        <time>2021-04-12T11:55:56.000Z</time>
      </trkpt>
      <trkpt lat="47.19276" lon="-1.56967">
        <ele>50</ele>
        <time>2021-04-12T11:55:58.000Z</time>
      </trkpt>
      <trkpt lat="47.19278" lon="-1.56945">
        <ele>49</ele>
        <time>2021-04-12T11:56:00.000Z</time>
      </trkpt>
      <trkpt lat="47.19279" lon="-1.56923">
        <ele>49</ele>
        <time>2021-04-12T11:56:02.000Z</time>
      </trkpt>
      <trkpt lat="47.1928" lon="-1.569">
        <ele>49</ele>
        <time>2021-04-12T11:56:04.000Z</time>
      </trkpt>
      <trkpt lat="47.19282" lon="-1.5688">
        <ele>49</ele>
        <time>2021-04-12T11:56:06.000Z</time>
      </trkpt>
      <trkpt lat="47.19284" lon="-1.56858">
        <ele>49</ele>
        <time>2021-04-12T11:56:08.000Z</time>
      </trkpt>
      <trkpt lat="47.19287" lon="-1.56837">
        <ele>50</ele>
        <time>2021-04-12T11:56:10.000Z</time>
      </trkpt>
      <trkpt lat="47.19288" lon="-1.56814">
        <ele>50</ele>
        <time>2021-04-12T11:56:12.000Z</time>
      </trkpt>
      <trkpt lat="47.19289" lon="-1.56793">
        <ele>50</ele>
        <time>2021-04-12T11:56:14.000Z</time>
      </trkpt>
      <trkpt lat="47.19289" lon="-1.56773">
        <ele>51</ele>
        <time>2021-04-12T11:56:16.000Z</time>
      </trkpt>
      <trkpt lat="47.19289" lon="-1.56753">
        <ele>51</ele>
        <time>2021-04-12T11:56:18.000Z</time>
      </trkpt>
      <trkpt lat="47.19288" lon="-1.56732">
        <ele>51</ele>
        <time>2021-04-12T11:56:20.000Z</time>
      </trkpt>
      <trkpt lat="47.19288" lon="-1.56711">
        <ele>51</ele>
        <time>2021-04-12T11:56:22.000Z</time>
      </trkpt>
      <trkpt lat="47.19287" lon="-1.56691">
        <ele>51</ele>
        <time>2021-04-12T11:56:24.000Z</time>
      </trkpt>
      <trkpt lat="47.19286" lon="-1.56671">
        <ele>51</ele>
        <time>2021-04-12T11:56:26.000Z</time>
      </trkpt>
      <trkpt lat="47.19284" lon="-1.5665">
        <ele>52</ele>
        <time>2021-04-12T11:56:28.000Z</time>
      </trkpt>
      <trkpt lat="47.19283" lon="-1.56629">
        <ele>52</ele>
        <time>2021-04-12T11:56:30.000Z</time>
      </trkpt>
      <trkpt lat="47.19281" lon="-1.56609">
        <ele>52</ele>
        <time>2021-04-12T11:56:32.000Z</time>
      </trkpt>
      <trkpt lat="47.1928" lon="-1.56589">
        <ele>53</ele>
        <time>2021-04-12T11:56:34.000Z</time>
      </trkpt>
      <trkpt lat="47.19278" lon="-1.56569">
        <ele>53</ele>
        <time>2021-04-12T11:56:36.000Z</time>
      </trkpt>
      <trkpt lat="47.19276" lon="-1.56549">
        <ele>53</ele>
        <time>2021-04-12T11:56:38.000Z</time>
      </trkpt>
      <trkpt lat="47.19273" lon="-1.56528">
        <ele>52</ele>
        <time>2021-04-12T11:56:40.000Z</time>
      </trkpt>
      <trkpt lat="47.19271" lon="-1.56509">
        <ele>52</ele>
        <time>2021-04-12T11:56:42.000Z</time>
      </trkpt>
      <trkpt lat="47.19269" lon="-1.56489">
        <ele>52</ele>
        <time>2021-04-12T11:56:44.000Z</time>
      </trkpt>
      <trkpt lat="47.19267" lon="-1.56469">
        <ele>51</ele>
        <time>2021-04-12T11:56:46.000Z</time>
      </trkpt>
      <trkpt lat="47.19265" lon="-1.56449">
        <ele>51</ele>
        <time>2021-04-12T11:56:48.000Z</time>
      </trkpt>
      <trkpt lat="47.19264" lon="-1.56429">
        <ele>51</ele>
        <time>2021-04-12T11:56:50.000Z</time>
      </trkpt>
      <trkpt lat="47.19263" lon="-1.56409">
        <ele>51</ele>
        <time>2021-04-12T11:56:52.000Z</time>
      </trkpt>
      <trkpt lat="47.19261" lon="-1.56389">
        <ele>51</ele>
        <time>2021-04-12T11:56:54.000Z</time>
      </trkpt>
      <trkpt lat="47.19259" lon="-1.5637">
        <ele>51</ele>
        <time>2021-04-12T11:56:56.000Z</time>
      </trkpt>
      <trkpt lat="47.19255" lon="-1.56352">
        <ele>51</ele>
        <time>2021-04-12T11:56:58.000Z</time>
      </trkpt>
      <trkpt lat="47.1925" lon="-1.56338">
        <ele>51</ele>
        <time>2021-04-12T11:57:00.000Z</time>
      </trkpt>
      <trkpt lat="47.19244" lon="-1.56327">
        <ele>52</ele>
        <time>2021-04-12T11:57:02.000Z</time>
      </trkpt>
      <trkpt lat="47.19236" lon="-1.56314">
        <ele>52</ele>
        <time>2021-04-12T11:57:04.000Z</time>
      </trkpt>
      <trkpt lat="47.19233" lon="-1.56296">
        <ele>52</ele>
        <time>2021-04-12T11:57:06.000Z</time>
      </trkpt>
      <trkpt lat="47.19235" lon="-1.56276">
        <ele>52</ele>
        <time>2021-04-12T11:57:08.000Z</time>
      </trkpt>
      <trkpt lat="47.19242" lon="-1.56258">
        <ele>52</ele>
        <time>2021-04-12T11:57:10.000Z</time>
      </trkpt>
      <trkpt lat="47.19252" lon="-1.56248">
        <ele>52</ele>
        <time>2021-04-12T11:57:12.000Z</time>
      </trkpt>
      <trkpt lat="47.19266" lon="-1.56245">
        <ele>52</ele>
        <time>2021-04-12T11:57:14.000Z</time>
      </trkpt>
      <trkpt lat="47.19279" lon="-1.56252">
        <ele>51</ele>
        <time>2021-04-12T11:57:16.000Z</time>
      </trkpt>
      <trkpt lat="47.19291" lon="-1.56263">
        <ele>51</ele>
        <time>2021-04-12T11:57:18.000Z</time>
      </trkpt>
      <trkpt lat="47.19306" lon="-1.56265">
        <ele>51</ele>
        <time>2021-04-12T11:57:20.000Z</time>
      </trkpt>
      <trkpt lat="47.19322" lon="-1.56263">
        <ele>51</ele>
        <time>2021-04-12T11:57:22.000Z</time>
      </trkpt>
      <trkpt lat="47.19336" lon="-1.56259">
        <ele>51</ele>
        <time>2021-04-12T11:57:24.000Z</time>
      </trkpt>
      <trkpt lat="47.19351" lon="-1.56256">
        <ele>51</ele>
        <time>2021-04-12T11:57:26.000Z</time>
      </trkpt>
      <trkpt lat="47.19366" lon="-1.56253">
        <ele>51</ele>
        <time>2021-04-12T11:57:28.000Z</time>
      </trkpt>
      <trkpt lat="47.19381" lon="-1.56249">
        <ele>51</ele>
        <time>2021-04-12T11:57:30.000Z</time>
      </trkpt>
      <trkpt lat="47.19395" lon="-1.56247">
        <ele>51</ele>
        <time>2021-04-12T11:57:32.000Z</time>
      </trkpt>
      <trkpt lat="47.19409" lon="-1.56245">
        <ele>51</ele>
        <time>2021-04-12T11:57:34.000Z</time>
      </trkpt>
      <trkpt lat="47.19423" lon="-1.56243">
        <ele>51</ele>
        <time>2021-04-12T11:57:36.000Z</time>
      </trkpt>
      <trkpt lat="47.19438" lon="-1.56241">
        <ele>51</ele>
        <time>2021-04-12T11:57:38.000Z</time>
      </trkpt>
      <trkpt lat="47.19452" lon="-1.56238">
        <ele>50</ele>
        <time>2021-04-12T11:57:40.000Z</time>
      </trkpt>
      <trkpt lat="47.19465" lon="-1.56235">
        <ele>51</ele>
        <time>2021-04-12T11:57:42.000Z</time>
      </trkpt>
      <trkpt lat="47.19479" lon="-1.56232">
        <ele>50</ele>
        <time>2021-04-12T11:57:44.000Z</time>
      </trkpt>
      <trkpt lat="47.19492" lon="-1.56229">
        <ele>51</ele>
        <time>2021-04-12T11:57:46.000Z</time>
      </trkpt>
      <trkpt lat="47.19506" lon="-1.56226">
        <ele>50</ele>
        <time>2021-04-12T11:57:48.000Z</time>
      </trkpt>
      <trkpt lat="47.1952" lon="-1.56223">
        <ele>50</ele>
        <time>2021-04-12T11:57:50.000Z</time>
      </trkpt>
      <trkpt lat="47.19534" lon="-1.56221">
        <ele>50</ele>
        <time>2021-04-12T11:57:52.000Z</time>
      </trkpt>
      <trkpt lat="47.19547" lon="-1.56217">
        <ele>50</ele>
        <time>2021-04-12T11:57:54.000Z</time>
      </trkpt>
      <trkpt lat="47.19559" lon="-1.56215">
        <ele>50</ele>
        <time>2021-04-12T11:57:56.000Z</time>
      </trkpt>
      <trkpt lat="47.19568" lon="-1.56214">
        <ele>50</ele>
        <time>2021-04-12T11:57:58.000Z</time>
      </trkpt>
      <trkpt lat="47.19578" lon="-1.56213">
        <ele>50</ele>
        <time>2021-04-12T11:58:00.000Z</time>
      </trkpt>
      <trkpt lat="47.1959" lon="-1.56211">
        <ele>50</ele>
        <time>2021-04-12T11:58:02.000Z</time>
      </trkpt>
      <trkpt lat="47.19604" lon="-1.56208">
        <ele>50</ele>
        <time>2021-04-12T11:58:04.000Z</time>
      </trkpt>
      <trkpt lat="47.19619" lon="-1.56205">
        <ele>50</ele>
        <time>2021-04-12T11:58:06.000Z</time>
      </trkpt>
      <trkpt lat="47.19633" lon="-1.56203">
        <ele>50</ele>
        <time>2021-04-12T11:58:08.000Z</time>
      </trkpt>
      <trkpt lat="47.19648" lon="-1.56201">
        <ele>50</ele>
        <time>2021-04-12T11:58:10.000Z</time>
      </trkpt>
      <trkpt lat="47.19661" lon="-1.56199">
        <ele>50</ele>
        <time>2021-04-12T11:58:12.000Z</time>
      </trkpt>
      <trkpt lat="47.19675" lon="-1.562">
        <ele>51</ele>
        <time>2021-04-12T11:58:14.000Z</time>
      </trkpt>
      <trkpt lat="47.19689" lon="-1.56199">
        <ele>52</ele>
        <time>2021-04-12T11:58:16.000Z</time>
      </trkpt>
      <trkpt lat="47.19703" lon="-1.56197">
        <ele>52</ele>
        <time>2021-04-12T11:58:18.000Z</time>
      </trkpt>
      <trkpt lat="47.19717" lon="-1.56194">
        <ele>53</ele>
        <time>2021-04-12T11:58:20.000Z</time>
      </trkpt>
      <trkpt lat="47.1973" lon="-1.56192">
        <ele>53</ele>
        <time>2021-04-12T11:58:22.000Z</time>
      </trkpt>
      <trkpt lat="47.19744" lon="-1.56189">
        <ele>54</ele>
        <time>2021-04-12T11:58:24.000Z</time>
      </trkpt>
      <trkpt lat="47.19758" lon="-1.56186">
        <ele>55</ele>
        <time>2021-04-12T11:58:26.000Z</time>
      </trkpt>
      <trkpt lat="47.19771" lon="-1.56183">
        <ele>55</ele>
        <time>2021-04-12T11:58:28.000Z</time>
      </trkpt>
      <trkpt lat="47.19784" lon="-1.56181">
        <ele>55</ele>
        <time>2021-04-12T11:58:30.000Z</time>
      </trkpt>
      <trkpt lat="47.19796" lon="-1.56178">
        <ele>56</ele>
        <time>2021-04-12T11:58:32.000Z</time>
      </trkpt>
      <trkpt lat="47.19809" lon="-1.56176">
        <ele>56</ele>
        <time>2021-04-12T11:58:34.000Z</time>
      </trkpt>
      <trkpt lat="47.19822" lon="-1.56174">
        <ele>56</ele>
        <time>2021-04-12T11:58:36.000Z</time>
      </trkpt>
      <trkpt lat="47.19836" lon="-1.56171">
        <ele>56</ele>
        <time>2021-04-12T11:58:38.000Z</time>
      </trkpt>
      <trkpt lat="47.19849" lon="-1.56169">
        <ele>57</ele>
        <time>2021-04-12T11:58:40.000Z</time>
      </trkpt>
      <trkpt lat="47.19862" lon="-1.56167">
        <ele>57</ele>
        <time>2021-04-12T11:58:42.000Z</time>
      </trkpt>
      <trkpt lat="47.19876" lon="-1.56164">
        <ele>57</ele>
        <time>2021-04-12T11:58:44.000Z</time>
      </trkpt>
      <trkpt lat="47.1989" lon="-1.56161">
        <ele>56</ele>
        <time>2021-04-12T11:58:46.000Z</time>
      </trkpt>
      <trkpt lat="47.19905" lon="-1.56159">
        <ele>56</ele>
        <time>2021-04-12T11:58:48.000Z</time>
      </trkpt>
      <trkpt lat="47.1992" lon="-1.56159">
        <ele>55</ele>
        <time>2021-04-12T11:58:50.000Z</time>
      </trkpt>
      <trkpt lat="47.19936" lon="-1.56158">
        <ele>54</ele>
        <time>2021-04-12T11:58:52.000Z</time>
      </trkpt>
      <trkpt lat="47.19953" lon="-1.56155">
        <ele>54</ele>
        <time>2021-04-12T11:58:54.000Z</time>
      </trkpt>
      <trkpt lat="47.19963" lon="-1.56152">
        <ele>53</ele>
        <time>2021-04-12T11:58:56.000Z</time>
      </trkpt>
      <trkpt lat="47.19971" lon="-1.56162">
        <ele>53</ele>
        <time>2021-04-12T11:59:02.000Z</time>
      </trkpt>
      <trkpt lat="47.19976" lon="-1.56175">
        <ele>54</ele>
        <time>2021-04-12T11:59:04.000Z</time>
      </trkpt>
      <trkpt lat="47.19978" lon="-1.56195">
        <ele>54</ele>
        <time>2021-04-12T11:59:06.000Z</time>
      </trkpt>
      <trkpt lat="47.19978" lon="-1.56217">
        <ele>54</ele>
        <time>2021-04-12T11:59:08.000Z</time>
      </trkpt>
      <trkpt lat="47.19978" lon="-1.56239">
        <ele>54</ele>
        <time>2021-04-12T11:59:10.000Z</time>
      </trkpt>
      <trkpt lat="47.19978" lon="-1.56261">
        <ele>53</ele>
        <time>2021-04-12T11:59:12.000Z</time>
      </trkpt>
      <trkpt lat="47.19978" lon="-1.56282">
        <ele>53</ele>
        <time>2021-04-12T11:59:14.000Z</time>
      </trkpt>
      <trkpt lat="47.19978" lon="-1.56303">
        <ele>53</ele>
        <time>2021-04-12T11:59:16.000Z</time>
      </trkpt>
      <trkpt lat="47.19977" lon="-1.56323">
        <ele>53</ele>
        <time>2021-04-12T11:59:18.000Z</time>
      </trkpt>
      <trkpt lat="47.19975" lon="-1.56344">
        <ele>53</ele>
        <time>2021-04-12T11:59:20.000Z</time>
      </trkpt>
      <trkpt lat="47.19974" lon="-1.56365">
        <ele>53</ele>
        <time>2021-04-12T11:59:22.000Z</time>
      </trkpt>
      <trkpt lat="47.19973" lon="-1.56387">
        <ele>52</ele>
        <time>2021-04-12T11:59:24.000Z</time>
      </trkpt>
      <trkpt lat="47.1997" lon="-1.56408">
        <ele>52</ele>
        <time>2021-04-12T11:59:26.000Z</time>
      </trkpt>
      <trkpt lat="47.19966" lon="-1.56427">
        <ele>52</ele>
        <time>2021-04-12T11:59:28.000Z</time>
      </trkpt>
      <trkpt lat="47.19961" lon="-1.56447">
        <ele>52</ele>
        <time>2021-04-12T11:59:30.000Z</time>
      </trkpt>
      <trkpt lat="47.19957" lon="-1.56467">
        <ele>52</ele>
        <time>2021-04-12T11:59:32.000Z</time>
      </trkpt>
      <trkpt lat="47.19955" lon="-1.56488">
        <ele>52</ele>
        <time>2021-04-12T11:59:34.000Z</time>
      </trkpt>
      <trkpt lat="47.19954" lon="-1.5651">
        <ele>52</ele>
        <time>2021-04-12T11:59:36.000Z</time>
      </trkpt>
      <trkpt lat="47.19953" lon="-1.56531">
        <ele>52</ele>
        <time>2021-04-12T11:59:38.000Z</time>
      </trkpt>
      <trkpt lat="47.19953" lon="-1.56552">
        <ele>52</ele>
        <time>2021-04-12T11:59:40.000Z</time>
      </trkpt>
      <trkpt lat="47.19953" lon="-1.56574">
        <ele>52</ele>
        <time>2021-04-12T11:59:42.000Z</time>
      </trkpt>
      <trkpt lat="47.19953" lon="-1.56595">
        <ele>52</ele>
        <time>2021-04-12T11:59:44.000Z</time>
      </trkpt>
      <trkpt lat="47.19953" lon="-1.56617">
        <ele>52</ele>
        <time>2021-04-12T11:59:46.000Z</time>
      </trkpt>
      <trkpt lat="47.19952" lon="-1.56638">
        <ele>51</ele>
        <time>2021-04-12T11:59:48.000Z</time>
      </trkpt>
      <trkpt lat="47.19953" lon="-1.56659">
        <ele>51</ele>
        <time>2021-04-12T11:59:50.000Z</time>
      </trkpt>
      <trkpt lat="47.19952" lon="-1.5668">
        <ele>51</ele>
        <time>2021-04-12T11:59:52.000Z</time>
      </trkpt>
      <trkpt lat="47.19952" lon="-1.567">
        <ele>52</ele>
        <time>2021-04-12T11:59:54.000Z</time>
      </trkpt>
      <trkpt lat="47.19952" lon="-1.56721">
        <ele>52</ele>
        <time>2021-04-12T11:59:56.000Z</time>
      </trkpt>
      <trkpt lat="47.19952" lon="-1.56742">
        <ele>52</ele>
        <time>2021-04-12T11:59:58.000Z</time>
      </trkpt>
      <trkpt lat="47.19953" lon="-1.56763">
        <ele>52</ele>
        <time>2021-04-12T12:00:00.000Z</time>
      </trkpt>
      <trkpt lat="47.19953" lon="-1.56783">
        <ele>51</ele>
        <time>2021-04-12T12:00:02.000Z</time>
      </trkpt>
      <trkpt lat="47.19953" lon="-1.56803">
        <ele>52</ele>
        <time>2021-04-12T12:00:04.000Z</time>
      </trkpt>
      <trkpt lat="47.19953" lon="-1.56822">
        <ele>52</ele>
        <time>2021-04-12T12:00:06.000Z</time>
      </trkpt>
      <trkpt lat="47.19953" lon="-1.56842">
        <ele>52</ele>
        <time>2021-04-12T12:00:08.000Z</time>
      </trkpt>
      <trkpt lat="47.19952" lon="-1.56863">
        <ele>52</ele>
        <time>2021-04-12T12:00:10.000Z</time>
      </trkpt>
      <trkpt lat="47.19953" lon="-1.56883">
        <ele>52</ele>
        <time>2021-04-12T12:00:12.000Z</time>
      </trkpt>
      <trkpt lat="47.19952" lon="-1.56902">
        <ele>52</ele>
        <time>2021-04-12T12:00:14.000Z</time>
      </trkpt>
      <trkpt lat="47.19952" lon="-1.56923">
        <ele>52</ele>
        <time>2021-04-12T12:00:16.000Z</time>
      </trkpt>
      <trkpt lat="47.19953" lon="-1.56944">
        <ele>52</ele>
        <time>2021-04-12T12:00:18.000Z</time>
      </trkpt>
      <trkpt lat="47.19952" lon="-1.56964">
        <ele>52</ele>
        <time>2021-04-12T12:00:20.000Z</time>
      </trkpt>
      <trkpt lat="47.19952" lon="-1.56986">
        <ele>53</ele>
        <time>2021-04-12T12:00:22.000Z</time>
      </trkpt>
      <trkpt lat="47.19952" lon="-1.57007">
        <ele>53</ele>
        <time>2021-04-12T12:00:24.000Z</time>
      </trkpt>
      <trkpt lat="47.19952" lon="-1.57027">
        <ele>53</ele>
        <time>2021-04-12T12:00:26.000Z</time>
      </trkpt>
      <trkpt lat="47.19954" lon="-1.57047">
        <ele>52</ele>
        <time>2021-04-12T12:00:28.000Z</time>
      </trkpt>
      <trkpt lat="47.1996" lon="-1.57064">
        <ele>53</ele>
        <time>2021-04-12T12:00:30.000Z</time>
      </trkpt>
      <trkpt lat="47.19964" lon="-1.57083">
        <ele>53</ele>
        <time>2021-04-12T12:00:32.000Z</time>
      </trkpt>
      <trkpt lat="47.19969" lon="-1.57101">
        <ele>53</ele>
        <time>2021-04-12T12:00:34.000Z</time>
      </trkpt>
      <trkpt lat="47.19973" lon="-1.5712">
        <ele>53</ele>
        <time>2021-04-12T12:00:36.000Z</time>
      </trkpt>
      <trkpt lat="47.19977" lon="-1.57139">
        <ele>53</ele>
        <time>2021-04-12T12:00:38.000Z</time>
      </trkpt>
      <trkpt lat="47.1998" lon="-1.57159">
        <ele>53</ele>
        <time>2021-04-12T12:00:40.000Z</time>
      </trkpt>
      <trkpt lat="47.19981" lon="-1.57179">
        <ele>53</ele>
        <time>2021-04-12T12:00:42.000Z</time>
      </trkpt>
      <trkpt lat="47.19981" lon="-1.57199">
        <ele>53</ele>
        <time>2021-04-12T12:00:44.000Z</time>
      </trkpt>
      <trkpt lat="47.19981" lon="-1.57219">
        <ele>53</ele>
        <time>2021-04-12T12:00:46.000Z</time>
      </trkpt>
      <trkpt lat="47.19982" lon="-1.57238">
        <ele>53</ele>
        <time>2021-04-12T12:00:48.000Z</time>
      </trkpt>
      <trkpt lat="47.19987" lon="-1.57257">
        <ele>53</ele>
        <time>2021-04-12T12:00:50.000Z</time>
      </trkpt>
      <trkpt lat="47.19989" lon="-1.57278">
        <ele>53</ele>
        <time>2021-04-12T12:00:52.000Z</time>
      </trkpt>
      <trkpt lat="47.1999" lon="-1.57299">
        <ele>52</ele>
        <time>2021-04-12T12:00:54.000Z</time>
      </trkpt>
      <trkpt lat="47.19997" lon="-1.57313">
        <ele>53</ele>
        <time>2021-04-12T12:00:56.000Z</time>
      </trkpt>
      <trkpt lat="47.20011" lon="-1.57311">
        <ele>53</ele>
        <time>2021-04-12T12:00:58.000Z</time>
      </trkpt>
      <trkpt lat="47.20025" lon="-1.57305">
        <ele>53</ele>
        <time>2021-04-12T12:01:00.000Z</time>
      </trkpt>
      <trkpt lat="47.20038" lon="-1.57297">
        <ele>53</ele>
        <time>2021-04-12T12:01:02.000Z</time>
      </trkpt>
      <trkpt lat="47.2005" lon="-1.57289">
        <ele>53</ele>
        <time>2021-04-12T12:01:04.000Z</time>
      </trkpt>
      <trkpt lat="47.20061" lon="-1.57279">
        <ele>53</ele>
        <time>2021-04-12T12:01:06.000Z</time>
      </trkpt>
      <trkpt lat="47.20074" lon="-1.57269">
        <ele>52</ele>
        <time>2021-04-12T12:01:08.000Z</time>
      </trkpt>
      <trkpt lat="47.20086" lon="-1.5726">
        <ele>51</ele>
        <time>2021-04-12T12:01:10.000Z</time>
      </trkpt>
      <trkpt lat="47.20099" lon="-1.57252">
        <ele>51</ele>
        <time>2021-04-12T12:01:12.000Z</time>
      </trkpt>
      <trkpt lat="47.20111" lon="-1.57243">
        <ele>51</ele>
        <time>2021-04-12T12:01:14.000Z</time>
      </trkpt>
      <trkpt lat="47.20123" lon="-1.57234">
        <ele>51</ele>
        <time>2021-04-12T12:01:16.000Z</time>
      </trkpt>
      <trkpt lat="47.20136" lon="-1.57225">
        <ele>51</ele>
        <time>2021-04-12T12:01:18.000Z</time>
      </trkpt>
      <trkpt lat="47.20148" lon="-1.57217">
        <ele>51</ele>
        <time>2021-04-12T12:01:20.000Z</time>
      </trkpt>
      <trkpt lat="47.2016" lon="-1.57209">
        <ele>51</ele>
        <time>2021-04-12T12:01:22.000Z</time>
      </trkpt>
      <trkpt lat="47.20172" lon="-1.572">
        <ele>51</ele>
        <time>2021-04-12T12:01:24.000Z</time>
      </trkpt>
      <trkpt lat="47.20184" lon="-1.57192">
        <ele>51</ele>
        <time>2021-04-12T12:01:26.000Z</time>
      </trkpt>
      <trkpt lat="47.20197" lon="-1.57184">
        <ele>51</ele>
        <time>2021-04-12T12:01:28.000Z</time>
      </trkpt>
      <trkpt lat="47.20209" lon="-1.57176">
        <ele>51</ele>
        <time>2021-04-12T12:01:30.000Z</time>
      </trkpt>
      <trkpt lat="47.20221" lon="-1.57168">
        <ele>51</ele>
        <time>2021-04-12T12:01:32.000Z</time>
      </trkpt>
      <trkpt lat="47.20233" lon="-1.5716">
        <ele>51</ele>
        <time>2021-04-12T12:01:34.000Z</time>
      </trkpt>
      <trkpt lat="47.20246" lon="-1.57153">
        <ele>51</ele>
        <time>2021-04-12T12:01:36.000Z</time>
      </trkpt>
      <trkpt lat="47.2026" lon="-1.57145">
        <ele>51</ele>
        <time>2021-04-12T12:01:38.000Z</time>
      </trkpt>
      <trkpt lat="47.20273" lon="-1.57136">
        <ele>51</ele>
        <time>2021-04-12T12:01:40.000Z</time>
      </trkpt>
      <trkpt lat="47.20286" lon="-1.57125">
        <ele>50</ele>
        <time>2021-04-12T12:01:42.000Z</time>
      </trkpt>
      <trkpt lat="47.20299" lon="-1.57117">
        <ele>50</ele>
        <time>2021-04-12T12:01:44.000Z</time>
      </trkpt>
      <trkpt lat="47.20312" lon="-1.57108">
        <ele>51</ele>
        <time>2021-04-12T12:01:46.000Z</time>
      </trkpt>
      <trkpt lat="47.20325" lon="-1.571">
        <ele>51</ele>
        <time>2021-04-12T12:01:48.000Z</time>
      </trkpt>
      <trkpt lat="47.20337" lon="-1.57091">
        <ele>51</ele>
        <time>2021-04-12T12:01:50.000Z</time>
      </trkpt>
      <trkpt lat="47.20347" lon="-1.57077">
        <ele>51</ele>
        <time>2021-04-12T12:01:52.000Z</time>
      </trkpt>
      <trkpt lat="47.20354" lon="-1.57059">
        <ele>51</ele>
        <time>2021-04-12T12:01:54.000Z</time>
      </trkpt>
      <trkpt lat="47.2036" lon="-1.57041">
        <ele>51</ele>
        <time>2021-04-12T12:01:56.000Z</time>
      </trkpt>
      <trkpt lat="47.20365" lon="-1.57021">
        <ele>50</ele>
        <time>2021-04-12T12:01:58.000Z</time>
      </trkpt>
      <trkpt lat="47.20368" lon="-1.57">
        <ele>50</ele>
        <time>2021-04-12T12:02:00.000Z</time>
      </trkpt>
      <trkpt lat="47.2037" lon="-1.56979">
        <ele>51</ele>
        <time>2021-04-12T12:02:02.000Z</time>
      </trkpt>
      <trkpt lat="47.20372" lon="-1.56958">
        <ele>51</ele>
        <time>2021-04-12T12:02:04.000Z</time>
      </trkpt>
      <trkpt lat="47.20374" lon="-1.56939">
        <ele>50</ele>
        <time>2021-04-12T12:02:06.000Z</time>
      </trkpt>
      <trkpt lat="47.20376" lon="-1.56919">
        <ele>51</ele>
        <time>2021-04-12T12:02:08.000Z</time>
      </trkpt>
      <trkpt lat="47.20378" lon="-1.56899">
        <ele>51</ele>
        <time>2021-04-12T12:02:10.000Z</time>
      </trkpt>
      <trkpt lat="47.2038" lon="-1.56881">
        <ele>51</ele>
        <time>2021-04-12T12:02:12.000Z</time>
      </trkpt>
      <trkpt lat="47.20382" lon="-1.56863">
        <ele>51</ele>
        <time>2021-04-12T12:02:14.000Z</time>
      </trkpt>
      <trkpt lat="47.20383" lon="-1.56842">
        <ele>50</ele>
        <time>2021-04-12T12:02:16.000Z</time>
      </trkpt>
      <trkpt lat="47.20387" lon="-1.56821">
        <ele>51</ele>
        <time>2021-04-12T12:02:18.000Z</time>
      </trkpt>
      <trkpt lat="47.2039" lon="-1.568">
        <ele>51</ele>
        <time>2021-04-12T12:02:20.000Z</time>
      </trkpt>
      <trkpt lat="47.20391" lon="-1.56781">
        <ele>51</ele>
        <time>2021-04-12T12:02:22.000Z</time>
      </trkpt>
      <trkpt lat="47.20395" lon="-1.56762">
        <ele>51</ele>
        <time>2021-04-12T12:02:24.000Z</time>
      </trkpt>
      <trkpt lat="47.20398" lon="-1.56744">
        <ele>51</ele>
        <time>2021-04-12T12:02:26.000Z</time>
      </trkpt>
      <trkpt lat="47.20401" lon="-1.56725">
        <ele>51</ele>
        <time>2021-04-12T12:02:28.000Z</time>
      </trkpt>
      <trkpt lat="47.20402" lon="-1.56705">
        <ele>51</ele>
        <time>2021-04-12T12:02:30.000Z</time>
      </trkpt>
      <trkpt lat="47.20404" lon="-1.56685">
        <ele>51</ele>
        <time>2021-04-12T12:02:32.000Z</time>
      </trkpt>
      <trkpt lat="47.20405" lon="-1.56665">
        <ele>52</ele>
        <time>2021-04-12T12:02:34.000Z</time>
      </trkpt>
      <trkpt lat="47.20407" lon="-1.56646">
        <ele>50</ele>
        <time>2021-04-12T12:02:36.000Z</time>
      </trkpt>
      <trkpt lat="47.20409" lon="-1.56627">
        <ele>50</ele>
        <time>2021-04-12T12:02:38.000Z</time>
      </trkpt>
      <trkpt lat="47.20411" lon="-1.56606">
        <ele>50</ele>
        <time>2021-04-12T12:02:40.000Z</time>
      </trkpt>
      <trkpt lat="47.20413" lon="-1.56586">
        <ele>51</ele>
        <time>2021-04-12T12:02:42.000Z</time>
      </trkpt>
      <trkpt lat="47.20415" lon="-1.56566">
        <ele>52</ele>
        <time>2021-04-12T12:02:44.000Z</time>
      </trkpt>
      <trkpt lat="47.20416" lon="-1.56546">
        <ele>52</ele>
        <time>2021-04-12T12:02:46.000Z</time>
      </trkpt>
      <trkpt lat="47.20418" lon="-1.56526">
        <ele>50</ele>
        <time>2021-04-12T12:02:48.000Z</time>
      </trkpt>
      <trkpt lat="47.20419" lon="-1.56506">
        <ele>50</ele>
        <time>2021-04-12T12:02:50.000Z</time>
      </trkpt>
      <trkpt lat="47.2042" lon="-1.56486">
        <ele>49</ele>
        <time>2021-04-12T12:02:52.000Z</time>
      </trkpt>
      <trkpt lat="47.20423" lon="-1.56466">
        <ele>49</ele>
        <time>2021-04-12T12:02:54.000Z</time>
      </trkpt>
      <trkpt lat="47.20425" lon="-1.56445">
        <ele>49</ele>
        <time>2021-04-12T12:02:56.000Z</time>
      </trkpt>
      <trkpt lat="47.20427" lon="-1.56425">
        <ele>50</ele>
        <time>2021-04-12T12:02:58.000Z</time>
      </trkpt>
      <trkpt lat="47.20429" lon="-1.56405">
        <ele>50</ele>
        <time>2021-04-12T12:03:00.000Z</time>
      </trkpt>
      <trkpt lat="47.20431" lon="-1.56386">
        <ele>51</ele>
        <time>2021-04-12T12:03:02.000Z</time>
      </trkpt>
      <trkpt lat="47.20434" lon="-1.56366">
        <ele>50</ele>
        <time>2021-04-12T12:03:04.000Z</time>
      </trkpt>
      <trkpt lat="47.20435" lon="-1.56347">
        <ele>51</ele>
        <time>2021-04-12T12:03:06.000Z</time>
      </trkpt>
      <trkpt lat="47.20437" lon="-1.56328">
        <ele>51</ele>
        <time>2021-04-12T12:03:08.000Z</time>
      </trkpt>
      <trkpt lat="47.20439" lon="-1.5631">
        <ele>52</ele>
        <time>2021-04-12T12:03:10.000Z</time>
      </trkpt>
      <trkpt lat="47.2044" lon="-1.56292">
        <ele>51</ele>
        <time>2021-04-12T12:03:12.000Z</time>
      </trkpt>
      <trkpt lat="47.2044" lon="-1.56273">
        <ele>51</ele>
        <time>2021-04-12T12:03:14.000Z</time>
      </trkpt>
      <trkpt lat="47.20438" lon="-1.56256">
        <ele>50</ele>
        <time>2021-04-12T12:03:16.000Z</time>
      </trkpt>
      <trkpt lat="47.20441" lon="-1.56239">
        <ele>50</ele>
        <time>2021-04-12T12:03:18.000Z</time>
      </trkpt>
      <trkpt lat="47.20454" lon="-1.56232">
        <ele>50</ele>
        <time>2021-04-12T12:03:20.000Z</time>
      </trkpt>
      <trkpt lat="47.20467" lon="-1.56242">
        <ele>51</ele>
        <time>2021-04-12T12:03:22.000Z</time>
      </trkpt>
      <trkpt lat="47.20479" lon="-1.5625">
        <ele>52</ele>
        <time>2021-04-12T12:03:24.000Z</time>
      </trkpt>
      <trkpt lat="47.2049" lon="-1.56261">
        <ele>53</ele>
        <time>2021-04-12T12:03:26.000Z</time>
      </trkpt>
      <trkpt lat="47.20501" lon="-1.56273">
        <ele>52</ele>
        <time>2021-04-12T12:03:28.000Z</time>
      </trkpt>
      <trkpt lat="47.20513" lon="-1.56284">
        <ele>52</ele>
        <time>2021-04-12T12:03:30.000Z</time>
      </trkpt>
      <trkpt lat="47.20524" lon="-1.56295">
        <ele>52</ele>
        <time>2021-04-12T12:03:32.000Z</time>
      </trkpt>
      <trkpt lat="47.20536" lon="-1.56306">
        <ele>52</ele>
        <time>2021-04-12T12:03:34.000Z</time>
      </trkpt>
      <trkpt lat="47.20547" lon="-1.56317">
        <ele>52</ele>
        <time>2021-04-12T12:03:36.000Z</time>
      </trkpt>
      <trkpt lat="47.2056" lon="-1.56324">
        <ele>51</ele>
        <time>2021-04-12T12:03:38.000Z</time>
      </trkpt>
      <trkpt lat="47.2057" lon="-1.56337">
        <ele>51</ele>
        <time>2021-04-12T12:03:40.000Z</time>
      </trkpt>
      <trkpt lat="47.2058" lon="-1.56347">
        <ele>51</ele>
        <time>2021-04-12T12:03:42.000Z</time>
      </trkpt>
      <trkpt lat="47.20591" lon="-1.56355">
        <ele>51</ele>
        <time>2021-04-12T12:03:44.000Z</time>
      </trkpt>
      <trkpt lat="47.20603" lon="-1.56369">
        <ele>51</ele>
        <time>2021-04-12T12:03:46.000Z</time>
      </trkpt>
      <trkpt lat="47.20615" lon="-1.5638">
        <ele>51</ele>
        <time>2021-04-12T12:03:48.000Z</time>
      </trkpt>
      <trkpt lat="47.20626" lon="-1.56391">
        <ele>52</ele>
        <time>2021-04-12T12:03:50.000Z</time>
      </trkpt>
      <trkpt lat="47.20637" lon="-1.56402">
        <ele>51</ele>
        <time>2021-04-12T12:03:52.000Z</time>
      </trkpt>
      <trkpt lat="47.20646" lon="-1.56411">
        <ele>51</ele>
        <time>2021-04-12T12:03:54.000Z</time>
      </trkpt>
      <trkpt lat="47.20657" lon="-1.5642">
        <ele>52</ele>
        <time>2021-04-12T12:03:56.000Z</time>
      </trkpt>
      <trkpt lat="47.20667" lon="-1.56427">
        <ele>53</ele>
        <time>2021-04-12T12:03:58.000Z</time>
      </trkpt>
      <trkpt lat="47.20678" lon="-1.56439">
        <ele>54</ele>
        <time>2021-04-12T12:04:00.000Z</time>
      </trkpt>
      <trkpt lat="47.20691" lon="-1.56452">
        <ele>53</ele>
        <time>2021-04-12T12:04:02.000Z</time>
      </trkpt>
      <trkpt lat="47.20703" lon="-1.56463">
        <ele>53</ele>
        <time>2021-04-12T12:04:04.000Z</time>
      </trkpt>
      <trkpt lat="47.20715" lon="-1.56473">
        <ele>54</ele>
        <time>2021-04-12T12:04:06.000Z</time>
      </trkpt>
      <trkpt lat="47.20726" lon="-1.56483">
        <ele>54</ele>
        <time>2021-04-12T12:04:08.000Z</time>
      </trkpt>
      <trkpt lat="47.20736" lon="-1.56491">
        <ele>53</ele>
        <time>2021-04-12T12:04:10.000Z</time>
      </trkpt>
      <trkpt lat="47.20746" lon="-1.56502">
        <ele>55</ele>
        <time>2021-04-12T12:04:12.000Z</time>
      </trkpt>
      <trkpt lat="47.20757" lon="-1.56512">
        <ele>56</ele>
        <time>2021-04-12T12:04:14.000Z</time>
      </trkpt>
      <trkpt lat="47.20769" lon="-1.56522">
        <ele>56</ele>
        <time>2021-04-12T12:04:16.000Z</time>
      </trkpt>
      <trkpt lat="47.2078" lon="-1.56532">
        <ele>55</ele>
        <time>2021-04-12T12:04:18.000Z</time>
      </trkpt>
      <trkpt lat="47.20791" lon="-1.56543">
        <ele>56</ele>
        <time>2021-04-12T12:04:20.000Z</time>
      </trkpt>
      <trkpt lat="47.20802" lon="-1.56553">
        <ele>56</ele>
        <time>2021-04-12T12:04:22.000Z</time>
      </trkpt>
      <trkpt lat="47.20812" lon="-1.56563">
        <ele>57</ele>
        <time>2021-04-12T12:04:24.000Z</time>
      </trkpt>
      <trkpt lat="47.20823" lon="-1.56572">
        <ele>57</ele>
        <time>2021-04-12T12:04:26.000Z</time>
      </trkpt>
      <trkpt lat="47.20833" lon="-1.56582">
        <ele>57</ele>
        <time>2021-04-12T12:04:28.000Z</time>
      </trkpt>
      <trkpt lat="47.20842" lon="-1.56591">
        <ele>57</ele>
        <time>2021-04-12T12:04:30.000Z</time>
      </trkpt>
      <trkpt lat="47.20851" lon="-1.566">
        <ele>56</ele>
        <time>2021-04-12T12:04:32.000Z</time>
      </trkpt>
      <trkpt lat="47.2086" lon="-1.56608">
        <ele>55</ele>
        <time>2021-04-12T12:04:35.000Z</time>
      </trkpt>
      <trkpt lat="47.2087" lon="-1.56617">
        <ele>55</ele>
        <time>2021-04-12T12:04:39.000Z</time>
      </trkpt>
      <trkpt lat="47.20878" lon="-1.56624">
        <ele>54</ele>
        <time>2021-04-12T12:04:43.000Z</time>
      </trkpt>
      <trkpt lat="47.20887" lon="-1.56632">
        <ele>53</ele>
        <time>2021-04-12T12:04:49.000Z</time>
      </trkpt>
      <trkpt lat="47.20899" lon="-1.5664">
        <ele>53</ele>
        <time>2021-04-12T12:04:53.000Z</time>
      </trkpt>
      <trkpt lat="47.20909" lon="-1.56645">
        <ele>53</ele>
        <time>2021-04-12T12:04:55.000Z</time>
      </trkpt>
      <trkpt lat="47.20919" lon="-1.56649">
        <ele>53</ele>
        <time>2021-04-12T12:04:57.000Z</time>
      </trkpt>
      <trkpt lat="47.20925" lon="-1.5666">
        <ele>53</ele>
        <time>2021-04-12T12:04:59.000Z</time>
      </trkpt>
      <trkpt lat="47.20925" lon="-1.56675">
        <ele>53</ele>
        <time>2021-04-12T12:05:02.000Z</time>
      </trkpt>
      <trkpt lat="47.20923" lon="-1.56688">
        <ele>53</ele>
        <time>2021-04-12T12:05:09.000Z</time>
      </trkpt>
      <trkpt lat="47.20919" lon="-1.56708">
        <ele>53</ele>
        <time>2021-04-12T12:05:12.000Z</time>
      </trkpt>
      <trkpt lat="47.20914" lon="-1.56727">
        <ele>52</ele>
        <time>2021-04-12T12:05:14.000Z</time>
      </trkpt>
      <trkpt lat="47.20908" lon="-1.56746">
        <ele>52</ele>
        <time>2021-04-12T12:05:16.000Z</time>
      </trkpt>
      <trkpt lat="47.20902" lon="-1.56766">
        <ele>52</ele>
        <time>2021-04-12T12:05:18.000Z</time>
      </trkpt>
      <trkpt lat="47.20895" lon="-1.56788">
        <ele>52</ele>
        <time>2021-04-12T12:05:20.000Z</time>
      </trkpt>
      <trkpt lat="47.20887" lon="-1.56809">
        <ele>52</ele>
        <time>2021-04-12T12:05:22.000Z</time>
      </trkpt>
      <trkpt lat="47.20879" lon="-1.5683">
        <ele>52</ele>
        <time>2021-04-12T12:05:24.000Z</time>
      </trkpt>
      <trkpt lat="47.20871" lon="-1.56851">
        <ele>53</ele>
        <time>2021-04-12T12:05:26.000Z</time>
      </trkpt>
      <trkpt lat="47.20865" lon="-1.56872">
        <ele>53</ele>
        <time>2021-04-12T12:05:28.000Z</time>
      </trkpt>
      <trkpt lat="47.2086" lon="-1.56894">
        <ele>53</ele>
        <time>2021-04-12T12:05:30.000Z</time>
      </trkpt>
      <trkpt lat="47.20853" lon="-1.56914">
        <ele>53</ele>
        <time>2021-04-12T12:05:32.000Z</time>
      </trkpt>
      <trkpt lat="47.20846" lon="-1.56934">
        <ele>52</ele>
        <time>2021-04-12T12:05:34.000Z</time>
      </trkpt>
      <trkpt lat="47.20839" lon="-1.56953">
        <ele>52</ele>
        <time>2021-04-12T12:05:36.000Z</time>
      </trkpt>
      <trkpt lat="47.20833" lon="-1.56973">
        <ele>52</ele>
        <time>2021-04-12T12:05:38.000Z</time>
      </trkpt>
      <trkpt lat="47.20827" lon="-1.56992">
        <ele>52</ele>
        <time>2021-04-12T12:05:40.000Z</time>
      </trkpt>
      <trkpt lat="47.20821" lon="-1.57012">
        <ele>53</ele>
        <time>2021-04-12T12:05:42.000Z</time>
      </trkpt>
      <trkpt lat="47.20814" lon="-1.57031">
        <ele>52</ele>
        <time>2021-04-12T12:05:44.000Z</time>
      </trkpt>
      <trkpt lat="47.20807" lon="-1.5705">
        <ele>53</ele>
        <time>2021-04-12T12:05:46.000Z</time>
      </trkpt>
      <trkpt lat="47.208" lon="-1.5707">
        <ele>53</ele>
        <time>2021-04-12T12:05:48.000Z</time>
      </trkpt>
      <trkpt lat="47.20792" lon="-1.57089">
        <ele>53</ele>
        <time>2021-04-12T12:05:50.000Z</time>
      </trkpt>
      <trkpt lat="47.20785" lon="-1.57108">
        <ele>53</ele>
        <time>2021-04-12T12:05:52.000Z</time>
      </trkpt>
      <trkpt lat="47.20777" lon="-1.57127">
        <ele>53</ele>
        <time>2021-04-12T12:05:54.000Z</time>
      </trkpt>
      <trkpt lat="47.20769" lon="-1.57147">
        <ele>53</ele>
        <time>2021-04-12T12:05:56.000Z</time>
      </trkpt>
      <trkpt lat="47.20762" lon="-1.57166">
        <ele>53</ele>
        <time>2021-04-12T12:05:58.000Z</time>
      </trkpt>
      <trkpt lat="47.20754" lon="-1.57184">
        <ele>54</ele>
        <time>2021-04-12T12:06:00.000Z</time>
      </trkpt>
      <trkpt lat="47.20748" lon="-1.57201">
        <ele>54</ele>
        <time>2021-04-12T12:06:02.000Z</time>
      </trkpt>
      <trkpt lat="47.20744" lon="-1.57218">
        <ele>54</ele>
        <time>2021-04-12T12:06:05.000Z</time>
      </trkpt>
      <trkpt lat="47.20737" lon="-1.57235">
        <ele>54</ele>
        <time>2021-04-12T12:06:08.000Z</time>
      </trkpt>
      <trkpt lat="47.20723" lon="-1.57242">
        <ele>54</ele>
        <time>2021-04-12T12:06:10.000Z</time>
      </trkpt>
      <trkpt lat="47.20709" lon="-1.57244">
        <ele>54</ele>
        <time>2021-04-12T12:06:12.000Z</time>
      </trkpt>
      <trkpt lat="47.20699" lon="-1.57256">
        <ele>53</ele>
        <time>2021-04-12T12:06:14.000Z</time>
      </trkpt>
      <trkpt lat="47.20688" lon="-1.57268">
        <ele>52</ele>
        <time>2021-04-12T12:06:16.000Z</time>
      </trkpt>
      <trkpt lat="47.20682" lon="-1.57285">
        <ele>52</ele>
        <time>2021-04-12T12:06:18.000Z</time>
      </trkpt>
      <trkpt lat="47.20679" lon="-1.57303">
        <ele>53</ele>
        <time>2021-04-12T12:06:20.000Z</time>
      </trkpt>
      <trkpt lat="47.2067" lon="-1.57317">
        <ele>53</ele>
        <time>2021-04-12T12:06:22.000Z</time>
      </trkpt>
      <trkpt lat="47.20657" lon="-1.57329">
        <ele>53</ele>
        <time>2021-04-12T12:06:24.000Z</time>
      </trkpt>
      <trkpt lat="47.20645" lon="-1.57343">
        <ele>53</ele>
        <time>2021-04-12T12:06:26.000Z</time>
      </trkpt>
      <trkpt lat="47.20634" lon="-1.57357">
        <ele>53</ele>
        <time>2021-04-12T12:06:28.000Z</time>
      </trkpt>
      <trkpt lat="47.20623" lon="-1.5737">
        <ele>53</ele>
        <time>2021-04-12T12:06:30.000Z</time>
      </trkpt>
      <trkpt lat="47.20612" lon="-1.57383">
        <ele>52</ele>
        <time>2021-04-12T12:06:32.000Z</time>
      </trkpt>
      <trkpt lat="47.20602" lon="-1.57397">
        <ele>52</ele>
        <time>2021-04-12T12:06:34.000Z</time>
      </trkpt>
      <trkpt lat="47.2059" lon="-1.57409">
        <ele>51</ele>
        <time>2021-04-12T12:06:36.000Z</time>
      </trkpt>
      <trkpt lat="47.20579" lon="-1.5742">
        <ele>52</ele>
        <time>2021-04-12T12:06:38.000Z</time>
      </trkpt>
      <trkpt lat="47.20568" lon="-1.57432">
        <ele>51</ele>
        <time>2021-04-12T12:06:40.000Z</time>
      </trkpt>
      <trkpt lat="47.20557" lon="-1.57444">
        <ele>52</ele>
        <time>2021-04-12T12:06:42.000Z</time>
      </trkpt>
      <trkpt lat="47.20545" lon="-1.57456">
        <ele>52</ele>
        <time>2021-04-12T12:06:44.000Z</time>
      </trkpt>
      <trkpt lat="47.20533" lon="-1.57467">
        <ele>52</ele>
        <time>2021-04-12T12:06:46.000Z</time>
      </trkpt>
      <trkpt lat="47.2052" lon="-1.57477">
        <ele>52</ele>
        <time>2021-04-12T12:06:48.000Z</time>
      </trkpt>
      <trkpt lat="47.20507" lon="-1.57484">
        <ele>52</ele>
        <time>2021-04-12T12:06:50.000Z</time>
      </trkpt>
      <trkpt lat="47.20494" lon="-1.57492">
        <ele>52</ele>
        <time>2021-04-12T12:06:52.000Z</time>
      </trkpt>
      <trkpt lat="47.20481" lon="-1.57499">
        <ele>52</ele>
        <time>2021-04-12T12:06:54.000Z</time>
      </trkpt>
      <trkpt lat="47.20473" lon="-1.57504">
        <ele>52</ele>
        <time>2021-04-12T12:06:56.000Z</time>
      </trkpt>
      <trkpt lat="47.20465" lon="-1.5751">
        <ele>51</ele>
        <time>2021-04-12T12:07:02.000Z</time>
      </trkpt>
      <trkpt lat="47.20452" lon="-1.57514">
        <ele>51</ele>
        <time>2021-04-12T12:07:28.000Z</time>
      </trkpt>
      <trkpt lat="47.20441" lon="-1.57513">
        <ele>53</ele>
        <time>2021-04-12T12:07:30.000Z</time>
      </trkpt>
      <trkpt lat="47.20429" lon="-1.57517">
        <ele>53</ele>
        <time>2021-04-12T12:07:32.000Z</time>
      </trkpt>
      <trkpt lat="47.20415" lon="-1.57523">
        <ele>53</ele>
        <time>2021-04-12T12:07:34.000Z</time>
      </trkpt>
      <trkpt lat="47.20401" lon="-1.57527">
        <ele>53</ele>
        <time>2021-04-12T12:07:36.000Z</time>
      </trkpt>
      <trkpt lat="47.20387" lon="-1.57532">
        <ele>52</ele>
        <time>2021-04-12T12:07:38.000Z</time>
      </trkpt>
      <trkpt lat="47.20373" lon="-1.57538">
        <ele>52</ele>
        <time>2021-04-12T12:07:40.000Z</time>
      </trkpt>
      <trkpt lat="47.2036" lon="-1.57543">
        <ele>52</ele>
        <time>2021-04-12T12:07:42.000Z</time>
      </trkpt>
      <trkpt lat="47.20347" lon="-1.5755">
        <ele>52</ele>
        <time>2021-04-12T12:07:44.000Z</time>
      </trkpt>
      <trkpt lat="47.20333" lon="-1.57557">
        <ele>52</ele>
        <time>2021-04-12T12:07:46.000Z</time>
      </trkpt>
      <trkpt lat="47.2032" lon="-1.57564">
        <ele>52</ele>
        <time>2021-04-12T12:07:48.000Z</time>
      </trkpt>
      <trkpt lat="47.20307" lon="-1.57571">
        <ele>52</ele>
        <time>2021-04-12T12:07:50.000Z</time>
      </trkpt>
      <trkpt lat="47.20293" lon="-1.57579">
        <ele>52</ele>
        <time>2021-04-12T12:07:52.000Z</time>
      </trkpt>
      <trkpt lat="47.2028" lon="-1.57586">
        <ele>51</ele>
        <time>2021-04-12T12:07:54.000Z</time>
      </trkpt>
      <trkpt lat="47.20267" lon="-1.57594">
        <ele>51</ele>
        <time>2021-04-12T12:07:56.000Z</time>
      </trkpt>
      <trkpt lat="47.20254" lon="-1.57601">
        <ele>51</ele>
        <time>2021-04-12T12:07:58.000Z</time>
      </trkpt>
      <trkpt lat="47.20241" lon="-1.57609">
        <ele>51</ele>
        <time>2021-04-12T12:08:00.000Z</time>
      </trkpt>
      <trkpt lat="47.20229" lon="-1.57618">
        <ele>51</ele>
        <time>2021-04-12T12:08:02.000Z</time>
      </trkpt>
      <trkpt lat="47.20216" lon="-1.57627">
        <ele>51</ele>
        <time>2021-04-12T12:08:04.000Z</time>
      </trkpt>
      <trkpt lat="47.20205" lon="-1.57637">
        <ele>52</ele>
        <time>2021-04-12T12:08:06.000Z</time>
      </trkpt>
      <trkpt lat="47.20194" lon="-1.57647">
        <ele>52</ele>
        <time>2021-04-12T12:08:08.000Z</time>
      </trkpt>
      <trkpt lat="47.20182" lon="-1.57658">
        <ele>52</ele>
        <time>2021-04-12T12:08:10.000Z</time>
      </trkpt>
      <trkpt lat="47.2017" lon="-1.57668">
        <ele>52</ele>
        <time>2021-04-12T12:08:12.000Z</time>
      </trkpt>
      <trkpt lat="47.20159" lon="-1.5768">
        <ele>52</ele>
        <time>2021-04-12T12:08:14.000Z</time>
      </trkpt>
      <trkpt lat="47.20149" lon="-1.57693">
        <ele>53</ele>
        <time>2021-04-12T12:08:16.000Z</time>
      </trkpt>
      <trkpt lat="47.20139" lon="-1.57707">
        <ele>52</ele>
        <time>2021-04-12T12:08:18.000Z</time>
      </trkpt>
      <trkpt lat="47.20129" lon="-1.5772">
        <ele>52</ele>
        <time>2021-04-12T12:08:20.000Z</time>
      </trkpt>
      <trkpt lat="47.20119" lon="-1.57734">
        <ele>52</ele>
        <time>2021-04-12T12:08:22.000Z</time>
      </trkpt>
      <trkpt lat="47.20109" lon="-1.57748">
        <ele>52</ele>
        <time>2021-04-12T12:08:24.000Z</time>
      </trkpt>
      <trkpt lat="47.20099" lon="-1.57762">
        <ele>52</ele>
        <time>2021-04-12T12:08:26.000Z</time>
      </trkpt>
      <trkpt lat="47.2009" lon="-1.57777">
        <ele>51</ele>
        <time>2021-04-12T12:08:28.000Z</time>
      </trkpt>
      <trkpt lat="47.20081" lon="-1.57793">
        <ele>51</ele>
        <time>2021-04-12T12:08:30.000Z</time>
      </trkpt>
      <trkpt lat="47.20072" lon="-1.57809">
        <ele>51</ele>
        <time>2021-04-12T12:08:32.000Z</time>
      </trkpt>
      <trkpt lat="47.20063" lon="-1.57825">
        <ele>50</ele>
        <time>2021-04-12T12:08:34.000Z</time>
      </trkpt>
      <trkpt lat="47.20055" lon="-1.57842">
        <ele>51</ele>
        <time>2021-04-12T12:08:36.000Z</time>
      </trkpt>
      <trkpt lat="47.20047" lon="-1.57859">
        <ele>51</ele>
        <time>2021-04-12T12:08:38.000Z</time>
      </trkpt>
      <trkpt lat="47.20039" lon="-1.57877">
        <ele>51</ele>
        <time>2021-04-12T12:08:40.000Z</time>
      </trkpt>
      <trkpt lat="47.20032" lon="-1.57894">
        <ele>51</ele>
        <time>2021-04-12T12:08:42.000Z</time>
      </trkpt>
      <trkpt lat="47.20024" lon="-1.57911">
        <ele>52</ele>
        <time>2021-04-12T12:08:44.000Z</time>
      </trkpt>
      <trkpt lat="47.20017" lon="-1.57929">
        <ele>52</ele>
        <time>2021-04-12T12:08:46.000Z</time>
      </trkpt>
      <trkpt lat="47.2001" lon="-1.57947">
        <ele>52</ele>
        <time>2021-04-12T12:08:48.000Z</time>
      </trkpt>
      <trkpt lat="47.20003" lon="-1.57964">
        <ele>52</ele>
        <time>2021-04-12T12:08:50.000Z</time>
      </trkpt>
      <trkpt lat="47.19996" lon="-1.57982">
        <ele>52</ele>
        <time>2021-04-12T12:08:52.000Z</time>
      </trkpt>
      <trkpt lat="47.1999" lon="-1.57999">
        <ele>53</ele>
        <time>2021-04-12T12:08:54.000Z</time>
      </trkpt>
      <trkpt lat="47.19984" lon="-1.58017">
        <ele>53</ele>
        <time>2021-04-12T12:08:56.000Z</time>
      </trkpt>
      <trkpt lat="47.19978" lon="-1.58035">
        <ele>53</ele>
        <time>2021-04-12T12:08:58.000Z</time>
      </trkpt>
      <trkpt lat="47.19972" lon="-1.58053">
        <ele>52</ele>
        <time>2021-04-12T12:09:00.000Z</time>
      </trkpt>
      <trkpt lat="47.19966" lon="-1.58071">
        <ele>52</ele>
        <time>2021-04-12T12:09:02.000Z</time>
      </trkpt>
      <trkpt lat="47.1996" lon="-1.58091">
        <ele>52</ele>
        <time>2021-04-12T12:09:04.000Z</time>
      </trkpt>
      <trkpt lat="47.19955" lon="-1.5811">
        <ele>52</ele>
        <time>2021-04-12T12:09:06.000Z</time>
      </trkpt>
      <trkpt lat="47.19951" lon="-1.58131">
        <ele>51</ele>
        <time>2021-04-12T12:09:08.000Z</time>
      </trkpt>
      <trkpt lat="47.19946" lon="-1.58151">
        <ele>51</ele>
        <time>2021-04-12T12:09:10.000Z</time>
      </trkpt>
      <trkpt lat="47.19941" lon="-1.58171">
        <ele>51</ele>
        <time>2021-04-12T12:09:12.000Z</time>
      </trkpt>
      <trkpt lat="47.19936" lon="-1.58191">
        <ele>51</ele>
        <time>2021-04-12T12:09:14.000Z</time>
      </trkpt>
      <trkpt lat="47.19932" lon="-1.5821">
        <ele>51</ele>
        <time>2021-04-12T12:09:16.000Z</time>
      </trkpt>
      <trkpt lat="47.19927" lon="-1.5823">
        <ele>52</ele>
        <time>2021-04-12T12:09:18.000Z</time>
      </trkpt>
      <trkpt lat="47.19923" lon="-1.58249">
        <ele>51</ele>
        <time>2021-04-12T12:09:20.000Z</time>
      </trkpt>
      <trkpt lat="47.19918" lon="-1.58269">
        <ele>51</ele>
        <time>2021-04-12T12:09:22.000Z</time>
      </trkpt>
      <trkpt lat="47.19913" lon="-1.58288">
        <ele>51</ele>
        <time>2021-04-12T12:09:24.000Z</time>
      </trkpt>
      <trkpt lat="47.19909" lon="-1.58308">
        <ele>51</ele>
        <time>2021-04-12T12:09:26.000Z</time>
      </trkpt>
      <trkpt lat="47.19904" lon="-1.58327">
        <ele>52</ele>
        <time>2021-04-12T12:09:28.000Z</time>
      </trkpt>
      <trkpt lat="47.199" lon="-1.58347">
        <ele>52</ele>
        <time>2021-04-12T12:09:30.000Z</time>
      </trkpt>
      <trkpt lat="47.19895" lon="-1.58367">
        <ele>52</ele>
        <time>2021-04-12T12:09:32.000Z</time>
      </trkpt>
      <trkpt lat="47.19891" lon="-1.58387">
        <ele>51</ele>
        <time>2021-04-12T12:09:34.000Z</time>
      </trkpt>
      <trkpt lat="47.19887" lon="-1.58406">
        <ele>52</ele>
        <time>2021-04-12T12:09:36.000Z</time>
      </trkpt>
      <trkpt lat="47.19882" lon="-1.58426">
        <ele>52</ele>
        <time>2021-04-12T12:09:38.000Z</time>
      </trkpt>
      <trkpt lat="47.19878" lon="-1.58446">
        <ele>52</ele>
        <time>2021-04-12T12:09:40.000Z</time>
      </trkpt>
      <trkpt lat="47.19874" lon="-1.58465">
        <ele>52</ele>
        <time>2021-04-12T12:09:42.000Z</time>
      </trkpt>
      <trkpt lat="47.19872" lon="-1.58484">
        <ele>51</ele>
        <time>2021-04-12T12:09:44.000Z</time>
      </trkpt>
      <trkpt lat="47.19871" lon="-1.58501">
        <ele>50</ele>
        <time>2021-04-12T12:09:46.000Z</time>
      </trkpt>
      <trkpt lat="47.19871" lon="-1.5852">
        <ele>50</ele>
        <time>2021-04-12T12:09:48.000Z</time>
      </trkpt>
      <trkpt lat="47.1987" lon="-1.58538">
        <ele>50</ele>
        <time>2021-04-12T12:09:50.000Z</time>
      </trkpt>
      <trkpt lat="47.19869" lon="-1.58557">
        <ele>50</ele>
        <time>2021-04-12T12:09:52.000Z</time>
      </trkpt>
      <trkpt lat="47.19868" lon="-1.58576">
        <ele>49</ele>
        <time>2021-04-12T12:09:54.000Z</time>
      </trkpt>
      <trkpt lat="47.19866" lon="-1.58595">
        <ele>50</ele>
        <time>2021-04-12T12:09:56.000Z</time>
      </trkpt>
      <trkpt lat="47.19864" lon="-1.58615">
        <ele>50</ele>
        <time>2021-04-12T12:09:58.000Z</time>
      </trkpt>
      <trkpt lat="47.19862" lon="-1.58635">
        <ele>50</ele>
        <time>2021-04-12T12:10:00.000Z</time>
      </trkpt>
      <trkpt lat="47.1986" lon="-1.58657">
        <ele>50</ele>
        <time>2021-04-12T12:10:02.000Z</time>
      </trkpt>
      <trkpt lat="47.19858" lon="-1.58678">
        <ele>50</ele>
        <time>2021-04-12T12:10:04.000Z</time>
      </trkpt>
      <trkpt lat="47.19856" lon="-1.58698">
        <ele>50</ele>
        <time>2021-04-12T12:10:06.000Z</time>
      </trkpt>
      <trkpt lat="47.19854" lon="-1.58718">
        <ele>51</ele>
        <time>2021-04-12T12:10:08.000Z</time>
      </trkpt>
      <trkpt lat="47.19851" lon="-1.58739">
        <ele>52</ele>
        <time>2021-04-12T12:10:10.000Z</time>
      </trkpt>
      <trkpt lat="47.19848" lon="-1.58758">
        <ele>53</ele>
        <time>2021-04-12T12:10:12.000Z</time>
      </trkpt>
      <trkpt lat="47.19846" lon="-1.58776">
        <ele>54</ele>
        <time>2021-04-12T12:10:14.000Z</time>
      </trkpt>
      <trkpt lat="47.19845" lon="-1.58794">
        <ele>54</ele>
        <time>2021-04-12T12:10:16.000Z</time>
      </trkpt>
      <trkpt lat="47.19842" lon="-1.58811">
        <ele>55</ele>
        <time>2021-04-12T12:10:18.000Z</time>
      </trkpt>
      <trkpt lat="47.19841" lon="-1.58828">
        <ele>54</ele>
        <time>2021-04-12T12:10:20.000Z</time>
      </trkpt>
      <trkpt lat="47.19842" lon="-1.58844">
        <ele>55</ele>
        <time>2021-04-12T12:10:22.000Z</time>
      </trkpt>
      <trkpt lat="47.19836" lon="-1.58858">
        <ele>56</ele>
        <time>2021-04-12T12:10:24.000Z</time>
      </trkpt>
      <trkpt lat="47.19823" lon="-1.58857">
        <ele>55</ele>
        <time>2021-04-12T12:10:26.000Z</time>
      </trkpt>
      <trkpt lat="47.19811" lon="-1.58862">
        <ele>54</ele>
        <time>2021-04-12T12:10:28.000Z</time>
      </trkpt>
      <trkpt lat="47.19808" lon="-1.58883">
        <ele>53</ele>
        <time>2021-04-12T12:10:30.000Z</time>
      </trkpt>
      <trkpt lat="47.19805" lon="-1.58904">
        <ele>52</ele>
        <time>2021-04-12T12:10:32.000Z</time>
      </trkpt>
      <trkpt lat="47.19804" lon="-1.58924">
        <ele>52</ele>
        <time>2021-04-12T12:10:34.000Z</time>
      </trkpt>
      <trkpt lat="47.19801" lon="-1.58946">
        <ele>51</ele>
        <time>2021-04-12T12:10:36.000Z</time>
      </trkpt>
      <trkpt lat="47.19792" lon="-1.58961">
        <ele>51</ele>
        <time>2021-04-12T12:10:38.000Z</time>
      </trkpt>
      <trkpt lat="47.19781" lon="-1.58975">
        <ele>50</ele>
        <time>2021-04-12T12:10:40.000Z</time>
      </trkpt>
      <trkpt lat="47.19778" lon="-1.58996">
        <ele>50</ele>
        <time>2021-04-12T12:10:42.000Z</time>
      </trkpt>
      <trkpt lat="47.19775" lon="-1.59016">
        <ele>51</ele>
        <time>2021-04-12T12:10:44.000Z</time>
      </trkpt>
      <trkpt lat="47.19772" lon="-1.59036">
        <ele>51</ele>
        <time>2021-04-12T12:10:46.000Z</time>
      </trkpt>
      <trkpt lat="47.19769" lon="-1.59056">
        <ele>51</ele>
        <time>2021-04-12T12:10:48.000Z</time>
      </trkpt>
      <trkpt lat="47.19765" lon="-1.59075">
        <ele>50</ele>
        <time>2021-04-12T12:10:50.000Z</time>
      </trkpt>
      <trkpt lat="47.19761" lon="-1.59094">
        <ele>50</ele>
        <time>2021-04-12T12:10:52.000Z</time>
      </trkpt>
      <trkpt lat="47.19758" lon="-1.59113">
        <ele>50</ele>
        <time>2021-04-12T12:10:54.000Z</time>
      </trkpt>
      <trkpt lat="47.19755" lon="-1.59132">
        <ele>50</ele>
        <time>2021-04-12T12:10:56.000Z</time>
      </trkpt>
      <trkpt lat="47.19752" lon="-1.59152">
        <ele>50</ele>
        <time>2021-04-12T12:10:58.000Z</time>
      </trkpt>
      <trkpt lat="47.19749" lon="-1.59171">
        <ele>50</ele>
        <time>2021-04-12T12:11:00.000Z</time>
      </trkpt>
      <trkpt lat="47.19745" lon="-1.59189">
        <ele>50</ele>
        <time>2021-04-12T12:11:02.000Z</time>
      </trkpt>
      <trkpt lat="47.19743" lon="-1.59209">
        <ele>51</ele>
        <time>2021-04-12T12:11:04.000Z</time>
      </trkpt>
      <trkpt lat="47.1974" lon="-1.59228">
        <ele>52</ele>
        <time>2021-04-12T12:11:06.000Z</time>
      </trkpt>
      <trkpt lat="47.19737" lon="-1.59246">
        <ele>52</ele>
        <time>2021-04-12T12:11:08.000Z</time>
      </trkpt>
      <trkpt lat="47.19734" lon="-1.59263">
        <ele>51</ele>
        <time>2021-04-12T12:11:10.000Z</time>
      </trkpt>
      <trkpt lat="47.1973" lon="-1.59281">
        <ele>52</ele>
        <time>2021-04-12T12:11:12.000Z</time>
      </trkpt>
      <trkpt lat="47.19723" lon="-1.59298">
        <ele>52</ele>
        <time>2021-04-12T12:11:14.000Z</time>
      </trkpt>
      <trkpt lat="47.19718" lon="-1.59316">
        <ele>51</ele>
        <time>2021-04-12T12:11:16.000Z</time>
      </trkpt>
      <trkpt lat="47.19712" lon="-1.59333">
        <ele>51</ele>
        <time>2021-04-12T12:11:18.000Z</time>
      </trkpt>
      <trkpt lat="47.19706" lon="-1.5935">
        <ele>51</ele>
        <time>2021-04-12T12:11:20.000Z</time>
      </trkpt>
      <trkpt lat="47.19701" lon="-1.59367">
        <ele>51</ele>
        <time>2021-04-12T12:11:22.000Z</time>
      </trkpt>
      <trkpt lat="47.19695" lon="-1.59385">
        <ele>51</ele>
        <time>2021-04-12T12:11:24.000Z</time>
      </trkpt>
      <trkpt lat="47.1969" lon="-1.59404">
        <ele>51</ele>
        <time>2021-04-12T12:11:26.000Z</time>
      </trkpt>
      <trkpt lat="47.19687" lon="-1.59423">
        <ele>51</ele>
        <time>2021-04-12T12:11:28.000Z</time>
      </trkpt>
      <trkpt lat="47.19683" lon="-1.59442">
        <ele>51</ele>
        <time>2021-04-12T12:11:30.000Z</time>
      </trkpt>
      <trkpt lat="47.19681" lon="-1.59461">
        <ele>51</ele>
        <time>2021-04-12T12:11:32.000Z</time>
      </trkpt>
      <trkpt lat="47.19677" lon="-1.5948">
        <ele>51</ele>
        <time>2021-04-12T12:11:34.000Z</time>
      </trkpt>
      <trkpt lat="47.19674" lon="-1.595">
        <ele>51</ele>
        <time>2021-04-12T12:11:36.000Z</time>
      </trkpt>
      <trkpt lat="47.1967" lon="-1.5952">
        <ele>51</ele>
        <time>2021-04-12T12:11:38.000Z</time>
      </trkpt>
      <trkpt lat="47.19666" lon="-1.59539">
        <ele>51</ele>
        <time>2021-04-12T12:11:40.000Z</time>
      </trkpt>
      <trkpt lat="47.19663" lon="-1.59558">
        <ele>51</ele>
        <time>2021-04-12T12:11:42.000Z</time>
      </trkpt>
      <trkpt lat="47.1966" lon="-1.59577">
        <ele>51</ele>
        <time>2021-04-12T12:11:44.000Z</time>
      </trkpt>
      <trkpt lat="47.19657" lon="-1.59597">
        <ele>50</ele>
        <time>2021-04-12T12:11:46.000Z</time>
      </trkpt>
      <trkpt lat="47.19654" lon="-1.59615">
        <ele>50</ele>
        <time>2021-04-12T12:11:48.000Z</time>
      </trkpt>
      <trkpt lat="47.1965" lon="-1.59634">
        <ele>50</ele>
        <time>2021-04-12T12:11:50.000Z</time>
      </trkpt>
      <trkpt lat="47.19646" lon="-1.59652">
        <ele>50</ele>
        <time>2021-04-12T12:11:52.000Z</time>
      </trkpt>
      <trkpt lat="47.19641" lon="-1.5967">
        <ele>50</ele>
        <time>2021-04-12T12:11:54.000Z</time>
      </trkpt>
      <trkpt lat="47.19635" lon="-1.59688">
        <ele>50</ele>
        <time>2021-04-12T12:11:56.000Z</time>
      </trkpt>
      <trkpt lat="47.19629" lon="-1.59706">
        <ele>50</ele>
        <time>2021-04-12T12:11:58.000Z</time>
      </trkpt>
      <trkpt lat="47.19623" lon="-1.59724">
        <ele>51</ele>
        <time>2021-04-12T12:12:00.000Z</time>
      </trkpt>
      <trkpt lat="47.19618" lon="-1.59741">
        <ele>51</ele>
        <time>2021-04-12T12:12:02.000Z</time>
      </trkpt>
      <trkpt lat="47.19612" lon="-1.59759">
        <ele>51</ele>
        <time>2021-04-12T12:12:04.000Z</time>
      </trkpt>
      <trkpt lat="47.19606" lon="-1.59776">
        <ele>51</ele>
        <time>2021-04-12T12:12:06.000Z</time>
      </trkpt>
      <trkpt lat="47.19599" lon="-1.59793">
        <ele>51</ele>
        <time>2021-04-12T12:12:08.000Z</time>
      </trkpt>
      <trkpt lat="47.19592" lon="-1.5981">
        <ele>51</ele>
        <time>2021-04-12T12:12:10.000Z</time>
      </trkpt>
      <trkpt lat="47.19586" lon="-1.59828">
        <ele>51</ele>
        <time>2021-04-12T12:12:12.000Z</time>
      </trkpt>
      <trkpt lat="47.19581" lon="-1.59846">
        <ele>51</ele>
        <time>2021-04-12T12:12:14.000Z</time>
      </trkpt>
      <trkpt lat="47.19575" lon="-1.59864">
        <ele>51</ele>
        <time>2021-04-12T12:12:16.000Z</time>
      </trkpt>
      <trkpt lat="47.1957" lon="-1.59881">
        <ele>50</ele>
        <time>2021-04-12T12:12:18.000Z</time>
      </trkpt>
      <trkpt lat="47.19565" lon="-1.599">
        <ele>51</ele>
        <time>2021-04-12T12:12:20.000Z</time>
      </trkpt>
      <trkpt lat="47.1956" lon="-1.59918">
        <ele>50</ele>
        <time>2021-04-12T12:12:22.000Z</time>
      </trkpt>
      <trkpt lat="47.19557" lon="-1.59938">
        <ele>50</ele>
        <time>2021-04-12T12:12:24.000Z</time>
      </trkpt>
      <trkpt lat="47.19555" lon="-1.59957">
        <ele>50</ele>
        <time>2021-04-12T12:12:26.000Z</time>
      </trkpt>
      <trkpt lat="47.19554" lon="-1.59976">
        <ele>49</ele>
        <time>2021-04-12T12:12:28.000Z</time>
      </trkpt>
      <trkpt lat="47.19553" lon="-1.59995">
        <ele>49</ele>
        <time>2021-04-12T12:12:30.000Z</time>
      </trkpt>
      <trkpt lat="47.19551" lon="-1.60013">
        <ele>49</ele>
        <time>2021-04-12T12:12:32.000Z</time>
      </trkpt>
      <trkpt lat="47.1955" lon="-1.60032">
        <ele>50</ele>
        <time>2021-04-12T12:12:34.000Z</time>
      </trkpt>
      <trkpt lat="47.19549" lon="-1.6005">
        <ele>49</ele>
        <time>2021-04-12T12:12:36.000Z</time>
      </trkpt>
      <trkpt lat="47.19548" lon="-1.60069">
        <ele>49</ele>
        <time>2021-04-12T12:12:38.000Z</time>
      </trkpt>
      <trkpt lat="47.19546" lon="-1.6009">
        <ele>49</ele>
        <time>2021-04-12T12:12:40.000Z</time>
      </trkpt>
      <trkpt lat="47.19544" lon="-1.60109">
        <ele>49</ele>
        <time>2021-04-12T12:12:42.000Z</time>
      </trkpt>
      <trkpt lat="47.19543" lon="-1.60128">
        <ele>49</ele>
        <time>2021-04-12T12:12:44.000Z</time>
      </trkpt>
      <trkpt lat="47.19542" lon="-1.60147">
        <ele>50</ele>
        <time>2021-04-12T12:12:46.000Z</time>
      </trkpt>
      <trkpt lat="47.19541" lon="-1.60165">
        <ele>50</ele>
        <time>2021-04-12T12:12:48.000Z</time>
      </trkpt>
      <trkpt lat="47.19539" lon="-1.60184">
        <ele>50</ele>
        <time>2021-04-12T12:12:50.000Z</time>
      </trkpt>
      <trkpt lat="47.19537" lon="-1.60203">
        <ele>50</ele>
        <time>2021-04-12T12:12:52.000Z</time>
      </trkpt>
      <trkpt lat="47.19535" lon="-1.60222">
        <ele>50</ele>
        <time>2021-04-12T12:12:54.000Z</time>
      </trkpt>
      <trkpt lat="47.19534" lon="-1.60242">
        <ele>50</ele>
        <time>2021-04-12T12:12:56.000Z</time>
      </trkpt>
      <trkpt lat="47.19532" lon="-1.60261">
        <ele>50</ele>
        <time>2021-04-12T12:12:58.000Z</time>
      </trkpt>
      <trkpt lat="47.19531" lon="-1.6028">
        <ele>50</ele>
        <time>2021-04-12T12:13:00.000Z</time>
      </trkpt>
      <trkpt lat="47.19529" lon="-1.603">
        <ele>50</ele>
        <time>2021-04-12T12:13:02.000Z</time>
      </trkpt>
      <trkpt lat="47.19528" lon="-1.6032">
        <ele>50</ele>
        <time>2021-04-12T12:13:04.000Z</time>
      </trkpt>
      <trkpt lat="47.19527" lon="-1.60338">
        <ele>50</ele>
        <time>2021-04-12T12:13:06.000Z</time>
      </trkpt>
      <trkpt lat="47.19527" lon="-1.60356">
        <ele>50</ele>
        <time>2021-04-12T12:13:08.000Z</time>
      </trkpt>
      <trkpt lat="47.19526" lon="-1.60375">
        <ele>50</ele>
        <time>2021-04-12T12:13:10.000Z</time>
      </trkpt>
      <trkpt lat="47.19526" lon="-1.60395">
        <ele>50</ele>
        <time>2021-04-12T12:13:12.000Z</time>
      </trkpt>
      <trkpt lat="47.19525" lon="-1.60414">
        <ele>50</ele>
        <time>2021-04-12T12:13:14.000Z</time>
      </trkpt>
      <trkpt lat="47.19524" lon="-1.60433">
        <ele>51</ele>
        <time>2021-04-12T12:13:16.000Z</time>
      </trkpt>
      <trkpt lat="47.19522" lon="-1.60452">
        <ele>51</ele>
        <time>2021-04-12T12:13:18.000Z</time>
      </trkpt>
      <trkpt lat="47.1952" lon="-1.60471">
        <ele>51</ele>
        <time>2021-04-12T12:13:20.000Z</time>
      </trkpt>
      <trkpt lat="47.19519" lon="-1.60491">
        <ele>51</ele>
        <time>2021-04-12T12:13:22.000Z</time>
      </trkpt>
      <trkpt lat="47.19517" lon="-1.60511">
        <ele>50</ele>
        <time>2021-04-12T12:13:24.000Z</time>
      </trkpt>
      <trkpt lat="47.19515" lon="-1.60531">
        <ele>50</ele>
        <time>2021-04-12T12:13:26.000Z</time>
      </trkpt>
      <trkpt lat="47.19514" lon="-1.60551">
        <ele>50</ele>
        <time>2021-04-12T12:13:28.000Z</time>
      </trkpt>
      <trkpt lat="47.19512" lon="-1.6057">
        <ele>50</ele>
        <time>2021-04-12T12:13:30.000Z</time>
      </trkpt>
      <trkpt lat="47.19509" lon="-1.60589">
        <ele>50</ele>
        <time>2021-04-12T12:13:32.000Z</time>
      </trkpt>
      <trkpt lat="47.19507" lon="-1.60608">
        <ele>50</ele>
        <time>2021-04-12T12:13:34.000Z</time>
      </trkpt>
      <trkpt lat="47.19504" lon="-1.60627">
        <ele>50</ele>
        <time>2021-04-12T12:13:36.000Z</time>
      </trkpt>
      <trkpt lat="47.19502" lon="-1.60646">
        <ele>50</ele>
        <time>2021-04-12T12:13:38.000Z</time>
      </trkpt>
      <trkpt lat="47.19499" lon="-1.60665">
        <ele>50</ele>
        <time>2021-04-12T12:13:40.000Z</time>
      </trkpt>
      <trkpt lat="47.19497" lon="-1.60684">
        <ele>50</ele>
        <time>2021-04-12T12:13:42.000Z</time>
      </trkpt>
      <trkpt lat="47.19495" lon="-1.60703">
        <ele>50</ele>
        <time>2021-04-12T12:13:44.000Z</time>
      </trkpt>
      <trkpt lat="47.19492" lon="-1.60722">
        <ele>50</ele>
        <time>2021-04-12T12:13:46.000Z</time>
      </trkpt>
      <trkpt lat="47.19491" lon="-1.60741">
        <ele>50</ele>
        <time>2021-04-12T12:13:48.000Z</time>
      </trkpt>
      <trkpt lat="47.19489" lon="-1.60759">
        <ele>50</ele>
        <time>2021-04-12T12:13:50.000Z</time>
      </trkpt>
      <trkpt lat="47.19488" lon="-1.60779">
        <ele>50</ele>
        <time>2021-04-12T12:13:52.000Z</time>
      </trkpt>
      <trkpt lat="47.19486" lon="-1.60798">
        <ele>50</ele>
        <time>2021-04-12T12:13:54.000Z</time>
      </trkpt>
      <trkpt lat="47.19485" lon="-1.60817">
        <ele>50</ele>
        <time>2021-04-12T12:13:56.000Z</time>
      </trkpt>
      <trkpt lat="47.19484" lon="-1.60836">
        <ele>50</ele>
        <time>2021-04-12T12:13:58.000Z</time>
      </trkpt>
      <trkpt lat="47.19482" lon="-1.60855">
        <ele>51</ele>
        <time>2021-04-12T12:14:00.000Z</time>
      </trkpt>
      <trkpt lat="47.19481" lon="-1.60874">
        <ele>51</ele>
        <time>2021-04-12T12:14:02.000Z</time>
      </trkpt>
      <trkpt lat="47.19479" lon="-1.60893">
        <ele>51</ele>
        <time>2021-04-12T12:14:04.000Z</time>
      </trkpt>
      <trkpt lat="47.19478" lon="-1.60912">
        <ele>50</ele>
        <time>2021-04-12T12:14:06.000Z</time>
      </trkpt>
      <trkpt lat="47.19477" lon="-1.60931">
        <ele>50</ele>
        <time>2021-04-12T12:14:08.000Z</time>
      </trkpt>
      <trkpt lat="47.19473" lon="-1.6095">
        <ele>50</ele>
        <time>2021-04-12T12:14:10.000Z</time>
      </trkpt>
      <trkpt lat="47.19469" lon="-1.60971">
        <ele>50</ele>
        <time>2021-04-12T12:14:12.000Z</time>
      </trkpt>
      <trkpt lat="47.19467" lon="-1.6099">
        <ele>50</ele>
        <time>2021-04-12T12:14:14.000Z</time>
      </trkpt>
      <trkpt lat="47.19466" lon="-1.61009">
        <ele>51</ele>
        <time>2021-04-12T12:14:16.000Z</time>
      </trkpt>
      <trkpt lat="47.19465" lon="-1.6103">
        <ele>50</ele>
        <time>2021-04-12T12:14:18.000Z</time>
      </trkpt>
      <trkpt lat="47.19463" lon="-1.6105">
        <ele>51</ele>
        <time>2021-04-12T12:14:20.000Z</time>
      </trkpt>
      <trkpt lat="47.1946" lon="-1.61071">
        <ele>51</ele>
        <time>2021-04-12T12:14:22.000Z</time>
      </trkpt>
      <trkpt lat="47.1946" lon="-1.61092">
        <ele>51</ele>
        <time>2021-04-12T12:14:24.000Z</time>
      </trkpt>
      <trkpt lat="47.19462" lon="-1.61113">
        <ele>50</ele>
        <time>2021-04-12T12:14:26.000Z</time>
      </trkpt>
      <trkpt lat="47.19464" lon="-1.61134">
        <ele>50</ele>
        <time>2021-04-12T12:14:28.000Z</time>
      </trkpt>
      <trkpt lat="47.19465" lon="-1.61155">
        <ele>51</ele>
        <time>2021-04-12T12:14:30.000Z</time>
      </trkpt>
      <trkpt lat="47.19467" lon="-1.61176">
        <ele>51</ele>
        <time>2021-04-12T12:14:32.000Z</time>
      </trkpt>
      <trkpt lat="47.19468" lon="-1.61196">
        <ele>51</ele>
        <time>2021-04-12T12:14:34.000Z</time>
      </trkpt>
      <trkpt lat="47.19468" lon="-1.61216">
        <ele>51</ele>
        <time>2021-04-12T12:14:36.000Z</time>
      </trkpt>
      <trkpt lat="47.19468" lon="-1.61236">
        <ele>51</ele>
        <time>2021-04-12T12:14:38.000Z</time>
      </trkpt>
      <trkpt lat="47.19468" lon="-1.61256">
        <ele>51</ele>
        <time>2021-04-12T12:14:40.000Z</time>
      </trkpt>
      <trkpt lat="47.19469" lon="-1.61276">
        <ele>51</ele>
        <time>2021-04-12T12:14:42.000Z</time>
      </trkpt>
      <trkpt lat="47.19472" lon="-1.61295">
        <ele>51</ele>
        <time>2021-04-12T12:14:44.000Z</time>
      </trkpt>
      <trkpt lat="47.19473" lon="-1.61315">
        <ele>51</ele>
        <time>2021-04-12T12:14:46.000Z</time>
      </trkpt>
      <trkpt lat="47.19475" lon="-1.61335">
        <ele>51</ele>
        <time>2021-04-12T12:14:48.000Z</time>
      </trkpt>
      <trkpt lat="47.19477" lon="-1.61356">
        <ele>52</ele>
        <time>2021-04-12T12:14:50.000Z</time>
      </trkpt>
      <trkpt lat="47.19478" lon="-1.61376">
        <ele>52</ele>
        <time>2021-04-12T12:14:52.000Z</time>
      </trkpt>
      <trkpt lat="47.19479" lon="-1.61396">
        <ele>52</ele>
        <time>2021-04-12T12:14:54.000Z</time>
      </trkpt>
      <trkpt lat="47.1948" lon="-1.61417">
        <ele>53</ele>
        <time>2021-04-12T12:14:56.000Z</time>
      </trkpt>
      <trkpt lat="47.19481" lon="-1.61437">
        <ele>53</ele>
        <time>2021-04-12T12:14:58.000Z</time>
      </trkpt>
      <trkpt lat="47.19482" lon="-1.61456">
        <ele>53</ele>
        <time>2021-04-12T12:15:00.000Z</time>
      </trkpt>
      <trkpt lat="47.1948" lon="-1.61476">
        <ele>54</ele>
        <time>2021-04-12T12:15:02.000Z</time>
      </trkpt>
      <trkpt lat="47.19475" lon="-1.61496">
        <ele>53</ele>
        <time>2021-04-12T12:15:04.000Z</time>
      </trkpt>
      <trkpt lat="47.19468" lon="-1.61516">
        <ele>53</ele>
        <time>2021-04-12T12:15:06.000Z</time>
      </trkpt>
      <trkpt lat="47.19461" lon="-1.61535">
        <ele>53</ele>
        <time>2021-04-12T12:15:08.000Z</time>
      </trkpt>
      <trkpt lat="47.19456" lon="-1.61556">
        <ele>52</ele>
        <time>2021-04-12T12:15:10.000Z</time>
      </trkpt>
      <trkpt lat="47.19453" lon="-1.61577">
        <ele>52</ele>
        <time>2021-04-12T12:15:12.000Z</time>
      </trkpt>
      <trkpt lat="47.19451" lon="-1.61597">
        <ele>52</ele>
        <time>2021-04-12T12:15:14.000Z</time>
      </trkpt>
      <trkpt lat="47.19449" lon="-1.61618">
        <ele>52</ele>
        <time>2021-04-12T12:15:16.000Z</time>
      </trkpt>
      <trkpt lat="47.19449" lon="-1.61639">
        <ele>52</ele>
        <time>2021-04-12T12:15:18.000Z</time>
      </trkpt>
      <trkpt lat="47.19448" lon="-1.61661">
        <ele>51</ele>
        <time>2021-04-12T12:15:20.000Z</time>
      </trkpt>
      <trkpt lat="47.19448" lon="-1.61681">
        <ele>51</ele>
        <time>2021-04-12T12:15:22.000Z</time>
      </trkpt>
      <trkpt lat="47.19447" lon="-1.61702">
        <ele>51</ele>
        <time>2021-04-12T12:15:24.000Z</time>
      </trkpt>
      <trkpt lat="47.19446" lon="-1.61723">
        <ele>52</ele>
        <time>2021-04-12T12:15:26.000Z</time>
      </trkpt>
      <trkpt lat="47.19443" lon="-1.61743">
        <ele>51</ele>
        <time>2021-04-12T12:15:28.000Z</time>
      </trkpt>
      <trkpt lat="47.1944" lon="-1.61764">
        <ele>52</ele>
        <time>2021-04-12T12:15:30.000Z</time>
      </trkpt>
      <trkpt lat="47.19436" lon="-1.61783">
        <ele>51</ele>
        <time>2021-04-12T12:15:32.000Z</time>
      </trkpt>
      <trkpt lat="47.19432" lon="-1.61803">
        <ele>51</ele>
        <time>2021-04-12T12:15:34.000Z</time>
      </trkpt>
      <trkpt lat="47.1943" lon="-1.61822">
        <ele>51</ele>
        <time>2021-04-12T12:15:36.000Z</time>
      </trkpt>
      <trkpt lat="47.19431" lon="-1.61842">
        <ele>50</ele>
        <time>2021-04-12T12:15:38.000Z</time>
      </trkpt>
      <trkpt lat="47.19432" lon="-1.6186">
        <ele>51</ele>
        <time>2021-04-12T12:15:40.000Z</time>
      </trkpt>
      <trkpt lat="47.19435" lon="-1.61878">
        <ele>51</ele>
        <time>2021-04-12T12:15:42.000Z</time>
      </trkpt>
      <trkpt lat="47.19439" lon="-1.61895">
        <ele>51</ele>
        <time>2021-04-12T12:15:44.000Z</time>
      </trkpt>
      <trkpt lat="47.19445" lon="-1.6191">
        <ele>51</ele>
        <time>2021-04-12T12:15:46.000Z</time>
      </trkpt>
      <trkpt lat="47.19448" lon="-1.61925">
        <ele>51</ele>
        <time>2021-04-12T12:15:48.000Z</time>
      </trkpt>
      <trkpt lat="47.19448" lon="-1.61942">
        <ele>51</ele>
        <time>2021-04-12T12:15:50.000Z</time>
      </trkpt>
      <trkpt lat="47.19451" lon="-1.61955">
        <ele>51</ele>
        <time>2021-04-12T12:15:52.000Z</time>
      </trkpt>
      <trkpt lat="47.19454" lon="-1.61969">
        <ele>51</ele>
        <time>2021-04-12T12:15:57.000Z</time>
      </trkpt>
      <trkpt lat="47.19463" lon="-1.61976">
        <ele>51</ele>
        <time>2021-04-12T12:16:04.000Z</time>
      </trkpt>
      <trkpt lat="47.19465" lon="-1.6199">
        <ele>50</ele>
        <time>2021-04-12T12:16:06.000Z</time>
      </trkpt>
      <trkpt lat="47.19464" lon="-1.62007">
        <ele>50</ele>
        <time>2021-04-12T12:16:08.000Z</time>
      </trkpt>
      <trkpt lat="47.19465" lon="-1.62026">
        <ele>51</ele>
        <time>2021-04-12T12:16:10.000Z</time>
      </trkpt>
      <trkpt lat="47.19466" lon="-1.62045">
        <ele>50</ele>
        <time>2021-04-12T12:16:12.000Z</time>
      </trkpt>
      <trkpt lat="47.19467" lon="-1.62063">
        <ele>50</ele>
        <time>2021-04-12T12:16:14.000Z</time>
      </trkpt>
      <trkpt lat="47.19468" lon="-1.62082">
        <ele>50</ele>
        <time>2021-04-12T12:16:16.000Z</time>
      </trkpt>
      <trkpt lat="47.19469" lon="-1.62101">
        <ele>50</ele>
        <time>2021-04-12T12:16:18.000Z</time>
      </trkpt>
      <trkpt lat="47.19469" lon="-1.62119">
        <ele>50</ele>
        <time>2021-04-12T12:16:20.000Z</time>
      </trkpt>
      <trkpt lat="47.1947" lon="-1.62137">
        <ele>50</ele>
        <time>2021-04-12T12:16:22.000Z</time>
      </trkpt>
      <trkpt lat="47.19471" lon="-1.62156">
        <ele>50</ele>
        <time>2021-04-12T12:16:24.000Z</time>
      </trkpt>
      <trkpt lat="47.19472" lon="-1.62175">
        <ele>50</ele>
        <time>2021-04-12T12:16:26.000Z</time>
      </trkpt>
      <trkpt lat="47.19471" lon="-1.62193">
        <ele>50</ele>
        <time>2021-04-12T12:16:28.000Z</time>
      </trkpt>
      <trkpt lat="47.19471" lon="-1.62211">
        <ele>50</ele>
        <time>2021-04-12T12:16:30.000Z</time>
      </trkpt>
      <trkpt lat="47.1947" lon="-1.62229">
        <ele>51</ele>
        <time>2021-04-12T12:16:32.000Z</time>
      </trkpt>
      <trkpt lat="47.19469" lon="-1.62247">
        <ele>51</ele>
        <time>2021-04-12T12:16:34.000Z</time>
      </trkpt>
      <trkpt lat="47.19468" lon="-1.62266">
        <ele>51</ele>
        <time>2021-04-12T12:16:36.000Z</time>
      </trkpt>
      <trkpt lat="47.19467" lon="-1.62284">
        <ele>51</ele>
        <time>2021-04-12T12:16:38.000Z</time>
      </trkpt>
      <trkpt lat="47.19467" lon="-1.62303">
        <ele>51</ele>
        <time>2021-04-12T12:16:40.000Z</time>
      </trkpt>
      <trkpt lat="47.19467" lon="-1.62321">
        <ele>52</ele>
        <time>2021-04-12T12:16:42.000Z</time>
      </trkpt>
      <trkpt lat="47.19467" lon="-1.62339">
        <ele>51</ele>
        <time>2021-04-12T12:16:44.000Z</time>
      </trkpt>
      <trkpt lat="47.19467" lon="-1.62357">
        <ele>51</ele>
        <time>2021-04-12T12:16:46.000Z</time>
      </trkpt>
      <trkpt lat="47.19467" lon="-1.62374">
        <ele>51</ele>
        <time>2021-04-12T12:16:48.000Z</time>
      </trkpt>
      <trkpt lat="47.19468" lon="-1.62392">
        <ele>51</ele>
        <time>2021-04-12T12:16:50.000Z</time>
      </trkpt>
      <trkpt lat="47.19467" lon="-1.6241">
        <ele>51</ele>
        <time>2021-04-12T12:16:52.000Z</time>
      </trkpt>
      <trkpt lat="47.19468" lon="-1.62428">
        <ele>51</ele>
        <time>2021-04-12T12:16:54.000Z</time>
      </trkpt>
      <trkpt lat="47.19468" lon="-1.62445">
        <ele>51</ele>
        <time>2021-04-12T12:16:56.000Z</time>
      </trkpt>
      <trkpt lat="47.19469" lon="-1.62464">
        <ele>51</ele>
        <time>2021-04-12T12:16:58.000Z</time>
      </trkpt>
      <trkpt lat="47.1947" lon="-1.62481">
        <ele>51</ele>
        <time>2021-04-12T12:17:00.000Z</time>
      </trkpt>
      <trkpt lat="47.1947" lon="-1.62499">
        <ele>50</ele>
        <time>2021-04-12T12:17:02.000Z</time>
      </trkpt>
      <trkpt lat="47.19471" lon="-1.62517">
        <ele>50</ele>
        <time>2021-04-12T12:17:04.000Z</time>
      </trkpt>
      <trkpt lat="47.19472" lon="-1.62534">
        <ele>50</ele>
        <time>2021-04-12T12:17:06.000Z</time>
      </trkpt>
      <trkpt lat="47.19473" lon="-1.62552">
        <ele>50</ele>
        <time>2021-04-12T12:17:08.000Z</time>
      </trkpt>
      <trkpt lat="47.19475" lon="-1.6257">
        <ele>50</ele>
        <time>2021-04-12T12:17:10.000Z</time>
      </trkpt>
      <trkpt lat="47.19475" lon="-1.62587">
        <ele>50</ele>
        <time>2021-04-12T12:17:12.000Z</time>
      </trkpt>
      <trkpt lat="47.19475" lon="-1.62604">
        <ele>51</ele>
        <time>2021-04-12T12:17:14.000Z</time>
      </trkpt>
      <trkpt lat="47.19476" lon="-1.62623">
        <ele>51</ele>
        <time>2021-04-12T12:17:16.000Z</time>
      </trkpt>
      <trkpt lat="47.19477" lon="-1.62641">
        <ele>51</ele>
        <time>2021-04-12T12:17:18.000Z</time>
      </trkpt>
      <trkpt lat="47.19478" lon="-1.62659">
        <ele>51</ele>
        <time>2021-04-12T12:17:20.000Z</time>
      </trkpt>
      <trkpt lat="47.19479" lon="-1.62677">
        <ele>51</ele>
        <time>2021-04-12T12:17:22.000Z</time>
      </trkpt>
      <trkpt lat="47.1948" lon="-1.62695">
        <ele>51</ele>
        <time>2021-04-12T12:17:24.000Z</time>
      </trkpt>
      <trkpt lat="47.19481" lon="-1.62712">
        <ele>51</ele>
        <time>2021-04-12T12:17:26.000Z</time>
      </trkpt>
      <trkpt lat="47.19483" lon="-1.62729">
        <ele>50</ele>
        <time>2021-04-12T12:17:28.000Z</time>
      </trkpt>
      <trkpt lat="47.19485" lon="-1.62748">
        <ele>50</ele>
        <time>2021-04-12T12:17:30.000Z</time>
      </trkpt>
      <trkpt lat="47.19486" lon="-1.62767">
        <ele>50</ele>
        <time>2021-04-12T12:17:32.000Z</time>
      </trkpt>
      <trkpt lat="47.19487" lon="-1.62785">
        <ele>50</ele>
        <time>2021-04-12T12:17:34.000Z</time>
      </trkpt>
      <trkpt lat="47.19487" lon="-1.62803">
        <ele>51</ele>
        <time>2021-04-12T12:17:36.000Z</time>
      </trkpt>
      <trkpt lat="47.19488" lon="-1.62822">
        <ele>51</ele>
        <time>2021-04-12T12:17:38.000Z</time>
      </trkpt>
      <trkpt lat="47.1949" lon="-1.62841">
        <ele>51</ele>
        <time>2021-04-12T12:17:40.000Z</time>
      </trkpt>
      <trkpt lat="47.19492" lon="-1.6286">
        <ele>51</ele>
        <time>2021-04-12T12:17:42.000Z</time>
      </trkpt>
      <trkpt lat="47.19494" lon="-1.62878">
        <ele>51</ele>
        <time>2021-04-12T12:17:44.000Z</time>
      </trkpt>
      <trkpt lat="47.19497" lon="-1.62896">
        <ele>51</ele>
        <time>2021-04-12T12:17:46.000Z</time>
      </trkpt>
      <trkpt lat="47.19498" lon="-1.62915">
        <ele>50</ele>
        <time>2021-04-12T12:17:48.000Z</time>
      </trkpt>
      <trkpt lat="47.19499" lon="-1.62932">
        <ele>50</ele>
        <time>2021-04-12T12:17:50.000Z</time>
      </trkpt>
      <trkpt lat="47.195" lon="-1.6295">
        <ele>50</ele>
        <time>2021-04-12T12:17:52.000Z</time>
      </trkpt>
      <trkpt lat="47.19501" lon="-1.62968">
        <ele>50</ele>
        <time>2021-04-12T12:17:54.000Z</time>
      </trkpt>
      <trkpt lat="47.19503" lon="-1.62986">
        <ele>50</ele>
        <time>2021-04-12T12:17:56.000Z</time>
      </trkpt>
      <trkpt lat="47.19504" lon="-1.63003">
        <ele>50</ele>
        <time>2021-04-12T12:17:58.000Z</time>
      </trkpt>
      <trkpt lat="47.19506" lon="-1.63021">
        <ele>50</ele>
        <time>2021-04-12T12:18:00.000Z</time>
      </trkpt>
      <trkpt lat="47.19507" lon="-1.63039">
        <ele>51</ele>
        <time>2021-04-12T12:18:02.000Z</time>
      </trkpt>
      <trkpt lat="47.19508" lon="-1.63057">
        <ele>51</ele>
        <time>2021-04-12T12:18:04.000Z</time>
      </trkpt>
      <trkpt lat="47.19509" lon="-1.63075">
        <ele>51</ele>
        <time>2021-04-12T12:18:06.000Z</time>
      </trkpt>
      <trkpt lat="47.19509" lon="-1.63092">
        <ele>50</ele>
        <time>2021-04-12T12:18:08.000Z</time>
      </trkpt>
      <trkpt lat="47.19509" lon="-1.63109">
        <ele>50</ele>
        <time>2021-04-12T12:18:10.000Z</time>
      </trkpt>
      <trkpt lat="47.19508" lon="-1.63126">
        <ele>49</ele>
        <time>2021-04-12T12:18:12.000Z</time>
      </trkpt>
      <trkpt lat="47.19507" lon="-1.63144">
        <ele>50</ele>
        <time>2021-04-12T12:18:14.000Z</time>
      </trkpt>
      <trkpt lat="47.19505" lon="-1.63162">
        <ele>50</ele>
        <time>2021-04-12T12:18:16.000Z</time>
      </trkpt>
      <trkpt lat="47.19504" lon="-1.6318">
        <ele>50</ele>
        <time>2021-04-12T12:18:18.000Z</time>
      </trkpt>
      <trkpt lat="47.19501" lon="-1.63197">
        <ele>50</ele>
        <time>2021-04-12T12:18:20.000Z</time>
      </trkpt>
      <trkpt lat="47.195" lon="-1.63215">
        <ele>50</ele>
        <time>2021-04-12T12:18:22.000Z</time>
      </trkpt>
      <trkpt lat="47.19498" lon="-1.63234">
        <ele>50</ele>
        <time>2021-04-12T12:18:24.000Z</time>
      </trkpt>
      <trkpt lat="47.19495" lon="-1.63251">
        <ele>50</ele>
        <time>2021-04-12T12:18:26.000Z</time>
      </trkpt>
      <trkpt lat="47.19493" lon="-1.63269">
        <ele>50</ele>
        <time>2021-04-12T12:18:28.000Z</time>
      </trkpt>
      <trkpt lat="47.1949" lon="-1.63286">
        <ele>50</ele>
        <time>2021-04-12T12:18:30.000Z</time>
      </trkpt>
      <trkpt lat="47.19488" lon="-1.63303">
        <ele>49</ele>
        <time>2021-04-12T12:18:32.000Z</time>
      </trkpt>
      <trkpt lat="47.19487" lon="-1.63321">
        <ele>49</ele>
        <time>2021-04-12T12:18:34.000Z</time>
      </trkpt>
      <trkpt lat="47.19484" lon="-1.63338">
        <ele>49</ele>
        <time>2021-04-12T12:18:36.000Z</time>
      </trkpt>
      <trkpt lat="47.19483" lon="-1.63355">
        <ele>49</ele>
        <time>2021-04-12T12:18:38.000Z</time>
      </trkpt>
      <trkpt lat="47.19481" lon="-1.63372">
        <ele>48</ele>
        <time>2021-04-12T12:18:40.000Z</time>
      </trkpt>
      <trkpt lat="47.1948" lon="-1.63388">
        <ele>49</ele>
        <time>2021-04-12T12:18:42.000Z</time>
      </trkpt>
      <trkpt lat="47.19477" lon="-1.63405">
        <ele>49</ele>
        <time>2021-04-12T12:18:44.000Z</time>
      </trkpt>
      <trkpt lat="47.19476" lon="-1.63422">
        <ele>49</ele>
        <time>2021-04-12T12:18:46.000Z</time>
      </trkpt>
      <trkpt lat="47.19474" lon="-1.6344">
        <ele>48</ele>
        <time>2021-04-12T12:18:48.000Z</time>
      </trkpt>
      <trkpt lat="47.19472" lon="-1.63456">
        <ele>49</ele>
        <time>2021-04-12T12:18:50.000Z</time>
      </trkpt>
      <trkpt lat="47.1947" lon="-1.63473">
        <ele>49</ele>
        <time>2021-04-12T12:18:52.000Z</time>
      </trkpt>
      <trkpt lat="47.19468" lon="-1.6349">
        <ele>48</ele>
        <time>2021-04-12T12:18:54.000Z</time>
      </trkpt>
      <trkpt lat="47.19465" lon="-1.63508">
        <ele>49</ele>
        <time>2021-04-12T12:18:56.000Z</time>
      </trkpt>
      <trkpt lat="47.19463" lon="-1.63525">
        <ele>49</ele>
        <time>2021-04-12T12:18:58.000Z</time>
      </trkpt>
      <trkpt lat="47.19461" lon="-1.63544">
        <ele>49</ele>
        <time>2021-04-12T12:19:00.000Z</time>
      </trkpt>
      <trkpt lat="47.19459" lon="-1.63562">
        <ele>49</ele>
        <time>2021-04-12T12:19:02.000Z</time>
      </trkpt>
      <trkpt lat="47.19456" lon="-1.6358">
        <ele>49</ele>
        <time>2021-04-12T12:19:04.000Z</time>
      </trkpt>
      <trkpt lat="47.19452" lon="-1.63597">
        <ele>50</ele>
        <time>2021-04-12T12:19:06.000Z</time>
      </trkpt>
      <trkpt lat="47.1945" lon="-1.63614">
        <ele>50</ele>
        <time>2021-04-12T12:19:08.000Z</time>
      </trkpt>
      <trkpt lat="47.19449" lon="-1.63632">
        <ele>50</ele>
        <time>2021-04-12T12:19:10.000Z</time>
      </trkpt>
      <trkpt lat="47.19448" lon="-1.6365">
        <ele>51</ele>
        <time>2021-04-12T12:19:12.000Z</time>
      </trkpt>
      <trkpt lat="47.19447" lon="-1.63668">
        <ele>51</ele>
        <time>2021-04-12T12:19:14.000Z</time>
      </trkpt>
      <trkpt lat="47.19447" lon="-1.63686">
        <ele>51</ele>
        <time>2021-04-12T12:19:16.000Z</time>
      </trkpt>
      <trkpt lat="47.19447" lon="-1.63703">
        <ele>51</ele>
        <time>2021-04-12T12:19:18.000Z</time>
      </trkpt>
      <trkpt lat="47.19448" lon="-1.6372">
        <ele>51</ele>
        <time>2021-04-12T12:19:20.000Z</time>
      </trkpt>
      <trkpt lat="47.19448" lon="-1.63737">
        <ele>52</ele>
        <time>2021-04-12T12:19:22.000Z</time>
      </trkpt>
      <trkpt lat="47.1945" lon="-1.63753">
        <ele>51</ele>
        <time>2021-04-12T12:19:24.000Z</time>
      </trkpt>
      <trkpt lat="47.19451" lon="-1.63768">
        <ele>51</ele>
        <time>2021-04-12T12:19:26.000Z</time>
      </trkpt>
      <trkpt lat="47.19449" lon="-1.63791">
        <ele>50</ele>
        <time>2021-04-12T12:19:30.000Z</time>
      </trkpt>
      <trkpt lat="47.19455" lon="-1.63807">
        <ele>50</ele>
        <time>2021-04-12T12:19:33.000Z</time>
      </trkpt>
      <trkpt lat="47.19462" lon="-1.6383">
        <ele>50</ele>
        <time>2021-04-12T12:19:36.000Z</time>
      </trkpt>
      <trkpt lat="47.19454" lon="-1.63853">
        <ele>50</ele>
        <time>2021-04-12T12:19:39.000Z</time>
      </trkpt>
      <trkpt lat="47.19441" lon="-1.63858">
        <ele>50</ele>
        <time>2021-04-12T12:19:41.000Z</time>
      </trkpt>
      <trkpt lat="47.19424" lon="-1.6387">
        <ele>50</ele>
        <time>2021-04-12T12:19:44.000Z</time>
      </trkpt>
      <trkpt lat="47.19423" lon="-1.63887">
        <ele>50</ele>
        <time>2021-04-12T12:19:46.000Z</time>
      </trkpt>
      <trkpt lat="47.19421" lon="-1.63913">
        <ele>51</ele>
        <time>2021-04-12T12:19:49.000Z</time>
      </trkpt>
      <trkpt lat="47.19419" lon="-1.63931">
        <ele>51</ele>
        <time>2021-04-12T12:19:51.000Z</time>
      </trkpt>
      <trkpt lat="47.19418" lon="-1.6395">
        <ele>51</ele>
        <time>2021-04-12T12:19:53.000Z</time>
      </trkpt>
      <trkpt lat="47.19417" lon="-1.63968">
        <ele>51</ele>
        <time>2021-04-12T12:19:55.000Z</time>
      </trkpt>
      <trkpt lat="47.19417" lon="-1.63986">
        <ele>51</ele>
        <time>2021-04-12T12:19:57.000Z</time>
      </trkpt>
      <trkpt lat="47.19416" lon="-1.64004">
        <ele>51</ele>
        <time>2021-04-12T12:19:59.000Z</time>
      </trkpt>
      <trkpt lat="47.19414" lon="-1.64032">
        <ele>51</ele>
        <time>2021-04-12T12:20:02.000Z</time>
      </trkpt>
      <trkpt lat="47.19411" lon="-1.6406">
        <ele>51</ele>
        <time>2021-04-12T12:20:05.000Z</time>
      </trkpt>
      <trkpt lat="47.1941" lon="-1.64078">
        <ele>51</ele>
        <time>2021-04-12T12:20:07.000Z</time>
      </trkpt>
      <trkpt lat="47.19409" lon="-1.64096">
        <ele>50</ele>
        <time>2021-04-12T12:20:09.000Z</time>
      </trkpt>
      <trkpt lat="47.19407" lon="-1.64114">
        <ele>50</ele>
        <time>2021-04-12T12:20:11.000Z</time>
      </trkpt>
      <trkpt lat="47.19406" lon="-1.64131">
        <ele>50</ele>
        <time>2021-04-12T12:20:13.000Z</time>
      </trkpt>
      <trkpt lat="47.19405" lon="-1.64149">
        <ele>50</ele>
        <time>2021-04-12T12:20:15.000Z</time>
      </trkpt>
      <trkpt lat="47.19404" lon="-1.64166">
        <ele>51</ele>
        <time>2021-04-12T12:20:17.000Z</time>
      </trkpt>
      <trkpt lat="47.19402" lon="-1.64184">
        <ele>51</ele>
        <time>2021-04-12T12:20:19.000Z</time>
      </trkpt>
      <trkpt lat="47.19401" lon="-1.64204">
        <ele>50</ele>
        <time>2021-04-12T12:20:21.000Z</time>
      </trkpt>
      <trkpt lat="47.194" lon="-1.64222">
        <ele>50</ele>
        <time>2021-04-12T12:20:23.000Z</time>
      </trkpt>
      <trkpt lat="47.19399" lon="-1.64241">
        <ele>50</ele>
        <time>2021-04-12T12:20:25.000Z</time>
      </trkpt>
      <trkpt lat="47.19397" lon="-1.64268">
        <ele>50</ele>
        <time>2021-04-12T12:20:28.000Z</time>
      </trkpt>
      <trkpt lat="47.19396" lon="-1.64285">
        <ele>50</ele>
        <time>2021-04-12T12:20:30.000Z</time>
      </trkpt>
      <trkpt lat="47.19395" lon="-1.64303">
        <ele>50</ele>
        <time>2021-04-12T12:20:32.000Z</time>
      </trkpt>
      <trkpt lat="47.19395" lon="-1.64321">
        <ele>51</ele>
        <time>2021-04-12T12:20:34.000Z</time>
      </trkpt>
      <trkpt lat="47.19394" lon="-1.64339">
        <ele>51</ele>
        <time>2021-04-12T12:20:36.000Z</time>
      </trkpt>
      <trkpt lat="47.19393" lon="-1.64357">
        <ele>51</ele>
        <time>2021-04-12T12:20:38.000Z</time>
      </trkpt>
      <trkpt lat="47.19392" lon="-1.64375">
        <ele>51</ele>
        <time>2021-04-12T12:20:40.000Z</time>
      </trkpt>
      <trkpt lat="47.1939" lon="-1.64394">
        <ele>51</ele>
        <time>2021-04-12T12:20:42.000Z</time>
      </trkpt>
      <trkpt lat="47.19388" lon="-1.64421">
        <ele>51</ele>
        <time>2021-04-12T12:20:45.000Z</time>
      </trkpt>
      <trkpt lat="47.19386" lon="-1.64439">
        <ele>51</ele>
        <time>2021-04-12T12:20:47.000Z</time>
      </trkpt>
      <trkpt lat="47.19385" lon="-1.64457">
        <ele>51</ele>
        <time>2021-04-12T12:20:49.000Z</time>
      </trkpt>
      <trkpt lat="47.19384" lon="-1.64474">
        <ele>52</ele>
        <time>2021-04-12T12:20:51.000Z</time>
      </trkpt>
      <trkpt lat="47.19383" lon="-1.64492">
        <ele>52</ele>
        <time>2021-04-12T12:20:53.000Z</time>
      </trkpt>
      <trkpt lat="47.19382" lon="-1.64509">
        <ele>51</ele>
        <time>2021-04-12T12:20:55.000Z</time>
      </trkpt>
      <trkpt lat="47.19381" lon="-1.64528">
        <ele>51</ele>
        <time>2021-04-12T12:20:57.000Z</time>
      </trkpt>
      <trkpt lat="47.1938" lon="-1.64546">
        <ele>51</ele>
        <time>2021-04-12T12:20:59.000Z</time>
      </trkpt>
      <trkpt lat="47.19379" lon="-1.64562">
        <ele>51</ele>
        <time>2021-04-12T12:21:01.000Z</time>
      </trkpt>
      <trkpt lat="47.19377" lon="-1.6458">
        <ele>51</ele>
        <time>2021-04-12T12:21:03.000Z</time>
      </trkpt>
      <trkpt lat="47.19375" lon="-1.64596">
        <ele>51</ele>
        <time>2021-04-12T12:21:05.000Z</time>
      </trkpt>
      <trkpt lat="47.19376" lon="-1.64614">
        <ele>51</ele>
        <time>2021-04-12T12:21:07.000Z</time>
      </trkpt>
      <trkpt lat="47.19377" lon="-1.64629">
        <ele>50</ele>
        <time>2021-04-12T12:21:09.000Z</time>
      </trkpt>
      <trkpt lat="47.1937" lon="-1.64644">
        <ele>50</ele>
        <time>2021-04-12T12:21:11.000Z</time>
      </trkpt>
      <trkpt lat="47.19363" lon="-1.64657">
        <ele>49</ele>
        <time>2021-04-12T12:21:13.000Z</time>
      </trkpt>
      <trkpt lat="47.19355" lon="-1.6467">
        <ele>49</ele>
        <time>2021-04-12T12:21:15.000Z</time>
      </trkpt>
      <trkpt lat="47.19349" lon="-1.64686">
        <ele>49</ele>
        <time>2021-04-12T12:21:17.000Z</time>
      </trkpt>
      <trkpt lat="47.19344" lon="-1.64702">
        <ele>48</ele>
        <time>2021-04-12T12:21:19.000Z</time>
      </trkpt>
      <trkpt lat="47.19342" lon="-1.64719">
        <ele>48</ele>
        <time>2021-04-12T12:21:21.000Z</time>
      </trkpt>
      <trkpt lat="47.19345" lon="-1.64735">
        <ele>49</ele>
        <time>2021-04-12T12:21:23.000Z</time>
      </trkpt>
      <trkpt lat="47.1935" lon="-1.6475">
        <ele>50</ele>
        <time>2021-04-12T12:21:25.000Z</time>
      </trkpt>
      <trkpt lat="47.19356" lon="-1.64762">
        <ele>49</ele>
        <time>2021-04-12T12:21:27.000Z</time>
      </trkpt>
      <trkpt lat="47.19362" lon="-1.64775">
        <ele>49</ele>
        <time>2021-04-12T12:21:29.000Z</time>
      </trkpt>
      <trkpt lat="47.19369" lon="-1.64789">
        <ele>49</ele>
        <time>2021-04-12T12:21:31.000Z</time>
      </trkpt>
      <trkpt lat="47.19375" lon="-1.64804">
        <ele>50</ele>
        <time>2021-04-12T12:21:33.000Z</time>
      </trkpt>
      <trkpt lat="47.19382" lon="-1.64818">
        <ele>49</ele>
        <time>2021-04-12T12:21:35.000Z</time>
      </trkpt>
      <trkpt lat="47.19388" lon="-1.64833">
        <ele>49</ele>
        <time>2021-04-12T12:21:37.000Z</time>
      </trkpt>
      <trkpt lat="47.19395" lon="-1.64846">
        <ele>49</ele>
        <time>2021-04-12T12:21:39.000Z</time>
      </trkpt>
      <trkpt lat="47.19403" lon="-1.64859">
        <ele>49</ele>
        <time>2021-04-12T12:21:41.000Z</time>
      </trkpt>
      <trkpt lat="47.1941" lon="-1.64873">
        <ele>49</ele>
        <time>2021-04-12T12:21:43.000Z</time>
      </trkpt>
      <trkpt lat="47.19417" lon="-1.64886">
        <ele>48</ele>
        <time>2021-04-12T12:21:45.000Z</time>
      </trkpt>
      <trkpt lat="47.19423" lon="-1.64901">
        <ele>48</ele>
        <time>2021-04-12T12:21:47.000Z</time>
      </trkpt>
      <trkpt lat="47.19428" lon="-1.64917">
        <ele>48</ele>
        <time>2021-04-12T12:21:49.000Z</time>
      </trkpt>
      <trkpt lat="47.19431" lon="-1.64932">
        <ele>48</ele>
        <time>2021-04-12T12:21:51.000Z</time>
      </trkpt>
      <trkpt lat="47.19436" lon="-1.64945">
        <ele>49</ele>
        <time>2021-04-12T12:21:53.000Z</time>
      </trkpt>
      <trkpt lat="47.19445" lon="-1.6496">
        <ele>48</ele>
        <time>2021-04-12T12:21:56.000Z</time>
      </trkpt>
      <trkpt lat="47.19451" lon="-1.64971">
        <ele>47</ele>
        <time>2021-04-12T12:21:58.000Z</time>
      </trkpt>
      <trkpt lat="47.19457" lon="-1.64984">
        <ele>47</ele>
        <time>2021-04-12T12:22:00.000Z</time>
      </trkpt>
      <trkpt lat="47.19463" lon="-1.64999">
        <ele>47</ele>
        <time>2021-04-12T12:22:02.000Z</time>
      </trkpt>
      <trkpt lat="47.19467" lon="-1.65016">
        <ele>48</ele>
        <time>2021-04-12T12:22:04.000Z</time>
      </trkpt>
      <trkpt lat="47.19473" lon="-1.65032">
        <ele>49</ele>
        <time>2021-04-12T12:22:06.000Z</time>
      </trkpt>
      <trkpt lat="47.19478" lon="-1.65048">
        <ele>50</ele>
        <time>2021-04-12T12:22:08.000Z</time>
      </trkpt>
      <trkpt lat="47.19484" lon="-1.65063">
        <ele>50</ele>
        <time>2021-04-12T12:22:10.000Z</time>
      </trkpt>
      <trkpt lat="47.1949" lon="-1.65079">
        <ele>51</ele>
        <time>2021-04-12T12:22:12.000Z</time>
      </trkpt>
      <trkpt lat="47.19494" lon="-1.65096">
        <ele>51</ele>
        <time>2021-04-12T12:22:14.000Z</time>
      </trkpt>
      <trkpt lat="47.19496" lon="-1.65114">
        <ele>51</ele>
        <time>2021-04-12T12:22:16.000Z</time>
      </trkpt>
      <trkpt lat="47.19499" lon="-1.65132">
        <ele>50</ele>
        <time>2021-04-12T12:22:18.000Z</time>
      </trkpt>
      <trkpt lat="47.19502" lon="-1.65151">
        <ele>50</ele>
        <time>2021-04-12T12:22:20.000Z</time>
      </trkpt>
      <trkpt lat="47.19506" lon="-1.6517">
        <ele>50</ele>
        <time>2021-04-12T12:22:22.000Z</time>
      </trkpt>
      <trkpt lat="47.19511" lon="-1.65189">
        <ele>49</ele>
        <time>2021-04-12T12:22:24.000Z</time>
      </trkpt>
      <trkpt lat="47.19515" lon="-1.65208">
        <ele>49</ele>
        <time>2021-04-12T12:22:26.000Z</time>
      </trkpt>
      <trkpt lat="47.19521" lon="-1.65227">
        <ele>49</ele>
        <time>2021-04-12T12:22:28.000Z</time>
      </trkpt>
      <trkpt lat="47.19527" lon="-1.65244">
        <ele>49</ele>
        <time>2021-04-12T12:22:30.000Z</time>
      </trkpt>
      <trkpt lat="47.19533" lon="-1.65261">
        <ele>48</ele>
        <time>2021-04-12T12:22:32.000Z</time>
      </trkpt>
      <trkpt lat="47.19538" lon="-1.65279">
        <ele>48</ele>
        <time>2021-04-12T12:22:34.000Z</time>
      </trkpt>
      <trkpt lat="47.19543" lon="-1.65297">
        <ele>48</ele>
        <time>2021-04-12T12:22:36.000Z</time>
      </trkpt>
      <trkpt lat="47.19549" lon="-1.65315">
        <ele>48</ele>
        <time>2021-04-12T12:22:38.000Z</time>
      </trkpt>
      <trkpt lat="47.19555" lon="-1.65331">
        <ele>48</ele>
        <time>2021-04-12T12:22:40.000Z</time>
      </trkpt>
      <trkpt lat="47.19561" lon="-1.65348">
        <ele>48</ele>
        <time>2021-04-12T12:22:42.000Z</time>
      </trkpt>
      <trkpt lat="47.19566" lon="-1.65367">
        <ele>48</ele>
        <time>2021-04-12T12:22:44.000Z</time>
      </trkpt>
      <trkpt lat="47.19572" lon="-1.65384">
        <ele>48</ele>
        <time>2021-04-12T12:22:46.000Z</time>
      </trkpt>
      <trkpt lat="47.19577" lon="-1.654">
        <ele>48</ele>
        <time>2021-04-12T12:22:48.000Z</time>
      </trkpt>
      <trkpt lat="47.19583" lon="-1.65418">
        <ele>48</ele>
        <time>2021-04-12T12:22:50.000Z</time>
      </trkpt>
      <trkpt lat="47.19588" lon="-1.65434">
        <ele>48</ele>
        <time>2021-04-12T12:22:52.000Z</time>
      </trkpt>
      <trkpt lat="47.19593" lon="-1.65452">
        <ele>48</ele>
        <time>2021-04-12T12:22:54.000Z</time>
      </trkpt>
      <trkpt lat="47.19598" lon="-1.6547">
        <ele>48</ele>
        <time>2021-04-12T12:22:56.000Z</time>
      </trkpt>
      <trkpt lat="47.19602" lon="-1.65488">
        <ele>48</ele>
        <time>2021-04-12T12:22:58.000Z</time>
      </trkpt>
      <trkpt lat="47.19605" lon="-1.65505">
        <ele>49</ele>
        <time>2021-04-12T12:23:00.000Z</time>
      </trkpt>
      <trkpt lat="47.19609" lon="-1.65523">
        <ele>49</ele>
        <time>2021-04-12T12:23:02.000Z</time>
      </trkpt>
      <trkpt lat="47.19613" lon="-1.65541">
        <ele>49</ele>
        <time>2021-04-12T12:23:04.000Z</time>
      </trkpt>
      <trkpt lat="47.19617" lon="-1.65559">
        <ele>48</ele>
        <time>2021-04-12T12:23:06.000Z</time>
      </trkpt>
      <trkpt lat="47.19621" lon="-1.65578">
        <ele>48</ele>
        <time>2021-04-12T12:23:08.000Z</time>
      </trkpt>
      <trkpt lat="47.19624" lon="-1.65596">
        <ele>49</ele>
        <time>2021-04-12T12:23:10.000Z</time>
      </trkpt>
      <trkpt lat="47.19628" lon="-1.65613">
        <ele>50</ele>
        <time>2021-04-12T12:23:12.000Z</time>
      </trkpt>
      <trkpt lat="47.19631" lon="-1.65631">
        <ele>51</ele>
        <time>2021-04-12T12:23:14.000Z</time>
      </trkpt>
      <trkpt lat="47.19634" lon="-1.65648">
        <ele>52</ele>
        <time>2021-04-12T12:23:16.000Z</time>
      </trkpt>
      <trkpt lat="47.19637" lon="-1.65666">
        <ele>52</ele>
        <time>2021-04-12T12:23:18.000Z</time>
      </trkpt>
      <trkpt lat="47.1964" lon="-1.65683">
        <ele>52</ele>
        <time>2021-04-12T12:23:20.000Z</time>
      </trkpt>
      <trkpt lat="47.19644" lon="-1.657">
        <ele>52</ele>
        <time>2021-04-12T12:23:22.000Z</time>
      </trkpt>
      <trkpt lat="47.19647" lon="-1.65718">
        <ele>51</ele>
        <time>2021-04-12T12:23:24.000Z</time>
      </trkpt>
      <trkpt lat="47.19651" lon="-1.65736">
        <ele>51</ele>
        <time>2021-04-12T12:23:26.000Z</time>
      </trkpt>
      <trkpt lat="47.19654" lon="-1.65753">
        <ele>51</ele>
        <time>2021-04-12T12:23:28.000Z</time>
      </trkpt>
      <trkpt lat="47.19657" lon="-1.6577">
        <ele>51</ele>
        <time>2021-04-12T12:23:30.000Z</time>
      </trkpt>
      <trkpt lat="47.1966" lon="-1.65787">
        <ele>51</ele>
        <time>2021-04-12T12:23:32.000Z</time>
      </trkpt>
      <trkpt lat="47.19664" lon="-1.65803">
        <ele>51</ele>
        <time>2021-04-12T12:23:34.000Z</time>
      </trkpt>
      <trkpt lat="47.19667" lon="-1.65821">
        <ele>51</ele>
        <time>2021-04-12T12:23:36.000Z</time>
      </trkpt>
      <trkpt lat="47.1967" lon="-1.65838">
        <ele>51</ele>
        <time>2021-04-12T12:23:38.000Z</time>
      </trkpt>
      <trkpt lat="47.19673" lon="-1.65856">
        <ele>51</ele>
        <time>2021-04-12T12:23:40.000Z</time>
      </trkpt>
      <trkpt lat="47.19677" lon="-1.65873">
        <ele>51</ele>
        <time>2021-04-12T12:23:42.000Z</time>
      </trkpt>
      <trkpt lat="47.1968" lon="-1.6589">
        <ele>50</ele>
        <time>2021-04-12T12:23:44.000Z</time>
      </trkpt>
      <trkpt lat="47.19684" lon="-1.65907">
        <ele>50</ele>
        <time>2021-04-12T12:23:46.000Z</time>
      </trkpt>
      <trkpt lat="47.19688" lon="-1.65925">
        <ele>49</ele>
        <time>2021-04-12T12:23:48.000Z</time>
      </trkpt>
      <trkpt lat="47.19694" lon="-1.65943">
        <ele>49</ele>
        <time>2021-04-12T12:23:50.000Z</time>
      </trkpt>
      <trkpt lat="47.19701" lon="-1.6596">
        <ele>50</ele>
        <time>2021-04-12T12:23:52.000Z</time>
      </trkpt>
      <trkpt lat="47.19707" lon="-1.65977">
        <ele>50</ele>
        <time>2021-04-12T12:23:54.000Z</time>
      </trkpt>
      <trkpt lat="47.19714" lon="-1.65993">
        <ele>50</ele>
        <time>2021-04-12T12:23:56.000Z</time>
      </trkpt>
      <trkpt lat="47.19721" lon="-1.66008">
        <ele>51</ele>
        <time>2021-04-12T12:23:58.000Z</time>
      </trkpt>
      <trkpt lat="47.19731" lon="-1.6602">
        <ele>51</ele>
        <time>2021-04-12T12:24:00.000Z</time>
      </trkpt>
      <trkpt lat="47.19742" lon="-1.66023">
        <ele>51</ele>
        <time>2021-04-12T12:24:02.000Z</time>
      </trkpt>
      <trkpt lat="47.19755" lon="-1.66023">
        <ele>51</ele>
        <time>2021-04-12T12:24:04.000Z</time>
      </trkpt>
      <trkpt lat="47.19765" lon="-1.66035">
        <ele>50</ele>
        <time>2021-04-12T12:24:06.000Z</time>
      </trkpt>
      <trkpt lat="47.19768" lon="-1.66052">
        <ele>51</ele>
        <time>2021-04-12T12:24:08.000Z</time>
      </trkpt>
      <trkpt lat="47.19763" lon="-1.6607">
        <ele>51</ele>
        <time>2021-04-12T12:24:10.000Z</time>
      </trkpt>
      <trkpt lat="47.19756" lon="-1.66084">
        <ele>51</ele>
        <time>2021-04-12T12:24:12.000Z</time>
      </trkpt>
      <trkpt lat="47.19751" lon="-1.66099">
        <ele>51</ele>
        <time>2021-04-12T12:24:14.000Z</time>
      </trkpt>
      <trkpt lat="47.19752" lon="-1.66117">
        <ele>52</ele>
        <time>2021-04-12T12:24:16.000Z</time>
      </trkpt>
      <trkpt lat="47.19753" lon="-1.66136">
        <ele>52</ele>
        <time>2021-04-12T12:24:18.000Z</time>
      </trkpt>
      <trkpt lat="47.19755" lon="-1.66154">
        <ele>51</ele>
        <time>2021-04-12T12:24:20.000Z</time>
      </trkpt>
      <trkpt lat="47.19757" lon="-1.66172">
        <ele>51</ele>
        <time>2021-04-12T12:24:22.000Z</time>
      </trkpt>
      <trkpt lat="47.19759" lon="-1.66191">
        <ele>51</ele>
        <time>2021-04-12T12:24:24.000Z</time>
      </trkpt>
      <trkpt lat="47.19758" lon="-1.66209">
        <ele>51</ele>
        <time>2021-04-12T12:24:26.000Z</time>
      </trkpt>
      <trkpt lat="47.19758" lon="-1.66228">
        <ele>51</ele>
        <time>2021-04-12T12:24:28.000Z</time>
      </trkpt>
      <trkpt lat="47.19757" lon="-1.66246">
        <ele>51</ele>
        <time>2021-04-12T12:24:30.000Z</time>
      </trkpt>
      <trkpt lat="47.19755" lon="-1.66264">
        <ele>51</ele>
        <time>2021-04-12T12:24:32.000Z</time>
      </trkpt>
      <trkpt lat="47.19753" lon="-1.66283">
        <ele>52</ele>
        <time>2021-04-12T12:24:34.000Z</time>
      </trkpt>
      <trkpt lat="47.19751" lon="-1.66302">
        <ele>52</ele>
        <time>2021-04-12T12:24:36.000Z</time>
      </trkpt>
      <trkpt lat="47.19748" lon="-1.66322">
        <ele>52</ele>
        <time>2021-04-12T12:24:38.000Z</time>
      </trkpt>
      <trkpt lat="47.19746" lon="-1.66342">
        <ele>52</ele>
        <time>2021-04-12T12:24:40.000Z</time>
      </trkpt>
      <trkpt lat="47.19745" lon="-1.66363">
        <ele>52</ele>
        <time>2021-04-12T12:24:42.000Z</time>
      </trkpt>
      <trkpt lat="47.19743" lon="-1.66385">
        <ele>53</ele>
        <time>2021-04-12T12:24:44.000Z</time>
      </trkpt>
      <trkpt lat="47.19741" lon="-1.66405">
        <ele>53</ele>
        <time>2021-04-12T12:24:46.000Z</time>
      </trkpt>
      <trkpt lat="47.19739" lon="-1.66425">
        <ele>54</ele>
        <time>2021-04-12T12:24:48.000Z</time>
      </trkpt>
      <trkpt lat="47.19736" lon="-1.66444">
        <ele>53</ele>
        <time>2021-04-12T12:24:50.000Z</time>
      </trkpt>
      <trkpt lat="47.19735" lon="-1.66465">
        <ele>53</ele>
        <time>2021-04-12T12:24:52.000Z</time>
      </trkpt>
      <trkpt lat="47.19733" lon="-1.66485">
        <ele>53</ele>
        <time>2021-04-12T12:24:54.000Z</time>
      </trkpt>
      <trkpt lat="47.19732" lon="-1.66504">
        <ele>54</ele>
        <time>2021-04-12T12:24:56.000Z</time>
      </trkpt>
      <trkpt lat="47.19729" lon="-1.66524">
        <ele>53</ele>
        <time>2021-04-12T12:24:58.000Z</time>
      </trkpt>
      <trkpt lat="47.19726" lon="-1.66543">
        <ele>53</ele>
        <time>2021-04-12T12:25:00.000Z</time>
      </trkpt>
      <trkpt lat="47.19723" lon="-1.66563">
        <ele>53</ele>
        <time>2021-04-12T12:25:02.000Z</time>
      </trkpt>
      <trkpt lat="47.19721" lon="-1.66582">
        <ele>53</ele>
        <time>2021-04-12T12:25:04.000Z</time>
      </trkpt>
      <trkpt lat="47.19718" lon="-1.666">
        <ele>53</ele>
        <time>2021-04-12T12:25:06.000Z</time>
      </trkpt>
      <trkpt lat="47.19716" lon="-1.66616">
        <ele>53</ele>
        <time>2021-04-12T12:25:08.000Z</time>
      </trkpt>
      <trkpt lat="47.19715" lon="-1.66634">
        <ele>53</ele>
        <time>2021-04-12T12:25:11.000Z</time>
      </trkpt>
      <trkpt lat="47.19714" lon="-1.6665">
        <ele>52</ele>
        <time>2021-04-12T12:25:14.000Z</time>
      </trkpt>
      <trkpt lat="47.19714" lon="-1.66665">
        <ele>52</ele>
        <time>2021-04-12T12:25:16.000Z</time>
      </trkpt>
      <trkpt lat="47.19722" lon="-1.6668">
        <ele>51</ele>
        <time>2021-04-12T12:25:18.000Z</time>
      </trkpt>
      <trkpt lat="47.19732" lon="-1.66692">
        <ele>51</ele>
        <time>2021-04-12T12:25:20.000Z</time>
      </trkpt>
      <trkpt lat="47.19744" lon="-1.66704">
        <ele>51</ele>
        <time>2021-04-12T12:25:22.000Z</time>
      </trkpt>
      <trkpt lat="47.19756" lon="-1.66714">
        <ele>50</ele>
        <time>2021-04-12T12:25:24.000Z</time>
      </trkpt>
      <trkpt lat="47.19768" lon="-1.66725">
        <ele>50</ele>
        <time>2021-04-12T12:25:26.000Z</time>
      </trkpt>
      <trkpt lat="47.1978" lon="-1.66737">
        <ele>49</ele>
        <time>2021-04-12T12:25:28.000Z</time>
      </trkpt>
      <trkpt lat="47.19791" lon="-1.66748">
        <ele>49</ele>
        <time>2021-04-12T12:25:30.000Z</time>
      </trkpt>
      <trkpt lat="47.19802" lon="-1.6676">
        <ele>49</ele>
        <time>2021-04-12T12:25:32.000Z</time>
      </trkpt>
      <trkpt lat="47.19813" lon="-1.66771">
        <ele>49</ele>
        <time>2021-04-12T12:25:34.000Z</time>
      </trkpt>
      <trkpt lat="47.19824" lon="-1.66783">
        <ele>49</ele>
        <time>2021-04-12T12:25:36.000Z</time>
      </trkpt>
      <trkpt lat="47.19832" lon="-1.66796">
        <ele>49</ele>
        <time>2021-04-12T12:25:38.000Z</time>
      </trkpt>
      <trkpt lat="47.19842" lon="-1.6681">
        <ele>49</ele>
        <time>2021-04-12T12:25:40.000Z</time>
      </trkpt>
      <trkpt lat="47.19851" lon="-1.66824">
        <ele>48</ele>
        <time>2021-04-12T12:25:42.000Z</time>
      </trkpt>
      <trkpt lat="47.1986" lon="-1.66839">
        <ele>48</ele>
        <time>2021-04-12T12:25:44.000Z</time>
      </trkpt>
      <trkpt lat="47.19869" lon="-1.66854">
        <ele>48</ele>
        <time>2021-04-12T12:25:46.000Z</time>
      </trkpt>
      <trkpt lat="47.19878" lon="-1.66869">
        <ele>48</ele>
        <time>2021-04-12T12:25:48.000Z</time>
      </trkpt>
      <trkpt lat="47.19886" lon="-1.66884">
        <ele>48</ele>
        <time>2021-04-12T12:25:50.000Z</time>
      </trkpt>
      <trkpt lat="47.19895" lon="-1.66898">
        <ele>48</ele>
        <time>2021-04-12T12:25:52.000Z</time>
      </trkpt>
      <trkpt lat="47.19903" lon="-1.66913">
        <ele>47</ele>
        <time>2021-04-12T12:25:54.000Z</time>
      </trkpt>
      <trkpt lat="47.19911" lon="-1.66928">
        <ele>47</ele>
        <time>2021-04-12T12:25:56.000Z</time>
      </trkpt>
      <trkpt lat="47.19918" lon="-1.66945">
        <ele>47</ele>
        <time>2021-04-12T12:25:58.000Z</time>
      </trkpt>
      <trkpt lat="47.19924" lon="-1.66963">
        <ele>47</ele>
        <time>2021-04-12T12:26:00.000Z</time>
      </trkpt>
      <trkpt lat="47.19929" lon="-1.66981">
        <ele>47</ele>
        <time>2021-04-12T12:26:02.000Z</time>
      </trkpt>
      <trkpt lat="47.19934" lon="-1.66998">
        <ele>47</ele>
        <time>2021-04-12T12:26:04.000Z</time>
      </trkpt>
      <trkpt lat="47.19938" lon="-1.67015">
        <ele>47</ele>
        <time>2021-04-12T12:26:06.000Z</time>
      </trkpt>
      <trkpt lat="47.19941" lon="-1.6703">
        <ele>47</ele>
        <time>2021-04-12T12:26:08.000Z</time>
      </trkpt>
      <trkpt lat="47.19944" lon="-1.67044">
        <ele>48</ele>
        <time>2021-04-12T12:26:10.000Z</time>
      </trkpt>
      <trkpt lat="47.19948" lon="-1.67061">
        <ele>49</ele>
        <time>2021-04-12T12:26:12.000Z</time>
      </trkpt>
      <trkpt lat="47.19952" lon="-1.67079">
        <ele>48</ele>
        <time>2021-04-12T12:26:14.000Z</time>
      </trkpt>
      <trkpt lat="47.1996" lon="-1.67097">
        <ele>47</ele>
        <time>2021-04-12T12:26:16.000Z</time>
      </trkpt>
      <trkpt lat="47.19966" lon="-1.67114">
        <ele>48</ele>
        <time>2021-04-12T12:26:18.000Z</time>
      </trkpt>
      <trkpt lat="47.19973" lon="-1.67131">
        <ele>48</ele>
        <time>2021-04-12T12:26:20.000Z</time>
      </trkpt>
      <trkpt lat="47.19979" lon="-1.67148">
        <ele>47</ele>
        <time>2021-04-12T12:26:22.000Z</time>
      </trkpt>
      <trkpt lat="47.19985" lon="-1.67163">
        <ele>47</ele>
        <time>2021-04-12T12:26:24.000Z</time>
      </trkpt>
      <trkpt lat="47.19992" lon="-1.67178">
        <ele>47</ele>
        <time>2021-04-12T12:26:26.000Z</time>
      </trkpt>
      <trkpt lat="47.19998" lon="-1.67193">
        <ele>47</ele>
        <time>2021-04-12T12:26:28.000Z</time>
      </trkpt>
      <trkpt lat="47.20004" lon="-1.67209">
        <ele>47</ele>
        <time>2021-04-12T12:26:30.000Z</time>
      </trkpt>
      <trkpt lat="47.20011" lon="-1.67224">
        <ele>47</ele>
        <time>2021-04-12T12:26:32.000Z</time>
      </trkpt>
      <trkpt lat="47.20017" lon="-1.6724">
        <ele>47</ele>
        <time>2021-04-12T12:26:34.000Z</time>
      </trkpt>
      <trkpt lat="47.20024" lon="-1.67255">
        <ele>47</ele>
        <time>2021-04-12T12:26:36.000Z</time>
      </trkpt>
      <trkpt lat="47.2003" lon="-1.6727">
        <ele>47</ele>
        <time>2021-04-12T12:26:38.000Z</time>
      </trkpt>
      <trkpt lat="47.20035" lon="-1.67286">
        <ele>48</ele>
        <time>2021-04-12T12:26:40.000Z</time>
      </trkpt>
      <trkpt lat="47.20041" lon="-1.67302">
        <ele>48</ele>
        <time>2021-04-12T12:26:42.000Z</time>
      </trkpt>
      <trkpt lat="47.20047" lon="-1.67318">
        <ele>48</ele>
        <time>2021-04-12T12:26:44.000Z</time>
      </trkpt>
      <trkpt lat="47.20053" lon="-1.67333">
        <ele>48</ele>
        <time>2021-04-12T12:26:46.000Z</time>
      </trkpt>
      <trkpt lat="47.20058" lon="-1.67349">
        <ele>48</ele>
        <time>2021-04-12T12:26:48.000Z</time>
      </trkpt>
      <trkpt lat="47.20064" lon="-1.67365">
        <ele>48</ele>
        <time>2021-04-12T12:26:50.000Z</time>
      </trkpt>
      <trkpt lat="47.2007" lon="-1.67381">
        <ele>49</ele>
        <time>2021-04-12T12:26:52.000Z</time>
      </trkpt>
      <trkpt lat="47.20075" lon="-1.67395">
        <ele>49</ele>
        <time>2021-04-12T12:26:54.000Z</time>
      </trkpt>
      <trkpt lat="47.2008" lon="-1.6741">
        <ele>48</ele>
        <time>2021-04-12T12:26:56.000Z</time>
      </trkpt>
      <trkpt lat="47.20086" lon="-1.67426">
        <ele>48</ele>
        <time>2021-04-12T12:26:58.000Z</time>
      </trkpt>
      <trkpt lat="47.20092" lon="-1.67441">
        <ele>48</ele>
        <time>2021-04-12T12:27:00.000Z</time>
      </trkpt>
      <trkpt lat="47.20098" lon="-1.67456">
        <ele>48</ele>
        <time>2021-04-12T12:27:02.000Z</time>
      </trkpt>
      <trkpt lat="47.20105" lon="-1.6747">
        <ele>48</ele>
        <time>2021-04-12T12:27:04.000Z</time>
      </trkpt>
      <trkpt lat="47.20113" lon="-1.67479">
        <ele>48</ele>
        <time>2021-04-12T12:27:06.000Z</time>
      </trkpt>
      <trkpt lat="47.20126" lon="-1.67477">
        <ele>47</ele>
        <time>2021-04-12T12:27:08.000Z</time>
      </trkpt>
      <trkpt lat="47.20138" lon="-1.6747">
        <ele>48</ele>
        <time>2021-04-12T12:27:10.000Z</time>
      </trkpt>
      <trkpt lat="47.2015" lon="-1.67464">
        <ele>48</ele>
        <time>2021-04-12T12:27:12.000Z</time>
      </trkpt>
      <trkpt lat="47.20163" lon="-1.67458">
        <ele>49</ele>
        <time>2021-04-12T12:27:14.000Z</time>
      </trkpt>
      <trkpt lat="47.20175" lon="-1.67452">
        <ele>48</ele>
        <time>2021-04-12T12:27:16.000Z</time>
      </trkpt>
      <trkpt lat="47.20187" lon="-1.67446">
        <ele>48</ele>
        <time>2021-04-12T12:27:18.000Z</time>
      </trkpt>
      <trkpt lat="47.20199" lon="-1.6744">
        <ele>48</ele>
        <time>2021-04-12T12:27:20.000Z</time>
      </trkpt>
      <trkpt lat="47.20211" lon="-1.67434">
        <ele>48</ele>
        <time>2021-04-12T12:27:22.000Z</time>
      </trkpt>
      <trkpt lat="47.20223" lon="-1.67428">
        <ele>48</ele>
        <time>2021-04-12T12:27:24.000Z</time>
      </trkpt>
      <trkpt lat="47.20235" lon="-1.67423">
        <ele>48</ele>
        <time>2021-04-12T12:27:26.000Z</time>
      </trkpt>
      <trkpt lat="47.20247" lon="-1.67417">
        <ele>48</ele>
        <time>2021-04-12T12:27:28.000Z</time>
      </trkpt>
      <trkpt lat="47.20258" lon="-1.67412">
        <ele>48</ele>
        <time>2021-04-12T12:27:30.000Z</time>
      </trkpt>
      <trkpt lat="47.2027" lon="-1.67405">
        <ele>48</ele>
        <time>2021-04-12T12:27:32.000Z</time>
      </trkpt>
      <trkpt lat="47.20282" lon="-1.67399">
        <ele>48</ele>
        <time>2021-04-12T12:27:34.000Z</time>
      </trkpt>
      <trkpt lat="47.20294" lon="-1.67394">
        <ele>48</ele>
        <time>2021-04-12T12:27:36.000Z</time>
      </trkpt>
      <trkpt lat="47.20306" lon="-1.67388">
        <ele>48</ele>
        <time>2021-04-12T12:27:38.000Z</time>
      </trkpt>
      <trkpt lat="47.20319" lon="-1.67384">
        <ele>48</ele>
        <time>2021-04-12T12:27:40.000Z</time>
      </trkpt>
      <trkpt lat="47.20331" lon="-1.67385">
        <ele>48</ele>
        <time>2021-04-12T12:27:42.000Z</time>
      </trkpt>
      <trkpt lat="47.20344" lon="-1.67392">
        <ele>47</ele>
        <time>2021-04-12T12:27:44.000Z</time>
      </trkpt>
      <trkpt lat="47.20354" lon="-1.67402">
        <ele>47</ele>
        <time>2021-04-12T12:27:46.000Z</time>
      </trkpt>
      <trkpt lat="47.20363" lon="-1.67415">
        <ele>47</ele>
        <time>2021-04-12T12:27:48.000Z</time>
      </trkpt>
      <trkpt lat="47.20369" lon="-1.67431">
        <ele>48</ele>
        <time>2021-04-12T12:27:50.000Z</time>
      </trkpt>
      <trkpt lat="47.20373" lon="-1.67449">
        <ele>48</ele>
        <time>2021-04-12T12:27:52.000Z</time>
      </trkpt>
      <trkpt lat="47.20376" lon="-1.67467">
        <ele>48</ele>
        <time>2021-04-12T12:27:54.000Z</time>
      </trkpt>
      <trkpt lat="47.20378" lon="-1.67485">
        <ele>48</ele>
        <time>2021-04-12T12:27:56.000Z</time>
      </trkpt>
      <trkpt lat="47.2038" lon="-1.67503">
        <ele>48</ele>
        <time>2021-04-12T12:27:58.000Z</time>
      </trkpt>
      <trkpt lat="47.20383" lon="-1.67519">
        <ele>48</ele>
        <time>2021-04-12T12:28:00.000Z</time>
      </trkpt>
      <trkpt lat="47.20385" lon="-1.67536">
        <ele>48</ele>
        <time>2021-04-12T12:28:02.000Z</time>
      </trkpt>
      <trkpt lat="47.20392" lon="-1.67548">
        <ele>48</ele>
        <time>2021-04-12T12:28:04.000Z</time>
      </trkpt>
      <trkpt lat="47.204" lon="-1.67554">
        <ele>47</ele>
        <time>2021-04-12T12:28:06.000Z</time>
      </trkpt>
      <trkpt lat="47.2041" lon="-1.67551">
        <ele>47</ele>
        <time>2021-04-12T12:28:08.000Z</time>
      </trkpt>
      <trkpt lat="47.20418" lon="-1.67541">
        <ele>48</ele>
        <time>2021-04-12T12:28:10.000Z</time>
      </trkpt>
      <trkpt lat="47.20428" lon="-1.67534">
        <ele>48</ele>
        <time>2021-04-12T12:28:12.000Z</time>
      </trkpt>
      <trkpt lat="47.2044" lon="-1.67541">
        <ele>48</ele>
        <time>2021-04-12T12:28:14.000Z</time>
      </trkpt>
      <trkpt lat="47.20449" lon="-1.67556">
        <ele>47</ele>
        <time>2021-04-12T12:28:16.000Z</time>
      </trkpt>
      <trkpt lat="47.20453" lon="-1.67575">
        <ele>48</ele>
        <time>2021-04-12T12:28:18.000Z</time>
      </trkpt>
      <trkpt lat="47.20459" lon="-1.67589">
        <ele>47</ele>
        <time>2021-04-12T12:28:20.000Z</time>
      </trkpt>
      <trkpt lat="47.20468" lon="-1.67601">
        <ele>47</ele>
        <time>2021-04-12T12:28:22.000Z</time>
      </trkpt>
      <trkpt lat="47.20476" lon="-1.67615">
        <ele>47</ele>
        <time>2021-04-12T12:28:24.000Z</time>
      </trkpt>
      <trkpt lat="47.20483" lon="-1.67629">
        <ele>48</ele>
        <time>2021-04-12T12:28:26.000Z</time>
      </trkpt>
      <trkpt lat="47.2049" lon="-1.67645">
        <ele>47</ele>
        <time>2021-04-12T12:28:28.000Z</time>
      </trkpt>
      <trkpt lat="47.20496" lon="-1.67661">
        <ele>47</ele>
        <time>2021-04-12T12:28:30.000Z</time>
      </trkpt>
      <trkpt lat="47.20502" lon="-1.67676">
        <ele>47</ele>
        <time>2021-04-12T12:28:32.000Z</time>
      </trkpt>
      <trkpt lat="47.20508" lon="-1.67692">
        <ele>47</ele>
        <time>2021-04-12T12:28:34.000Z</time>
      </trkpt>
      <trkpt lat="47.20513" lon="-1.67708">
        <ele>47</ele>
        <time>2021-04-12T12:28:36.000Z</time>
      </trkpt>
      <trkpt lat="47.20519" lon="-1.67724">
        <ele>47</ele>
        <time>2021-04-12T12:28:38.000Z</time>
      </trkpt>
      <trkpt lat="47.20525" lon="-1.6774">
        <ele>47</ele>
        <time>2021-04-12T12:28:40.000Z</time>
      </trkpt>
      <trkpt lat="47.20531" lon="-1.67756">
        <ele>48</ele>
        <time>2021-04-12T12:28:42.000Z</time>
      </trkpt>
      <trkpt lat="47.20536" lon="-1.67772">
        <ele>48</ele>
        <time>2021-04-12T12:28:44.000Z</time>
      </trkpt>
      <trkpt lat="47.20541" lon="-1.67788">
        <ele>47</ele>
        <time>2021-04-12T12:28:46.000Z</time>
      </trkpt>
      <trkpt lat="47.20546" lon="-1.67804">
        <ele>47</ele>
        <time>2021-04-12T12:28:48.000Z</time>
      </trkpt>
      <trkpt lat="47.20551" lon="-1.6782">
        <ele>47</ele>
        <time>2021-04-12T12:28:50.000Z</time>
      </trkpt>
      <trkpt lat="47.20556" lon="-1.67836">
        <ele>47</ele>
        <time>2021-04-12T12:28:52.000Z</time>
      </trkpt>
      <trkpt lat="47.20561" lon="-1.67852">
        <ele>47</ele>
        <time>2021-04-12T12:28:54.000Z</time>
      </trkpt>
      <trkpt lat="47.20566" lon="-1.67869">
        <ele>47</ele>
        <time>2021-04-12T12:28:56.000Z</time>
      </trkpt>
      <trkpt lat="47.20572" lon="-1.67885">
        <ele>47</ele>
        <time>2021-04-12T12:28:58.000Z</time>
      </trkpt>
      <trkpt lat="47.20577" lon="-1.67902">
        <ele>47</ele>
        <time>2021-04-12T12:29:00.000Z</time>
      </trkpt>
      <trkpt lat="47.20581" lon="-1.67918">
        <ele>47</ele>
        <time>2021-04-12T12:29:02.000Z</time>
      </trkpt>
      <trkpt lat="47.20587" lon="-1.67934">
        <ele>47</ele>
        <time>2021-04-12T12:29:04.000Z</time>
      </trkpt>
      <trkpt lat="47.20591" lon="-1.6795">
        <ele>47</ele>
        <time>2021-04-12T12:29:06.000Z</time>
      </trkpt>
      <trkpt lat="47.20595" lon="-1.67966">
        <ele>47</ele>
        <time>2021-04-12T12:29:08.000Z</time>
      </trkpt>
      <trkpt lat="47.206" lon="-1.67982">
        <ele>47</ele>
        <time>2021-04-12T12:29:10.000Z</time>
      </trkpt>
      <trkpt lat="47.20605" lon="-1.67998">
        <ele>47</ele>
        <time>2021-04-12T12:29:12.000Z</time>
      </trkpt>
      <trkpt lat="47.2061" lon="-1.68014">
        <ele>48</ele>
        <time>2021-04-12T12:29:14.000Z</time>
      </trkpt>
      <trkpt lat="47.20615" lon="-1.68031">
        <ele>48</ele>
        <time>2021-04-12T12:29:16.000Z</time>
      </trkpt>
      <trkpt lat="47.2062" lon="-1.68047">
        <ele>48</ele>
        <time>2021-04-12T12:29:18.000Z</time>
      </trkpt>
      <trkpt lat="47.20625" lon="-1.68063">
        <ele>48</ele>
        <time>2021-04-12T12:29:20.000Z</time>
      </trkpt>
      <trkpt lat="47.20629" lon="-1.68079">
        <ele>47</ele>
        <time>2021-04-12T12:29:22.000Z</time>
      </trkpt>
      <trkpt lat="47.20634" lon="-1.68096">
        <ele>47</ele>
        <time>2021-04-12T12:29:24.000Z</time>
      </trkpt>
      <trkpt lat="47.20639" lon="-1.68112">
        <ele>47</ele>
        <time>2021-04-12T12:29:26.000Z</time>
      </trkpt>
      <trkpt lat="47.20644" lon="-1.68128">
        <ele>47</ele>
        <time>2021-04-12T12:29:28.000Z</time>
      </trkpt>
      <trkpt lat="47.20649" lon="-1.68145">
        <ele>47</ele>
        <time>2021-04-12T12:29:30.000Z</time>
      </trkpt>
      <trkpt lat="47.20654" lon="-1.68161">
        <ele>47</ele>
        <time>2021-04-12T12:29:32.000Z</time>
      </trkpt>
      <trkpt lat="47.20658" lon="-1.68177">
        <ele>48</ele>
        <time>2021-04-12T12:29:34.000Z</time>
      </trkpt>
      <trkpt lat="47.20663" lon="-1.68193">
        <ele>48</ele>
        <time>2021-04-12T12:29:36.000Z</time>
      </trkpt>
      <trkpt lat="47.20668" lon="-1.68209">
        <ele>49</ele>
        <time>2021-04-12T12:29:38.000Z</time>
      </trkpt>
      <trkpt lat="47.20673" lon="-1.68225">
        <ele>48</ele>
        <time>2021-04-12T12:29:40.000Z</time>
      </trkpt>
      <trkpt lat="47.20678" lon="-1.68242">
        <ele>48</ele>
        <time>2021-04-12T12:29:42.000Z</time>
      </trkpt>
      <trkpt lat="47.20683" lon="-1.68258">
        <ele>49</ele>
        <time>2021-04-12T12:29:44.000Z</time>
      </trkpt>
      <trkpt lat="47.20687" lon="-1.68275">
        <ele>48</ele>
        <time>2021-04-12T12:29:46.000Z</time>
      </trkpt>
      <trkpt lat="47.20692" lon="-1.68292">
        <ele>48</ele>
        <time>2021-04-12T12:29:48.000Z</time>
      </trkpt>
      <trkpt lat="47.20697" lon="-1.68308">
        <ele>48</ele>
        <time>2021-04-12T12:29:50.000Z</time>
      </trkpt>
      <trkpt lat="47.20702" lon="-1.68324">
        <ele>48</ele>
        <time>2021-04-12T12:29:52.000Z</time>
      </trkpt>
      <trkpt lat="47.20707" lon="-1.6834">
        <ele>49</ele>
        <time>2021-04-12T12:29:54.000Z</time>
      </trkpt>
      <trkpt lat="47.20712" lon="-1.68354">
        <ele>49</ele>
        <time>2021-04-12T12:29:56.000Z</time>
      </trkpt>
      <trkpt lat="47.20718" lon="-1.68367">
        <ele>48</ele>
        <time>2021-04-12T12:29:58.000Z</time>
      </trkpt>
      <trkpt lat="47.20729" lon="-1.68377">
        <ele>48</ele>
        <time>2021-04-12T12:30:00.000Z</time>
      </trkpt>
      <trkpt lat="47.20736" lon="-1.68393">
        <ele>48</ele>
        <time>2021-04-12T12:30:02.000Z</time>
      </trkpt>
      <trkpt lat="47.20737" lon="-1.68411">
        <ele>48</ele>
        <time>2021-04-12T12:30:04.000Z</time>
      </trkpt>
      <trkpt lat="47.20736" lon="-1.68429">
        <ele>48</ele>
        <time>2021-04-12T12:30:06.000Z</time>
      </trkpt>
      <trkpt lat="47.20739" lon="-1.68447">
        <ele>48</ele>
        <time>2021-04-12T12:30:08.000Z</time>
      </trkpt>
      <trkpt lat="47.20744" lon="-1.68464">
        <ele>48</ele>
        <time>2021-04-12T12:30:10.000Z</time>
      </trkpt>
      <trkpt lat="47.20749" lon="-1.68481">
        <ele>49</ele>
        <time>2021-04-12T12:30:12.000Z</time>
      </trkpt>
      <trkpt lat="47.20754" lon="-1.68497">
        <ele>49</ele>
        <time>2021-04-12T12:30:14.000Z</time>
      </trkpt>
      <trkpt lat="47.20759" lon="-1.68514">
        <ele>49</ele>
        <time>2021-04-12T12:30:16.000Z</time>
      </trkpt>
      <trkpt lat="47.20764" lon="-1.6853">
        <ele>49</ele>
        <time>2021-04-12T12:30:18.000Z</time>
      </trkpt>
      <trkpt lat="47.20769" lon="-1.68547">
        <ele>49</ele>
        <time>2021-04-12T12:30:20.000Z</time>
      </trkpt>
      <trkpt lat="47.20774" lon="-1.68564">
        <ele>48</ele>
        <time>2021-04-12T12:30:22.000Z</time>
      </trkpt>
      <trkpt lat="47.20779" lon="-1.68581">
        <ele>49</ele>
        <time>2021-04-12T12:30:24.000Z</time>
      </trkpt>
      <trkpt lat="47.20784" lon="-1.68597">
        <ele>48</ele>
        <time>2021-04-12T12:30:26.000Z</time>
      </trkpt>
      <trkpt lat="47.20789" lon="-1.68613">
        <ele>48</ele>
        <time>2021-04-12T12:30:28.000Z</time>
      </trkpt>
      <trkpt lat="47.20794" lon="-1.68629">
        <ele>48</ele>
        <time>2021-04-12T12:30:30.000Z</time>
      </trkpt>
      <trkpt lat="47.20798" lon="-1.68646">
        <ele>48</ele>
        <time>2021-04-12T12:30:32.000Z</time>
      </trkpt>
      <trkpt lat="47.20803" lon="-1.68663">
        <ele>48</ele>
        <time>2021-04-12T12:30:34.000Z</time>
      </trkpt>
      <trkpt lat="47.20808" lon="-1.68679">
        <ele>48</ele>
        <time>2021-04-12T12:30:36.000Z</time>
      </trkpt>
      <trkpt lat="47.20812" lon="-1.68696">
        <ele>48</ele>
        <time>2021-04-12T12:30:38.000Z</time>
      </trkpt>
      <trkpt lat="47.20817" lon="-1.68712">
        <ele>48</ele>
        <time>2021-04-12T12:30:40.000Z</time>
      </trkpt>
      <trkpt lat="47.20823" lon="-1.68728">
        <ele>48</ele>
        <time>2021-04-12T12:30:42.000Z</time>
      </trkpt>
      <trkpt lat="47.20827" lon="-1.68745">
        <ele>49</ele>
        <time>2021-04-12T12:30:44.000Z</time>
      </trkpt>
      <trkpt lat="47.20832" lon="-1.68761">
        <ele>49</ele>
        <time>2021-04-12T12:30:46.000Z</time>
      </trkpt>
      <trkpt lat="47.20836" lon="-1.68778">
        <ele>49</ele>
        <time>2021-04-12T12:30:48.000Z</time>
      </trkpt>
      <trkpt lat="47.2084" lon="-1.68795">
        <ele>49</ele>
        <time>2021-04-12T12:30:50.000Z</time>
      </trkpt>
      <trkpt lat="47.20844" lon="-1.68812">
        <ele>49</ele>
        <time>2021-04-12T12:30:52.000Z</time>
      </trkpt>
      <trkpt lat="47.20849" lon="-1.68828">
        <ele>49</ele>
        <time>2021-04-12T12:30:54.000Z</time>
      </trkpt>
      <trkpt lat="47.20853" lon="-1.68846">
        <ele>49</ele>
        <time>2021-04-12T12:30:56.000Z</time>
      </trkpt>
      <trkpt lat="47.20856" lon="-1.68863">
        <ele>49</ele>
        <time>2021-04-12T12:30:58.000Z</time>
      </trkpt>
      <trkpt lat="47.2086" lon="-1.68881">
        <ele>49</ele>
        <time>2021-04-12T12:31:00.000Z</time>
      </trkpt>
      <trkpt lat="47.20863" lon="-1.68899">
        <ele>49</ele>
        <time>2021-04-12T12:31:02.000Z</time>
      </trkpt>
      <trkpt lat="47.20867" lon="-1.68916">
        <ele>49</ele>
        <time>2021-04-12T12:31:04.000Z</time>
      </trkpt>
      <trkpt lat="47.2087" lon="-1.68935">
        <ele>49</ele>
        <time>2021-04-12T12:31:06.000Z</time>
      </trkpt>
      <trkpt lat="47.20873" lon="-1.68952">
        <ele>50</ele>
        <time>2021-04-12T12:31:08.000Z</time>
      </trkpt>
      <trkpt lat="47.20875" lon="-1.6897">
        <ele>50</ele>
        <time>2021-04-12T12:31:10.000Z</time>
      </trkpt>
      <trkpt lat="47.20878" lon="-1.68989">
        <ele>50</ele>
        <time>2021-04-12T12:31:12.000Z</time>
      </trkpt>
      <trkpt lat="47.2088" lon="-1.69007">
        <ele>50</ele>
        <time>2021-04-12T12:31:14.000Z</time>
      </trkpt>
      <trkpt lat="47.20882" lon="-1.69025">
        <ele>51</ele>
        <time>2021-04-12T12:31:16.000Z</time>
      </trkpt>
      <trkpt lat="47.20884" lon="-1.69044">
        <ele>51</ele>
        <time>2021-04-12T12:31:18.000Z</time>
      </trkpt>
      <trkpt lat="47.20886" lon="-1.69063">
        <ele>51</ele>
        <time>2021-04-12T12:31:20.000Z</time>
      </trkpt>
      <trkpt lat="47.20888" lon="-1.69082">
        <ele>51</ele>
        <time>2021-04-12T12:31:22.000Z</time>
      </trkpt>
      <trkpt lat="47.2089" lon="-1.691">
        <ele>51</ele>
        <time>2021-04-12T12:31:24.000Z</time>
      </trkpt>
      <trkpt lat="47.20892" lon="-1.69119">
        <ele>51</ele>
        <time>2021-04-12T12:31:26.000Z</time>
      </trkpt>
      <trkpt lat="47.20893" lon="-1.69138">
        <ele>50</ele>
        <time>2021-04-12T12:31:28.000Z</time>
      </trkpt>
      <trkpt lat="47.20894" lon="-1.69157">
        <ele>50</ele>
        <time>2021-04-12T12:31:30.000Z</time>
      </trkpt>
      <trkpt lat="47.20896" lon="-1.69176">
        <ele>50</ele>
        <time>2021-04-12T12:31:32.000Z</time>
      </trkpt>
      <trkpt lat="47.20896" lon="-1.69195">
        <ele>50</ele>
        <time>2021-04-12T12:31:34.000Z</time>
      </trkpt>
      <trkpt lat="47.20898" lon="-1.69214">
        <ele>50</ele>
        <time>2021-04-12T12:31:36.000Z</time>
      </trkpt>
      <trkpt lat="47.20899" lon="-1.69233">
        <ele>50</ele>
        <time>2021-04-12T12:31:38.000Z</time>
      </trkpt>
      <trkpt lat="47.20901" lon="-1.69253">
        <ele>50</ele>
        <time>2021-04-12T12:31:40.000Z</time>
      </trkpt>
      <trkpt lat="47.20902" lon="-1.69272">
        <ele>50</ele>
        <time>2021-04-12T12:31:42.000Z</time>
      </trkpt>
      <trkpt lat="47.20903" lon="-1.6929">
        <ele>50</ele>
        <time>2021-04-12T12:31:44.000Z</time>
      </trkpt>
      <trkpt lat="47.20904" lon="-1.6931">
        <ele>50</ele>
        <time>2021-04-12T12:31:46.000Z</time>
      </trkpt>
      <trkpt lat="47.20906" lon="-1.69328">
        <ele>50</ele>
        <time>2021-04-12T12:31:48.000Z</time>
      </trkpt>
      <trkpt lat="47.20907" lon="-1.69348">
        <ele>50</ele>
        <time>2021-04-12T12:31:50.000Z</time>
      </trkpt>
      <trkpt lat="47.20909" lon="-1.69366">
        <ele>50</ele>
        <time>2021-04-12T12:31:52.000Z</time>
      </trkpt>
      <trkpt lat="47.20911" lon="-1.69383">
        <ele>50</ele>
        <time>2021-04-12T12:31:54.000Z</time>
      </trkpt>
      <trkpt lat="47.20913" lon="-1.69402">
        <ele>50</ele>
        <time>2021-04-12T12:31:56.000Z</time>
      </trkpt>
      <trkpt lat="47.20914" lon="-1.69421">
        <ele>50</ele>
        <time>2021-04-12T12:31:58.000Z</time>
      </trkpt>
      <trkpt lat="47.20915" lon="-1.6944">
        <ele>49</ele>
        <time>2021-04-12T12:32:00.000Z</time>
      </trkpt>
      <trkpt lat="47.20916" lon="-1.69459">
        <ele>50</ele>
        <time>2021-04-12T12:32:02.000Z</time>
      </trkpt>
      <trkpt lat="47.20917" lon="-1.69478">
        <ele>50</ele>
        <time>2021-04-12T12:32:04.000Z</time>
      </trkpt>
      <trkpt lat="47.20919" lon="-1.69496">
        <ele>50</ele>
        <time>2021-04-12T12:32:06.000Z</time>
      </trkpt>
      <trkpt lat="47.2092" lon="-1.69514">
        <ele>50</ele>
        <time>2021-04-12T12:32:08.000Z</time>
      </trkpt>
      <trkpt lat="47.20921" lon="-1.69533">
        <ele>50</ele>
        <time>2021-04-12T12:32:10.000Z</time>
      </trkpt>
      <trkpt lat="47.20923" lon="-1.69551">
        <ele>50</ele>
        <time>2021-04-12T12:32:12.000Z</time>
      </trkpt>
      <trkpt lat="47.20926" lon="-1.6957">
        <ele>50</ele>
        <time>2021-04-12T12:32:14.000Z</time>
      </trkpt>
      <trkpt lat="47.20927" lon="-1.69588">
        <ele>50</ele>
        <time>2021-04-12T12:32:16.000Z</time>
      </trkpt>
      <trkpt lat="47.20928" lon="-1.69606">
        <ele>50</ele>
        <time>2021-04-12T12:32:18.000Z</time>
      </trkpt>
      <trkpt lat="47.20929" lon="-1.69626">
        <ele>50</ele>
        <time>2021-04-12T12:32:20.000Z</time>
      </trkpt>
      <trkpt lat="47.2093" lon="-1.69645">
        <ele>50</ele>
        <time>2021-04-12T12:32:22.000Z</time>
      </trkpt>
      <trkpt lat="47.20931" lon="-1.69664">
        <ele>49</ele>
        <time>2021-04-12T12:32:24.000Z</time>
      </trkpt>
      <trkpt lat="47.20932" lon="-1.69682">
        <ele>49</ele>
        <time>2021-04-12T12:32:26.000Z</time>
      </trkpt>
      <trkpt lat="47.20934" lon="-1.69701">
        <ele>50</ele>
        <time>2021-04-12T12:32:28.000Z</time>
      </trkpt>
      <trkpt lat="47.20935" lon="-1.6972">
        <ele>49</ele>
        <time>2021-04-12T12:32:30.000Z</time>
      </trkpt>
      <trkpt lat="47.20937" lon="-1.69739">
        <ele>49</ele>
        <time>2021-04-12T12:32:32.000Z</time>
      </trkpt>
      <trkpt lat="47.20938" lon="-1.69758">
        <ele>49</ele>
        <time>2021-04-12T12:32:34.000Z</time>
      </trkpt>
      <trkpt lat="47.2094" lon="-1.69776">
        <ele>49</ele>
        <time>2021-04-12T12:32:36.000Z</time>
      </trkpt>
      <trkpt lat="47.20941" lon="-1.69795">
        <ele>49</ele>
        <time>2021-04-12T12:32:38.000Z</time>
      </trkpt>
      <trkpt lat="47.20942" lon="-1.69814">
        <ele>49</ele>
        <time>2021-04-12T12:32:40.000Z</time>
      </trkpt>
      <trkpt lat="47.20943" lon="-1.69833">
        <ele>48</ele>
        <time>2021-04-12T12:32:42.000Z</time>
      </trkpt>
      <trkpt lat="47.20944" lon="-1.69852">
        <ele>48</ele>
        <time>2021-04-12T12:32:44.000Z</time>
      </trkpt>
      <trkpt lat="47.20945" lon="-1.6987">
        <ele>48</ele>
        <time>2021-04-12T12:32:46.000Z</time>
      </trkpt>
      <trkpt lat="47.20946" lon="-1.69887">
        <ele>48</ele>
        <time>2021-04-12T12:32:48.000Z</time>
      </trkpt>
      <trkpt lat="47.20947" lon="-1.69904">
        <ele>48</ele>
        <time>2021-04-12T12:32:50.000Z</time>
      </trkpt>
      <trkpt lat="47.20947" lon="-1.69921">
        <ele>48</ele>
        <time>2021-04-12T12:32:52.000Z</time>
      </trkpt>
      <trkpt lat="47.20946" lon="-1.69938">
        <ele>48</ele>
        <time>2021-04-12T12:32:54.000Z</time>
      </trkpt>
      <trkpt lat="47.20945" lon="-1.69955">
        <ele>49</ele>
        <time>2021-04-12T12:32:56.000Z</time>
      </trkpt>
      <trkpt lat="47.20945" lon="-1.69972">
        <ele>49</ele>
        <time>2021-04-12T12:32:58.000Z</time>
      </trkpt>
      <trkpt lat="47.20944" lon="-1.6999">
        <ele>50</ele>
        <time>2021-04-12T12:33:00.000Z</time>
      </trkpt>
      <trkpt lat="47.20944" lon="-1.70008">
        <ele>50</ele>
        <time>2021-04-12T12:33:02.000Z</time>
      </trkpt>
      <trkpt lat="47.20945" lon="-1.70025">
        <ele>50</ele>
        <time>2021-04-12T12:33:04.000Z</time>
      </trkpt>
      <trkpt lat="47.20946" lon="-1.7004">
        <ele>51</ele>
        <time>2021-04-12T12:33:06.000Z</time>
      </trkpt>
      <trkpt lat="47.20952" lon="-1.70053">
        <ele>50</ele>
        <time>2021-04-12T12:33:08.000Z</time>
      </trkpt>
      <trkpt lat="47.20959" lon="-1.70068">
        <ele>51</ele>
        <time>2021-04-12T12:33:10.000Z</time>
      </trkpt>
      <trkpt lat="47.20958" lon="-1.70085">
        <ele>51</ele>
        <time>2021-04-12T12:33:12.000Z</time>
      </trkpt>
      <trkpt lat="47.20954" lon="-1.701">
        <ele>51</ele>
        <time>2021-04-12T12:33:14.000Z</time>
      </trkpt>
      <trkpt lat="47.20953" lon="-1.70116">
        <ele>51</ele>
        <time>2021-04-12T12:33:16.000Z</time>
      </trkpt>
      <trkpt lat="47.20955" lon="-1.70133">
        <ele>51</ele>
        <time>2021-04-12T12:33:18.000Z</time>
      </trkpt>
      <trkpt lat="47.20958" lon="-1.7015">
        <ele>51</ele>
        <time>2021-04-12T12:33:20.000Z</time>
      </trkpt>
      <trkpt lat="47.20961" lon="-1.70167">
        <ele>51</ele>
        <time>2021-04-12T12:33:22.000Z</time>
      </trkpt>
      <trkpt lat="47.20963" lon="-1.70183">
        <ele>52</ele>
        <time>2021-04-12T12:33:24.000Z</time>
      </trkpt>
      <trkpt lat="47.20966" lon="-1.702">
        <ele>51</ele>
        <time>2021-04-12T12:33:26.000Z</time>
      </trkpt>
      <trkpt lat="47.20968" lon="-1.70217">
        <ele>51</ele>
        <time>2021-04-12T12:33:28.000Z</time>
      </trkpt>
      <trkpt lat="47.2097" lon="-1.70235">
        <ele>51</ele>
        <time>2021-04-12T12:33:30.000Z</time>
      </trkpt>
      <trkpt lat="47.20972" lon="-1.70252">
        <ele>51</ele>
        <time>2021-04-12T12:33:32.000Z</time>
      </trkpt>
      <trkpt lat="47.20973" lon="-1.7027">
        <ele>51</ele>
        <time>2021-04-12T12:33:34.000Z</time>
      </trkpt>
      <trkpt lat="47.20975" lon="-1.70288">
        <ele>50</ele>
        <time>2021-04-12T12:33:36.000Z</time>
      </trkpt>
      <trkpt lat="47.20976" lon="-1.70305">
        <ele>50</ele>
        <time>2021-04-12T12:33:38.000Z</time>
      </trkpt>
      <trkpt lat="47.20977" lon="-1.70324">
        <ele>50</ele>
        <time>2021-04-12T12:33:40.000Z</time>
      </trkpt>
      <trkpt lat="47.20978" lon="-1.70341">
        <ele>50</ele>
        <time>2021-04-12T12:33:42.000Z</time>
      </trkpt>
      <trkpt lat="47.20979" lon="-1.70357">
        <ele>50</ele>
        <time>2021-04-12T12:33:44.000Z</time>
      </trkpt>
      <trkpt lat="47.2098" lon="-1.70375">
        <ele>50</ele>
        <time>2021-04-12T12:33:46.000Z</time>
      </trkpt>
      <trkpt lat="47.2098" lon="-1.70392">
        <ele>51</ele>
        <time>2021-04-12T12:33:48.000Z</time>
      </trkpt>
      <trkpt lat="47.2098" lon="-1.70409">
        <ele>51</ele>
        <time>2021-04-12T12:33:50.000Z</time>
      </trkpt>
      <trkpt lat="47.2098" lon="-1.70426">
        <ele>51</ele>
        <time>2021-04-12T12:33:52.000Z</time>
      </trkpt>
      <trkpt lat="47.20979" lon="-1.70443">
        <ele>51</ele>
        <time>2021-04-12T12:33:54.000Z</time>
      </trkpt>
      <trkpt lat="47.20979" lon="-1.70461">
        <ele>51</ele>
        <time>2021-04-12T12:33:56.000Z</time>
      </trkpt>
      <trkpt lat="47.20978" lon="-1.70478">
        <ele>51</ele>
        <time>2021-04-12T12:33:58.000Z</time>
      </trkpt>
      <trkpt lat="47.20976" lon="-1.70495">
        <ele>52</ele>
        <time>2021-04-12T12:34:00.000Z</time>
      </trkpt>
      <trkpt lat="47.20975" lon="-1.70512">
        <ele>51</ele>
        <time>2021-04-12T12:34:02.000Z</time>
      </trkpt>
      <trkpt lat="47.20973" lon="-1.7053">
        <ele>52</ele>
        <time>2021-04-12T12:34:04.000Z</time>
      </trkpt>
      <trkpt lat="47.20971" lon="-1.70547">
        <ele>52</ele>
        <time>2021-04-12T12:34:06.000Z</time>
      </trkpt>
      <trkpt lat="47.20969" lon="-1.70565">
        <ele>52</ele>
        <time>2021-04-12T12:34:08.000Z</time>
      </trkpt>
      <trkpt lat="47.20967" lon="-1.70582">
        <ele>52</ele>
        <time>2021-04-12T12:34:10.000Z</time>
      </trkpt>
      <trkpt lat="47.20965" lon="-1.706">
        <ele>51</ele>
        <time>2021-04-12T12:34:12.000Z</time>
      </trkpt>
      <trkpt lat="47.20962" lon="-1.70618">
        <ele>51</ele>
        <time>2021-04-12T12:34:14.000Z</time>
      </trkpt>
      <trkpt lat="47.20959" lon="-1.70636">
        <ele>51</ele>
        <time>2021-04-12T12:34:16.000Z</time>
      </trkpt>
      <trkpt lat="47.20957" lon="-1.70654">
        <ele>51</ele>
        <time>2021-04-12T12:34:18.000Z</time>
      </trkpt>
      <trkpt lat="47.20955" lon="-1.70672">
        <ele>51</ele>
        <time>2021-04-12T12:34:20.000Z</time>
      </trkpt>
      <trkpt lat="47.20953" lon="-1.7069">
        <ele>51</ele>
        <time>2021-04-12T12:34:22.000Z</time>
      </trkpt>
      <trkpt lat="47.20953" lon="-1.7071">
        <ele>51</ele>
        <time>2021-04-12T12:34:24.000Z</time>
      </trkpt>
      <trkpt lat="47.20954" lon="-1.70728">
        <ele>51</ele>
        <time>2021-04-12T12:34:26.000Z</time>
      </trkpt>
      <trkpt lat="47.20955" lon="-1.70744">
        <ele>51</ele>
        <time>2021-04-12T12:34:28.000Z</time>
      </trkpt>
      <trkpt lat="47.20956" lon="-1.70762">
        <ele>51</ele>
        <time>2021-04-12T12:34:30.000Z</time>
      </trkpt>
      <trkpt lat="47.20959" lon="-1.7078">
        <ele>51</ele>
        <time>2021-04-12T12:34:32.000Z</time>
      </trkpt>
      <trkpt lat="47.20963" lon="-1.70798">
        <ele>50</ele>
        <time>2021-04-12T12:34:34.000Z</time>
      </trkpt>
      <trkpt lat="47.20969" lon="-1.70815">
        <ele>50</ele>
        <time>2021-04-12T12:34:36.000Z</time>
      </trkpt>
      <trkpt lat="47.20974" lon="-1.70832">
        <ele>50</ele>
        <time>2021-04-12T12:34:38.000Z</time>
      </trkpt>
      <trkpt lat="47.20979" lon="-1.70849">
        <ele>50</ele>
        <time>2021-04-12T12:34:40.000Z</time>
      </trkpt>
      <trkpt lat="47.20984" lon="-1.70866">
        <ele>49</ele>
        <time>2021-04-12T12:34:42.000Z</time>
      </trkpt>
      <trkpt lat="47.20989" lon="-1.70883">
        <ele>49</ele>
        <time>2021-04-12T12:34:44.000Z</time>
      </trkpt>
      <trkpt lat="47.20994" lon="-1.709">
        <ele>49</ele>
        <time>2021-04-12T12:34:46.000Z</time>
      </trkpt>
      <trkpt lat="47.20999" lon="-1.70916">
        <ele>49</ele>
        <time>2021-04-12T12:34:48.000Z</time>
      </trkpt>
      <trkpt lat="47.21004" lon="-1.70932">
        <ele>49</ele>
        <time>2021-04-12T12:34:50.000Z</time>
      </trkpt>
      <trkpt lat="47.21009" lon="-1.70949">
        <ele>49</ele>
        <time>2021-04-12T12:34:52.000Z</time>
      </trkpt>
      <trkpt lat="47.21014" lon="-1.70965">
        <ele>49</ele>
        <time>2021-04-12T12:34:54.000Z</time>
      </trkpt>
      <trkpt lat="47.21018" lon="-1.70981">
        <ele>48</ele>
        <time>2021-04-12T12:34:56.000Z</time>
      </trkpt>
      <trkpt lat="47.21023" lon="-1.70997">
        <ele>48</ele>
        <time>2021-04-12T12:34:58.000Z</time>
      </trkpt>
      <trkpt lat="47.21028" lon="-1.71012">
        <ele>48</ele>
        <time>2021-04-12T12:35:00.000Z</time>
      </trkpt>
      <trkpt lat="47.21033" lon="-1.71028">
        <ele>48</ele>
        <time>2021-04-12T12:35:02.000Z</time>
      </trkpt>
      <trkpt lat="47.21038" lon="-1.71044">
        <ele>47</ele>
        <time>2021-04-12T12:35:04.000Z</time>
      </trkpt>
      <trkpt lat="47.21043" lon="-1.71059">
        <ele>47</ele>
        <time>2021-04-12T12:35:06.000Z</time>
      </trkpt>
      <trkpt lat="47.21046" lon="-1.71076">
        <ele>47</ele>
        <time>2021-04-12T12:35:08.000Z</time>
      </trkpt>
      <trkpt lat="47.21049" lon="-1.7109">
        <ele>47</ele>
        <time>2021-04-12T12:35:10.000Z</time>
      </trkpt>
      <trkpt lat="47.21053" lon="-1.71106">
        <ele>47</ele>
        <time>2021-04-12T12:35:12.000Z</time>
      </trkpt>
      <trkpt lat="47.21057" lon="-1.7112">
        <ele>47</ele>
        <time>2021-04-12T12:35:14.000Z</time>
      </trkpt>
      <trkpt lat="47.21061" lon="-1.71133">
        <ele>48</ele>
        <time>2021-04-12T12:35:16.000Z</time>
      </trkpt>
      <trkpt lat="47.21065" lon="-1.71145">
        <ele>48</ele>
        <time>2021-04-12T12:35:18.000Z</time>
      </trkpt>
      <trkpt lat="47.2107" lon="-1.71157">
        <ele>49</ele>
        <time>2021-04-12T12:35:20.000Z</time>
      </trkpt>
      <trkpt lat="47.21076" lon="-1.71173">
        <ele>50</ele>
        <time>2021-04-12T12:35:23.000Z</time>
      </trkpt>
      <trkpt lat="47.21083" lon="-1.71189">
        <ele>50</ele>
        <time>2021-04-12T12:35:26.000Z</time>
      </trkpt>
      <trkpt lat="47.2109" lon="-1.71204">
        <ele>51</ele>
        <time>2021-04-12T12:35:29.000Z</time>
      </trkpt>
      <trkpt lat="47.21098" lon="-1.7122">
        <ele>52</ele>
        <time>2021-04-12T12:35:32.000Z</time>
      </trkpt>
      <trkpt lat="47.21106" lon="-1.71235">
        <ele>53</ele>
        <time>2021-04-12T12:35:35.000Z</time>
      </trkpt>
      <trkpt lat="47.21113" lon="-1.71248">
        <ele>54</ele>
        <time>2021-04-12T12:35:38.000Z</time>
      </trkpt>
      <trkpt lat="47.21121" lon="-1.71261">
        <ele>54</ele>
        <time>2021-04-12T12:35:41.000Z</time>
      </trkpt>
      <trkpt lat="47.2113" lon="-1.71274">
        <ele>55</ele>
        <time>2021-04-12T12:35:44.000Z</time>
      </trkpt>
      <trkpt lat="47.21137" lon="-1.71285">
        <ele>55</ele>
        <time>2021-04-12T12:35:47.000Z</time>
      </trkpt>
      <trkpt lat="47.21144" lon="-1.71297">
        <ele>57</ele>
        <time>2021-04-12T12:35:50.000Z</time>
      </trkpt>
      <trkpt lat="47.21151" lon="-1.71309">
        <ele>58</ele>
        <time>2021-04-12T12:35:53.000Z</time>
      </trkpt>
      <trkpt lat="47.21158" lon="-1.71321">
        <ele>59</ele>
        <time>2021-04-12T12:35:56.000Z</time>
      </trkpt>
      <trkpt lat="47.21166" lon="-1.71335">
        <ele>61</ele>
        <time>2021-04-12T12:35:59.000Z</time>
      </trkpt>
      <trkpt lat="47.21174" lon="-1.71348">
        <ele>62</ele>
        <time>2021-04-12T12:36:02.000Z</time>
      </trkpt>
      <trkpt lat="47.21181" lon="-1.71361">
        <ele>63</ele>
        <time>2021-04-12T12:36:05.000Z</time>
      </trkpt>
      <trkpt lat="47.21189" lon="-1.71373">
        <ele>63</ele>
        <time>2021-04-12T12:36:08.000Z</time>
      </trkpt>
      <trkpt lat="47.21197" lon="-1.71383">
        <ele>64</ele>
        <time>2021-04-12T12:36:11.000Z</time>
      </trkpt>
      <trkpt lat="47.21207" lon="-1.71389">
        <ele>65</ele>
        <time>2021-04-12T12:36:14.000Z</time>
      </trkpt>
      <trkpt lat="47.21217" lon="-1.71392">
        <ele>65</ele>
        <time>2021-04-12T12:36:17.000Z</time>
      </trkpt>
      <trkpt lat="47.21227" lon="-1.71393">
        <ele>65</ele>
        <time>2021-04-12T12:36:20.000Z</time>
      </trkpt>
      <trkpt lat="47.21238" lon="-1.71391">
        <ele>65</ele>
        <time>2021-04-12T12:36:23.000Z</time>
      </trkpt>
      <trkpt lat="47.21248" lon="-1.71391">
        <ele>66</ele>
        <time>2021-04-12T12:36:26.000Z</time>
      </trkpt>
      <trkpt lat="47.2126" lon="-1.71387">
        <ele>67</ele>
        <time>2021-04-12T12:36:30.000Z</time>
      </trkpt>
      <trkpt lat="47.21272" lon="-1.71381">
        <ele>68</ele>
        <time>2021-04-12T12:36:33.000Z</time>
      </trkpt>
      <trkpt lat="47.21283" lon="-1.71375">
        <ele>71</ele>
        <time>2021-04-12T12:36:36.000Z</time>
      </trkpt>
      <trkpt lat="47.21294" lon="-1.71371">
        <ele>72</ele>
        <time>2021-04-12T12:36:39.000Z</time>
      </trkpt>
      <trkpt lat="47.21305" lon="-1.71369">
        <ele>73</ele>
        <time>2021-04-12T12:36:42.000Z</time>
      </trkpt>
      <trkpt lat="47.21317" lon="-1.71367">
        <ele>73</ele>
        <time>2021-04-12T12:36:45.000Z</time>
      </trkpt>
      <trkpt lat="47.21328" lon="-1.71364">
        <ele>73</ele>
        <time>2021-04-12T12:36:48.000Z</time>
      </trkpt>
      <trkpt lat="47.2134" lon="-1.7136">
        <ele>73</ele>
        <time>2021-04-12T12:36:51.000Z</time>
      </trkpt>
      <trkpt lat="47.21352" lon="-1.71354">
        <ele>73</ele>
        <time>2021-04-12T12:36:54.000Z</time>
      </trkpt>
      <trkpt lat="47.21363" lon="-1.7135">
        <ele>74</ele>
        <time>2021-04-12T12:36:57.000Z</time>
      </trkpt>
      <trkpt lat="47.21375" lon="-1.71346">
        <ele>74</ele>
        <time>2021-04-12T12:37:00.000Z</time>
      </trkpt>
      <trkpt lat="47.21386" lon="-1.71341">
        <ele>74</ele>
        <time>2021-04-12T12:37:03.000Z</time>
      </trkpt>
      <trkpt lat="47.21397" lon="-1.71337">
        <ele>74</ele>
        <time>2021-04-12T12:37:06.000Z</time>
      </trkpt>
      <trkpt lat="47.2141" lon="-1.71331">
        <ele>74</ele>
        <time>2021-04-12T12:37:09.000Z</time>
      </trkpt>
      <trkpt lat="47.21419" lon="-1.71327">
        <ele>74</ele>
        <time>2021-04-12T12:37:11.000Z</time>
      </trkpt>
      <trkpt lat="47.21428" lon="-1.71324">
        <ele>74</ele>
        <time>2021-04-12T12:37:13.000Z</time>
      </trkpt>
      <trkpt lat="47.21437" lon="-1.71319">
        <ele>74</ele>
        <time>2021-04-12T12:37:15.000Z</time>
      </trkpt>
      <trkpt lat="47.21446" lon="-1.71313">
        <ele>74</ele>
        <time>2021-04-12T12:37:17.000Z</time>
      </trkpt>
      <trkpt lat="47.21457" lon="-1.71316">
        <ele>73</ele>
        <time>2021-04-12T12:37:19.000Z</time>
      </trkpt>
      <trkpt lat="47.21464" lon="-1.71329">
        <ele>73</ele>
        <time>2021-04-12T12:37:21.000Z</time>
      </trkpt>
      <trkpt lat="47.2147" lon="-1.71342">
        <ele>73</ele>
        <time>2021-04-12T12:37:23.000Z</time>
      </trkpt>
      <trkpt lat="47.21476" lon="-1.71356">
        <ele>73</ele>
        <time>2021-04-12T12:37:25.000Z</time>
      </trkpt>
      <trkpt lat="47.21481" lon="-1.7137">
        <ele>73</ele>
        <time>2021-04-12T12:37:27.000Z</time>
      </trkpt>
      <trkpt lat="47.21486" lon="-1.71384">
        <ele>73</ele>
        <time>2021-04-12T12:37:29.000Z</time>
      </trkpt>
      <trkpt lat="47.21492" lon="-1.71398">
        <ele>73</ele>
        <time>2021-04-12T12:37:31.000Z</time>
      </trkpt>
      <trkpt lat="47.21496" lon="-1.71413">
        <ele>73</ele>
        <time>2021-04-12T12:37:33.000Z</time>
      </trkpt>
      <trkpt lat="47.215" lon="-1.71428">
        <ele>72</ele>
        <time>2021-04-12T12:37:35.000Z</time>
      </trkpt>
      <trkpt lat="47.21504" lon="-1.71443">
        <ele>72</ele>
        <time>2021-04-12T12:37:37.000Z</time>
      </trkpt>
      <trkpt lat="47.21507" lon="-1.71459">
        <ele>72</ele>
        <time>2021-04-12T12:37:39.000Z</time>
      </trkpt>
      <trkpt lat="47.21511" lon="-1.71474">
        <ele>72</ele>
        <time>2021-04-12T12:37:41.000Z</time>
      </trkpt>
      <trkpt lat="47.21516" lon="-1.71489">
        <ele>72</ele>
        <time>2021-04-12T12:37:43.000Z</time>
      </trkpt>
      <trkpt lat="47.2152" lon="-1.71504">
        <ele>72</ele>
        <time>2021-04-12T12:37:45.000Z</time>
      </trkpt>
      <trkpt lat="47.21525" lon="-1.71517">
        <ele>71</ele>
        <time>2021-04-12T12:37:47.000Z</time>
      </trkpt>
      <trkpt lat="47.21535" lon="-1.71526">
        <ele>71</ele>
        <time>2021-04-12T12:37:49.000Z</time>
      </trkpt>
      <trkpt lat="47.21546" lon="-1.71525">
        <ele>71</ele>
        <time>2021-04-12T12:37:51.000Z</time>
      </trkpt>
      <trkpt lat="47.21556" lon="-1.71521">
        <ele>71</ele>
        <time>2021-04-12T12:37:53.000Z</time>
      </trkpt>
      <trkpt lat="47.21567" lon="-1.71517">
        <ele>71</ele>
        <time>2021-04-12T12:37:55.000Z</time>
      </trkpt>
      <trkpt lat="47.21577" lon="-1.71512">
        <ele>72</ele>
        <time>2021-04-12T12:37:57.000Z</time>
      </trkpt>
      <trkpt lat="47.21588" lon="-1.71508">
        <ele>71</ele>
        <time>2021-04-12T12:37:59.000Z</time>
      </trkpt>
      <trkpt lat="47.21598" lon="-1.71503">
        <ele>72</ele>
        <time>2021-04-12T12:38:01.000Z</time>
      </trkpt>
      <trkpt lat="47.21608" lon="-1.715">
        <ele>72</ele>
        <time>2021-04-12T12:38:03.000Z</time>
      </trkpt>
      <trkpt lat="47.21618" lon="-1.71496">
        <ele>71</ele>
        <time>2021-04-12T12:38:05.000Z</time>
      </trkpt>
      <trkpt lat="47.21627" lon="-1.71493">
        <ele>72</ele>
        <time>2021-04-12T12:38:07.000Z</time>
      </trkpt>
      <trkpt lat="47.21637" lon="-1.7149">
        <ele>73</ele>
        <time>2021-04-12T12:38:09.000Z</time>
      </trkpt>
      <trkpt lat="47.21647" lon="-1.71489">
        <ele>73</ele>
        <time>2021-04-12T12:38:11.000Z</time>
      </trkpt>
      <trkpt lat="47.21657" lon="-1.71489">
        <ele>74</ele>
        <time>2021-04-12T12:38:13.000Z</time>
      </trkpt>
      <trkpt lat="47.21667" lon="-1.71489">
        <ele>74</ele>
        <time>2021-04-12T12:38:15.000Z</time>
      </trkpt>
      <trkpt lat="47.21677" lon="-1.71489">
        <ele>75</ele>
        <time>2021-04-12T12:38:17.000Z</time>
      </trkpt>
      <trkpt lat="47.21686" lon="-1.71488">
        <ele>75</ele>
        <time>2021-04-12T12:38:19.000Z</time>
      </trkpt>
      <trkpt lat="47.21697" lon="-1.71479">
        <ele>75</ele>
        <time>2021-04-12T12:38:22.000Z</time>
      </trkpt>
      <trkpt lat="47.21702" lon="-1.71465">
        <ele>75</ele>
        <time>2021-04-12T12:38:25.000Z</time>
      </trkpt>
      <trkpt lat="47.217" lon="-1.71481">
        <ele>74</ele>
        <time>2021-04-12T12:38:30.000Z</time>
      </trkpt>
      <trkpt lat="47.2169" lon="-1.71494">
        <ele>76</ele>
        <time>2021-04-12T12:38:33.000Z</time>
      </trkpt>
      <trkpt lat="47.21678" lon="-1.71495">
        <ele>76</ele>
        <time>2021-04-12T12:38:35.000Z</time>
      </trkpt>
      <trkpt lat="47.21666" lon="-1.71495">
        <ele>76</ele>
        <time>2021-04-12T12:38:37.000Z</time>
      </trkpt>
      <trkpt lat="47.21654" lon="-1.71496">
        <ele>76</ele>
        <time>2021-04-12T12:38:39.000Z</time>
      </trkpt>
      <trkpt lat="47.21642" lon="-1.71497">
        <ele>77</ele>
        <time>2021-04-12T12:38:41.000Z</time>
      </trkpt>
      <trkpt lat="47.21628" lon="-1.715">
        <ele>76</ele>
        <time>2021-04-12T12:38:43.000Z</time>
      </trkpt>
      <trkpt lat="47.21615" lon="-1.71505">
        <ele>76</ele>
        <time>2021-04-12T12:38:45.000Z</time>
      </trkpt>
      <trkpt lat="47.21602" lon="-1.7151">
        <ele>76</ele>
        <time>2021-04-12T12:38:47.000Z</time>
      </trkpt>
      <trkpt lat="47.21589" lon="-1.71516">
        <ele>75</ele>
        <time>2021-04-12T12:38:49.000Z</time>
      </trkpt>
      <trkpt lat="47.21576" lon="-1.71521">
        <ele>75</ele>
        <time>2021-04-12T12:38:51.000Z</time>
      </trkpt>
      <trkpt lat="47.21563" lon="-1.71525">
        <ele>75</ele>
        <time>2021-04-12T12:38:53.000Z</time>
      </trkpt>
      <trkpt lat="47.2155" lon="-1.7153">
        <ele>74</ele>
        <time>2021-04-12T12:38:55.000Z</time>
      </trkpt>
      <trkpt lat="47.21538" lon="-1.71537">
        <ele>74</ele>
        <time>2021-04-12T12:38:57.000Z</time>
      </trkpt>
      <trkpt lat="47.21534" lon="-1.71554">
        <ele>74</ele>
        <time>2021-04-12T12:38:59.000Z</time>
      </trkpt>
      <trkpt lat="47.21539" lon="-1.71572">
        <ele>73</ele>
        <time>2021-04-12T12:39:01.000Z</time>
      </trkpt>
      <trkpt lat="47.21543" lon="-1.71591">
        <ele>73</ele>
        <time>2021-04-12T12:39:03.000Z</time>
      </trkpt>
      <trkpt lat="47.21547" lon="-1.7161">
        <ele>73</ele>
        <time>2021-04-12T12:39:05.000Z</time>
      </trkpt>
      <trkpt lat="47.21552" lon="-1.71628">
        <ele>72</ele>
        <time>2021-04-12T12:39:07.000Z</time>
      </trkpt>
      <trkpt lat="47.21558" lon="-1.71647">
        <ele>71</ele>
        <time>2021-04-12T12:39:09.000Z</time>
      </trkpt>
      <trkpt lat="47.21563" lon="-1.71667">
        <ele>71</ele>
        <time>2021-04-12T12:39:11.000Z</time>
      </trkpt>
      <trkpt lat="47.21568" lon="-1.71687">
        <ele>71</ele>
        <time>2021-04-12T12:39:13.000Z</time>
      </trkpt>
      <trkpt lat="47.21571" lon="-1.71707">
        <ele>71</ele>
        <time>2021-04-12T12:39:15.000Z</time>
      </trkpt>
      <trkpt lat="47.21574" lon="-1.71727">
        <ele>71</ele>
        <time>2021-04-12T12:39:17.000Z</time>
      </trkpt>
      <trkpt lat="47.21578" lon="-1.71746">
        <ele>70</ele>
        <time>2021-04-12T12:39:19.000Z</time>
      </trkpt>
      <trkpt lat="47.21583" lon="-1.71763">
        <ele>71</ele>
        <time>2021-04-12T12:39:21.000Z</time>
      </trkpt>
      <trkpt lat="47.21587" lon="-1.71781">
        <ele>70</ele>
        <time>2021-04-12T12:39:23.000Z</time>
      </trkpt>
      <trkpt lat="47.21592" lon="-1.71798">
        <ele>71</ele>
        <time>2021-04-12T12:39:25.000Z</time>
      </trkpt>
      <trkpt lat="47.21596" lon="-1.71815">
        <ele>70</ele>
        <time>2021-04-12T12:39:27.000Z</time>
      </trkpt>
      <trkpt lat="47.21601" lon="-1.71831">
        <ele>71</ele>
        <time>2021-04-12T12:39:29.000Z</time>
      </trkpt>
      <trkpt lat="47.21605" lon="-1.71847">
        <ele>70</ele>
        <time>2021-04-12T12:39:31.000Z</time>
      </trkpt>
      <trkpt lat="47.2161" lon="-1.71863">
        <ele>71</ele>
        <time>2021-04-12T12:39:33.000Z</time>
      </trkpt>
      <trkpt lat="47.21615" lon="-1.71879">
        <ele>70</ele>
        <time>2021-04-12T12:39:35.000Z</time>
      </trkpt>
      <trkpt lat="47.21619" lon="-1.71896">
        <ele>70</ele>
        <time>2021-04-12T12:39:37.000Z</time>
      </trkpt>
      <trkpt lat="47.21624" lon="-1.71913">
        <ele>71</ele>
        <time>2021-04-12T12:39:39.000Z</time>
      </trkpt>
      <trkpt lat="47.21629" lon="-1.71928">
        <ele>71</ele>
        <time>2021-04-12T12:39:41.000Z</time>
      </trkpt>
      <trkpt lat="47.21633" lon="-1.71944">
        <ele>72</ele>
        <time>2021-04-12T12:39:43.000Z</time>
      </trkpt>
      <trkpt lat="47.21638" lon="-1.7196">
        <ele>72</ele>
        <time>2021-04-12T12:39:45.000Z</time>
      </trkpt>
      <trkpt lat="47.21642" lon="-1.71976">
        <ele>72</ele>
        <time>2021-04-12T12:39:47.000Z</time>
      </trkpt>
      <trkpt lat="47.21647" lon="-1.71992">
        <ele>72</ele>
        <time>2021-04-12T12:39:49.000Z</time>
      </trkpt>
      <trkpt lat="47.21651" lon="-1.72008">
        <ele>72</ele>
        <time>2021-04-12T12:39:51.000Z</time>
      </trkpt>
      <trkpt lat="47.21656" lon="-1.72024">
        <ele>72</ele>
        <time>2021-04-12T12:39:53.000Z</time>
      </trkpt>
      <trkpt lat="47.21661" lon="-1.72039">
        <ele>72</ele>
        <time>2021-04-12T12:39:55.000Z</time>
      </trkpt>
      <trkpt lat="47.21664" lon="-1.72055">
        <ele>72</ele>
        <time>2021-04-12T12:39:57.000Z</time>
      </trkpt>
      <trkpt lat="47.21668" lon="-1.72069">
        <ele>72</ele>
        <time>2021-04-12T12:39:59.000Z</time>
      </trkpt>
      <trkpt lat="47.21673" lon="-1.72082">
        <ele>72</ele>
        <time>2021-04-12T12:40:01.000Z</time>
      </trkpt>
      <trkpt lat="47.21683" lon="-1.7209">
        <ele>73</ele>
        <time>2021-04-12T12:40:03.000Z</time>
      </trkpt>
      <trkpt lat="47.21695" lon="-1.72095">
        <ele>73</ele>
        <time>2021-04-12T12:40:05.000Z</time>
      </trkpt>
      <trkpt lat="47.21706" lon="-1.72101">
        <ele>73</ele>
        <time>2021-04-12T12:40:07.000Z</time>
      </trkpt>
      <trkpt lat="47.21717" lon="-1.72106">
        <ele>74</ele>
        <time>2021-04-12T12:40:09.000Z</time>
      </trkpt>
      <trkpt lat="47.21728" lon="-1.72111">
        <ele>74</ele>
        <time>2021-04-12T12:40:11.000Z</time>
      </trkpt>
      <trkpt lat="47.21739" lon="-1.72116">
        <ele>74</ele>
        <time>2021-04-12T12:40:13.000Z</time>
      </trkpt>
      <trkpt lat="47.2175" lon="-1.72122">
        <ele>74</ele>
        <time>2021-04-12T12:40:15.000Z</time>
      </trkpt>
      <trkpt lat="47.2176" lon="-1.72127">
        <ele>74</ele>
        <time>2021-04-12T12:40:17.000Z</time>
      </trkpt>
      <trkpt lat="47.21771" lon="-1.72132">
        <ele>74</ele>
        <time>2021-04-12T12:40:19.000Z</time>
      </trkpt>
      <trkpt lat="47.21782" lon="-1.72138">
        <ele>75</ele>
        <time>2021-04-12T12:40:21.000Z</time>
      </trkpt>
      <trkpt lat="47.21793" lon="-1.72143">
        <ele>75</ele>
        <time>2021-04-12T12:40:23.000Z</time>
      </trkpt>
      <trkpt lat="47.21804" lon="-1.72148">
        <ele>74</ele>
        <time>2021-04-12T12:40:25.000Z</time>
      </trkpt>
      <trkpt lat="47.21814" lon="-1.72154">
        <ele>74</ele>
        <time>2021-04-12T12:40:27.000Z</time>
      </trkpt>
      <trkpt lat="47.21825" lon="-1.72159">
        <ele>74</ele>
        <time>2021-04-12T12:40:29.000Z</time>
      </trkpt>
      <trkpt lat="47.21836" lon="-1.72164">
        <ele>74</ele>
        <time>2021-04-12T12:40:31.000Z</time>
      </trkpt>
      <trkpt lat="47.21847" lon="-1.72169">
        <ele>74</ele>
        <time>2021-04-12T12:40:33.000Z</time>
      </trkpt>
      <trkpt lat="47.21858" lon="-1.72175">
        <ele>74</ele>
        <time>2021-04-12T12:40:35.000Z</time>
      </trkpt>
      <trkpt lat="47.21869" lon="-1.72181">
        <ele>74</ele>
        <time>2021-04-12T12:40:37.000Z</time>
      </trkpt>
      <trkpt lat="47.21881" lon="-1.72186">
        <ele>74</ele>
        <time>2021-04-12T12:40:39.000Z</time>
      </trkpt>
      <trkpt lat="47.21891" lon="-1.72192">
        <ele>74</ele>
        <time>2021-04-12T12:40:41.000Z</time>
      </trkpt>
      <trkpt lat="47.21901" lon="-1.722">
        <ele>74</ele>
        <time>2021-04-12T12:40:43.000Z</time>
      </trkpt>
      <trkpt lat="47.2191" lon="-1.72212">
        <ele>74</ele>
        <time>2021-04-12T12:40:45.000Z</time>
      </trkpt>
      <trkpt lat="47.21916" lon="-1.72226">
        <ele>74</ele>
        <time>2021-04-12T12:40:47.000Z</time>
      </trkpt>
      <trkpt lat="47.21921" lon="-1.72241">
        <ele>74</ele>
        <time>2021-04-12T12:40:49.000Z</time>
      </trkpt>
      <trkpt lat="47.21925" lon="-1.72257">
        <ele>75</ele>
        <time>2021-04-12T12:40:51.000Z</time>
      </trkpt>
      <trkpt lat="47.21929" lon="-1.72273">
        <ele>75</ele>
        <time>2021-04-12T12:40:53.000Z</time>
      </trkpt>
      <trkpt lat="47.21932" lon="-1.72291">
        <ele>75</ele>
        <time>2021-04-12T12:40:55.000Z</time>
      </trkpt>
      <trkpt lat="47.21934" lon="-1.72308">
        <ele>74</ele>
        <time>2021-04-12T12:40:57.000Z</time>
      </trkpt>
      <trkpt lat="47.21936" lon="-1.72325">
        <ele>74</ele>
        <time>2021-04-12T12:40:59.000Z</time>
      </trkpt>
      <trkpt lat="47.21936" lon="-1.72343">
        <ele>74</ele>
        <time>2021-04-12T12:41:01.000Z</time>
      </trkpt>
      <trkpt lat="47.21936" lon="-1.72361">
        <ele>74</ele>
        <time>2021-04-12T12:41:03.000Z</time>
      </trkpt>
      <trkpt lat="47.21936" lon="-1.72379">
        <ele>74</ele>
        <time>2021-04-12T12:41:05.000Z</time>
      </trkpt>
      <trkpt lat="47.21936" lon="-1.72398">
        <ele>73</ele>
        <time>2021-04-12T12:41:07.000Z</time>
      </trkpt>
      <trkpt lat="47.21937" lon="-1.72416">
        <ele>73</ele>
        <time>2021-04-12T12:41:09.000Z</time>
      </trkpt>
      <trkpt lat="47.21939" lon="-1.72436">
        <ele>72</ele>
        <time>2021-04-12T12:41:11.000Z</time>
      </trkpt>
      <trkpt lat="47.21943" lon="-1.72457">
        <ele>71</ele>
        <time>2021-04-12T12:41:13.000Z</time>
      </trkpt>
      <trkpt lat="47.21945" lon="-1.72477">
        <ele>70</ele>
        <time>2021-04-12T12:41:15.000Z</time>
      </trkpt>
      <trkpt lat="47.21948" lon="-1.72492">
        <ele>69</ele>
        <time>2021-04-12T12:41:17.000Z</time>
      </trkpt>
      <trkpt lat="47.21958" lon="-1.72496">
        <ele>68</ele>
        <time>2021-04-12T12:41:21.000Z</time>
      </trkpt>
      <trkpt lat="47.21968" lon="-1.72489">
        <ele>67</ele>
        <time>2021-04-12T12:41:23.000Z</time>
      </trkpt>
      <trkpt lat="47.21978" lon="-1.72482">
        <ele>67</ele>
        <time>2021-04-12T12:41:25.000Z</time>
      </trkpt>
      <trkpt lat="47.21989" lon="-1.72475">
        <ele>67</ele>
        <time>2021-04-12T12:41:27.000Z</time>
      </trkpt>
      <trkpt lat="47.22" lon="-1.72468">
        <ele>66</ele>
        <time>2021-04-12T12:41:29.000Z</time>
      </trkpt>
      <trkpt lat="47.22012" lon="-1.72461">
        <ele>65</ele>
        <time>2021-04-12T12:41:31.000Z</time>
      </trkpt>
      <trkpt lat="47.22023" lon="-1.72454">
        <ele>65</ele>
        <time>2021-04-12T12:41:33.000Z</time>
      </trkpt>
      <trkpt lat="47.22034" lon="-1.72446">
        <ele>64</ele>
        <time>2021-04-12T12:41:35.000Z</time>
      </trkpt>
      <trkpt lat="47.22042" lon="-1.72439">
        <ele>63</ele>
        <time>2021-04-12T12:41:37.000Z</time>
      </trkpt>
      <trkpt lat="47.22049" lon="-1.72425">
        <ele>62</ele>
        <time>2021-04-12T12:41:43.000Z</time>
      </trkpt>
      <trkpt lat="47.22055" lon="-1.7241">
        <ele>62</ele>
        <time>2021-04-12T12:41:45.000Z</time>
      </trkpt>
      <trkpt lat="47.22061" lon="-1.72392">
        <ele>62</ele>
        <time>2021-04-12T12:41:47.000Z</time>
      </trkpt>
      <trkpt lat="47.22063" lon="-1.72373">
        <ele>60</ele>
        <time>2021-04-12T12:41:49.000Z</time>
      </trkpt>
      <trkpt lat="47.22065" lon="-1.72351">
        <ele>59</ele>
        <time>2021-04-12T12:41:51.000Z</time>
      </trkpt>
      <trkpt lat="47.22066" lon="-1.72329">
        <ele>58</ele>
        <time>2021-04-12T12:41:53.000Z</time>
      </trkpt>
      <trkpt lat="47.22067" lon="-1.72306">
        <ele>57</ele>
        <time>2021-04-12T12:41:55.000Z</time>
      </trkpt>
      <trkpt lat="47.22068" lon="-1.72283">
        <ele>57</ele>
        <time>2021-04-12T12:41:57.000Z</time>
      </trkpt>
      <trkpt lat="47.22068" lon="-1.72258">
        <ele>56</ele>
        <time>2021-04-12T12:41:59.000Z</time>
      </trkpt>
      <trkpt lat="47.22069" lon="-1.72233">
        <ele>55</ele>
        <time>2021-04-12T12:42:01.000Z</time>
      </trkpt>
      <trkpt lat="47.2207" lon="-1.72206">
        <ele>54</ele>
        <time>2021-04-12T12:42:03.000Z</time>
      </trkpt>
      <trkpt lat="47.22071" lon="-1.72193">
        <ele>54</ele>
        <time>2021-04-12T12:42:04.000Z</time>
      </trkpt>
      <trkpt lat="47.22071" lon="-1.7218">
        <ele>54</ele>
        <time>2021-04-12T12:42:05.000Z</time>
      </trkpt>
      <trkpt lat="47.22074" lon="-1.72154">
        <ele>53</ele>
        <time>2021-04-12T12:42:07.000Z</time>
      </trkpt>
      <trkpt lat="47.22081" lon="-1.7213">
        <ele>52</ele>
        <time>2021-04-12T12:42:09.000Z</time>
      </trkpt>
      <trkpt lat="47.22092" lon="-1.7211">
        <ele>51</ele>
        <time>2021-04-12T12:42:11.000Z</time>
      </trkpt>
      <trkpt lat="47.22106" lon="-1.72096">
        <ele>50</ele>
        <time>2021-04-12T12:42:13.000Z</time>
      </trkpt>
      <trkpt lat="47.22122" lon="-1.72087">
        <ele>49</ele>
        <time>2021-04-12T12:42:15.000Z</time>
      </trkpt>
      <trkpt lat="47.22138" lon="-1.7208">
        <ele>49</ele>
        <time>2021-04-12T12:42:17.000Z</time>
      </trkpt>
      <trkpt lat="47.22152" lon="-1.72073">
        <ele>48</ele>
        <time>2021-04-12T12:42:19.000Z</time>
      </trkpt>
      <trkpt lat="47.22165" lon="-1.72064">
        <ele>49</ele>
        <time>2021-04-12T12:42:21.000Z</time>
      </trkpt>
      <trkpt lat="47.22179" lon="-1.72056">
        <ele>49</ele>
        <time>2021-04-12T12:42:23.000Z</time>
      </trkpt>
      <trkpt lat="47.22191" lon="-1.72047">
        <ele>49</ele>
        <time>2021-04-12T12:42:25.000Z</time>
      </trkpt>
      <trkpt lat="47.22204" lon="-1.72039">
        <ele>50</ele>
        <time>2021-04-12T12:42:27.000Z</time>
      </trkpt>
      <trkpt lat="47.22217" lon="-1.7203">
        <ele>50</ele>
        <time>2021-04-12T12:42:29.000Z</time>
      </trkpt>
      <trkpt lat="47.22229" lon="-1.72022">
        <ele>49</ele>
        <time>2021-04-12T12:42:31.000Z</time>
      </trkpt>
      <trkpt lat="47.22242" lon="-1.72015">
        <ele>49</ele>
        <time>2021-04-12T12:42:33.000Z</time>
      </trkpt>
      <trkpt lat="47.22255" lon="-1.72008">
        <ele>49</ele>
        <time>2021-04-12T12:42:35.000Z</time>
      </trkpt>
      <trkpt lat="47.22268" lon="-1.72">
        <ele>49</ele>
        <time>2021-04-12T12:42:37.000Z</time>
      </trkpt>
      <trkpt lat="47.22282" lon="-1.71993">
        <ele>49</ele>
        <time>2021-04-12T12:42:39.000Z</time>
      </trkpt>
      <trkpt lat="47.22295" lon="-1.71985">
        <ele>49</ele>
        <time>2021-04-12T12:42:41.000Z</time>
      </trkpt>
      <trkpt lat="47.22307" lon="-1.71978">
        <ele>49</ele>
        <time>2021-04-12T12:42:43.000Z</time>
      </trkpt>
      <trkpt lat="47.22319" lon="-1.71972">
        <ele>49</ele>
        <time>2021-04-12T12:42:45.000Z</time>
      </trkpt>
      <trkpt lat="47.22331" lon="-1.71965">
        <ele>49</ele>
        <time>2021-04-12T12:42:47.000Z</time>
      </trkpt>
      <trkpt lat="47.22342" lon="-1.71958">
        <ele>49</ele>
        <time>2021-04-12T12:42:49.000Z</time>
      </trkpt>
      <trkpt lat="47.22354" lon="-1.71953">
        <ele>50</ele>
        <time>2021-04-12T12:42:51.000Z</time>
      </trkpt>
      <trkpt lat="47.22364" lon="-1.71947">
        <ele>50</ele>
        <time>2021-04-12T12:42:53.000Z</time>
      </trkpt>
      <trkpt lat="47.22374" lon="-1.7194">
        <ele>51</ele>
        <time>2021-04-12T12:42:55.000Z</time>
      </trkpt>
      <trkpt lat="47.22384" lon="-1.71935">
        <ele>51</ele>
        <time>2021-04-12T12:42:57.000Z</time>
      </trkpt>
      <trkpt lat="47.22394" lon="-1.71929">
        <ele>51</ele>
        <time>2021-04-12T12:42:59.000Z</time>
      </trkpt>
      <trkpt lat="47.22403" lon="-1.71923">
        <ele>51</ele>
        <time>2021-04-12T12:43:01.000Z</time>
      </trkpt>
      <trkpt lat="47.22411" lon="-1.71916">
        <ele>52</ele>
        <time>2021-04-12T12:43:03.000Z</time>
      </trkpt>
      <trkpt lat="47.22419" lon="-1.71907">
        <ele>53</ele>
        <time>2021-04-12T12:43:05.000Z</time>
      </trkpt>
      <trkpt lat="47.22426" lon="-1.71897">
        <ele>54</ele>
        <time>2021-04-12T12:43:07.000Z</time>
      </trkpt>
      <trkpt lat="47.22432" lon="-1.71886">
        <ele>55</ele>
        <time>2021-04-12T12:43:09.000Z</time>
      </trkpt>
      <trkpt lat="47.22436" lon="-1.71874">
        <ele>55</ele>
        <time>2021-04-12T12:43:11.000Z</time>
      </trkpt>
      <trkpt lat="47.2244" lon="-1.71857">
        <ele>56</ele>
        <time>2021-04-12T12:43:14.000Z</time>
      </trkpt>
      <trkpt lat="47.22444" lon="-1.71839">
        <ele>57</ele>
        <time>2021-04-12T12:43:17.000Z</time>
      </trkpt>
      <trkpt lat="47.22447" lon="-1.71821">
        <ele>57</ele>
        <time>2021-04-12T12:43:20.000Z</time>
      </trkpt>
      <trkpt lat="47.22451" lon="-1.71803">
        <ele>58</ele>
        <time>2021-04-12T12:43:23.000Z</time>
      </trkpt>
      <trkpt lat="47.22454" lon="-1.71786">
        <ele>59</ele>
        <time>2021-04-12T12:43:26.000Z</time>
      </trkpt>
      <trkpt lat="47.22458" lon="-1.71769">
        <ele>59</ele>
        <time>2021-04-12T12:43:29.000Z</time>
      </trkpt>
      <trkpt lat="47.22463" lon="-1.71753">
        <ele>60</ele>
        <time>2021-04-12T12:43:32.000Z</time>
      </trkpt>
      <trkpt lat="47.22469" lon="-1.71737">
        <ele>60</ele>
        <time>2021-04-12T12:43:35.000Z</time>
      </trkpt>
      <trkpt lat="47.22474" lon="-1.71723">
        <ele>61</ele>
        <time>2021-04-12T12:43:38.000Z</time>
      </trkpt>
      <trkpt lat="47.22481" lon="-1.71709">
        <ele>62</ele>
        <time>2021-04-12T12:43:41.000Z</time>
      </trkpt>
      <trkpt lat="47.22488" lon="-1.71695">
        <ele>63</ele>
        <time>2021-04-12T12:43:44.000Z</time>
      </trkpt>
      <trkpt lat="47.22495" lon="-1.71682">
        <ele>63</ele>
        <time>2021-04-12T12:43:47.000Z</time>
      </trkpt>
      <trkpt lat="47.22502" lon="-1.71669">
        <ele>64</ele>
        <time>2021-04-12T12:43:50.000Z</time>
      </trkpt>
      <trkpt lat="47.22508" lon="-1.71655">
        <ele>64</ele>
        <time>2021-04-12T12:43:53.000Z</time>
      </trkpt>
      <trkpt lat="47.22515" lon="-1.71641">
        <ele>65</ele>
        <time>2021-04-12T12:43:56.000Z</time>
      </trkpt>
      <trkpt lat="47.22523" lon="-1.71628">
        <ele>66</ele>
        <time>2021-04-12T12:43:59.000Z</time>
      </trkpt>
      <trkpt lat="47.2253" lon="-1.71613">
        <ele>66</ele>
        <time>2021-04-12T12:44:02.000Z</time>
      </trkpt>
      <trkpt lat="47.22536" lon="-1.71598">
        <ele>67</ele>
        <time>2021-04-12T12:44:05.000Z</time>
      </trkpt>
      <trkpt lat="47.22544" lon="-1.71584">
        <ele>67</ele>
        <time>2021-04-12T12:44:08.000Z</time>
      </trkpt>
      <trkpt lat="47.22552" lon="-1.7157">
        <ele>67</ele>
        <time>2021-04-12T12:44:11.000Z</time>
      </trkpt>
      <trkpt lat="47.22559" lon="-1.71555">
        <ele>67</ele>
        <time>2021-04-12T12:44:14.000Z</time>
      </trkpt>
      <trkpt lat="47.22567" lon="-1.71541">
        <ele>68</ele>
        <time>2021-04-12T12:44:17.000Z</time>
      </trkpt>
      <trkpt lat="47.22574" lon="-1.71526">
        <ele>68</ele>
        <time>2021-04-12T12:44:20.000Z</time>
      </trkpt>
      <trkpt lat="47.22582" lon="-1.71511">
        <ele>69</ele>
        <time>2021-04-12T12:44:23.000Z</time>
      </trkpt>
      <trkpt lat="47.22587" lon="-1.715">
        <ele>69</ele>
        <time>2021-04-12T12:44:25.000Z</time>
      </trkpt>
      <trkpt lat="47.22592" lon="-1.71489">
        <ele>69</ele>
        <time>2021-04-12T12:44:27.000Z</time>
      </trkpt>
      <trkpt lat="47.22598" lon="-1.71478">
        <ele>70</ele>
        <time>2021-04-12T12:44:29.000Z</time>
      </trkpt>
      <trkpt lat="47.22604" lon="-1.71467">
        <ele>70</ele>
        <time>2021-04-12T12:44:31.000Z</time>
      </trkpt>
      <trkpt lat="47.22612" lon="-1.71452">
        <ele>71</ele>
        <time>2021-04-12T12:44:34.000Z</time>
      </trkpt>
      <trkpt lat="47.2262" lon="-1.71439">
        <ele>71</ele>
        <time>2021-04-12T12:44:37.000Z</time>
      </trkpt>
      <trkpt lat="47.22628" lon="-1.71425">
        <ele>72</ele>
        <time>2021-04-12T12:44:40.000Z</time>
      </trkpt>
      <trkpt lat="47.22637" lon="-1.71412">
        <ele>73</ele>
        <time>2021-04-12T12:44:43.000Z</time>
      </trkpt>
      <trkpt lat="47.22643" lon="-1.71403">
        <ele>73</ele>
        <time>2021-04-12T12:44:45.000Z</time>
      </trkpt>
      <trkpt lat="47.2265" lon="-1.71393">
        <ele>73</ele>
        <time>2021-04-12T12:44:47.000Z</time>
      </trkpt>
      <trkpt lat="47.22659" lon="-1.71378">
        <ele>73</ele>
        <time>2021-04-12T12:44:50.000Z</time>
      </trkpt>
      <trkpt lat="47.22668" lon="-1.71365">
        <ele>74</ele>
        <time>2021-04-12T12:44:53.000Z</time>
      </trkpt>
      <trkpt lat="47.22676" lon="-1.7135">
        <ele>74</ele>
        <time>2021-04-12T12:44:56.000Z</time>
      </trkpt>
      <trkpt lat="47.22686" lon="-1.71336">
        <ele>74</ele>
        <time>2021-04-12T12:44:59.000Z</time>
      </trkpt>
      <trkpt lat="47.22695" lon="-1.71323">
        <ele>74</ele>
        <time>2021-04-12T12:45:02.000Z</time>
      </trkpt>
      <trkpt lat="47.22701" lon="-1.71313">
        <ele>74</ele>
        <time>2021-04-12T12:45:04.000Z</time>
      </trkpt>
      <trkpt lat="47.22708" lon="-1.71303">
        <ele>75</ele>
        <time>2021-04-12T12:45:06.000Z</time>
      </trkpt>
      <trkpt lat="47.22715" lon="-1.71292">
        <ele>75</ele>
        <time>2021-04-12T12:45:08.000Z</time>
      </trkpt>
      <trkpt lat="47.22722" lon="-1.71281">
        <ele>75</ele>
        <time>2021-04-12T12:45:10.000Z</time>
      </trkpt>
      <trkpt lat="47.22731" lon="-1.71269">
        <ele>75</ele>
        <time>2021-04-12T12:45:12.000Z</time>
      </trkpt>
      <trkpt lat="47.2274" lon="-1.71257">
        <ele>75</ele>
        <time>2021-04-12T12:45:14.000Z</time>
      </trkpt>
      <trkpt lat="47.22748" lon="-1.71244">
        <ele>74</ele>
        <time>2021-04-12T12:45:16.000Z</time>
      </trkpt>
      <trkpt lat="47.22756" lon="-1.7123">
        <ele>74</ele>
        <time>2021-04-12T12:45:18.000Z</time>
      </trkpt>
      <trkpt lat="47.22765" lon="-1.71217">
        <ele>74</ele>
        <time>2021-04-12T12:45:20.000Z</time>
      </trkpt>
      <trkpt lat="47.22773" lon="-1.71205">
        <ele>74</ele>
        <time>2021-04-12T12:45:22.000Z</time>
      </trkpt>
      <trkpt lat="47.22781" lon="-1.71191">
        <ele>74</ele>
        <time>2021-04-12T12:45:24.000Z</time>
      </trkpt>
      <trkpt lat="47.22789" lon="-1.71178">
        <ele>75</ele>
        <time>2021-04-12T12:45:26.000Z</time>
      </trkpt>
      <trkpt lat="47.22798" lon="-1.71164">
        <ele>74</ele>
        <time>2021-04-12T12:45:28.000Z</time>
      </trkpt>
      <trkpt lat="47.22808" lon="-1.71149">
        <ele>73</ele>
        <time>2021-04-12T12:45:30.000Z</time>
      </trkpt>
      <trkpt lat="47.22818" lon="-1.71136">
        <ele>73</ele>
        <time>2021-04-12T12:45:32.000Z</time>
      </trkpt>
      <trkpt lat="47.22827" lon="-1.71122">
        <ele>72</ele>
        <time>2021-04-12T12:45:34.000Z</time>
      </trkpt>
      <trkpt lat="47.22837" lon="-1.71108">
        <ele>72</ele>
        <time>2021-04-12T12:45:36.000Z</time>
      </trkpt>
      <trkpt lat="47.22846" lon="-1.71094">
        <ele>72</ele>
        <time>2021-04-12T12:45:38.000Z</time>
      </trkpt>
      <trkpt lat="47.22855" lon="-1.7108">
        <ele>72</ele>
        <time>2021-04-12T12:45:40.000Z</time>
      </trkpt>
      <trkpt lat="47.22865" lon="-1.71066">
        <ele>71</ele>
        <time>2021-04-12T12:45:42.000Z</time>
      </trkpt>
      <trkpt lat="47.22875" lon="-1.71052">
        <ele>71</ele>
        <time>2021-04-12T12:45:44.000Z</time>
      </trkpt>
      <trkpt lat="47.22885" lon="-1.71037">
        <ele>71</ele>
        <time>2021-04-12T12:45:46.000Z</time>
      </trkpt>
      <trkpt lat="47.22894" lon="-1.71023">
        <ele>71</ele>
        <time>2021-04-12T12:45:48.000Z</time>
      </trkpt>
      <trkpt lat="47.22904" lon="-1.71009">
        <ele>71</ele>
        <time>2021-04-12T12:45:50.000Z</time>
      </trkpt>
      <trkpt lat="47.22914" lon="-1.70994">
        <ele>71</ele>
        <time>2021-04-12T12:45:52.000Z</time>
      </trkpt>
      <trkpt lat="47.22924" lon="-1.7098">
        <ele>71</ele>
        <time>2021-04-12T12:45:54.000Z</time>
      </trkpt>
      <trkpt lat="47.22934" lon="-1.70965">
        <ele>70</ele>
        <time>2021-04-12T12:45:56.000Z</time>
      </trkpt>
      <trkpt lat="47.22944" lon="-1.70951">
        <ele>70</ele>
        <time>2021-04-12T12:45:58.000Z</time>
      </trkpt>
      <trkpt lat="47.22954" lon="-1.70936">
        <ele>70</ele>
        <time>2021-04-12T12:46:00.000Z</time>
      </trkpt>
      <trkpt lat="47.22963" lon="-1.70921">
        <ele>70</ele>
        <time>2021-04-12T12:46:02.000Z</time>
      </trkpt>
      <trkpt lat="47.22972" lon="-1.70908">
        <ele>70</ele>
        <time>2021-04-12T12:46:04.000Z</time>
      </trkpt>
      <trkpt lat="47.22981" lon="-1.70894">
        <ele>70</ele>
        <time>2021-04-12T12:46:06.000Z</time>
      </trkpt>
      <trkpt lat="47.2299" lon="-1.70881">
        <ele>70</ele>
        <time>2021-04-12T12:46:08.000Z</time>
      </trkpt>
      <trkpt lat="47.23" lon="-1.70868">
        <ele>71</ele>
        <time>2021-04-12T12:46:10.000Z</time>
      </trkpt>
      <trkpt lat="47.23009" lon="-1.70856">
        <ele>71</ele>
        <time>2021-04-12T12:46:12.000Z</time>
      </trkpt>
      <trkpt lat="47.23018" lon="-1.70842">
        <ele>71</ele>
        <time>2021-04-12T12:46:14.000Z</time>
      </trkpt>
      <trkpt lat="47.23026" lon="-1.70829">
        <ele>71</ele>
        <time>2021-04-12T12:46:16.000Z</time>
      </trkpt>
      <trkpt lat="47.23035" lon="-1.70815">
        <ele>71</ele>
        <time>2021-04-12T12:46:18.000Z</time>
      </trkpt>
      <trkpt lat="47.23044" lon="-1.70801">
        <ele>71</ele>
        <time>2021-04-12T12:46:20.000Z</time>
      </trkpt>
      <trkpt lat="47.23054" lon="-1.70787">
        <ele>71</ele>
        <time>2021-04-12T12:46:22.000Z</time>
      </trkpt>
      <trkpt lat="47.23063" lon="-1.70772">
        <ele>72</ele>
        <time>2021-04-12T12:46:24.000Z</time>
      </trkpt>
      <trkpt lat="47.23073" lon="-1.70759">
        <ele>72</ele>
        <time>2021-04-12T12:46:26.000Z</time>
      </trkpt>
      <trkpt lat="47.23081" lon="-1.70746">
        <ele>72</ele>
        <time>2021-04-12T12:46:28.000Z</time>
      </trkpt>
      <trkpt lat="47.23089" lon="-1.70733">
        <ele>72</ele>
        <time>2021-04-12T12:46:30.000Z</time>
      </trkpt>
      <trkpt lat="47.23096" lon="-1.70718">
        <ele>72</ele>
        <time>2021-04-12T12:46:32.000Z</time>
      </trkpt>
      <trkpt lat="47.23104" lon="-1.70702">
        <ele>73</ele>
        <time>2021-04-12T12:46:34.000Z</time>
      </trkpt>
      <trkpt lat="47.23111" lon="-1.70687">
        <ele>73</ele>
        <time>2021-04-12T12:46:36.000Z</time>
      </trkpt>
      <trkpt lat="47.23118" lon="-1.70671">
        <ele>73</ele>
        <time>2021-04-12T12:46:38.000Z</time>
      </trkpt>
      <trkpt lat="47.23125" lon="-1.70656">
        <ele>74</ele>
        <time>2021-04-12T12:46:40.000Z</time>
      </trkpt>
      <trkpt lat="47.23132" lon="-1.70641">
        <ele>75</ele>
        <time>2021-04-12T12:46:42.000Z</time>
      </trkpt>
      <trkpt lat="47.23139" lon="-1.70626">
        <ele>76</ele>
        <time>2021-04-12T12:46:44.000Z</time>
      </trkpt>
      <trkpt lat="47.23146" lon="-1.70613">
        <ele>76</ele>
        <time>2021-04-12T12:46:46.000Z</time>
      </trkpt>
      <trkpt lat="47.23153" lon="-1.70599">
        <ele>77</ele>
        <time>2021-04-12T12:46:48.000Z</time>
      </trkpt>
      <trkpt lat="47.2316" lon="-1.70584">
        <ele>77</ele>
        <time>2021-04-12T12:46:50.000Z</time>
      </trkpt>
      <trkpt lat="47.23168" lon="-1.70571">
        <ele>77</ele>
        <time>2021-04-12T12:46:52.000Z</time>
      </trkpt>
      <trkpt lat="47.23177" lon="-1.70559">
        <ele>77</ele>
        <time>2021-04-12T12:46:54.000Z</time>
      </trkpt>
      <trkpt lat="47.23186" lon="-1.7055">
        <ele>78</ele>
        <time>2021-04-12T12:46:56.000Z</time>
      </trkpt>
      <trkpt lat="47.23197" lon="-1.70541">
        <ele>78</ele>
        <time>2021-04-12T12:46:58.000Z</time>
      </trkpt>
      <trkpt lat="47.23207" lon="-1.70532">
        <ele>78</ele>
        <time>2021-04-12T12:47:00.000Z</time>
      </trkpt>
      <trkpt lat="47.23217" lon="-1.70524">
        <ele>78</ele>
        <time>2021-04-12T12:47:02.000Z</time>
      </trkpt>
      <trkpt lat="47.23227" lon="-1.70516">
        <ele>77</ele>
        <time>2021-04-12T12:47:04.000Z</time>
      </trkpt>
      <trkpt lat="47.23237" lon="-1.70508">
        <ele>77</ele>
        <time>2021-04-12T12:47:06.000Z</time>
      </trkpt>
      <trkpt lat="47.23247" lon="-1.705">
        <ele>77</ele>
        <time>2021-04-12T12:47:08.000Z</time>
      </trkpt>
      <trkpt lat="47.23257" lon="-1.70492">
        <ele>77</ele>
        <time>2021-04-12T12:47:10.000Z</time>
      </trkpt>
      <trkpt lat="47.23267" lon="-1.70485">
        <ele>77</ele>
        <time>2021-04-12T12:47:12.000Z</time>
      </trkpt>
      <trkpt lat="47.23277" lon="-1.70476">
        <ele>77</ele>
        <time>2021-04-12T12:47:14.000Z</time>
      </trkpt>
      <trkpt lat="47.23287" lon="-1.70468">
        <ele>77</ele>
        <time>2021-04-12T12:47:16.000Z</time>
      </trkpt>
      <trkpt lat="47.23297" lon="-1.70461">
        <ele>77</ele>
        <time>2021-04-12T12:47:18.000Z</time>
      </trkpt>
      <trkpt lat="47.23307" lon="-1.70453">
        <ele>77</ele>
        <time>2021-04-12T12:47:20.000Z</time>
      </trkpt>
      <trkpt lat="47.23316" lon="-1.70445">
        <ele>77</ele>
        <time>2021-04-12T12:47:22.000Z</time>
      </trkpt>
      <trkpt lat="47.23326" lon="-1.70437">
        <ele>77</ele>
        <time>2021-04-12T12:47:24.000Z</time>
      </trkpt>
      <trkpt lat="47.23337" lon="-1.7043">
        <ele>77</ele>
        <time>2021-04-12T12:47:26.000Z</time>
      </trkpt>
      <trkpt lat="47.23346" lon="-1.70422">
        <ele>77</ele>
        <time>2021-04-12T12:47:28.000Z</time>
      </trkpt>
      <trkpt lat="47.23356" lon="-1.70414">
        <ele>77</ele>
        <time>2021-04-12T12:47:30.000Z</time>
      </trkpt>
      <trkpt lat="47.23366" lon="-1.70406">
        <ele>77</ele>
        <time>2021-04-12T12:47:32.000Z</time>
      </trkpt>
      <trkpt lat="47.23375" lon="-1.70398">
        <ele>77</ele>
        <time>2021-04-12T12:47:34.000Z</time>
      </trkpt>
      <trkpt lat="47.23386" lon="-1.7039">
        <ele>78</ele>
        <time>2021-04-12T12:47:36.000Z</time>
      </trkpt>
      <trkpt lat="47.23396" lon="-1.70383">
        <ele>77</ele>
        <time>2021-04-12T12:47:38.000Z</time>
      </trkpt>
      <trkpt lat="47.23407" lon="-1.70374">
        <ele>77</ele>
        <time>2021-04-12T12:47:40.000Z</time>
      </trkpt>
      <trkpt lat="47.23417" lon="-1.70365">
        <ele>77</ele>
        <time>2021-04-12T12:47:42.000Z</time>
      </trkpt>
      <trkpt lat="47.23428" lon="-1.70355">
        <ele>77</ele>
        <time>2021-04-12T12:47:44.000Z</time>
      </trkpt>
      <trkpt lat="47.2344" lon="-1.70344">
        <ele>76</ele>
        <time>2021-04-12T12:47:46.000Z</time>
      </trkpt>
      <trkpt lat="47.23451" lon="-1.70332">
        <ele>76</ele>
        <time>2021-04-12T12:47:48.000Z</time>
      </trkpt>
      <trkpt lat="47.23461" lon="-1.70317">
        <ele>75</ele>
        <time>2021-04-12T12:47:50.000Z</time>
      </trkpt>
      <trkpt lat="47.23471" lon="-1.70302">
        <ele>74</ele>
        <time>2021-04-12T12:47:52.000Z</time>
      </trkpt>
      <trkpt lat="47.2348" lon="-1.70286">
        <ele>74</ele>
        <time>2021-04-12T12:47:54.000Z</time>
      </trkpt>
      <trkpt lat="47.2349" lon="-1.70271">
        <ele>73</ele>
        <time>2021-04-12T12:47:56.000Z</time>
      </trkpt>
      <trkpt lat="47.23499" lon="-1.70256">
        <ele>73</ele>
        <time>2021-04-12T12:47:58.000Z</time>
      </trkpt>
      <trkpt lat="47.23508" lon="-1.70239">
        <ele>73</ele>
        <time>2021-04-12T12:48:00.000Z</time>
      </trkpt>
      <trkpt lat="47.23517" lon="-1.70224">
        <ele>73</ele>
        <time>2021-04-12T12:48:02.000Z</time>
      </trkpt>
      <trkpt lat="47.23527" lon="-1.70208">
        <ele>73</ele>
        <time>2021-04-12T12:48:04.000Z</time>
      </trkpt>
      <trkpt lat="47.23536" lon="-1.70193">
        <ele>72</ele>
        <time>2021-04-12T12:48:06.000Z</time>
      </trkpt>
      <trkpt lat="47.23545" lon="-1.7018">
        <ele>72</ele>
        <time>2021-04-12T12:48:08.000Z</time>
      </trkpt>
      <trkpt lat="47.23554" lon="-1.70168">
        <ele>72</ele>
        <time>2021-04-12T12:48:10.000Z</time>
      </trkpt>
      <trkpt lat="47.23564" lon="-1.70158">
        <ele>71</ele>
        <time>2021-04-12T12:48:12.000Z</time>
      </trkpt>
      <trkpt lat="47.23576" lon="-1.70148">
        <ele>71</ele>
        <time>2021-04-12T12:48:14.000Z</time>
      </trkpt>
      <trkpt lat="47.23589" lon="-1.7014">
        <ele>72</ele>
        <time>2021-04-12T12:48:16.000Z</time>
      </trkpt>
      <trkpt lat="47.23602" lon="-1.70132">
        <ele>71</ele>
        <time>2021-04-12T12:48:18.000Z</time>
      </trkpt>
      <trkpt lat="47.23615" lon="-1.70124">
        <ele>72</ele>
        <time>2021-04-12T12:48:20.000Z</time>
      </trkpt>
      <trkpt lat="47.23627" lon="-1.70117">
        <ele>71</ele>
        <time>2021-04-12T12:48:22.000Z</time>
      </trkpt>
      <trkpt lat="47.23639" lon="-1.70109">
        <ele>71</ele>
        <time>2021-04-12T12:48:24.000Z</time>
      </trkpt>
      <trkpt lat="47.23651" lon="-1.70102">
        <ele>71</ele>
        <time>2021-04-12T12:48:26.000Z</time>
      </trkpt>
      <trkpt lat="47.23662" lon="-1.70095">
        <ele>71</ele>
        <time>2021-04-12T12:48:28.000Z</time>
      </trkpt>
      <trkpt lat="47.23673" lon="-1.70088">
        <ele>71</ele>
        <time>2021-04-12T12:48:30.000Z</time>
      </trkpt>
      <trkpt lat="47.23684" lon="-1.70082">
        <ele>71</ele>
        <time>2021-04-12T12:48:32.000Z</time>
      </trkpt>
      <trkpt lat="47.23694" lon="-1.70075">
        <ele>71</ele>
        <time>2021-04-12T12:48:34.000Z</time>
      </trkpt>
      <trkpt lat="47.23704" lon="-1.70068">
        <ele>71</ele>
        <time>2021-04-12T12:48:36.000Z</time>
      </trkpt>
      <trkpt lat="47.23715" lon="-1.70061">
        <ele>71</ele>
        <time>2021-04-12T12:48:38.000Z</time>
      </trkpt>
      <trkpt lat="47.23725" lon="-1.70054">
        <ele>72</ele>
        <time>2021-04-12T12:48:40.000Z</time>
      </trkpt>
      <trkpt lat="47.23735" lon="-1.70047">
        <ele>72</ele>
        <time>2021-04-12T12:48:42.000Z</time>
      </trkpt>
      <trkpt lat="47.23745" lon="-1.70041">
        <ele>72</ele>
        <time>2021-04-12T12:48:44.000Z</time>
      </trkpt>
      <trkpt lat="47.23756" lon="-1.70034">
        <ele>72</ele>
        <time>2021-04-12T12:48:46.000Z</time>
      </trkpt>
      <trkpt lat="47.23766" lon="-1.70028">
        <ele>73</ele>
        <time>2021-04-12T12:48:48.000Z</time>
      </trkpt>
      <trkpt lat="47.23776" lon="-1.70021">
        <ele>73</ele>
        <time>2021-04-12T12:48:50.000Z</time>
      </trkpt>
      <trkpt lat="47.23787" lon="-1.70015">
        <ele>74</ele>
        <time>2021-04-12T12:48:52.000Z</time>
      </trkpt>
      <trkpt lat="47.23798" lon="-1.70008">
        <ele>74</ele>
        <time>2021-04-12T12:48:54.000Z</time>
      </trkpt>
      <trkpt lat="47.23808" lon="-1.7">
        <ele>75</ele>
        <time>2021-04-12T12:48:56.000Z</time>
      </trkpt>
      <trkpt lat="47.23818" lon="-1.69992">
        <ele>75</ele>
        <time>2021-04-12T12:48:58.000Z</time>
      </trkpt>
      <trkpt lat="47.23828" lon="-1.69984">
        <ele>75</ele>
        <time>2021-04-12T12:49:00.000Z</time>
      </trkpt>
      <trkpt lat="47.23837" lon="-1.69975">
        <ele>75</ele>
        <time>2021-04-12T12:49:02.000Z</time>
      </trkpt>
      <trkpt lat="47.23845" lon="-1.69965">
        <ele>75</ele>
        <time>2021-04-12T12:49:04.000Z</time>
      </trkpt>
      <trkpt lat="47.23852" lon="-1.69952">
        <ele>75</ele>
        <time>2021-04-12T12:49:06.000Z</time>
      </trkpt>
      <trkpt lat="47.23858" lon="-1.69938">
        <ele>75</ele>
        <time>2021-04-12T12:49:08.000Z</time>
      </trkpt>
      <trkpt lat="47.23864" lon="-1.69924">
        <ele>75</ele>
        <time>2021-04-12T12:49:10.000Z</time>
      </trkpt>
      <trkpt lat="47.23869" lon="-1.6991">
        <ele>75</ele>
        <time>2021-04-12T12:49:12.000Z</time>
      </trkpt>
      <trkpt lat="47.23873" lon="-1.69894">
        <ele>75</ele>
        <time>2021-04-12T12:49:14.000Z</time>
      </trkpt>
      <trkpt lat="47.23878" lon="-1.69879">
        <ele>75</ele>
        <time>2021-04-12T12:49:16.000Z</time>
      </trkpt>
      <trkpt lat="47.23882" lon="-1.69863">
        <ele>75</ele>
        <time>2021-04-12T12:49:18.000Z</time>
      </trkpt>
      <trkpt lat="47.23887" lon="-1.69846">
        <ele>76</ele>
        <time>2021-04-12T12:49:20.000Z</time>
      </trkpt>
      <trkpt lat="47.23891" lon="-1.6983">
        <ele>76</ele>
        <time>2021-04-12T12:49:22.000Z</time>
      </trkpt>
      <trkpt lat="47.23896" lon="-1.69815">
        <ele>76</ele>
        <time>2021-04-12T12:49:24.000Z</time>
      </trkpt>
      <trkpt lat="47.239" lon="-1.69799">
        <ele>76</ele>
        <time>2021-04-12T12:49:26.000Z</time>
      </trkpt>
      <trkpt lat="47.23904" lon="-1.69785">
        <ele>76</ele>
        <time>2021-04-12T12:49:28.000Z</time>
      </trkpt>
      <trkpt lat="47.23908" lon="-1.6977">
        <ele>76</ele>
        <time>2021-04-12T12:49:30.000Z</time>
      </trkpt>
      <trkpt lat="47.23913" lon="-1.69755">
        <ele>76</ele>
        <time>2021-04-12T12:49:32.000Z</time>
      </trkpt>
      <trkpt lat="47.23918" lon="-1.6974">
        <ele>76</ele>
        <time>2021-04-12T12:49:34.000Z</time>
      </trkpt>
      <trkpt lat="47.23922" lon="-1.69724">
        <ele>77</ele>
        <time>2021-04-12T12:49:36.000Z</time>
      </trkpt>
      <trkpt lat="47.23926" lon="-1.69707">
        <ele>77</ele>
        <time>2021-04-12T12:49:38.000Z</time>
      </trkpt>
      <trkpt lat="47.23931" lon="-1.69692">
        <ele>77</ele>
        <time>2021-04-12T12:49:40.000Z</time>
      </trkpt>
      <trkpt lat="47.23936" lon="-1.69677">
        <ele>78</ele>
        <time>2021-04-12T12:49:42.000Z</time>
      </trkpt>
      <trkpt lat="47.23942" lon="-1.69662">
        <ele>78</ele>
        <time>2021-04-12T12:49:44.000Z</time>
      </trkpt>
      <trkpt lat="47.23948" lon="-1.69648">
        <ele>78</ele>
        <time>2021-04-12T12:49:46.000Z</time>
      </trkpt>
      <trkpt lat="47.23956" lon="-1.69636">
        <ele>79</ele>
        <time>2021-04-12T12:49:48.000Z</time>
      </trkpt>
      <trkpt lat="47.23964" lon="-1.69624">
        <ele>79</ele>
        <time>2021-04-12T12:49:50.000Z</time>
      </trkpt>
      <trkpt lat="47.23972" lon="-1.69613">
        <ele>79</ele>
        <time>2021-04-12T12:49:52.000Z</time>
      </trkpt>
      <trkpt lat="47.23981" lon="-1.69603">
        <ele>80</ele>
        <time>2021-04-12T12:49:54.000Z</time>
      </trkpt>
      <trkpt lat="47.2399" lon="-1.69594">
        <ele>81</ele>
        <time>2021-04-12T12:49:56.000Z</time>
      </trkpt>
      <trkpt lat="47.23998" lon="-1.69586">
        <ele>81</ele>
        <time>2021-04-12T12:49:58.000Z</time>
      </trkpt>
      <trkpt lat="47.24006" lon="-1.69577">
        <ele>82</ele>
        <time>2021-04-12T12:50:00.000Z</time>
      </trkpt>
      <trkpt lat="47.24014" lon="-1.69569">
        <ele>82</ele>
        <time>2021-04-12T12:50:02.000Z</time>
      </trkpt>
      <trkpt lat="47.24022" lon="-1.69561">
        <ele>82</ele>
        <time>2021-04-12T12:50:04.000Z</time>
      </trkpt>
      <trkpt lat="47.2403" lon="-1.69552">
        <ele>82</ele>
        <time>2021-04-12T12:50:06.000Z</time>
      </trkpt>
      <trkpt lat="47.24038" lon="-1.69544">
        <ele>83</ele>
        <time>2021-04-12T12:50:08.000Z</time>
      </trkpt>
      <trkpt lat="47.24047" lon="-1.69535">
        <ele>83</ele>
        <time>2021-04-12T12:50:10.000Z</time>
      </trkpt>
      <trkpt lat="47.24055" lon="-1.69527">
        <ele>83</ele>
        <time>2021-04-12T12:50:12.000Z</time>
      </trkpt>
      <trkpt lat="47.24063" lon="-1.69518">
        <ele>83</ele>
        <time>2021-04-12T12:50:14.000Z</time>
      </trkpt>
      <trkpt lat="47.24072" lon="-1.69509">
        <ele>83</ele>
        <time>2021-04-12T12:50:16.000Z</time>
      </trkpt>
      <trkpt lat="47.2408" lon="-1.69501">
        <ele>84</ele>
        <time>2021-04-12T12:50:18.000Z</time>
      </trkpt>
      <trkpt lat="47.24088" lon="-1.69493">
        <ele>84</ele>
        <time>2021-04-12T12:50:20.000Z</time>
      </trkpt>
      <trkpt lat="47.24097" lon="-1.69484">
        <ele>84</ele>
        <time>2021-04-12T12:50:22.000Z</time>
      </trkpt>
      <trkpt lat="47.24105" lon="-1.69476">
        <ele>85</ele>
        <time>2021-04-12T12:50:24.000Z</time>
      </trkpt>
      <trkpt lat="47.24113" lon="-1.69467">
        <ele>85</ele>
        <time>2021-04-12T12:50:26.000Z</time>
      </trkpt>
      <trkpt lat="47.24121" lon="-1.69459">
        <ele>85</ele>
        <time>2021-04-12T12:50:28.000Z</time>
      </trkpt>
      <trkpt lat="47.24129" lon="-1.69452">
        <ele>86</ele>
        <time>2021-04-12T12:50:30.000Z</time>
      </trkpt>
      <trkpt lat="47.24137" lon="-1.69443">
        <ele>85</ele>
        <time>2021-04-12T12:50:32.000Z</time>
      </trkpt>
      <trkpt lat="47.24146" lon="-1.69435">
        <ele>86</ele>
        <time>2021-04-12T12:50:34.000Z</time>
      </trkpt>
      <trkpt lat="47.24154" lon="-1.69427">
        <ele>86</ele>
        <time>2021-04-12T12:50:36.000Z</time>
      </trkpt>
      <trkpt lat="47.24161" lon="-1.6942">
        <ele>86</ele>
        <time>2021-04-12T12:50:38.000Z</time>
      </trkpt>
      <trkpt lat="47.24169" lon="-1.69412">
        <ele>87</ele>
        <time>2021-04-12T12:50:40.000Z</time>
      </trkpt>
      <trkpt lat="47.24177" lon="-1.69403">
        <ele>87</ele>
        <time>2021-04-12T12:50:42.000Z</time>
      </trkpt>
      <trkpt lat="47.24185" lon="-1.69394">
        <ele>88</ele>
        <time>2021-04-12T12:50:44.000Z</time>
      </trkpt>
      <trkpt lat="47.24193" lon="-1.69385">
        <ele>89</ele>
        <time>2021-04-12T12:50:46.000Z</time>
      </trkpt>
      <trkpt lat="47.24201" lon="-1.69377">
        <ele>90</ele>
        <time>2021-04-12T12:50:48.000Z</time>
      </trkpt>
      <trkpt lat="47.24208" lon="-1.69369">
        <ele>90</ele>
        <time>2021-04-12T12:50:50.000Z</time>
      </trkpt>
      <trkpt lat="47.24216" lon="-1.6936">
        <ele>90</ele>
        <time>2021-04-12T12:50:52.000Z</time>
      </trkpt>
      <trkpt lat="47.24225" lon="-1.69352">
        <ele>90</ele>
        <time>2021-04-12T12:50:54.000Z</time>
      </trkpt>
      <trkpt lat="47.24233" lon="-1.69344">
        <ele>91</ele>
        <time>2021-04-12T12:50:56.000Z</time>
      </trkpt>
      <trkpt lat="47.24242" lon="-1.69336">
        <ele>91</ele>
        <time>2021-04-12T12:50:58.000Z</time>
      </trkpt>
      <trkpt lat="47.2425" lon="-1.69328">
        <ele>92</ele>
        <time>2021-04-12T12:51:00.000Z</time>
      </trkpt>
      <trkpt lat="47.24258" lon="-1.69319">
        <ele>92</ele>
        <time>2021-04-12T12:51:02.000Z</time>
      </trkpt>
      <trkpt lat="47.24266" lon="-1.69311">
        <ele>92</ele>
        <time>2021-04-12T12:51:04.000Z</time>
      </trkpt>
      <trkpt lat="47.24274" lon="-1.69304">
        <ele>92</ele>
        <time>2021-04-12T12:51:06.000Z</time>
      </trkpt>
      <trkpt lat="47.24282" lon="-1.69296">
        <ele>93</ele>
        <time>2021-04-12T12:51:08.000Z</time>
      </trkpt>
      <trkpt lat="47.2429" lon="-1.69288">
        <ele>93</ele>
        <time>2021-04-12T12:51:10.000Z</time>
      </trkpt>
      <trkpt lat="47.24298" lon="-1.6928">
        <ele>93</ele>
        <time>2021-04-12T12:51:12.000Z</time>
      </trkpt>
      <trkpt lat="47.24306" lon="-1.69272">
        <ele>93</ele>
        <time>2021-04-12T12:51:14.000Z</time>
      </trkpt>
      <trkpt lat="47.24313" lon="-1.69264">
        <ele>94</ele>
        <time>2021-04-12T12:51:16.000Z</time>
      </trkpt>
      <trkpt lat="47.24321" lon="-1.69256">
        <ele>94</ele>
        <time>2021-04-12T12:51:18.000Z</time>
      </trkpt>
      <trkpt lat="47.2433" lon="-1.69247">
        <ele>94</ele>
        <time>2021-04-12T12:51:20.000Z</time>
      </trkpt>
      <trkpt lat="47.24338" lon="-1.69239">
        <ele>95</ele>
        <time>2021-04-12T12:51:22.000Z</time>
      </trkpt>
      <trkpt lat="47.24346" lon="-1.69231">
        <ele>95</ele>
        <time>2021-04-12T12:51:24.000Z</time>
      </trkpt>
      <trkpt lat="47.24353" lon="-1.69222">
        <ele>95</ele>
        <time>2021-04-12T12:51:26.000Z</time>
      </trkpt>
      <trkpt lat="47.24362" lon="-1.69214">
        <ele>95</ele>
        <time>2021-04-12T12:51:28.000Z</time>
      </trkpt>
      <trkpt lat="47.24369" lon="-1.69206">
        <ele>95</ele>
        <time>2021-04-12T12:51:30.000Z</time>
      </trkpt>
      <trkpt lat="47.24377" lon="-1.69198">
        <ele>95</ele>
        <time>2021-04-12T12:51:32.000Z</time>
      </trkpt>
      <trkpt lat="47.24385" lon="-1.6919">
        <ele>95</ele>
        <time>2021-04-12T12:51:34.000Z</time>
      </trkpt>
      <trkpt lat="47.24393" lon="-1.69182">
        <ele>95</ele>
        <time>2021-04-12T12:51:36.000Z</time>
      </trkpt>
      <trkpt lat="47.24401" lon="-1.69174">
        <ele>96</ele>
        <time>2021-04-12T12:51:38.000Z</time>
      </trkpt>
      <trkpt lat="47.24409" lon="-1.69165">
        <ele>96</ele>
        <time>2021-04-12T12:51:40.000Z</time>
      </trkpt>
      <trkpt lat="47.24417" lon="-1.69157">
        <ele>96</ele>
        <time>2021-04-12T12:51:42.000Z</time>
      </trkpt>
      <trkpt lat="47.24425" lon="-1.69149">
        <ele>96</ele>
        <time>2021-04-12T12:51:44.000Z</time>
      </trkpt>
      <trkpt lat="47.24433" lon="-1.69142">
        <ele>97</ele>
        <time>2021-04-12T12:51:46.000Z</time>
      </trkpt>
      <trkpt lat="47.2444" lon="-1.69133">
        <ele>97</ele>
        <time>2021-04-12T12:51:48.000Z</time>
      </trkpt>
      <trkpt lat="47.24448" lon="-1.69125">
        <ele>97</ele>
        <time>2021-04-12T12:51:50.000Z</time>
      </trkpt>
      <trkpt lat="47.24456" lon="-1.69118">
        <ele>98</ele>
        <time>2021-04-12T12:51:52.000Z</time>
      </trkpt>
      <trkpt lat="47.24464" lon="-1.6911">
        <ele>97</ele>
        <time>2021-04-12T12:51:54.000Z</time>
      </trkpt>
      <trkpt lat="47.24469" lon="-1.69097">
        <ele>98</ele>
        <time>2021-04-12T12:51:56.000Z</time>
      </trkpt>
      <trkpt lat="47.24471" lon="-1.69083">
        <ele>98</ele>
        <time>2021-04-12T12:51:58.000Z</time>
      </trkpt>
      <trkpt lat="47.24472" lon="-1.69067">
        <ele>99</ele>
        <time>2021-04-12T12:52:00.000Z</time>
      </trkpt>
      <trkpt lat="47.24472" lon="-1.69052">
        <ele>99</ele>
        <time>2021-04-12T12:52:02.000Z</time>
      </trkpt>
      <trkpt lat="47.24473" lon="-1.69037">
        <ele>100</ele>
        <time>2021-04-12T12:52:04.000Z</time>
      </trkpt>
      <trkpt lat="47.24474" lon="-1.69022">
        <ele>100</ele>
        <time>2021-04-12T12:52:06.000Z</time>
      </trkpt>
      <trkpt lat="47.24475" lon="-1.69007">
        <ele>101</ele>
        <time>2021-04-12T12:52:08.000Z</time>
      </trkpt>
      <trkpt lat="47.24476" lon="-1.68992">
        <ele>101</ele>
        <time>2021-04-12T12:52:10.000Z</time>
      </trkpt>
      <trkpt lat="47.24477" lon="-1.68978">
        <ele>101</ele>
        <time>2021-04-12T12:52:12.000Z</time>
      </trkpt>
      <trkpt lat="47.24478" lon="-1.68962">
        <ele>101</ele>
        <time>2021-04-12T12:52:14.000Z</time>
      </trkpt>
      <trkpt lat="47.24479" lon="-1.68948">
        <ele>102</ele>
        <time>2021-04-12T12:52:16.000Z</time>
      </trkpt>
      <trkpt lat="47.2448" lon="-1.68933">
        <ele>102</ele>
        <time>2021-04-12T12:52:18.000Z</time>
      </trkpt>
      <trkpt lat="47.2448" lon="-1.68919">
        <ele>102</ele>
        <time>2021-04-12T12:52:20.000Z</time>
      </trkpt>
      <trkpt lat="47.24481" lon="-1.68905">
        <ele>103</ele>
        <time>2021-04-12T12:52:22.000Z</time>
      </trkpt>
      <trkpt lat="47.24482" lon="-1.6889">
        <ele>103</ele>
        <time>2021-04-12T12:52:24.000Z</time>
      </trkpt>
      <trkpt lat="47.24482" lon="-1.68875">
        <ele>103</ele>
        <time>2021-04-12T12:52:26.000Z</time>
      </trkpt>
      <trkpt lat="47.24483" lon="-1.68859">
        <ele>103</ele>
        <time>2021-04-12T12:52:28.000Z</time>
      </trkpt>
      <trkpt lat="47.24484" lon="-1.68844">
        <ele>103</ele>
        <time>2021-04-12T12:52:30.000Z</time>
      </trkpt>
      <trkpt lat="47.24484" lon="-1.6883">
        <ele>103</ele>
        <time>2021-04-12T12:52:32.000Z</time>
      </trkpt>
      <trkpt lat="47.24484" lon="-1.68816">
        <ele>103</ele>
        <time>2021-04-12T12:52:34.000Z</time>
      </trkpt>
      <trkpt lat="47.24484" lon="-1.68801">
        <ele>103</ele>
        <time>2021-04-12T12:52:36.000Z</time>
      </trkpt>
      <trkpt lat="47.24483" lon="-1.68786">
        <ele>103</ele>
        <time>2021-04-12T12:52:38.000Z</time>
      </trkpt>
      <trkpt lat="47.24482" lon="-1.68772">
        <ele>103</ele>
        <time>2021-04-12T12:52:40.000Z</time>
      </trkpt>
      <trkpt lat="47.24481" lon="-1.68758">
        <ele>104</ele>
        <time>2021-04-12T12:52:42.000Z</time>
      </trkpt>
      <trkpt lat="47.2448" lon="-1.68743">
        <ele>104</ele>
        <time>2021-04-12T12:52:44.000Z</time>
      </trkpt>
      <trkpt lat="47.24479" lon="-1.68728">
        <ele>105</ele>
        <time>2021-04-12T12:52:46.000Z</time>
      </trkpt>
      <trkpt lat="47.24478" lon="-1.68714">
        <ele>105</ele>
        <time>2021-04-12T12:52:48.000Z</time>
      </trkpt>
      <trkpt lat="47.24476" lon="-1.687">
        <ele>105</ele>
        <time>2021-04-12T12:52:50.000Z</time>
      </trkpt>
      <trkpt lat="47.24475" lon="-1.68686">
        <ele>106</ele>
        <time>2021-04-12T12:52:52.000Z</time>
      </trkpt>
      <trkpt lat="47.24473" lon="-1.68673">
        <ele>106</ele>
        <time>2021-04-12T12:52:54.000Z</time>
      </trkpt>
      <trkpt lat="47.24471" lon="-1.68659">
        <ele>107</ele>
        <time>2021-04-12T12:52:56.000Z</time>
      </trkpt>
      <trkpt lat="47.24469" lon="-1.68645">
        <ele>107</ele>
        <time>2021-04-12T12:52:58.000Z</time>
      </trkpt>
      <trkpt lat="47.24468" lon="-1.6863">
        <ele>107</ele>
        <time>2021-04-12T12:53:00.000Z</time>
      </trkpt>
      <trkpt lat="47.24468" lon="-1.68616">
        <ele>107</ele>
        <time>2021-04-12T12:53:02.000Z</time>
      </trkpt>
      <trkpt lat="47.24467" lon="-1.68601">
        <ele>108</ele>
        <time>2021-04-12T12:53:04.000Z</time>
      </trkpt>
      <trkpt lat="47.24467" lon="-1.68587">
        <ele>108</ele>
        <time>2021-04-12T12:53:06.000Z</time>
      </trkpt>
      <trkpt lat="47.24467" lon="-1.68573">
        <ele>109</ele>
        <time>2021-04-12T12:53:08.000Z</time>
      </trkpt>
      <trkpt lat="47.24466" lon="-1.68559">
        <ele>109</ele>
        <time>2021-04-12T12:53:10.000Z</time>
      </trkpt>
      <trkpt lat="47.24463" lon="-1.68545">
        <ele>109</ele>
        <time>2021-04-12T12:53:12.000Z</time>
      </trkpt>
      <trkpt lat="47.2446" lon="-1.68531">
        <ele>109</ele>
        <time>2021-04-12T12:53:14.000Z</time>
      </trkpt>
      <trkpt lat="47.2446" lon="-1.68516">
        <ele>109</ele>
        <time>2021-04-12T12:53:16.000Z</time>
      </trkpt>
      <trkpt lat="47.24459" lon="-1.685">
        <ele>109</ele>
        <time>2021-04-12T12:53:18.000Z</time>
      </trkpt>
      <trkpt lat="47.24457" lon="-1.68485">
        <ele>109</ele>
        <time>2021-04-12T12:53:20.000Z</time>
      </trkpt>
      <trkpt lat="47.24453" lon="-1.68471">
        <ele>110</ele>
        <time>2021-04-12T12:53:22.000Z</time>
      </trkpt>
      <trkpt lat="47.2445" lon="-1.68457">
        <ele>110</ele>
        <time>2021-04-12T12:53:24.000Z</time>
      </trkpt>
      <trkpt lat="47.24446" lon="-1.68443">
        <ele>110</ele>
        <time>2021-04-12T12:53:26.000Z</time>
      </trkpt>
      <trkpt lat="47.24444" lon="-1.68429">
        <ele>110</ele>
        <time>2021-04-12T12:53:28.000Z</time>
      </trkpt>
      <trkpt lat="47.24441" lon="-1.68414">
        <ele>110</ele>
        <time>2021-04-12T12:53:30.000Z</time>
      </trkpt>
      <trkpt lat="47.24439" lon="-1.68398">
        <ele>110</ele>
        <time>2021-04-12T12:53:32.000Z</time>
      </trkpt>
      <trkpt lat="47.24438" lon="-1.68382">
        <ele>110</ele>
        <time>2021-04-12T12:53:34.000Z</time>
      </trkpt>
      <trkpt lat="47.24436" lon="-1.68367">
        <ele>109</ele>
        <time>2021-04-12T12:53:36.000Z</time>
      </trkpt>
      <trkpt lat="47.24435" lon="-1.68351">
        <ele>109</ele>
        <time>2021-04-12T12:53:38.000Z</time>
      </trkpt>
      <trkpt lat="47.24433" lon="-1.68335">
        <ele>109</ele>
        <time>2021-04-12T12:53:40.000Z</time>
      </trkpt>
      <trkpt lat="47.24432" lon="-1.68319">
        <ele>108</ele>
        <time>2021-04-12T12:53:42.000Z</time>
      </trkpt>
      <trkpt lat="47.2443" lon="-1.68304">
        <ele>108</ele>
        <time>2021-04-12T12:53:44.000Z</time>
      </trkpt>
      <trkpt lat="47.24428" lon="-1.68288">
        <ele>108</ele>
        <time>2021-04-12T12:53:46.000Z</time>
      </trkpt>
      <trkpt lat="47.24426" lon="-1.68273">
        <ele>108</ele>
        <time>2021-04-12T12:53:48.000Z</time>
      </trkpt>
      <trkpt lat="47.24424" lon="-1.68256">
        <ele>108</ele>
        <time>2021-04-12T12:53:50.000Z</time>
      </trkpt>
      <trkpt lat="47.24423" lon="-1.68239">
        <ele>108</ele>
        <time>2021-04-12T12:53:52.000Z</time>
      </trkpt>
      <trkpt lat="47.2442" lon="-1.68222">
        <ele>108</ele>
        <time>2021-04-12T12:53:54.000Z</time>
      </trkpt>
      <trkpt lat="47.24418" lon="-1.68204">
        <ele>108</ele>
        <time>2021-04-12T12:53:56.000Z</time>
      </trkpt>
      <trkpt lat="47.24416" lon="-1.68187">
        <ele>108</ele>
        <time>2021-04-12T12:53:58.000Z</time>
      </trkpt>
      <trkpt lat="47.24414" lon="-1.68169">
        <ele>108</ele>
        <time>2021-04-12T12:54:00.000Z</time>
      </trkpt>
      <trkpt lat="47.24412" lon="-1.68151">
        <ele>107</ele>
        <time>2021-04-12T12:54:02.000Z</time>
      </trkpt>
      <trkpt lat="47.2441" lon="-1.68133">
        <ele>107</ele>
        <time>2021-04-12T12:54:04.000Z</time>
      </trkpt>
      <trkpt lat="47.24408" lon="-1.68115">
        <ele>107</ele>
        <time>2021-04-12T12:54:06.000Z</time>
      </trkpt>
      <trkpt lat="47.24406" lon="-1.68097">
        <ele>107</ele>
        <time>2021-04-12T12:54:08.000Z</time>
      </trkpt>
      <trkpt lat="47.24404" lon="-1.68078">
        <ele>107</ele>
        <time>2021-04-12T12:54:10.000Z</time>
      </trkpt>
      <trkpt lat="47.24402" lon="-1.68059">
        <ele>107</ele>
        <time>2021-04-12T12:54:12.000Z</time>
      </trkpt>
      <trkpt lat="47.24399" lon="-1.68041">
        <ele>106</ele>
        <time>2021-04-12T12:54:14.000Z</time>
      </trkpt>
      <trkpt lat="47.24398" lon="-1.68023">
        <ele>106</ele>
        <time>2021-04-12T12:54:16.000Z</time>
      </trkpt>
      <trkpt lat="47.24396" lon="-1.68003">
        <ele>106</ele>
        <time>2021-04-12T12:54:18.000Z</time>
      </trkpt>
      <trkpt lat="47.24393" lon="-1.67985">
        <ele>106</ele>
        <time>2021-04-12T12:54:20.000Z</time>
      </trkpt>
      <trkpt lat="47.24391" lon="-1.67966">
        <ele>106</ele>
        <time>2021-04-12T12:54:22.000Z</time>
      </trkpt>
      <trkpt lat="47.24389" lon="-1.67946">
        <ele>106</ele>
        <time>2021-04-12T12:54:24.000Z</time>
      </trkpt>
      <trkpt lat="47.24387" lon="-1.67928">
        <ele>106</ele>
        <time>2021-04-12T12:54:26.000Z</time>
      </trkpt>
      <trkpt lat="47.24385" lon="-1.67908">
        <ele>105</ele>
        <time>2021-04-12T12:54:28.000Z</time>
      </trkpt>
      <trkpt lat="47.24382" lon="-1.67888">
        <ele>106</ele>
        <time>2021-04-12T12:54:30.000Z</time>
      </trkpt>
      <trkpt lat="47.2438" lon="-1.67869">
        <ele>106</ele>
        <time>2021-04-12T12:54:32.000Z</time>
      </trkpt>
      <trkpt lat="47.24377" lon="-1.6785">
        <ele>106</ele>
        <time>2021-04-12T12:54:34.000Z</time>
      </trkpt>
      <trkpt lat="47.24374" lon="-1.6783">
        <ele>106</ele>
        <time>2021-04-12T12:54:36.000Z</time>
      </trkpt>
      <trkpt lat="47.24371" lon="-1.6781">
        <ele>106</ele>
        <time>2021-04-12T12:54:38.000Z</time>
      </trkpt>
      <trkpt lat="47.24368" lon="-1.67791">
        <ele>106</ele>
        <time>2021-04-12T12:54:40.000Z</time>
      </trkpt>
      <trkpt lat="47.24364" lon="-1.67771">
        <ele>105</ele>
        <time>2021-04-12T12:54:42.000Z</time>
      </trkpt>
      <trkpt lat="47.2436" lon="-1.6775">
        <ele>105</ele>
        <time>2021-04-12T12:54:44.000Z</time>
      </trkpt>
      <trkpt lat="47.24357" lon="-1.67731">
        <ele>105</ele>
        <time>2021-04-12T12:54:46.000Z</time>
      </trkpt>
      <trkpt lat="47.24352" lon="-1.6771">
        <ele>104</ele>
        <time>2021-04-12T12:54:48.000Z</time>
      </trkpt>
      <trkpt lat="47.24348" lon="-1.67689">
        <ele>104</ele>
        <time>2021-04-12T12:54:50.000Z</time>
      </trkpt>
      <trkpt lat="47.24344" lon="-1.67668">
        <ele>104</ele>
        <time>2021-04-12T12:54:52.000Z</time>
      </trkpt>
      <trkpt lat="47.24341" lon="-1.67648">
        <ele>103</ele>
        <time>2021-04-12T12:54:54.000Z</time>
      </trkpt>
      <trkpt lat="47.24336" lon="-1.67626">
        <ele>103</ele>
        <time>2021-04-12T12:54:56.000Z</time>
      </trkpt>
      <trkpt lat="47.24332" lon="-1.67606">
        <ele>103</ele>
        <time>2021-04-12T12:54:58.000Z</time>
      </trkpt>
      <trkpt lat="47.24326" lon="-1.67586">
        <ele>103</ele>
        <time>2021-04-12T12:55:00.000Z</time>
      </trkpt>
      <trkpt lat="47.24319" lon="-1.67566">
        <ele>102</ele>
        <time>2021-04-12T12:55:02.000Z</time>
      </trkpt>
      <trkpt lat="47.24318" lon="-1.67544">
        <ele>102</ele>
        <time>2021-04-12T12:55:04.000Z</time>
      </trkpt>
      <trkpt lat="47.24316" lon="-1.6752">
        <ele>101</ele>
        <time>2021-04-12T12:55:06.000Z</time>
      </trkpt>
      <trkpt lat="47.24311" lon="-1.67498">
        <ele>101</ele>
        <time>2021-04-12T12:55:08.000Z</time>
      </trkpt>
      <trkpt lat="47.24306" lon="-1.67477">
        <ele>100</ele>
        <time>2021-04-12T12:55:10.000Z</time>
      </trkpt>
      <trkpt lat="47.24302" lon="-1.67455">
        <ele>100</ele>
        <time>2021-04-12T12:55:12.000Z</time>
      </trkpt>
      <trkpt lat="47.24298" lon="-1.67434">
        <ele>100</ele>
        <time>2021-04-12T12:55:14.000Z</time>
      </trkpt>
      <trkpt lat="47.24293" lon="-1.67412">
        <ele>100</ele>
        <time>2021-04-12T12:55:16.000Z</time>
      </trkpt>
      <trkpt lat="47.24289" lon="-1.6739">
        <ele>99</ele>
        <time>2021-04-12T12:55:18.000Z</time>
      </trkpt>
      <trkpt lat="47.24284" lon="-1.67369">
        <ele>98</ele>
        <time>2021-04-12T12:55:20.000Z</time>
      </trkpt>
      <trkpt lat="47.2428" lon="-1.67347">
        <ele>98</ele>
        <time>2021-04-12T12:55:22.000Z</time>
      </trkpt>
      <trkpt lat="47.24275" lon="-1.67325">
        <ele>98</ele>
        <time>2021-04-12T12:55:24.000Z</time>
      </trkpt>
      <trkpt lat="47.24271" lon="-1.67303">
        <ele>98</ele>
        <time>2021-04-12T12:55:26.000Z</time>
      </trkpt>
      <trkpt lat="47.24267" lon="-1.67281">
        <ele>98</ele>
        <time>2021-04-12T12:55:28.000Z</time>
      </trkpt>
      <trkpt lat="47.24262" lon="-1.67259">
        <ele>98</ele>
        <time>2021-04-12T12:55:30.000Z</time>
      </trkpt>
      <trkpt lat="47.24258" lon="-1.67238">
        <ele>98</ele>
        <time>2021-04-12T12:55:32.000Z</time>
      </trkpt>
      <trkpt lat="47.24255" lon="-1.67222">
        <ele>99</ele>
        <time>2021-04-12T12:55:34.000Z</time>
      </trkpt>
      <trkpt lat="47.24248" lon="-1.67207">
        <ele>98</ele>
        <time>2021-04-12T12:55:37.000Z</time>
      </trkpt>
      <trkpt lat="47.24244" lon="-1.67192">
        <ele>98</ele>
        <time>2021-04-12T12:55:39.000Z</time>
      </trkpt>
      <trkpt lat="47.24245" lon="-1.67173">
        <ele>98</ele>
        <time>2021-04-12T12:55:41.000Z</time>
      </trkpt>
      <trkpt lat="47.24243" lon="-1.67152">
        <ele>98</ele>
        <time>2021-04-12T12:55:43.000Z</time>
      </trkpt>
      <trkpt lat="47.24242" lon="-1.67118">
        <ele>98</ele>
        <time>2021-04-12T12:55:46.000Z</time>
      </trkpt>
      <trkpt lat="47.24242" lon="-1.67097">
        <ele>99</ele>
        <time>2021-04-12T12:55:48.000Z</time>
      </trkpt>
      <trkpt lat="47.24242" lon="-1.67076">
        <ele>99</ele>
        <time>2021-04-12T12:55:50.000Z</time>
      </trkpt>
      <trkpt lat="47.24243" lon="-1.67058">
        <ele>100</ele>
        <time>2021-04-12T12:55:52.000Z</time>
      </trkpt>
      <trkpt lat="47.24244" lon="-1.67039">
        <ele>100</ele>
        <time>2021-04-12T12:55:54.000Z</time>
      </trkpt>
      <trkpt lat="47.24247" lon="-1.6702">
        <ele>100</ele>
        <time>2021-04-12T12:55:56.000Z</time>
      </trkpt>
      <trkpt lat="47.2425" lon="-1.67002">
        <ele>100</ele>
        <time>2021-04-12T12:55:58.000Z</time>
      </trkpt>
      <trkpt lat="47.24253" lon="-1.66983">
        <ele>100</ele>
        <time>2021-04-12T12:56:00.000Z</time>
      </trkpt>
      <trkpt lat="47.24259" lon="-1.66956">
        <ele>101</ele>
        <time>2021-04-12T12:56:03.000Z</time>
      </trkpt>
      <trkpt lat="47.24262" lon="-1.66937">
        <ele>100</ele>
        <time>2021-04-12T12:56:05.000Z</time>
      </trkpt>
      <trkpt lat="47.24266" lon="-1.66919">
        <ele>100</ele>
        <time>2021-04-12T12:56:07.000Z</time>
      </trkpt>
      <trkpt lat="47.24271" lon="-1.66892">
        <ele>100</ele>
        <time>2021-04-12T12:56:10.000Z</time>
      </trkpt>
      <trkpt lat="47.24277" lon="-1.66865">
        <ele>99</ele>
        <time>2021-04-12T12:56:13.000Z</time>
      </trkpt>
      <trkpt lat="47.24283" lon="-1.6685">
        <ele>99</ele>
        <time>2021-04-12T12:56:15.000Z</time>
      </trkpt>
      <trkpt lat="47.24284" lon="-1.66832">
        <ele>99</ele>
        <time>2021-04-12T12:56:17.000Z</time>
      </trkpt>
      <trkpt lat="47.24283" lon="-1.66812">
        <ele>99</ele>
        <time>2021-04-12T12:56:19.000Z</time>
      </trkpt>
      <trkpt lat="47.24279" lon="-1.66795">
        <ele>99</ele>
        <time>2021-04-12T12:56:21.000Z</time>
      </trkpt>
      <trkpt lat="47.24273" lon="-1.66778">
        <ele>99</ele>
        <time>2021-04-12T12:56:23.000Z</time>
      </trkpt>
      <trkpt lat="47.24267" lon="-1.66762">
        <ele>100</ele>
        <time>2021-04-12T12:56:25.000Z</time>
      </trkpt>
      <trkpt lat="47.24258" lon="-1.66748">
        <ele>100</ele>
        <time>2021-04-12T12:56:27.000Z</time>
      </trkpt>
      <trkpt lat="47.24249" lon="-1.66736">
        <ele>100</ele>
        <time>2021-04-12T12:56:29.000Z</time>
      </trkpt>
      <trkpt lat="47.24239" lon="-1.66724">
        <ele>101</ele>
        <time>2021-04-12T12:56:31.000Z</time>
      </trkpt>
      <trkpt lat="47.24229" lon="-1.66713">
        <ele>101</ele>
        <time>2021-04-12T12:56:33.000Z</time>
      </trkpt>
      <trkpt lat="47.2422" lon="-1.66701">
        <ele>101</ele>
        <time>2021-04-12T12:56:35.000Z</time>
      </trkpt>
      <trkpt lat="47.2421" lon="-1.6669">
        <ele>101</ele>
        <time>2021-04-12T12:56:37.000Z</time>
      </trkpt>
      <trkpt lat="47.24196" lon="-1.66671">
        <ele>101</ele>
        <time>2021-04-12T12:56:40.000Z</time>
      </trkpt>
      <trkpt lat="47.24186" lon="-1.66659">
        <ele>100</ele>
        <time>2021-04-12T12:56:42.000Z</time>
      </trkpt>
      <trkpt lat="47.24177" lon="-1.66646">
        <ele>100</ele>
        <time>2021-04-12T12:56:44.000Z</time>
      </trkpt>
      <trkpt lat="47.24169" lon="-1.66632">
        <ele>100</ele>
        <time>2021-04-12T12:56:46.000Z</time>
      </trkpt>
      <trkpt lat="47.24161" lon="-1.66618">
        <ele>100</ele>
        <time>2021-04-12T12:56:48.000Z</time>
      </trkpt>
      <trkpt lat="47.24156" lon="-1.66601">
        <ele>100</ele>
        <time>2021-04-12T12:56:50.000Z</time>
      </trkpt>
      <trkpt lat="47.24151" lon="-1.66583">
        <ele>100</ele>
        <time>2021-04-12T12:56:52.000Z</time>
      </trkpt>
      <trkpt lat="47.24145" lon="-1.66556">
        <ele>100</ele>
        <time>2021-04-12T12:56:55.000Z</time>
      </trkpt>
      <trkpt lat="47.24142" lon="-1.66537">
        <ele>100</ele>
        <time>2021-04-12T12:56:57.000Z</time>
      </trkpt>
      <trkpt lat="47.24139" lon="-1.66519">
        <ele>101</ele>
        <time>2021-04-12T12:56:59.000Z</time>
      </trkpt>
      <trkpt lat="47.24135" lon="-1.66499">
        <ele>100</ele>
        <time>2021-04-12T12:57:01.000Z</time>
      </trkpt>
      <trkpt lat="47.24131" lon="-1.6648">
        <ele>100</ele>
        <time>2021-04-12T12:57:03.000Z</time>
      </trkpt>
      <trkpt lat="47.24128" lon="-1.66461">
        <ele>100</ele>
        <time>2021-04-12T12:57:05.000Z</time>
      </trkpt>
      <trkpt lat="47.24124" lon="-1.66442">
        <ele>100</ele>
        <time>2021-04-12T12:57:07.000Z</time>
      </trkpt>
      <trkpt lat="47.2412" lon="-1.66424">
        <ele>100</ele>
        <time>2021-04-12T12:57:09.000Z</time>
      </trkpt>
      <trkpt lat="47.24113" lon="-1.66396">
        <ele>99</ele>
        <time>2021-04-12T12:57:12.000Z</time>
      </trkpt>
      <trkpt lat="47.24109" lon="-1.66378">
        <ele>99</ele>
        <time>2021-04-12T12:57:14.000Z</time>
      </trkpt>
      <trkpt lat="47.24103" lon="-1.6636">
        <ele>99</ele>
        <time>2021-04-12T12:57:16.000Z</time>
      </trkpt>
      <trkpt lat="47.24099" lon="-1.66341">
        <ele>99</ele>
        <time>2021-04-12T12:57:18.000Z</time>
      </trkpt>
      <trkpt lat="47.24093" lon="-1.66323">
        <ele>98</ele>
        <time>2021-04-12T12:57:20.000Z</time>
      </trkpt>
      <trkpt lat="47.24089" lon="-1.66305">
        <ele>97</ele>
        <time>2021-04-12T12:57:22.000Z</time>
      </trkpt>
      <trkpt lat="47.24084" lon="-1.66288">
        <ele>97</ele>
        <time>2021-04-12T12:57:24.000Z</time>
      </trkpt>
      <trkpt lat="47.24079" lon="-1.66269">
        <ele>96</ele>
        <time>2021-04-12T12:57:26.000Z</time>
      </trkpt>
      <trkpt lat="47.24074" lon="-1.66251">
        <ele>96</ele>
        <time>2021-04-12T12:57:28.000Z</time>
      </trkpt>
      <trkpt lat="47.24069" lon="-1.66233">
        <ele>96</ele>
        <time>2021-04-12T12:57:30.000Z</time>
      </trkpt>
      <trkpt lat="47.24064" lon="-1.66214">
        <ele>96</ele>
        <time>2021-04-12T12:57:32.000Z</time>
      </trkpt>
      <trkpt lat="47.24058" lon="-1.66195">
        <ele>96</ele>
        <time>2021-04-12T12:57:34.000Z</time>
      </trkpt>
      <trkpt lat="47.24053" lon="-1.66177">
        <ele>96</ele>
        <time>2021-04-12T12:57:36.000Z</time>
      </trkpt>
      <trkpt lat="47.24047" lon="-1.66159">
        <ele>96</ele>
        <time>2021-04-12T12:57:38.000Z</time>
      </trkpt>
      <trkpt lat="47.24042" lon="-1.6614">
        <ele>96</ele>
        <time>2021-04-12T12:57:40.000Z</time>
      </trkpt>
      <trkpt lat="47.24038" lon="-1.66122">
        <ele>96</ele>
        <time>2021-04-12T12:57:42.000Z</time>
      </trkpt>
      <trkpt lat="47.24033" lon="-1.66103">
        <ele>96</ele>
        <time>2021-04-12T12:57:44.000Z</time>
      </trkpt>
      <trkpt lat="47.24028" lon="-1.66086">
        <ele>96</ele>
        <time>2021-04-12T12:57:46.000Z</time>
      </trkpt>
      <trkpt lat="47.24024" lon="-1.66069">
        <ele>96</ele>
        <time>2021-04-12T12:57:48.000Z</time>
      </trkpt>
      <trkpt lat="47.2402" lon="-1.66052">
        <ele>96</ele>
        <time>2021-04-12T12:57:50.000Z</time>
      </trkpt>
      <trkpt lat="47.24015" lon="-1.66036">
        <ele>96</ele>
        <time>2021-04-12T12:57:52.000Z</time>
      </trkpt>
      <trkpt lat="47.24011" lon="-1.6602">
        <ele>96</ele>
        <time>2021-04-12T12:57:54.000Z</time>
      </trkpt>
      <trkpt lat="47.24007" lon="-1.66005">
        <ele>97</ele>
        <time>2021-04-12T12:57:56.000Z</time>
      </trkpt>
      <trkpt lat="47.24002" lon="-1.6599">
        <ele>97</ele>
        <time>2021-04-12T12:57:58.000Z</time>
      </trkpt>
      <trkpt lat="47.23997" lon="-1.65975">
        <ele>98</ele>
        <time>2021-04-12T12:58:00.000Z</time>
      </trkpt>
      <trkpt lat="47.23992" lon="-1.65962">
        <ele>98</ele>
        <time>2021-04-12T12:58:02.000Z</time>
      </trkpt>
      <trkpt lat="47.23987" lon="-1.65947">
        <ele>98</ele>
        <time>2021-04-12T12:58:04.000Z</time>
      </trkpt>
      <trkpt lat="47.23982" lon="-1.65932">
        <ele>98</ele>
        <time>2021-04-12T12:58:06.000Z</time>
      </trkpt>
      <trkpt lat="47.23976" lon="-1.65917">
        <ele>98</ele>
        <time>2021-04-12T12:58:08.000Z</time>
      </trkpt>
      <trkpt lat="47.23971" lon="-1.65903">
        <ele>98</ele>
        <time>2021-04-12T12:58:10.000Z</time>
      </trkpt>
      <trkpt lat="47.23965" lon="-1.6589">
        <ele>99</ele>
        <time>2021-04-12T12:58:12.000Z</time>
      </trkpt>
      <trkpt lat="47.23959" lon="-1.65876">
        <ele>99</ele>
        <time>2021-04-12T12:58:14.000Z</time>
      </trkpt>
      <trkpt lat="47.23952" lon="-1.65863">
        <ele>100</ele>
        <time>2021-04-12T12:58:16.000Z</time>
      </trkpt>
      <trkpt lat="47.23944" lon="-1.6585">
        <ele>100</ele>
        <time>2021-04-12T12:58:18.000Z</time>
      </trkpt>
      <trkpt lat="47.23936" lon="-1.65838">
        <ele>100</ele>
        <time>2021-04-12T12:58:20.000Z</time>
      </trkpt>
      <trkpt lat="47.23929" lon="-1.65825">
        <ele>100</ele>
        <time>2021-04-12T12:58:22.000Z</time>
      </trkpt>
      <trkpt lat="47.23921" lon="-1.65814">
        <ele>100</ele>
        <time>2021-04-12T12:58:24.000Z</time>
      </trkpt>
      <trkpt lat="47.23912" lon="-1.65803">
        <ele>100</ele>
        <time>2021-04-12T12:58:26.000Z</time>
      </trkpt>
      <trkpt lat="47.23903" lon="-1.65792">
        <ele>100</ele>
        <time>2021-04-12T12:58:28.000Z</time>
      </trkpt>
      <trkpt lat="47.23894" lon="-1.65782">
        <ele>100</ele>
        <time>2021-04-12T12:58:30.000Z</time>
      </trkpt>
      <trkpt lat="47.23883" lon="-1.65776">
        <ele>101</ele>
        <time>2021-04-12T12:58:32.000Z</time>
      </trkpt>
      <trkpt lat="47.23872" lon="-1.65771">
        <ele>101</ele>
        <time>2021-04-12T12:58:34.000Z</time>
      </trkpt>
      <trkpt lat="47.23864" lon="-1.65758">
        <ele>100</ele>
        <time>2021-04-12T12:58:36.000Z</time>
      </trkpt>
      <trkpt lat="47.23862" lon="-1.65741">
        <ele>100</ele>
        <time>2021-04-12T12:58:38.000Z</time>
      </trkpt>
      <trkpt lat="47.23856" lon="-1.65726">
        <ele>100</ele>
        <time>2021-04-12T12:58:40.000Z</time>
      </trkpt>
      <trkpt lat="47.23848" lon="-1.65713">
        <ele>100</ele>
        <time>2021-04-12T12:58:42.000Z</time>
      </trkpt>
      <trkpt lat="47.23839" lon="-1.657">
        <ele>101</ele>
        <time>2021-04-12T12:58:44.000Z</time>
      </trkpt>
      <trkpt lat="47.2383" lon="-1.65688">
        <ele>101</ele>
        <time>2021-04-12T12:58:46.000Z</time>
      </trkpt>
      <trkpt lat="47.23822" lon="-1.65675">
        <ele>101</ele>
        <time>2021-04-12T12:58:48.000Z</time>
      </trkpt>
      <trkpt lat="47.23812" lon="-1.65664">
        <ele>100</ele>
        <time>2021-04-12T12:58:50.000Z</time>
      </trkpt>
      <trkpt lat="47.23804" lon="-1.65651">
        <ele>101</ele>
        <time>2021-04-12T12:58:52.000Z</time>
      </trkpt>
      <trkpt lat="47.23794" lon="-1.6564">
        <ele>101</ele>
        <time>2021-04-12T12:58:54.000Z</time>
      </trkpt>
      <trkpt lat="47.23785" lon="-1.65629">
        <ele>100</ele>
        <time>2021-04-12T12:58:56.000Z</time>
      </trkpt>
      <trkpt lat="47.23776" lon="-1.65618">
        <ele>100</ele>
        <time>2021-04-12T12:58:58.000Z</time>
      </trkpt>
      <trkpt lat="47.23766" lon="-1.65606">
        <ele>100</ele>
        <time>2021-04-12T12:59:00.000Z</time>
      </trkpt>
      <trkpt lat="47.23756" lon="-1.65596">
        <ele>99</ele>
        <time>2021-04-12T12:59:02.000Z</time>
      </trkpt>
      <trkpt lat="47.23747" lon="-1.65585">
        <ele>99</ele>
        <time>2021-04-12T12:59:04.000Z</time>
      </trkpt>
      <trkpt lat="47.23736" lon="-1.65579">
        <ele>99</ele>
        <time>2021-04-12T12:59:06.000Z</time>
      </trkpt>
      <trkpt lat="47.23724" lon="-1.65572">
        <ele>99</ele>
        <time>2021-04-12T12:59:08.000Z</time>
      </trkpt>
      <trkpt lat="47.23716" lon="-1.65557">
        <ele>98</ele>
        <time>2021-04-12T12:59:10.000Z</time>
      </trkpt>
      <trkpt lat="47.2371" lon="-1.65541">
        <ele>98</ele>
        <time>2021-04-12T12:59:12.000Z</time>
      </trkpt>
      <trkpt lat="47.237" lon="-1.65529">
        <ele>98</ele>
        <time>2021-04-12T12:59:14.000Z</time>
      </trkpt>
      <trkpt lat="47.2369" lon="-1.65518">
        <ele>98</ele>
        <time>2021-04-12T12:59:16.000Z</time>
      </trkpt>
      <trkpt lat="47.2368" lon="-1.65507">
        <ele>98</ele>
        <time>2021-04-12T12:59:18.000Z</time>
      </trkpt>
      <trkpt lat="47.2367" lon="-1.65495">
        <ele>98</ele>
        <time>2021-04-12T12:59:20.000Z</time>
      </trkpt>
      <trkpt lat="47.2366" lon="-1.65482">
        <ele>98</ele>
        <time>2021-04-12T12:59:22.000Z</time>
      </trkpt>
      <trkpt lat="47.23651" lon="-1.6547">
        <ele>97</ele>
        <time>2021-04-12T12:59:24.000Z</time>
      </trkpt>
      <trkpt lat="47.23643" lon="-1.65457">
        <ele>97</ele>
        <time>2021-04-12T12:59:26.000Z</time>
      </trkpt>
      <trkpt lat="47.23635" lon="-1.65443">
        <ele>97</ele>
        <time>2021-04-12T12:59:28.000Z</time>
      </trkpt>
      <trkpt lat="47.23626" lon="-1.6543">
        <ele>97</ele>
        <time>2021-04-12T12:59:30.000Z</time>
      </trkpt>
      <trkpt lat="47.23618" lon="-1.65417">
        <ele>97</ele>
        <time>2021-04-12T12:59:32.000Z</time>
      </trkpt>
      <trkpt lat="47.2361" lon="-1.65403">
        <ele>97</ele>
        <time>2021-04-12T12:59:34.000Z</time>
      </trkpt>
      <trkpt lat="47.23603" lon="-1.6539">
        <ele>98</ele>
        <time>2021-04-12T12:59:36.000Z</time>
      </trkpt>
      <trkpt lat="47.23595" lon="-1.65376">
        <ele>98</ele>
        <time>2021-04-12T12:59:38.000Z</time>
      </trkpt>
      <trkpt lat="47.23587" lon="-1.65362">
        <ele>98</ele>
        <time>2021-04-12T12:59:40.000Z</time>
      </trkpt>
      <trkpt lat="47.23579" lon="-1.65347">
        <ele>98</ele>
        <time>2021-04-12T12:59:42.000Z</time>
      </trkpt>
      <trkpt lat="47.23572" lon="-1.65332">
        <ele>99</ele>
        <time>2021-04-12T12:59:44.000Z</time>
      </trkpt>
      <trkpt lat="47.23564" lon="-1.65318">
        <ele>99</ele>
        <time>2021-04-12T12:59:46.000Z</time>
      </trkpt>
      <trkpt lat="47.23557" lon="-1.65303">
        <ele>99</ele>
        <time>2021-04-12T12:59:48.000Z</time>
      </trkpt>
      <trkpt lat="47.23549" lon="-1.65288">
        <ele>99</ele>
        <time>2021-04-12T12:59:50.000Z</time>
      </trkpt>
      <trkpt lat="47.23542" lon="-1.65273">
        <ele>99</ele>
        <time>2021-04-12T12:59:52.000Z</time>
      </trkpt>
      <trkpt lat="47.23535" lon="-1.65259">
        <ele>98</ele>
        <time>2021-04-12T12:59:54.000Z</time>
      </trkpt>
      <trkpt lat="47.23529" lon="-1.65243">
        <ele>98</ele>
        <time>2021-04-12T12:59:56.000Z</time>
      </trkpt>
      <trkpt lat="47.23523" lon="-1.65227">
        <ele>98</ele>
        <time>2021-04-12T12:59:58.000Z</time>
      </trkpt>
      <trkpt lat="47.23518" lon="-1.65211">
        <ele>98</ele>
        <time>2021-04-12T13:00:00.000Z</time>
      </trkpt>
      <trkpt lat="47.23513" lon="-1.65194">
        <ele>98</ele>
        <time>2021-04-12T13:00:02.000Z</time>
      </trkpt>
      <trkpt lat="47.23508" lon="-1.65178">
        <ele>98</ele>
        <time>2021-04-12T13:00:04.000Z</time>
      </trkpt>
      <trkpt lat="47.23503" lon="-1.65162">
        <ele>98</ele>
        <time>2021-04-12T13:00:06.000Z</time>
      </trkpt>
      <trkpt lat="47.23498" lon="-1.65146">
        <ele>98</ele>
        <time>2021-04-12T13:00:08.000Z</time>
      </trkpt>
      <trkpt lat="47.23493" lon="-1.6513">
        <ele>98</ele>
        <time>2021-04-12T13:00:10.000Z</time>
      </trkpt>
      <trkpt lat="47.23489" lon="-1.65114">
        <ele>98</ele>
        <time>2021-04-12T13:00:12.000Z</time>
      </trkpt>
      <trkpt lat="47.23484" lon="-1.65098">
        <ele>98</ele>
        <time>2021-04-12T13:00:14.000Z</time>
      </trkpt>
      <trkpt lat="47.23479" lon="-1.65082">
        <ele>98</ele>
        <time>2021-04-12T13:00:16.000Z</time>
      </trkpt>
      <trkpt lat="47.23474" lon="-1.65067">
        <ele>98</ele>
        <time>2021-04-12T13:00:18.000Z</time>
      </trkpt>
      <trkpt lat="47.2347" lon="-1.65052">
        <ele>99</ele>
        <time>2021-04-12T13:00:20.000Z</time>
      </trkpt>
      <trkpt lat="47.23465" lon="-1.65037">
        <ele>98</ele>
        <time>2021-04-12T13:00:22.000Z</time>
      </trkpt>
      <trkpt lat="47.2346" lon="-1.65022">
        <ele>98</ele>
        <time>2021-04-12T13:00:24.000Z</time>
      </trkpt>
      <trkpt lat="47.23455" lon="-1.65007">
        <ele>99</ele>
        <time>2021-04-12T13:00:26.000Z</time>
      </trkpt>
      <trkpt lat="47.23451" lon="-1.64991">
        <ele>99</ele>
        <time>2021-04-12T13:00:28.000Z</time>
      </trkpt>
      <trkpt lat="47.23446" lon="-1.64975">
        <ele>98</ele>
        <time>2021-04-12T13:00:30.000Z</time>
      </trkpt>
      <trkpt lat="47.2344" lon="-1.64959">
        <ele>98</ele>
        <time>2021-04-12T13:00:32.000Z</time>
      </trkpt>
      <trkpt lat="47.23435" lon="-1.64943">
        <ele>98</ele>
        <time>2021-04-12T13:00:34.000Z</time>
      </trkpt>
      <trkpt lat="47.23429" lon="-1.64928">
        <ele>98</ele>
        <time>2021-04-12T13:00:36.000Z</time>
      </trkpt>
      <trkpt lat="47.23423" lon="-1.64913">
        <ele>98</ele>
        <time>2021-04-12T13:00:38.000Z</time>
      </trkpt>
      <trkpt lat="47.23417" lon="-1.64897">
        <ele>99</ele>
        <time>2021-04-12T13:00:40.000Z</time>
      </trkpt>
      <trkpt lat="47.23411" lon="-1.64882">
        <ele>98</ele>
        <time>2021-04-12T13:00:42.000Z</time>
      </trkpt>
      <trkpt lat="47.23405" lon="-1.64868">
        <ele>98</ele>
        <time>2021-04-12T13:00:44.000Z</time>
      </trkpt>
      <trkpt lat="47.23399" lon="-1.64853">
        <ele>99</ele>
        <time>2021-04-12T13:00:46.000Z</time>
      </trkpt>
      <trkpt lat="47.23392" lon="-1.64839">
        <ele>99</ele>
        <time>2021-04-12T13:00:48.000Z</time>
      </trkpt>
      <trkpt lat="47.23386" lon="-1.64826">
        <ele>99</ele>
        <time>2021-04-12T13:00:50.000Z</time>
      </trkpt>
      <trkpt lat="47.23379" lon="-1.64814">
        <ele>100</ele>
        <time>2021-04-12T13:00:52.000Z</time>
      </trkpt>
      <trkpt lat="47.23372" lon="-1.64803">
        <ele>100</ele>
        <time>2021-04-12T13:00:54.000Z</time>
      </trkpt>
      <trkpt lat="47.23366" lon="-1.64792">
        <ele>100</ele>
        <time>2021-04-12T13:00:56.000Z</time>
      </trkpt>
      <trkpt lat="47.23361" lon="-1.64779">
        <ele>101</ele>
        <time>2021-04-12T13:00:58.000Z</time>
      </trkpt>
      <trkpt lat="47.23358" lon="-1.64766">
        <ele>101</ele>
        <time>2021-04-12T13:01:00.000Z</time>
      </trkpt>
      <trkpt lat="47.23353" lon="-1.64748">
        <ele>101</ele>
        <time>2021-04-12T13:01:03.000Z</time>
      </trkpt>
      <trkpt lat="47.23346" lon="-1.64739">
        <ele>102</ele>
        <time>2021-04-12T13:01:08.000Z</time>
      </trkpt>
      <trkpt lat="47.23335" lon="-1.64738">
        <ele>102</ele>
        <time>2021-04-12T13:01:14.000Z</time>
      </trkpt>
      <trkpt lat="47.23326" lon="-1.64727">
        <ele>102</ele>
        <time>2021-04-12T13:01:16.000Z</time>
      </trkpt>
      <trkpt lat="47.23323" lon="-1.6471">
        <ele>103</ele>
        <time>2021-04-12T13:01:18.000Z</time>
      </trkpt>
      <trkpt lat="47.23326" lon="-1.64694">
        <ele>102</ele>
        <time>2021-04-12T13:01:20.000Z</time>
      </trkpt>
      <trkpt lat="47.23322" lon="-1.64677">
        <ele>102</ele>
        <time>2021-04-12T13:01:22.000Z</time>
      </trkpt>
      <trkpt lat="47.23313" lon="-1.64663">
        <ele>102</ele>
        <time>2021-04-12T13:01:24.000Z</time>
      </trkpt>
      <trkpt lat="47.23303" lon="-1.64651">
        <ele>102</ele>
        <time>2021-04-12T13:01:26.000Z</time>
      </trkpt>
      <trkpt lat="47.23292" lon="-1.64638">
        <ele>101</ele>
        <time>2021-04-12T13:01:28.000Z</time>
      </trkpt>
      <trkpt lat="47.23281" lon="-1.64623">
        <ele>100</ele>
        <time>2021-04-12T13:01:30.000Z</time>
      </trkpt>
      <trkpt lat="47.23271" lon="-1.64608">
        <ele>99</ele>
        <time>2021-04-12T13:01:32.000Z</time>
      </trkpt>
      <trkpt lat="47.23262" lon="-1.64589">
        <ele>98</ele>
        <time>2021-04-12T13:01:34.000Z</time>
      </trkpt>
      <trkpt lat="47.23252" lon="-1.64571">
        <ele>97</ele>
        <time>2021-04-12T13:01:36.000Z</time>
      </trkpt>
      <trkpt lat="47.23242" lon="-1.64552">
        <ele>96</ele>
        <time>2021-04-12T13:01:38.000Z</time>
      </trkpt>
      <trkpt lat="47.23233" lon="-1.64533">
        <ele>96</ele>
        <time>2021-04-12T13:01:40.000Z</time>
      </trkpt>
      <trkpt lat="47.23225" lon="-1.64515">
        <ele>96</ele>
        <time>2021-04-12T13:01:42.000Z</time>
      </trkpt>
      <trkpt lat="47.23216" lon="-1.64498">
        <ele>96</ele>
        <time>2021-04-12T13:01:44.000Z</time>
      </trkpt>
      <trkpt lat="47.23208" lon="-1.64481">
        <ele>95</ele>
        <time>2021-04-12T13:01:46.000Z</time>
      </trkpt>
      <trkpt lat="47.232" lon="-1.64465">
        <ele>95</ele>
        <time>2021-04-12T13:01:48.000Z</time>
      </trkpt>
      <trkpt lat="47.23192" lon="-1.64449">
        <ele>95</ele>
        <time>2021-04-12T13:01:50.000Z</time>
      </trkpt>
      <trkpt lat="47.23185" lon="-1.64433">
        <ele>95</ele>
        <time>2021-04-12T13:01:52.000Z</time>
      </trkpt>
      <trkpt lat="47.23177" lon="-1.64417">
        <ele>95</ele>
        <time>2021-04-12T13:01:54.000Z</time>
      </trkpt>
      <trkpt lat="47.23169" lon="-1.64402">
        <ele>95</ele>
        <time>2021-04-12T13:01:56.000Z</time>
      </trkpt>
      <trkpt lat="47.23162" lon="-1.64386">
        <ele>95</ele>
        <time>2021-04-12T13:01:58.000Z</time>
      </trkpt>
      <trkpt lat="47.23153" lon="-1.6437">
        <ele>95</ele>
        <time>2021-04-12T13:02:00.000Z</time>
      </trkpt>
      <trkpt lat="47.23146" lon="-1.64355">
        <ele>95</ele>
        <time>2021-04-12T13:02:02.000Z</time>
      </trkpt>
      <trkpt lat="47.23139" lon="-1.64338">
        <ele>95</ele>
        <time>2021-04-12T13:02:04.000Z</time>
      </trkpt>
      <trkpt lat="47.23132" lon="-1.64323">
        <ele>94</ele>
        <time>2021-04-12T13:02:06.000Z</time>
      </trkpt>
      <trkpt lat="47.23125" lon="-1.64307">
        <ele>94</ele>
        <time>2021-04-12T13:02:08.000Z</time>
      </trkpt>
      <trkpt lat="47.23118" lon="-1.6429">
        <ele>94</ele>
        <time>2021-04-12T13:02:10.000Z</time>
      </trkpt>
      <trkpt lat="47.23112" lon="-1.64274">
        <ele>94</ele>
        <time>2021-04-12T13:02:12.000Z</time>
      </trkpt>
      <trkpt lat="47.23105" lon="-1.64258">
        <ele>94</ele>
        <time>2021-04-12T13:02:14.000Z</time>
      </trkpt>
      <trkpt lat="47.23098" lon="-1.64241">
        <ele>95</ele>
        <time>2021-04-12T13:02:16.000Z</time>
      </trkpt>
      <trkpt lat="47.23092" lon="-1.64224">
        <ele>95</ele>
        <time>2021-04-12T13:02:18.000Z</time>
      </trkpt>
      <trkpt lat="47.23085" lon="-1.64208">
        <ele>95</ele>
        <time>2021-04-12T13:02:20.000Z</time>
      </trkpt>
      <trkpt lat="47.23078" lon="-1.64191">
        <ele>95</ele>
        <time>2021-04-12T13:02:22.000Z</time>
      </trkpt>
      <trkpt lat="47.23071" lon="-1.64175">
        <ele>94</ele>
        <time>2021-04-12T13:02:24.000Z</time>
      </trkpt>
      <trkpt lat="47.23065" lon="-1.64158">
        <ele>95</ele>
        <time>2021-04-12T13:02:26.000Z</time>
      </trkpt>
      <trkpt lat="47.23058" lon="-1.64141">
        <ele>95</ele>
        <time>2021-04-12T13:02:28.000Z</time>
      </trkpt>
      <trkpt lat="47.23052" lon="-1.64125">
        <ele>96</ele>
        <time>2021-04-12T13:02:30.000Z</time>
      </trkpt>
      <trkpt lat="47.23046" lon="-1.64111">
        <ele>96</ele>
        <time>2021-04-12T13:02:32.000Z</time>
      </trkpt>
      <trkpt lat="47.23039" lon="-1.64096">
        <ele>96</ele>
        <time>2021-04-12T13:02:34.000Z</time>
      </trkpt>
      <trkpt lat="47.23033" lon="-1.6408">
        <ele>96</ele>
        <time>2021-04-12T13:02:36.000Z</time>
      </trkpt>
      <trkpt lat="47.23026" lon="-1.64064">
        <ele>96</ele>
        <time>2021-04-12T13:02:38.000Z</time>
      </trkpt>
      <trkpt lat="47.2302" lon="-1.6405">
        <ele>96</ele>
        <time>2021-04-12T13:02:40.000Z</time>
      </trkpt>
      <trkpt lat="47.23014" lon="-1.64034">
        <ele>96</ele>
        <time>2021-04-12T13:02:42.000Z</time>
      </trkpt>
      <trkpt lat="47.23008" lon="-1.64018">
        <ele>96</ele>
        <time>2021-04-12T13:02:44.000Z</time>
      </trkpt>
      <trkpt lat="47.23001" lon="-1.64002">
        <ele>96</ele>
        <time>2021-04-12T13:02:46.000Z</time>
      </trkpt>
      <trkpt lat="47.22995" lon="-1.63986">
        <ele>96</ele>
        <time>2021-04-12T13:02:48.000Z</time>
      </trkpt>
      <trkpt lat="47.22988" lon="-1.63971">
        <ele>96</ele>
        <time>2021-04-12T13:02:50.000Z</time>
      </trkpt>
      <trkpt lat="47.22982" lon="-1.63954">
        <ele>96</ele>
        <time>2021-04-12T13:02:52.000Z</time>
      </trkpt>
      <trkpt lat="47.22976" lon="-1.63938">
        <ele>96</ele>
        <time>2021-04-12T13:02:54.000Z</time>
      </trkpt>
      <trkpt lat="47.22969" lon="-1.63922">
        <ele>96</ele>
        <time>2021-04-12T13:02:56.000Z</time>
      </trkpt>
      <trkpt lat="47.22962" lon="-1.63905">
        <ele>96</ele>
        <time>2021-04-12T13:02:58.000Z</time>
      </trkpt>
      <trkpt lat="47.22956" lon="-1.63888">
        <ele>96</ele>
        <time>2021-04-12T13:03:00.000Z</time>
      </trkpt>
      <trkpt lat="47.2295" lon="-1.63871">
        <ele>95</ele>
        <time>2021-04-12T13:03:02.000Z</time>
      </trkpt>
      <trkpt lat="47.22944" lon="-1.63854">
        <ele>95</ele>
        <time>2021-04-12T13:03:04.000Z</time>
      </trkpt>
      <trkpt lat="47.22938" lon="-1.63837">
        <ele>95</ele>
        <time>2021-04-12T13:03:06.000Z</time>
      </trkpt>
      <trkpt lat="47.22932" lon="-1.6382">
        <ele>95</ele>
        <time>2021-04-12T13:03:08.000Z</time>
      </trkpt>
      <trkpt lat="47.22927" lon="-1.63802">
        <ele>95</ele>
        <time>2021-04-12T13:03:10.000Z</time>
      </trkpt>
      <trkpt lat="47.22921" lon="-1.63785">
        <ele>95</ele>
        <time>2021-04-12T13:03:12.000Z</time>
      </trkpt>
      <trkpt lat="47.22916" lon="-1.63767">
        <ele>95</ele>
        <time>2021-04-12T13:03:14.000Z</time>
      </trkpt>
      <trkpt lat="47.2291" lon="-1.6375">
        <ele>95</ele>
        <time>2021-04-12T13:03:16.000Z</time>
      </trkpt>
      <trkpt lat="47.22905" lon="-1.63733">
        <ele>94</ele>
        <time>2021-04-12T13:03:18.000Z</time>
      </trkpt>
      <trkpt lat="47.22899" lon="-1.63715">
        <ele>95</ele>
        <time>2021-04-12T13:03:20.000Z</time>
      </trkpt>
      <trkpt lat="47.22894" lon="-1.63698">
        <ele>95</ele>
        <time>2021-04-12T13:03:22.000Z</time>
      </trkpt>
      <trkpt lat="47.22888" lon="-1.63681">
        <ele>95</ele>
        <time>2021-04-12T13:03:24.000Z</time>
      </trkpt>
      <trkpt lat="47.22882" lon="-1.63665">
        <ele>95</ele>
        <time>2021-04-12T13:03:26.000Z</time>
      </trkpt>
      <trkpt lat="47.22877" lon="-1.63648">
        <ele>95</ele>
        <time>2021-04-12T13:03:28.000Z</time>
      </trkpt>
      <trkpt lat="47.22872" lon="-1.63631">
        <ele>95</ele>
        <time>2021-04-12T13:03:30.000Z</time>
      </trkpt>
      <trkpt lat="47.22868" lon="-1.63614">
        <ele>95</ele>
        <time>2021-04-12T13:03:32.000Z</time>
      </trkpt>
      <trkpt lat="47.22865" lon="-1.63596">
        <ele>95</ele>
        <time>2021-04-12T13:03:34.000Z</time>
      </trkpt>
      <trkpt lat="47.22862" lon="-1.63579">
        <ele>95</ele>
        <time>2021-04-12T13:03:36.000Z</time>
      </trkpt>
      <trkpt lat="47.2286" lon="-1.63562">
        <ele>94</ele>
        <time>2021-04-12T13:03:38.000Z</time>
      </trkpt>
      <trkpt lat="47.22858" lon="-1.63546">
        <ele>94</ele>
        <time>2021-04-12T13:03:40.000Z</time>
      </trkpt>
      <trkpt lat="47.22854" lon="-1.63532">
        <ele>94</ele>
        <time>2021-04-12T13:03:42.000Z</time>
      </trkpt>
      <trkpt lat="47.22845" lon="-1.63523">
        <ele>94</ele>
        <time>2021-04-12T13:03:44.000Z</time>
      </trkpt>
      <trkpt lat="47.22835" lon="-1.63515">
        <ele>94</ele>
        <time>2021-04-12T13:03:46.000Z</time>
      </trkpt>
      <trkpt lat="47.22834" lon="-1.63498">
        <ele>94</ele>
        <time>2021-04-12T13:03:48.000Z</time>
      </trkpt>
      <trkpt lat="47.22844" lon="-1.63486">
        <ele>94</ele>
        <time>2021-04-12T13:03:50.000Z</time>
      </trkpt>
      <trkpt lat="47.22856" lon="-1.63479">
        <ele>93</ele>
        <time>2021-04-12T13:03:52.000Z</time>
      </trkpt>
      <trkpt lat="47.22868" lon="-1.6347">
        <ele>93</ele>
        <time>2021-04-12T13:03:54.000Z</time>
      </trkpt>
      <trkpt lat="47.22878" lon="-1.63457">
        <ele>93</ele>
        <time>2021-04-12T13:03:56.000Z</time>
      </trkpt>
      <trkpt lat="47.22888" lon="-1.63444">
        <ele>93</ele>
        <time>2021-04-12T13:03:58.000Z</time>
      </trkpt>
      <trkpt lat="47.22899" lon="-1.6343">
        <ele>94</ele>
        <time>2021-04-12T13:04:00.000Z</time>
      </trkpt>
      <trkpt lat="47.2291" lon="-1.63416">
        <ele>94</ele>
        <time>2021-04-12T13:04:02.000Z</time>
      </trkpt>
      <trkpt lat="47.2292" lon="-1.63404">
        <ele>93</ele>
        <time>2021-04-12T13:04:04.000Z</time>
      </trkpt>
      <trkpt lat="47.22931" lon="-1.63391">
        <ele>93</ele>
        <time>2021-04-12T13:04:06.000Z</time>
      </trkpt>
      <trkpt lat="47.2294" lon="-1.63377">
        <ele>93</ele>
        <time>2021-04-12T13:04:08.000Z</time>
      </trkpt>
      <trkpt lat="47.2295" lon="-1.63364">
        <ele>93</ele>
        <time>2021-04-12T13:04:10.000Z</time>
      </trkpt>
      <trkpt lat="47.2296" lon="-1.63353">
        <ele>93</ele>
        <time>2021-04-12T13:04:12.000Z</time>
      </trkpt>
      <trkpt lat="47.22972" lon="-1.63343">
        <ele>93</ele>
        <time>2021-04-12T13:04:14.000Z</time>
      </trkpt>
      <trkpt lat="47.22983" lon="-1.63332">
        <ele>93</ele>
        <time>2021-04-12T13:04:16.000Z</time>
      </trkpt>
      <trkpt lat="47.22994" lon="-1.63321">
        <ele>93</ele>
        <time>2021-04-12T13:04:18.000Z</time>
      </trkpt>
      <trkpt lat="47.23003" lon="-1.63307">
        <ele>93</ele>
        <time>2021-04-12T13:04:20.000Z</time>
      </trkpt>
      <trkpt lat="47.23012" lon="-1.63293">
        <ele>93</ele>
        <time>2021-04-12T13:04:22.000Z</time>
      </trkpt>
      <trkpt lat="47.23022" lon="-1.6328">
        <ele>93</ele>
        <time>2021-04-12T13:04:24.000Z</time>
      </trkpt>
      <trkpt lat="47.23033" lon="-1.63269">
        <ele>94</ele>
        <time>2021-04-12T13:04:26.000Z</time>
      </trkpt>
      <trkpt lat="47.23043" lon="-1.63257">
        <ele>94</ele>
        <time>2021-04-12T13:04:28.000Z</time>
      </trkpt>
      <trkpt lat="47.23052" lon="-1.63245">
        <ele>94</ele>
        <time>2021-04-12T13:04:30.000Z</time>
      </trkpt>
      <trkpt lat="47.23062" lon="-1.63233">
        <ele>94</ele>
        <time>2021-04-12T13:04:32.000Z</time>
      </trkpt>
      <trkpt lat="47.23072" lon="-1.63221">
        <ele>94</ele>
        <time>2021-04-12T13:04:34.000Z</time>
      </trkpt>
      <trkpt lat="47.23082" lon="-1.63208">
        <ele>94</ele>
        <time>2021-04-12T13:04:36.000Z</time>
      </trkpt>
      <trkpt lat="47.23092" lon="-1.63195">
        <ele>94</ele>
        <time>2021-04-12T13:04:38.000Z</time>
      </trkpt>
      <trkpt lat="47.23102" lon="-1.63183">
        <ele>95</ele>
        <time>2021-04-12T13:04:40.000Z</time>
      </trkpt>
      <trkpt lat="47.23112" lon="-1.63172">
        <ele>95</ele>
        <time>2021-04-12T13:04:42.000Z</time>
      </trkpt>
      <trkpt lat="47.2312" lon="-1.63159">
        <ele>96</ele>
        <time>2021-04-12T13:04:44.000Z</time>
      </trkpt>
      <trkpt lat="47.23131" lon="-1.6315">
        <ele>95</ele>
        <time>2021-04-12T13:04:46.000Z</time>
      </trkpt>
      <trkpt lat="47.23142" lon="-1.6314">
        <ele>95</ele>
        <time>2021-04-12T13:04:48.000Z</time>
      </trkpt>
      <trkpt lat="47.23153" lon="-1.63129">
        <ele>95</ele>
        <time>2021-04-12T13:04:50.000Z</time>
      </trkpt>
      <trkpt lat="47.23164" lon="-1.63119">
        <ele>96</ele>
        <time>2021-04-12T13:04:52.000Z</time>
      </trkpt>
      <trkpt lat="47.23175" lon="-1.6311">
        <ele>96</ele>
        <time>2021-04-12T13:04:54.000Z</time>
      </trkpt>
      <trkpt lat="47.23186" lon="-1.63101">
        <ele>97</ele>
        <time>2021-04-12T13:04:56.000Z</time>
      </trkpt>
      <trkpt lat="47.23196" lon="-1.63092">
        <ele>97</ele>
        <time>2021-04-12T13:04:58.000Z</time>
      </trkpt>
      <trkpt lat="47.23207" lon="-1.63084">
        <ele>97</ele>
        <time>2021-04-12T13:05:00.000Z</time>
      </trkpt>
      <trkpt lat="47.23217" lon="-1.63076">
        <ele>97</ele>
        <time>2021-04-12T13:05:02.000Z</time>
      </trkpt>
      <trkpt lat="47.23227" lon="-1.63069">
        <ele>98</ele>
        <time>2021-04-12T13:05:04.000Z</time>
      </trkpt>
      <trkpt lat="47.23238" lon="-1.63061">
        <ele>98</ele>
        <time>2021-04-12T13:05:06.000Z</time>
      </trkpt>
      <trkpt lat="47.23248" lon="-1.63053">
        <ele>99</ele>
        <time>2021-04-12T13:05:08.000Z</time>
      </trkpt>
      <trkpt lat="47.23259" lon="-1.63047">
        <ele>100</ele>
        <time>2021-04-12T13:05:10.000Z</time>
      </trkpt>
      <trkpt lat="47.23269" lon="-1.63039">
        <ele>102</ele>
        <time>2021-04-12T13:05:12.000Z</time>
      </trkpt>
      <trkpt lat="47.23279" lon="-1.63031">
        <ele>104</ele>
        <time>2021-04-12T13:05:14.000Z</time>
      </trkpt>
      <trkpt lat="47.2329" lon="-1.63024">
        <ele>104</ele>
        <time>2021-04-12T13:05:16.000Z</time>
      </trkpt>
      <trkpt lat="47.233" lon="-1.63017">
        <ele>105</ele>
        <time>2021-04-12T13:05:18.000Z</time>
      </trkpt>
      <trkpt lat="47.23309" lon="-1.6301">
        <ele>105</ele>
        <time>2021-04-12T13:05:20.000Z</time>
      </trkpt>
      <trkpt lat="47.23319" lon="-1.63002">
        <ele>106</ele>
        <time>2021-04-12T13:05:22.000Z</time>
      </trkpt>
      <trkpt lat="47.23328" lon="-1.62993">
        <ele>106</ele>
        <time>2021-04-12T13:05:24.000Z</time>
      </trkpt>
      <trkpt lat="47.2334" lon="-1.62986">
        <ele>107</ele>
        <time>2021-04-12T13:05:26.000Z</time>
      </trkpt>
      <trkpt lat="47.23355" lon="-1.6298">
        <ele>107</ele>
        <time>2021-04-12T13:05:28.000Z</time>
      </trkpt>
      <trkpt lat="47.23368" lon="-1.62978">
        <ele>107</ele>
        <time>2021-04-12T13:05:30.000Z</time>
      </trkpt>
      <trkpt lat="47.23381" lon="-1.62974">
        <ele>106</ele>
        <time>2021-04-12T13:05:32.000Z</time>
      </trkpt>
      <trkpt lat="47.23393" lon="-1.62969">
        <ele>105</ele>
        <time>2021-04-12T13:05:34.000Z</time>
      </trkpt>
      <trkpt lat="47.23404" lon="-1.62964">
        <ele>105</ele>
        <time>2021-04-12T13:05:36.000Z</time>
      </trkpt>
      <trkpt lat="47.23416" lon="-1.62958">
        <ele>105</ele>
        <time>2021-04-12T13:05:38.000Z</time>
      </trkpt>
      <trkpt lat="47.23427" lon="-1.62952">
        <ele>104</ele>
        <time>2021-04-12T13:05:40.000Z</time>
      </trkpt>
      <trkpt lat="47.23439" lon="-1.62947">
        <ele>104</ele>
        <time>2021-04-12T13:05:42.000Z</time>
      </trkpt>
      <trkpt lat="47.2345" lon="-1.62942">
        <ele>104</ele>
        <time>2021-04-12T13:05:44.000Z</time>
      </trkpt>
      <trkpt lat="47.23463" lon="-1.62937">
        <ele>104</ele>
        <time>2021-04-12T13:05:46.000Z</time>
      </trkpt>
      <trkpt lat="47.23476" lon="-1.62932">
        <ele>103</ele>
        <time>2021-04-12T13:05:48.000Z</time>
      </trkpt>
      <trkpt lat="47.23491" lon="-1.62927">
        <ele>103</ele>
        <time>2021-04-12T13:05:50.000Z</time>
      </trkpt>
      <trkpt lat="47.23506" lon="-1.62922">
        <ele>102</ele>
        <time>2021-04-12T13:05:52.000Z</time>
      </trkpt>
      <trkpt lat="47.23521" lon="-1.62918">
        <ele>101</ele>
        <time>2021-04-12T13:05:54.000Z</time>
      </trkpt>
      <trkpt lat="47.23538" lon="-1.62911">
        <ele>99</ele>
        <time>2021-04-12T13:05:56.000Z</time>
      </trkpt>
      <trkpt lat="47.23553" lon="-1.629">
        <ele>98</ele>
        <time>2021-04-12T13:05:58.000Z</time>
      </trkpt>
      <trkpt lat="47.2357" lon="-1.62897">
        <ele>96</ele>
        <time>2021-04-12T13:06:00.000Z</time>
      </trkpt>
      <trkpt lat="47.2358" lon="-1.62898">
        <ele>95</ele>
        <time>2021-04-12T13:06:01.000Z</time>
      </trkpt>
      <trkpt lat="47.23589" lon="-1.62896">
        <ele>93</ele>
        <time>2021-04-12T13:06:02.000Z</time>
      </trkpt>
      <trkpt lat="47.23598" lon="-1.62894">
        <ele>92</ele>
        <time>2021-04-12T13:06:03.000Z</time>
      </trkpt>
      <trkpt lat="47.23608" lon="-1.62891">
        <ele>91</ele>
        <time>2021-04-12T13:06:04.000Z</time>
      </trkpt>
      <trkpt lat="47.23617" lon="-1.62888">
        <ele>90</ele>
        <time>2021-04-12T13:06:05.000Z</time>
      </trkpt>
      <trkpt lat="47.23627" lon="-1.62885">
        <ele>89</ele>
        <time>2021-04-12T13:06:06.000Z</time>
      </trkpt>
      <trkpt lat="47.23636" lon="-1.62881">
        <ele>88</ele>
        <time>2021-04-12T13:06:07.000Z</time>
      </trkpt>
      <trkpt lat="47.23646" lon="-1.62878">
        <ele>87</ele>
        <time>2021-04-12T13:06:08.000Z</time>
      </trkpt>
      <trkpt lat="47.23655" lon="-1.62875">
        <ele>86</ele>
        <time>2021-04-12T13:06:09.000Z</time>
      </trkpt>
      <trkpt lat="47.23665" lon="-1.62872">
        <ele>86</ele>
        <time>2021-04-12T13:06:10.000Z</time>
      </trkpt>
      <trkpt lat="47.23674" lon="-1.62868">
        <ele>85</ele>
        <time>2021-04-12T13:06:11.000Z</time>
      </trkpt>
      <trkpt lat="47.23683" lon="-1.62865">
        <ele>85</ele>
        <time>2021-04-12T13:06:12.000Z</time>
      </trkpt>
      <trkpt lat="47.23691" lon="-1.62862">
        <ele>85</ele>
        <time>2021-04-12T13:06:13.000Z</time>
      </trkpt>
      <trkpt lat="47.23701" lon="-1.62859">
        <ele>84</ele>
        <time>2021-04-12T13:06:14.000Z</time>
      </trkpt>
      <trkpt lat="47.23709" lon="-1.62856">
        <ele>84</ele>
        <time>2021-04-12T13:06:15.000Z</time>
      </trkpt>
      <trkpt lat="47.23726" lon="-1.62849">
        <ele>83</ele>
        <time>2021-04-12T13:06:17.000Z</time>
      </trkpt>
      <trkpt lat="47.23743" lon="-1.62841">
        <ele>82</ele>
        <time>2021-04-12T13:06:19.000Z</time>
      </trkpt>
      <trkpt lat="47.23759" lon="-1.62835">
        <ele>82</ele>
        <time>2021-04-12T13:06:21.000Z</time>
      </trkpt>
      <trkpt lat="47.23776" lon="-1.62831">
        <ele>82</ele>
        <time>2021-04-12T13:06:23.000Z</time>
      </trkpt>
      <trkpt lat="47.23792" lon="-1.62827">
        <ele>82</ele>
        <time>2021-04-12T13:06:25.000Z</time>
      </trkpt>
      <trkpt lat="47.23801" lon="-1.62824">
        <ele>81</ele>
        <time>2021-04-12T13:06:26.000Z</time>
      </trkpt>
      <trkpt lat="47.23811" lon="-1.62821">
        <ele>81</ele>
        <time>2021-04-12T13:06:27.000Z</time>
      </trkpt>
      <trkpt lat="47.2382" lon="-1.62817">
        <ele>81</ele>
        <time>2021-04-12T13:06:28.000Z</time>
      </trkpt>
      <trkpt lat="47.2383" lon="-1.62814">
        <ele>81</ele>
        <time>2021-04-12T13:06:29.000Z</time>
      </trkpt>
      <trkpt lat="47.2384" lon="-1.6281">
        <ele>80</ele>
        <time>2021-04-12T13:06:30.000Z</time>
      </trkpt>
      <trkpt lat="47.23849" lon="-1.62807">
        <ele>79</ele>
        <time>2021-04-12T13:06:31.000Z</time>
      </trkpt>
      <trkpt lat="47.23859" lon="-1.62804">
        <ele>79</ele>
        <time>2021-04-12T13:06:32.000Z</time>
      </trkpt>
      <trkpt lat="47.23868" lon="-1.62801">
        <ele>79</ele>
        <time>2021-04-12T13:06:33.000Z</time>
      </trkpt>
      <trkpt lat="47.23877" lon="-1.62798">
        <ele>79</ele>
        <time>2021-04-12T13:06:34.000Z</time>
      </trkpt>
      <trkpt lat="47.23886" lon="-1.62794">
        <ele>78</ele>
        <time>2021-04-12T13:06:35.000Z</time>
      </trkpt>
      <trkpt lat="47.23895" lon="-1.62791">
        <ele>77</ele>
        <time>2021-04-12T13:06:36.000Z</time>
      </trkpt>
      <trkpt lat="47.23904" lon="-1.62788">
        <ele>77</ele>
        <time>2021-04-12T13:06:37.000Z</time>
      </trkpt>
      <trkpt lat="47.23913" lon="-1.62785">
        <ele>77</ele>
        <time>2021-04-12T13:06:38.000Z</time>
      </trkpt>
      <trkpt lat="47.23922" lon="-1.62783">
        <ele>76</ele>
        <time>2021-04-12T13:06:39.000Z</time>
      </trkpt>
      <trkpt lat="47.23931" lon="-1.6278">
        <ele>76</ele>
        <time>2021-04-12T13:06:40.000Z</time>
      </trkpt>
      <trkpt lat="47.2394" lon="-1.62776">
        <ele>75</ele>
        <time>2021-04-12T13:06:41.000Z</time>
      </trkpt>
      <trkpt lat="47.23949" lon="-1.62773">
        <ele>75</ele>
        <time>2021-04-12T13:06:42.000Z</time>
      </trkpt>
      <trkpt lat="47.23958" lon="-1.62769">
        <ele>74</ele>
        <time>2021-04-12T13:06:43.000Z</time>
      </trkpt>
      <trkpt lat="47.23967" lon="-1.62766">
        <ele>73</ele>
        <time>2021-04-12T13:06:44.000Z</time>
      </trkpt>
      <trkpt lat="47.23976" lon="-1.62762">
        <ele>73</ele>
        <time>2021-04-12T13:06:45.000Z</time>
      </trkpt>
      <trkpt lat="47.23985" lon="-1.62757">
        <ele>72</ele>
        <time>2021-04-12T13:06:46.000Z</time>
      </trkpt>
      <trkpt lat="47.23993" lon="-1.62752">
        <ele>72</ele>
        <time>2021-04-12T13:06:47.000Z</time>
      </trkpt>
      <trkpt lat="47.24002" lon="-1.62748">
        <ele>71</ele>
        <time>2021-04-12T13:06:48.000Z</time>
      </trkpt>
      <trkpt lat="47.24011" lon="-1.62742">
        <ele>70</ele>
        <time>2021-04-12T13:06:49.000Z</time>
      </trkpt>
      <trkpt lat="47.24019" lon="-1.62737">
        <ele>70</ele>
        <time>2021-04-12T13:06:50.000Z</time>
      </trkpt>
      <trkpt lat="47.24035" lon="-1.62724">
        <ele>69</ele>
        <time>2021-04-12T13:06:52.000Z</time>
      </trkpt>
      <trkpt lat="47.24042" lon="-1.62717">
        <ele>68</ele>
        <time>2021-04-12T13:06:53.000Z</time>
      </trkpt>
      <trkpt lat="47.2405" lon="-1.62708">
        <ele>68</ele>
        <time>2021-04-12T13:06:54.000Z</time>
      </trkpt>
      <trkpt lat="47.24057" lon="-1.62699">
        <ele>68</ele>
        <time>2021-04-12T13:06:55.000Z</time>
      </trkpt>
      <trkpt lat="47.24064" lon="-1.6269">
        <ele>68</ele>
        <time>2021-04-12T13:06:56.000Z</time>
      </trkpt>
      <trkpt lat="47.24076" lon="-1.62671">
        <ele>68</ele>
        <time>2021-04-12T13:06:58.000Z</time>
      </trkpt>
      <trkpt lat="47.24086" lon="-1.62652">
        <ele>67</ele>
        <time>2021-04-12T13:07:00.000Z</time>
      </trkpt>
      <trkpt lat="47.24096" lon="-1.62634">
        <ele>67</ele>
        <time>2021-04-12T13:07:02.000Z</time>
      </trkpt>
      <trkpt lat="47.24103" lon="-1.62615">
        <ele>67</ele>
        <time>2021-04-12T13:07:04.000Z</time>
      </trkpt>
      <trkpt lat="47.24109" lon="-1.62597">
        <ele>68</ele>
        <time>2021-04-12T13:07:06.000Z</time>
      </trkpt>
      <trkpt lat="47.24114" lon="-1.6258">
        <ele>69</ele>
        <time>2021-04-12T13:07:08.000Z</time>
      </trkpt>
      <trkpt lat="47.24119" lon="-1.62564">
        <ele>70</ele>
        <time>2021-04-12T13:07:10.000Z</time>
      </trkpt>
      <trkpt lat="47.24123" lon="-1.62548">
        <ele>71</ele>
        <time>2021-04-12T13:07:12.000Z</time>
      </trkpt>
      <trkpt lat="47.24126" lon="-1.62533">
        <ele>71</ele>
        <time>2021-04-12T13:07:14.000Z</time>
      </trkpt>
      <trkpt lat="47.24129" lon="-1.62519">
        <ele>71</ele>
        <time>2021-04-12T13:07:16.000Z</time>
      </trkpt>
      <trkpt lat="47.24133" lon="-1.62504">
        <ele>71</ele>
        <time>2021-04-12T13:07:18.000Z</time>
      </trkpt>
      <trkpt lat="47.24137" lon="-1.6249">
        <ele>72</ele>
        <time>2021-04-12T13:07:20.000Z</time>
      </trkpt>
      <trkpt lat="47.24141" lon="-1.62476">
        <ele>72</ele>
        <time>2021-04-12T13:07:22.000Z</time>
      </trkpt>
      <trkpt lat="47.24145" lon="-1.62461">
        <ele>73</ele>
        <time>2021-04-12T13:07:24.000Z</time>
      </trkpt>
      <trkpt lat="47.24149" lon="-1.62448">
        <ele>74</ele>
        <time>2021-04-12T13:07:26.000Z</time>
      </trkpt>
      <trkpt lat="47.24154" lon="-1.62435">
        <ele>75</ele>
        <time>2021-04-12T13:07:28.000Z</time>
      </trkpt>
      <trkpt lat="47.24158" lon="-1.62422">
        <ele>75</ele>
        <time>2021-04-12T13:07:30.000Z</time>
      </trkpt>
      <trkpt lat="47.24162" lon="-1.6241">
        <ele>75</ele>
        <time>2021-04-12T13:07:32.000Z</time>
      </trkpt>
      <trkpt lat="47.24166" lon="-1.62398">
        <ele>76</ele>
        <time>2021-04-12T13:07:34.000Z</time>
      </trkpt>
      <trkpt lat="47.24171" lon="-1.62386">
        <ele>77</ele>
        <time>2021-04-12T13:07:36.000Z</time>
      </trkpt>
      <trkpt lat="47.24176" lon="-1.62374">
        <ele>77</ele>
        <time>2021-04-12T13:07:38.000Z</time>
      </trkpt>
      <trkpt lat="47.2418" lon="-1.62362">
        <ele>78</ele>
        <time>2021-04-12T13:07:40.000Z</time>
      </trkpt>
      <trkpt lat="47.24186" lon="-1.62346">
        <ele>79</ele>
        <time>2021-04-12T13:07:43.000Z</time>
      </trkpt>
      <trkpt lat="47.24192" lon="-1.62331">
        <ele>80</ele>
        <time>2021-04-12T13:07:46.000Z</time>
      </trkpt>
      <trkpt lat="47.24198" lon="-1.62316">
        <ele>81</ele>
        <time>2021-04-12T13:07:49.000Z</time>
      </trkpt>
      <trkpt lat="47.24204" lon="-1.62301">
        <ele>82</ele>
        <time>2021-04-12T13:07:52.000Z</time>
      </trkpt>
      <trkpt lat="47.24211" lon="-1.62288">
        <ele>82</ele>
        <time>2021-04-12T13:07:55.000Z</time>
      </trkpt>
      <trkpt lat="47.24217" lon="-1.62274">
        <ele>83</ele>
        <time>2021-04-12T13:07:58.000Z</time>
      </trkpt>
      <trkpt lat="47.24223" lon="-1.6226">
        <ele>83</ele>
        <time>2021-04-12T13:08:01.000Z</time>
      </trkpt>
      <trkpt lat="47.24229" lon="-1.62247">
        <ele>84</ele>
        <time>2021-04-12T13:08:04.000Z</time>
      </trkpt>
      <trkpt lat="47.24235" lon="-1.62234">
        <ele>85</ele>
        <time>2021-04-12T13:08:07.000Z</time>
      </trkpt>
      <trkpt lat="47.24241" lon="-1.62221">
        <ele>85</ele>
        <time>2021-04-12T13:08:10.000Z</time>
      </trkpt>
      <trkpt lat="47.24247" lon="-1.62208">
        <ele>86</ele>
        <time>2021-04-12T13:08:13.000Z</time>
      </trkpt>
      <trkpt lat="47.24253" lon="-1.62195">
        <ele>87</ele>
        <time>2021-04-12T13:08:16.000Z</time>
      </trkpt>
      <trkpt lat="47.24258" lon="-1.62182">
        <ele>88</ele>
        <time>2021-04-12T13:08:19.000Z</time>
      </trkpt>
      <trkpt lat="47.24265" lon="-1.62169">
        <ele>89</ele>
        <time>2021-04-12T13:08:22.000Z</time>
      </trkpt>
      <trkpt lat="47.24271" lon="-1.62154">
        <ele>90</ele>
        <time>2021-04-12T13:08:25.000Z</time>
      </trkpt>
      <trkpt lat="47.24277" lon="-1.62141">
        <ele>90</ele>
        <time>2021-04-12T13:08:28.000Z</time>
      </trkpt>
      <trkpt lat="47.24283" lon="-1.62127">
        <ele>91</ele>
        <time>2021-04-12T13:08:31.000Z</time>
      </trkpt>
      <trkpt lat="47.24289" lon="-1.62114">
        <ele>91</ele>
        <time>2021-04-12T13:08:34.000Z</time>
      </trkpt>
      <trkpt lat="47.24296" lon="-1.621">
        <ele>91</ele>
        <time>2021-04-12T13:08:37.000Z</time>
      </trkpt>
      <trkpt lat="47.24302" lon="-1.62085">
        <ele>91</ele>
        <time>2021-04-12T13:08:40.000Z</time>
      </trkpt>
      <trkpt lat="47.24305" lon="-1.6207">
        <ele>91</ele>
        <time>2021-04-12T13:08:43.000Z</time>
      </trkpt>
      <trkpt lat="47.24309" lon="-1.62055">
        <ele>91</ele>
        <time>2021-04-12T13:08:46.000Z</time>
      </trkpt>
      <trkpt lat="47.24316" lon="-1.62047">
        <ele>91</ele>
        <time>2021-04-12T13:08:48.000Z</time>
      </trkpt>
      <trkpt lat="47.24326" lon="-1.62036">
        <ele>91</ele>
        <time>2021-04-12T13:08:51.000Z</time>
      </trkpt>
      <trkpt lat="47.24332" lon="-1.62025">
        <ele>92</ele>
        <time>2021-04-12T13:08:53.000Z</time>
      </trkpt>
      <trkpt lat="47.24337" lon="-1.62014">
        <ele>93</ele>
        <time>2021-04-12T13:08:55.000Z</time>
      </trkpt>
      <trkpt lat="47.24342" lon="-1.62001">
        <ele>93</ele>
        <time>2021-04-12T13:08:57.000Z</time>
      </trkpt>
      <trkpt lat="47.24346" lon="-1.61988">
        <ele>94</ele>
        <time>2021-04-12T13:08:59.000Z</time>
      </trkpt>
      <trkpt lat="47.24352" lon="-1.61978">
        <ele>95</ele>
        <time>2021-04-12T13:09:01.000Z</time>
      </trkpt>
      <trkpt lat="47.2436" lon="-1.61969">
        <ele>95</ele>
        <time>2021-04-12T13:09:03.000Z</time>
      </trkpt>
      <trkpt lat="47.24366" lon="-1.61959">
        <ele>96</ele>
        <time>2021-04-12T13:09:05.000Z</time>
      </trkpt>
      <trkpt lat="47.24373" lon="-1.61943">
        <ele>96</ele>
        <time>2021-04-12T13:09:08.000Z</time>
      </trkpt>
      <trkpt lat="47.24383" lon="-1.61934">
        <ele>96</ele>
        <time>2021-04-12T13:09:11.000Z</time>
      </trkpt>
      <trkpt lat="47.24393" lon="-1.6194">
        <ele>96</ele>
        <time>2021-04-12T13:09:13.000Z</time>
      </trkpt>
      <trkpt lat="47.244" lon="-1.61953">
        <ele>95</ele>
        <time>2021-04-12T13:09:15.000Z</time>
      </trkpt>
      <trkpt lat="47.24407" lon="-1.61965">
        <ele>95</ele>
        <time>2021-04-12T13:09:17.000Z</time>
      </trkpt>
      <trkpt lat="47.24413" lon="-1.61976">
        <ele>95</ele>
        <time>2021-04-12T13:09:19.000Z</time>
      </trkpt>
      <trkpt lat="47.24419" lon="-1.61989">
        <ele>94</ele>
        <time>2021-04-12T13:09:21.000Z</time>
      </trkpt>
      <trkpt lat="47.24424" lon="-1.62003">
        <ele>94</ele>
        <time>2021-04-12T13:09:23.000Z</time>
      </trkpt>
      <trkpt lat="47.2443" lon="-1.62017">
        <ele>93</ele>
        <time>2021-04-12T13:09:25.000Z</time>
      </trkpt>
      <trkpt lat="47.24435" lon="-1.6203">
        <ele>93</ele>
        <time>2021-04-12T13:09:27.000Z</time>
      </trkpt>
      <trkpt lat="47.2444" lon="-1.62044">
        <ele>94</ele>
        <time>2021-04-12T13:09:29.000Z</time>
      </trkpt>
      <trkpt lat="47.24445" lon="-1.62058">
        <ele>94</ele>
        <time>2021-04-12T13:09:31.000Z</time>
      </trkpt>
      <trkpt lat="47.2445" lon="-1.62071">
        <ele>94</ele>
        <time>2021-04-12T13:09:33.000Z</time>
      </trkpt>
      <trkpt lat="47.24455" lon="-1.62085">
        <ele>94</ele>
        <time>2021-04-12T13:09:35.000Z</time>
      </trkpt>
      <trkpt lat="47.24461" lon="-1.62099">
        <ele>94</ele>
        <time>2021-04-12T13:09:37.000Z</time>
      </trkpt>
      <trkpt lat="47.24466" lon="-1.62113">
        <ele>94</ele>
        <time>2021-04-12T13:09:39.000Z</time>
      </trkpt>
      <trkpt lat="47.24471" lon="-1.62126">
        <ele>95</ele>
        <time>2021-04-12T13:09:41.000Z</time>
      </trkpt>
      <trkpt lat="47.24475" lon="-1.62139">
        <ele>95</ele>
        <time>2021-04-12T13:09:43.000Z</time>
      </trkpt>
      <trkpt lat="47.2448" lon="-1.62151">
        <ele>96</ele>
        <time>2021-04-12T13:09:45.000Z</time>
      </trkpt>
      <trkpt lat="47.24485" lon="-1.62162">
        <ele>96</ele>
        <time>2021-04-12T13:09:47.000Z</time>
      </trkpt>
      <trkpt lat="47.2449" lon="-1.62175">
        <ele>96</ele>
        <time>2021-04-12T13:09:49.000Z</time>
      </trkpt>
      <trkpt lat="47.24495" lon="-1.62188">
        <ele>97</ele>
        <time>2021-04-12T13:09:51.000Z</time>
      </trkpt>
      <trkpt lat="47.24499" lon="-1.622">
        <ele>97</ele>
        <time>2021-04-12T13:09:53.000Z</time>
      </trkpt>
      <trkpt lat="47.24504" lon="-1.62212">
        <ele>97</ele>
        <time>2021-04-12T13:09:55.000Z</time>
      </trkpt>
      <trkpt lat="47.24509" lon="-1.62226">
        <ele>97</ele>
        <time>2021-04-12T13:09:57.000Z</time>
      </trkpt>
      <trkpt lat="47.24514" lon="-1.6224">
        <ele>96</ele>
        <time>2021-04-12T13:09:59.000Z</time>
      </trkpt>
      <trkpt lat="47.24518" lon="-1.62254">
        <ele>95</ele>
        <time>2021-04-12T13:10:01.000Z</time>
      </trkpt>
      <trkpt lat="47.24523" lon="-1.62268">
        <ele>95</ele>
        <time>2021-04-12T13:10:03.000Z</time>
      </trkpt>
      <trkpt lat="47.24527" lon="-1.62284">
        <ele>95</ele>
        <time>2021-04-12T13:10:05.000Z</time>
      </trkpt>
      <trkpt lat="47.24532" lon="-1.62299">
        <ele>95</ele>
        <time>2021-04-12T13:10:07.000Z</time>
      </trkpt>
      <trkpt lat="47.24536" lon="-1.62314">
        <ele>95</ele>
        <time>2021-04-12T13:10:09.000Z</time>
      </trkpt>
      <trkpt lat="47.24541" lon="-1.62329">
        <ele>95</ele>
        <time>2021-04-12T13:10:11.000Z</time>
      </trkpt>
      <trkpt lat="47.24545" lon="-1.62344">
        <ele>95</ele>
        <time>2021-04-12T13:10:13.000Z</time>
      </trkpt>
      <trkpt lat="47.2455" lon="-1.62359">
        <ele>95</ele>
        <time>2021-04-12T13:10:15.000Z</time>
      </trkpt>
      <trkpt lat="47.24555" lon="-1.62374">
        <ele>96</ele>
        <time>2021-04-12T13:10:17.000Z</time>
      </trkpt>
      <trkpt lat="47.2456" lon="-1.62388">
        <ele>96</ele>
        <time>2021-04-12T13:10:19.000Z</time>
      </trkpt>
      <trkpt lat="47.24564" lon="-1.62403">
        <ele>95</ele>
        <time>2021-04-12T13:10:21.000Z</time>
      </trkpt>
      <trkpt lat="47.24569" lon="-1.62417">
        <ele>95</ele>
        <time>2021-04-12T13:10:23.000Z</time>
      </trkpt>
      <trkpt lat="47.24574" lon="-1.6243">
        <ele>96</ele>
        <time>2021-04-12T13:10:25.000Z</time>
      </trkpt>
      <trkpt lat="47.24578" lon="-1.62445">
        <ele>96</ele>
        <time>2021-04-12T13:10:27.000Z</time>
      </trkpt>
      <trkpt lat="47.24583" lon="-1.6246">
        <ele>96</ele>
        <time>2021-04-12T13:10:29.000Z</time>
      </trkpt>
      <trkpt lat="47.24588" lon="-1.62474">
        <ele>97</ele>
        <time>2021-04-12T13:10:31.000Z</time>
      </trkpt>
      <trkpt lat="47.24593" lon="-1.62489">
        <ele>97</ele>
        <time>2021-04-12T13:10:33.000Z</time>
      </trkpt>
      <trkpt lat="47.24598" lon="-1.62503">
        <ele>97</ele>
        <time>2021-04-12T13:10:35.000Z</time>
      </trkpt>
      <trkpt lat="47.24603" lon="-1.62517">
        <ele>97</ele>
        <time>2021-04-12T13:10:37.000Z</time>
      </trkpt>
      <trkpt lat="47.24607" lon="-1.6253">
        <ele>97</ele>
        <time>2021-04-12T13:10:39.000Z</time>
      </trkpt>
      <trkpt lat="47.24612" lon="-1.62543">
        <ele>97</ele>
        <time>2021-04-12T13:10:41.000Z</time>
      </trkpt>
      <trkpt lat="47.24616" lon="-1.62556">
        <ele>98</ele>
        <time>2021-04-12T13:10:43.000Z</time>
      </trkpt>
      <trkpt lat="47.24621" lon="-1.62569">
        <ele>98</ele>
        <time>2021-04-12T13:10:45.000Z</time>
      </trkpt>
      <trkpt lat="47.24624" lon="-1.62582">
        <ele>98</ele>
        <time>2021-04-12T13:10:47.000Z</time>
      </trkpt>
      <trkpt lat="47.24627" lon="-1.62595">
        <ele>98</ele>
        <time>2021-04-12T13:10:49.000Z</time>
      </trkpt>
      <trkpt lat="47.24632" lon="-1.6261">
        <ele>98</ele>
        <time>2021-04-12T13:10:51.000Z</time>
      </trkpt>
      <trkpt lat="47.24637" lon="-1.62625">
        <ele>97</ele>
        <time>2021-04-12T13:10:53.000Z</time>
      </trkpt>
      <trkpt lat="47.24641" lon="-1.6264">
        <ele>98</ele>
        <time>2021-04-12T13:10:55.000Z</time>
      </trkpt>
      <trkpt lat="47.24645" lon="-1.62658">
        <ele>98</ele>
        <time>2021-04-12T13:10:57.000Z</time>
      </trkpt>
      <trkpt lat="47.24648" lon="-1.62674">
        <ele>99</ele>
        <time>2021-04-12T13:10:59.000Z</time>
      </trkpt>
      <trkpt lat="47.24651" lon="-1.6269">
        <ele>99</ele>
        <time>2021-04-12T13:11:01.000Z</time>
      </trkpt>
      <trkpt lat="47.24655" lon="-1.62705">
        <ele>100</ele>
        <time>2021-04-12T13:11:03.000Z</time>
      </trkpt>
      <trkpt lat="47.24658" lon="-1.6272">
        <ele>100</ele>
        <time>2021-04-12T13:11:05.000Z</time>
      </trkpt>
      <trkpt lat="47.24661" lon="-1.62734">
        <ele>101</ele>
        <time>2021-04-12T13:11:07.000Z</time>
      </trkpt>
      <trkpt lat="47.24664" lon="-1.62749">
        <ele>102</ele>
        <time>2021-04-12T13:11:09.000Z</time>
      </trkpt>
      <trkpt lat="47.24668" lon="-1.62764">
        <ele>102</ele>
        <time>2021-04-12T13:11:11.000Z</time>
      </trkpt>
      <trkpt lat="47.24671" lon="-1.6278">
        <ele>102</ele>
        <time>2021-04-12T13:11:13.000Z</time>
      </trkpt>
      <trkpt lat="47.24674" lon="-1.62794">
        <ele>102</ele>
        <time>2021-04-12T13:11:15.000Z</time>
      </trkpt>
      <trkpt lat="47.24677" lon="-1.62809">
        <ele>103</ele>
        <time>2021-04-12T13:11:17.000Z</time>
      </trkpt>
      <trkpt lat="47.2468" lon="-1.62824">
        <ele>103</ele>
        <time>2021-04-12T13:11:19.000Z</time>
      </trkpt>
      <trkpt lat="47.24683" lon="-1.62838">
        <ele>103</ele>
        <time>2021-04-12T13:11:21.000Z</time>
      </trkpt>
      <trkpt lat="47.24687" lon="-1.62853">
        <ele>104</ele>
        <time>2021-04-12T13:11:23.000Z</time>
      </trkpt>
      <trkpt lat="47.2469" lon="-1.62867">
        <ele>103</ele>
        <time>2021-04-12T13:11:25.000Z</time>
      </trkpt>
      <trkpt lat="47.24694" lon="-1.62882">
        <ele>103</ele>
        <time>2021-04-12T13:11:27.000Z</time>
      </trkpt>
      <trkpt lat="47.24699" lon="-1.62898">
        <ele>103</ele>
        <time>2021-04-12T13:11:29.000Z</time>
      </trkpt>
      <trkpt lat="47.24704" lon="-1.62913">
        <ele>103</ele>
        <time>2021-04-12T13:11:31.000Z</time>
      </trkpt>
      <trkpt lat="47.24709" lon="-1.62929">
        <ele>103</ele>
        <time>2021-04-12T13:11:33.000Z</time>
      </trkpt>
      <trkpt lat="47.24714" lon="-1.62944">
        <ele>103</ele>
        <time>2021-04-12T13:11:35.000Z</time>
      </trkpt>
      <trkpt lat="47.24718" lon="-1.62959">
        <ele>103</ele>
        <time>2021-04-12T13:11:37.000Z</time>
      </trkpt>
      <trkpt lat="47.24723" lon="-1.62975">
        <ele>103</ele>
        <time>2021-04-12T13:11:39.000Z</time>
      </trkpt>
      <trkpt lat="47.24727" lon="-1.62993">
        <ele>103</ele>
        <time>2021-04-12T13:11:41.000Z</time>
      </trkpt>
      <trkpt lat="47.24733" lon="-1.6301">
        <ele>103</ele>
        <time>2021-04-12T13:11:43.000Z</time>
      </trkpt>
      <trkpt lat="47.24738" lon="-1.63027">
        <ele>103</ele>
        <time>2021-04-12T13:11:45.000Z</time>
      </trkpt>
      <trkpt lat="47.24743" lon="-1.63044">
        <ele>103</ele>
        <time>2021-04-12T13:11:47.000Z</time>
      </trkpt>
      <trkpt lat="47.24748" lon="-1.63061">
        <ele>103</ele>
        <time>2021-04-12T13:11:49.000Z</time>
      </trkpt>
      <trkpt lat="47.24753" lon="-1.63078">
        <ele>103</ele>
        <time>2021-04-12T13:11:51.000Z</time>
      </trkpt>
      <trkpt lat="47.24758" lon="-1.63096">
        <ele>102</ele>
        <time>2021-04-12T13:11:53.000Z</time>
      </trkpt>
      <trkpt lat="47.24763" lon="-1.63112">
        <ele>102</ele>
        <time>2021-04-12T13:11:55.000Z</time>
      </trkpt>
      <trkpt lat="47.24768" lon="-1.63128">
        <ele>101</ele>
        <time>2021-04-12T13:11:57.000Z</time>
      </trkpt>
      <trkpt lat="47.24773" lon="-1.63145">
        <ele>101</ele>
        <time>2021-04-12T13:11:59.000Z</time>
      </trkpt>
      <trkpt lat="47.24777" lon="-1.63163">
        <ele>101</ele>
        <time>2021-04-12T13:12:01.000Z</time>
      </trkpt>
      <trkpt lat="47.24782" lon="-1.63181">
        <ele>101</ele>
        <time>2021-04-12T13:12:03.000Z</time>
      </trkpt>
      <trkpt lat="47.24787" lon="-1.63198">
        <ele>101</ele>
        <time>2021-04-12T13:12:05.000Z</time>
      </trkpt>
      <trkpt lat="47.24793" lon="-1.63214">
        <ele>102</ele>
        <time>2021-04-12T13:12:07.000Z</time>
      </trkpt>
      <trkpt lat="47.24798" lon="-1.6323">
        <ele>103</ele>
        <time>2021-04-12T13:12:09.000Z</time>
      </trkpt>
      <trkpt lat="47.24803" lon="-1.63246">
        <ele>103</ele>
        <time>2021-04-12T13:12:11.000Z</time>
      </trkpt>
      <trkpt lat="47.24809" lon="-1.63263">
        <ele>103</ele>
        <time>2021-04-12T13:12:13.000Z</time>
      </trkpt>
      <trkpt lat="47.24814" lon="-1.63279">
        <ele>103</ele>
        <time>2021-04-12T13:12:15.000Z</time>
      </trkpt>
      <trkpt lat="47.2482" lon="-1.63295">
        <ele>104</ele>
        <time>2021-04-12T13:12:17.000Z</time>
      </trkpt>
      <trkpt lat="47.24826" lon="-1.6331">
        <ele>104</ele>
        <time>2021-04-12T13:12:19.000Z</time>
      </trkpt>
      <trkpt lat="47.24833" lon="-1.63326">
        <ele>103</ele>
        <time>2021-04-12T13:12:21.000Z</time>
      </trkpt>
      <trkpt lat="47.24839" lon="-1.63342">
        <ele>103</ele>
        <time>2021-04-12T13:12:23.000Z</time>
      </trkpt>
      <trkpt lat="47.24846" lon="-1.63357">
        <ele>102</ele>
        <time>2021-04-12T13:12:25.000Z</time>
      </trkpt>
      <trkpt lat="47.24852" lon="-1.63372">
        <ele>101</ele>
        <time>2021-04-12T13:12:27.000Z</time>
      </trkpt>
      <trkpt lat="47.24858" lon="-1.63386">
        <ele>101</ele>
        <time>2021-04-12T13:12:29.000Z</time>
      </trkpt>
      <trkpt lat="47.24864" lon="-1.63399">
        <ele>101</ele>
        <time>2021-04-12T13:12:31.000Z</time>
      </trkpt>
      <trkpt lat="47.24871" lon="-1.63412">
        <ele>101</ele>
        <time>2021-04-12T13:12:34.000Z</time>
      </trkpt>
      <trkpt lat="47.24878" lon="-1.63424">
        <ele>101</ele>
        <time>2021-04-12T13:12:39.000Z</time>
      </trkpt>
      <trkpt lat="47.24883" lon="-1.63438">
        <ele>102</ele>
        <time>2021-04-12T13:12:42.000Z</time>
      </trkpt>
      <trkpt lat="47.24886" lon="-1.63451">
        <ele>102</ele>
        <time>2021-04-12T13:12:44.000Z</time>
      </trkpt>
      <trkpt lat="47.24896" lon="-1.63451">
        <ele>101</ele>
        <time>2021-04-12T13:12:47.000Z</time>
      </trkpt>
      <trkpt lat="47.24905" lon="-1.63442">
        <ele>101</ele>
        <time>2021-04-12T13:12:49.000Z</time>
      </trkpt>
      <trkpt lat="47.24915" lon="-1.63433">
        <ele>100</ele>
        <time>2021-04-12T13:12:51.000Z</time>
      </trkpt>
      <trkpt lat="47.24925" lon="-1.63423">
        <ele>101</ele>
        <time>2021-04-12T13:12:53.000Z</time>
      </trkpt>
      <trkpt lat="47.24934" lon="-1.63414">
        <ele>101</ele>
        <time>2021-04-12T13:12:55.000Z</time>
      </trkpt>
      <trkpt lat="47.24944" lon="-1.63405">
        <ele>101</ele>
        <time>2021-04-12T13:12:57.000Z</time>
      </trkpt>
      <trkpt lat="47.24954" lon="-1.63396">
        <ele>101</ele>
        <time>2021-04-12T13:12:59.000Z</time>
      </trkpt>
      <trkpt lat="47.24963" lon="-1.63388">
        <ele>102</ele>
        <time>2021-04-12T13:13:01.000Z</time>
      </trkpt>
      <trkpt lat="47.24973" lon="-1.6338">
        <ele>101</ele>
        <time>2021-04-12T13:13:03.000Z</time>
      </trkpt>
      <trkpt lat="47.24983" lon="-1.63372">
        <ele>102</ele>
        <time>2021-04-12T13:13:05.000Z</time>
      </trkpt>
      <trkpt lat="47.24993" lon="-1.63364">
        <ele>101</ele>
        <time>2021-04-12T13:13:07.000Z</time>
      </trkpt>
      <trkpt lat="47.25003" lon="-1.63356">
        <ele>102</ele>
        <time>2021-04-12T13:13:09.000Z</time>
      </trkpt>
      <trkpt lat="47.25014" lon="-1.63347">
        <ele>102</ele>
        <time>2021-04-12T13:13:11.000Z</time>
      </trkpt>
      <trkpt lat="47.25024" lon="-1.63338">
        <ele>102</ele>
        <time>2021-04-12T13:13:13.000Z</time>
      </trkpt>
      <trkpt lat="47.25034" lon="-1.63329">
        <ele>102</ele>
        <time>2021-04-12T13:13:15.000Z</time>
      </trkpt>
      <trkpt lat="47.25044" lon="-1.6332">
        <ele>102</ele>
        <time>2021-04-12T13:13:17.000Z</time>
      </trkpt>
      <trkpt lat="47.25054" lon="-1.63312">
        <ele>103</ele>
        <time>2021-04-12T13:13:19.000Z</time>
      </trkpt>
      <trkpt lat="47.25065" lon="-1.63303">
        <ele>103</ele>
        <time>2021-04-12T13:13:21.000Z</time>
      </trkpt>
      <trkpt lat="47.25075" lon="-1.63295">
        <ele>104</ele>
        <time>2021-04-12T13:13:23.000Z</time>
      </trkpt>
      <trkpt lat="47.25085" lon="-1.63287">
        <ele>104</ele>
        <time>2021-04-12T13:13:25.000Z</time>
      </trkpt>
      <trkpt lat="47.25096" lon="-1.63278">
        <ele>104</ele>
        <time>2021-04-12T13:13:27.000Z</time>
      </trkpt>
      <trkpt lat="47.25106" lon="-1.6327">
        <ele>104</ele>
        <time>2021-04-12T13:13:29.000Z</time>
      </trkpt>
      <trkpt lat="47.25116" lon="-1.63262">
        <ele>104</ele>
        <time>2021-04-12T13:13:31.000Z</time>
      </trkpt>
      <trkpt lat="47.25127" lon="-1.63254">
        <ele>104</ele>
        <time>2021-04-12T13:13:33.000Z</time>
      </trkpt>
      <trkpt lat="47.25137" lon="-1.63246">
        <ele>104</ele>
        <time>2021-04-12T13:13:35.000Z</time>
      </trkpt>
      <trkpt lat="47.25147" lon="-1.63237">
        <ele>103</ele>
        <time>2021-04-12T13:13:37.000Z</time>
      </trkpt>
      <trkpt lat="47.25157" lon="-1.63229">
        <ele>104</ele>
        <time>2021-04-12T13:13:39.000Z</time>
      </trkpt>
      <trkpt lat="47.25167" lon="-1.6322">
        <ele>104</ele>
        <time>2021-04-12T13:13:41.000Z</time>
      </trkpt>
      <trkpt lat="47.25177" lon="-1.63212">
        <ele>104</ele>
        <time>2021-04-12T13:13:43.000Z</time>
      </trkpt>
      <trkpt lat="47.25187" lon="-1.63205">
        <ele>104</ele>
        <time>2021-04-12T13:13:45.000Z</time>
      </trkpt>
      <trkpt lat="47.25197" lon="-1.63196">
        <ele>104</ele>
        <time>2021-04-12T13:13:47.000Z</time>
      </trkpt>
      <trkpt lat="47.25207" lon="-1.63188">
        <ele>104</ele>
        <time>2021-04-12T13:13:49.000Z</time>
      </trkpt>
      <trkpt lat="47.25217" lon="-1.6318">
        <ele>105</ele>
        <time>2021-04-12T13:13:51.000Z</time>
      </trkpt>
      <trkpt lat="47.25226" lon="-1.63172">
        <ele>105</ele>
        <time>2021-04-12T13:13:53.000Z</time>
      </trkpt>
      <trkpt lat="47.25236" lon="-1.63164">
        <ele>105</ele>
        <time>2021-04-12T13:13:55.000Z</time>
      </trkpt>
      <trkpt lat="47.25246" lon="-1.63156">
        <ele>105</ele>
        <time>2021-04-12T13:13:57.000Z</time>
      </trkpt>
      <trkpt lat="47.25256" lon="-1.63149">
        <ele>105</ele>
        <time>2021-04-12T13:13:59.000Z</time>
      </trkpt>
      <trkpt lat="47.25266" lon="-1.63141">
        <ele>105</ele>
        <time>2021-04-12T13:14:01.000Z</time>
      </trkpt>
      <trkpt lat="47.25276" lon="-1.63133">
        <ele>105</ele>
        <time>2021-04-12T13:14:03.000Z</time>
      </trkpt>
      <trkpt lat="47.25285" lon="-1.63124">
        <ele>105</ele>
        <time>2021-04-12T13:14:05.000Z</time>
      </trkpt>
      <trkpt lat="47.25295" lon="-1.63115">
        <ele>105</ele>
        <time>2021-04-12T13:14:07.000Z</time>
      </trkpt>
      <trkpt lat="47.25305" lon="-1.63107">
        <ele>105</ele>
        <time>2021-04-12T13:14:09.000Z</time>
      </trkpt>
      <trkpt lat="47.25315" lon="-1.63099">
        <ele>105</ele>
        <time>2021-04-12T13:14:11.000Z</time>
      </trkpt>
      <trkpt lat="47.25324" lon="-1.6309">
        <ele>106</ele>
        <time>2021-04-12T13:14:13.000Z</time>
      </trkpt>
      <trkpt lat="47.25334" lon="-1.63081">
        <ele>106</ele>
        <time>2021-04-12T13:14:15.000Z</time>
      </trkpt>
      <trkpt lat="47.25343" lon="-1.63072">
        <ele>106</ele>
        <time>2021-04-12T13:14:17.000Z</time>
      </trkpt>
      <trkpt lat="47.25352" lon="-1.63063">
        <ele>106</ele>
        <time>2021-04-12T13:14:19.000Z</time>
      </trkpt>
      <trkpt lat="47.25361" lon="-1.63055">
        <ele>106</ele>
        <time>2021-04-12T13:14:21.000Z</time>
      </trkpt>
      <trkpt lat="47.2537" lon="-1.63046">
        <ele>106</ele>
        <time>2021-04-12T13:14:23.000Z</time>
      </trkpt>
      <trkpt lat="47.25379" lon="-1.63037">
        <ele>106</ele>
        <time>2021-04-12T13:14:25.000Z</time>
      </trkpt>
      <trkpt lat="47.25388" lon="-1.63029">
        <ele>106</ele>
        <time>2021-04-12T13:14:27.000Z</time>
      </trkpt>
      <trkpt lat="47.25397" lon="-1.6302">
        <ele>106</ele>
        <time>2021-04-12T13:14:29.000Z</time>
      </trkpt>
      <trkpt lat="47.25405" lon="-1.63012">
        <ele>106</ele>
        <time>2021-04-12T13:14:31.000Z</time>
      </trkpt>
      <trkpt lat="47.25413" lon="-1.63004">
        <ele>105</ele>
        <time>2021-04-12T13:14:33.000Z</time>
      </trkpt>
      <trkpt lat="47.25421" lon="-1.62997">
        <ele>106</ele>
        <time>2021-04-12T13:14:35.000Z</time>
      </trkpt>
      <trkpt lat="47.25432" lon="-1.62987">
        <ele>105</ele>
        <time>2021-04-12T13:14:38.000Z</time>
      </trkpt>
      <trkpt lat="47.25443" lon="-1.62979">
        <ele>105</ele>
        <time>2021-04-12T13:14:41.000Z</time>
      </trkpt>
      <trkpt lat="47.25452" lon="-1.62975">
        <ele>105</ele>
        <time>2021-04-12T13:14:44.000Z</time>
      </trkpt>
      <trkpt lat="47.25462" lon="-1.62978">
        <ele>106</ele>
        <time>2021-04-12T13:14:49.000Z</time>
      </trkpt>
      <trkpt lat="47.25469" lon="-1.62988">
        <ele>105</ele>
        <time>2021-04-12T13:14:55.000Z</time>
      </trkpt>
      <trkpt lat="47.25477" lon="-1.62994">
        <ele>105</ele>
        <time>2021-04-12T13:15:20.000Z</time>
      </trkpt>
      <trkpt lat="47.25483" lon="-1.62981">
        <ele>105</ele>
        <time>2021-04-12T13:15:24.000Z</time>
      </trkpt>
      <trkpt lat="47.25479" lon="-1.62969">
        <ele>106</ele>
        <time>2021-04-12T13:15:31.000Z</time>
      </trkpt>
      <trkpt lat="47.25478" lon="-1.62953">
        <ele>107</ele>
        <time>2021-04-12T13:15:37.000Z</time>
      </trkpt>
      <trkpt lat="47.25481" lon="-1.62937">
        <ele>106</ele>
        <time>2021-04-12T13:15:40.000Z</time>
      </trkpt>
      <trkpt lat="47.25482" lon="-1.62922">
        <ele>106</ele>
        <time>2021-04-12T13:15:43.000Z</time>
      </trkpt>
      <trkpt lat="47.25486" lon="-1.62908">
        <ele>106</ele>
        <time>2021-04-12T13:15:51.000Z</time>
      </trkpt>
      <trkpt lat="47.25479" lon="-1.62892">
        <ele>105</ele>
        <time>2021-04-12T13:15:54.000Z</time>
      </trkpt>
      <trkpt lat="47.25484" lon="-1.62877">
        <ele>106</ele>
        <time>2021-04-12T13:15:57.000Z</time>
      </trkpt>
      <trkpt lat="47.25493" lon="-1.62871">
        <ele>107</ele>
        <time>2021-04-12T13:15:59.000Z</time>
      </trkpt>
      <trkpt lat="47.25502" lon="-1.62864">
        <ele>108</ele>
        <time>2021-04-12T13:16:01.000Z</time>
      </trkpt>
      <trkpt lat="47.25512" lon="-1.62855">
        <ele>109</ele>
        <time>2021-04-12T13:16:03.000Z</time>
      </trkpt>
      <trkpt lat="47.25522" lon="-1.6285">
        <ele>111</ele>
        <time>2021-04-12T13:16:05.000Z</time>
      </trkpt>
      <trkpt lat="47.25532" lon="-1.62843">
        <ele>111</ele>
        <time>2021-04-12T13:16:07.000Z</time>
      </trkpt>
      <trkpt lat="47.25543" lon="-1.62837">
        <ele>112</ele>
        <time>2021-04-12T13:16:09.000Z</time>
      </trkpt>
      <trkpt lat="47.25552" lon="-1.6283">
        <ele>113</ele>
        <time>2021-04-12T13:16:11.000Z</time>
      </trkpt>
      <trkpt lat="47.25562" lon="-1.62825">
        <ele>112</ele>
        <time>2021-04-12T13:16:13.000Z</time>
      </trkpt>
      <trkpt lat="47.25573" lon="-1.62819">
        <ele>111</ele>
        <time>2021-04-12T13:16:15.000Z</time>
      </trkpt>
      <trkpt lat="47.25584" lon="-1.62813">
        <ele>110</ele>
        <time>2021-04-12T13:16:17.000Z</time>
      </trkpt>
      <trkpt lat="47.25594" lon="-1.62804">
        <ele>110</ele>
        <time>2021-04-12T13:16:19.000Z</time>
      </trkpt>
      <trkpt lat="47.25604" lon="-1.62796">
        <ele>109</ele>
        <time>2021-04-12T13:16:21.000Z</time>
      </trkpt>
      <trkpt lat="47.25614" lon="-1.62787">
        <ele>110</ele>
        <time>2021-04-12T13:16:23.000Z</time>
      </trkpt>
      <trkpt lat="47.25624" lon="-1.62776">
        <ele>109</ele>
        <time>2021-04-12T13:16:25.000Z</time>
      </trkpt>
      <trkpt lat="47.25633" lon="-1.62763">
        <ele>109</ele>
        <time>2021-04-12T13:16:27.000Z</time>
      </trkpt>
      <trkpt lat="47.25642" lon="-1.62747">
        <ele>111</ele>
        <time>2021-04-12T13:16:29.000Z</time>
      </trkpt>
      <trkpt lat="47.25651" lon="-1.62734">
        <ele>110</ele>
        <time>2021-04-12T13:16:31.000Z</time>
      </trkpt>
      <trkpt lat="47.25659" lon="-1.62722">
        <ele>110</ele>
        <time>2021-04-12T13:16:33.000Z</time>
      </trkpt>
      <trkpt lat="47.25667" lon="-1.62708">
        <ele>109</ele>
        <time>2021-04-12T13:16:35.000Z</time>
      </trkpt>
      <trkpt lat="47.25674" lon="-1.62694">
        <ele>109</ele>
        <time>2021-04-12T13:16:37.000Z</time>
      </trkpt>
      <trkpt lat="47.25682" lon="-1.6268">
        <ele>108</ele>
        <time>2021-04-12T13:16:39.000Z</time>
      </trkpt>
      <trkpt lat="47.25691" lon="-1.62666">
        <ele>108</ele>
        <time>2021-04-12T13:16:41.000Z</time>
      </trkpt>
      <trkpt lat="47.25699" lon="-1.62652">
        <ele>108</ele>
        <time>2021-04-12T13:16:43.000Z</time>
      </trkpt>
      <trkpt lat="47.25707" lon="-1.62638">
        <ele>107</ele>
        <time>2021-04-12T13:16:45.000Z</time>
      </trkpt>
      <trkpt lat="47.25715" lon="-1.62623">
        <ele>107</ele>
        <time>2021-04-12T13:16:47.000Z</time>
      </trkpt>
      <trkpt lat="47.25724" lon="-1.62608">
        <ele>107</ele>
        <time>2021-04-12T13:16:49.000Z</time>
      </trkpt>
      <trkpt lat="47.25731" lon="-1.62594">
        <ele>107</ele>
        <time>2021-04-12T13:16:51.000Z</time>
      </trkpt>
      <trkpt lat="47.25739" lon="-1.62579">
        <ele>107</ele>
        <time>2021-04-12T13:16:53.000Z</time>
      </trkpt>
      <trkpt lat="47.25747" lon="-1.62564">
        <ele>106</ele>
        <time>2021-04-12T13:16:55.000Z</time>
      </trkpt>
      <trkpt lat="47.25755" lon="-1.62549">
        <ele>106</ele>
        <time>2021-04-12T13:16:57.000Z</time>
      </trkpt>
      <trkpt lat="47.25762" lon="-1.62534">
        <ele>106</ele>
        <time>2021-04-12T13:16:59.000Z</time>
      </trkpt>
      <trkpt lat="47.2577" lon="-1.6252">
        <ele>106</ele>
        <time>2021-04-12T13:17:01.000Z</time>
      </trkpt>
      <trkpt lat="47.25777" lon="-1.62505">
        <ele>106</ele>
        <time>2021-04-12T13:17:03.000Z</time>
      </trkpt>
      <trkpt lat="47.25784" lon="-1.62492">
        <ele>106</ele>
        <time>2021-04-12T13:17:05.000Z</time>
      </trkpt>
      <trkpt lat="47.25792" lon="-1.62479">
        <ele>105</ele>
        <time>2021-04-12T13:17:07.000Z</time>
      </trkpt>
      <trkpt lat="47.25798" lon="-1.62464">
        <ele>105</ele>
        <time>2021-04-12T13:17:09.000Z</time>
      </trkpt>
      <trkpt lat="47.258" lon="-1.62447">
        <ele>106</ele>
        <time>2021-04-12T13:17:11.000Z</time>
      </trkpt>
      <trkpt lat="47.25801" lon="-1.6243">
        <ele>106</ele>
        <time>2021-04-12T13:17:13.000Z</time>
      </trkpt>
      <trkpt lat="47.25802" lon="-1.62414">
        <ele>106</ele>
        <time>2021-04-12T13:17:15.000Z</time>
      </trkpt>
      <trkpt lat="47.25802" lon="-1.62397">
        <ele>106</ele>
        <time>2021-04-12T13:17:17.000Z</time>
      </trkpt>
      <trkpt lat="47.25799" lon="-1.62381">
        <ele>106</ele>
        <time>2021-04-12T13:17:19.000Z</time>
      </trkpt>
      <trkpt lat="47.25793" lon="-1.62365">
        <ele>106</ele>
        <time>2021-04-12T13:17:21.000Z</time>
      </trkpt>
      <trkpt lat="47.25787" lon="-1.62349">
        <ele>105</ele>
        <time>2021-04-12T13:17:23.000Z</time>
      </trkpt>
      <trkpt lat="47.25781" lon="-1.62333">
        <ele>104</ele>
        <time>2021-04-12T13:17:25.000Z</time>
      </trkpt>
      <trkpt lat="47.25771" lon="-1.62321">
        <ele>104</ele>
        <time>2021-04-12T13:17:27.000Z</time>
      </trkpt>
      <trkpt lat="47.25761" lon="-1.62311">
        <ele>105</ele>
        <time>2021-04-12T13:17:29.000Z</time>
      </trkpt>
      <trkpt lat="47.25756" lon="-1.62294">
        <ele>104</ele>
        <time>2021-04-12T13:17:31.000Z</time>
      </trkpt>
      <trkpt lat="47.25755" lon="-1.62277">
        <ele>104</ele>
        <time>2021-04-12T13:17:33.000Z</time>
      </trkpt>
      <trkpt lat="47.2575" lon="-1.62261">
        <ele>104</ele>
        <time>2021-04-12T13:17:35.000Z</time>
      </trkpt>
      <trkpt lat="47.25742" lon="-1.62247">
        <ele>104</ele>
        <time>2021-04-12T13:17:37.000Z</time>
      </trkpt>
      <trkpt lat="47.25734" lon="-1.62232">
        <ele>104</ele>
        <time>2021-04-12T13:17:39.000Z</time>
      </trkpt>
      <trkpt lat="47.25727" lon="-1.62217">
        <ele>104</ele>
        <time>2021-04-12T13:17:41.000Z</time>
      </trkpt>
      <trkpt lat="47.2572" lon="-1.62202">
        <ele>104</ele>
        <time>2021-04-12T13:17:43.000Z</time>
      </trkpt>
      <trkpt lat="47.25712" lon="-1.62186">
        <ele>103</ele>
        <time>2021-04-12T13:17:45.000Z</time>
      </trkpt>
      <trkpt lat="47.25704" lon="-1.62171">
        <ele>102</ele>
        <time>2021-04-12T13:17:47.000Z</time>
      </trkpt>
      <trkpt lat="47.25697" lon="-1.62156">
        <ele>102</ele>
        <time>2021-04-12T13:17:49.000Z</time>
      </trkpt>
      <trkpt lat="47.25689" lon="-1.6214">
        <ele>102</ele>
        <time>2021-04-12T13:17:51.000Z</time>
      </trkpt>
      <trkpt lat="47.25682" lon="-1.62123">
        <ele>101</ele>
        <time>2021-04-12T13:17:53.000Z</time>
      </trkpt>
      <trkpt lat="47.25673" lon="-1.62105">
        <ele>100</ele>
        <time>2021-04-12T13:17:55.000Z</time>
      </trkpt>
      <trkpt lat="47.25663" lon="-1.62086">
        <ele>99</ele>
        <time>2021-04-12T13:17:57.000Z</time>
      </trkpt>
      <trkpt lat="47.25653" lon="-1.62067">
        <ele>98</ele>
        <time>2021-04-12T13:17:59.000Z</time>
      </trkpt>
      <trkpt lat="47.2564" lon="-1.62052">
        <ele>97</ele>
        <time>2021-04-12T13:18:01.000Z</time>
      </trkpt>
      <trkpt lat="47.25625" lon="-1.62047">
        <ele>96</ele>
        <time>2021-04-12T13:18:03.000Z</time>
      </trkpt>
      <trkpt lat="47.25609" lon="-1.62046">
        <ele>97</ele>
        <time>2021-04-12T13:18:05.000Z</time>
      </trkpt>
      <trkpt lat="47.25595" lon="-1.62043">
        <ele>97</ele>
        <time>2021-04-12T13:18:07.000Z</time>
      </trkpt>
      <trkpt lat="47.25585" lon="-1.62031">
        <ele>98</ele>
        <time>2021-04-12T13:18:09.000Z</time>
      </trkpt>
      <trkpt lat="47.25581" lon="-1.62017">
        <ele>97</ele>
        <time>2021-04-12T13:18:11.000Z</time>
      </trkpt>
      <trkpt lat="47.2558" lon="-1.62002">
        <ele>97</ele>
        <time>2021-04-12T13:18:13.000Z</time>
      </trkpt>
      <trkpt lat="47.2558" lon="-1.61985">
        <ele>97</ele>
        <time>2021-04-12T13:18:15.000Z</time>
      </trkpt>
      <trkpt lat="47.25584" lon="-1.61967">
        <ele>96</ele>
        <time>2021-04-12T13:18:17.000Z</time>
      </trkpt>
      <trkpt lat="47.25583" lon="-1.61947">
        <ele>95</ele>
        <time>2021-04-12T13:18:19.000Z</time>
      </trkpt>
      <trkpt lat="47.25576" lon="-1.6193">
        <ele>95</ele>
        <time>2021-04-12T13:18:21.000Z</time>
      </trkpt>
      <trkpt lat="47.25567" lon="-1.61915">
        <ele>95</ele>
        <time>2021-04-12T13:18:23.000Z</time>
      </trkpt>
      <trkpt lat="47.25557" lon="-1.619">
        <ele>95</ele>
        <time>2021-04-12T13:18:25.000Z</time>
      </trkpt>
      <trkpt lat="47.25549" lon="-1.61884">
        <ele>95</ele>
        <time>2021-04-12T13:18:27.000Z</time>
      </trkpt>
      <trkpt lat="47.25539" lon="-1.61867">
        <ele>95</ele>
        <time>2021-04-12T13:18:29.000Z</time>
      </trkpt>
      <trkpt lat="47.2553" lon="-1.61848">
        <ele>93</ele>
        <time>2021-04-12T13:18:31.000Z</time>
      </trkpt>
      <trkpt lat="47.25521" lon="-1.61828">
        <ele>93</ele>
        <time>2021-04-12T13:18:33.000Z</time>
      </trkpt>
      <trkpt lat="47.25512" lon="-1.61809">
        <ele>93</ele>
        <time>2021-04-12T13:18:35.000Z</time>
      </trkpt>
      <trkpt lat="47.25503" lon="-1.6179">
        <ele>92</ele>
        <time>2021-04-12T13:18:37.000Z</time>
      </trkpt>
      <trkpt lat="47.25494" lon="-1.61771">
        <ele>91</ele>
        <time>2021-04-12T13:18:39.000Z</time>
      </trkpt>
      <trkpt lat="47.25485" lon="-1.61754">
        <ele>90</ele>
        <time>2021-04-12T13:18:41.000Z</time>
      </trkpt>
      <trkpt lat="47.25478" lon="-1.61737">
        <ele>90</ele>
        <time>2021-04-12T13:18:43.000Z</time>
      </trkpt>
      <trkpt lat="47.25472" lon="-1.61718">
        <ele>90</ele>
        <time>2021-04-12T13:18:45.000Z</time>
      </trkpt>
      <trkpt lat="47.25467" lon="-1.61698">
        <ele>89</ele>
        <time>2021-04-12T13:18:47.000Z</time>
      </trkpt>
      <trkpt lat="47.25462" lon="-1.61678">
        <ele>88</ele>
        <time>2021-04-12T13:18:49.000Z</time>
      </trkpt>
      <trkpt lat="47.25458" lon="-1.61659">
        <ele>88</ele>
        <time>2021-04-12T13:18:51.000Z</time>
      </trkpt>
      <trkpt lat="47.25453" lon="-1.61639">
        <ele>88</ele>
        <time>2021-04-12T13:18:53.000Z</time>
      </trkpt>
      <trkpt lat="47.25449" lon="-1.6162">
        <ele>87</ele>
        <time>2021-04-12T13:18:55.000Z</time>
      </trkpt>
      <trkpt lat="47.25444" lon="-1.61601">
        <ele>87</ele>
        <time>2021-04-12T13:18:57.000Z</time>
      </trkpt>
      <trkpt lat="47.2544" lon="-1.61584">
        <ele>87</ele>
        <time>2021-04-12T13:18:59.000Z</time>
      </trkpt>
      <trkpt lat="47.25436" lon="-1.61568">
        <ele>87</ele>
        <time>2021-04-12T13:19:01.000Z</time>
      </trkpt>
      <trkpt lat="47.25431" lon="-1.61555">
        <ele>86</ele>
        <time>2021-04-12T13:19:03.000Z</time>
      </trkpt>
      <trkpt lat="47.25421" lon="-1.61545">
        <ele>86</ele>
        <time>2021-04-12T13:19:05.000Z</time>
      </trkpt>
      <trkpt lat="47.25413" lon="-1.6153">
        <ele>87</ele>
        <time>2021-04-12T13:19:07.000Z</time>
      </trkpt>
      <trkpt lat="47.25405" lon="-1.61515">
        <ele>88</ele>
        <time>2021-04-12T13:19:09.000Z</time>
      </trkpt>
      <trkpt lat="47.25399" lon="-1.61498">
        <ele>88</ele>
        <time>2021-04-12T13:19:11.000Z</time>
      </trkpt>
      <trkpt lat="47.25399" lon="-1.6148">
        <ele>88</ele>
        <time>2021-04-12T13:19:13.000Z</time>
      </trkpt>
      <trkpt lat="47.25393" lon="-1.61463">
        <ele>88</ele>
        <time>2021-04-12T13:19:15.000Z</time>
      </trkpt>
      <trkpt lat="47.25385" lon="-1.61448">
        <ele>89</ele>
        <time>2021-04-12T13:19:17.000Z</time>
      </trkpt>
      <trkpt lat="47.25378" lon="-1.61433">
        <ele>88</ele>
        <time>2021-04-12T13:19:19.000Z</time>
      </trkpt>
      <trkpt lat="47.25371" lon="-1.61418">
        <ele>88</ele>
        <time>2021-04-12T13:19:21.000Z</time>
      </trkpt>
      <trkpt lat="47.25364" lon="-1.61403">
        <ele>89</ele>
        <time>2021-04-12T13:19:23.000Z</time>
      </trkpt>
      <trkpt lat="47.25356" lon="-1.61389">
        <ele>89</ele>
        <time>2021-04-12T13:19:25.000Z</time>
      </trkpt>
      <trkpt lat="47.25348" lon="-1.61374">
        <ele>89</ele>
        <time>2021-04-12T13:19:27.000Z</time>
      </trkpt>
      <trkpt lat="47.25341" lon="-1.61359">
        <ele>89</ele>
        <time>2021-04-12T13:19:29.000Z</time>
      </trkpt>
      <trkpt lat="47.25333" lon="-1.61344">
        <ele>89</ele>
        <time>2021-04-12T13:19:31.000Z</time>
      </trkpt>
      <trkpt lat="47.25326" lon="-1.61329">
        <ele>90</ele>
        <time>2021-04-12T13:19:33.000Z</time>
      </trkpt>
      <trkpt lat="47.25318" lon="-1.61316">
        <ele>90</ele>
        <time>2021-04-12T13:19:35.000Z</time>
      </trkpt>
      <trkpt lat="47.2531" lon="-1.61302">
        <ele>90</ele>
        <time>2021-04-12T13:19:37.000Z</time>
      </trkpt>
      <trkpt lat="47.25302" lon="-1.6129">
        <ele>90</ele>
        <time>2021-04-12T13:19:39.000Z</time>
      </trkpt>
      <trkpt lat="47.25293" lon="-1.61277">
        <ele>90</ele>
        <time>2021-04-12T13:19:41.000Z</time>
      </trkpt>
      <trkpt lat="47.25284" lon="-1.61265">
        <ele>91</ele>
        <time>2021-04-12T13:19:43.000Z</time>
      </trkpt>
      <trkpt lat="47.25275" lon="-1.61254">
        <ele>91</ele>
        <time>2021-04-12T13:19:45.000Z</time>
      </trkpt>
      <trkpt lat="47.25266" lon="-1.61242">
        <ele>91</ele>
        <time>2021-04-12T13:19:47.000Z</time>
      </trkpt>
      <trkpt lat="47.25257" lon="-1.61231">
        <ele>91</ele>
        <time>2021-04-12T13:19:49.000Z</time>
      </trkpt>
      <trkpt lat="47.25247" lon="-1.61223">
        <ele>91</ele>
        <time>2021-04-12T13:19:51.000Z</time>
      </trkpt>
      <trkpt lat="47.25236" lon="-1.61222">
        <ele>92</ele>
        <time>2021-04-12T13:19:53.000Z</time>
      </trkpt>
      <trkpt lat="47.25227" lon="-1.61213">
        <ele>92</ele>
        <time>2021-04-12T13:19:55.000Z</time>
      </trkpt>
      <trkpt lat="47.25223" lon="-1.61197">
        <ele>92</ele>
        <time>2021-04-12T13:19:57.000Z</time>
      </trkpt>
      <trkpt lat="47.25214" lon="-1.61185">
        <ele>92</ele>
        <time>2021-04-12T13:19:59.000Z</time>
      </trkpt>
      <trkpt lat="47.25204" lon="-1.61177">
        <ele>92</ele>
        <time>2021-04-12T13:20:01.000Z</time>
      </trkpt>
      <trkpt lat="47.25195" lon="-1.61168">
        <ele>92</ele>
        <time>2021-04-12T13:20:03.000Z</time>
      </trkpt>
      <trkpt lat="47.25185" lon="-1.61158">
        <ele>93</ele>
        <time>2021-04-12T13:20:05.000Z</time>
      </trkpt>
      <trkpt lat="47.25176" lon="-1.61149">
        <ele>93</ele>
        <time>2021-04-12T13:20:07.000Z</time>
      </trkpt>
      <trkpt lat="47.25167" lon="-1.6114">
        <ele>94</ele>
        <time>2021-04-12T13:20:09.000Z</time>
      </trkpt>
      <trkpt lat="47.25158" lon="-1.61132">
        <ele>94</ele>
        <time>2021-04-12T13:20:11.000Z</time>
      </trkpt>
      <trkpt lat="47.25149" lon="-1.61123">
        <ele>95</ele>
        <time>2021-04-12T13:20:13.000Z</time>
      </trkpt>
      <trkpt lat="47.2514" lon="-1.61113">
        <ele>95</ele>
        <time>2021-04-12T13:20:15.000Z</time>
      </trkpt>
      <trkpt lat="47.25131" lon="-1.61104">
        <ele>96</ele>
        <time>2021-04-12T13:20:17.000Z</time>
      </trkpt>
      <trkpt lat="47.25123" lon="-1.61094">
        <ele>96</ele>
        <time>2021-04-12T13:20:19.000Z</time>
      </trkpt>
      <trkpt lat="47.25115" lon="-1.61084">
        <ele>97</ele>
        <time>2021-04-12T13:20:21.000Z</time>
      </trkpt>
      <trkpt lat="47.25107" lon="-1.61074">
        <ele>97</ele>
        <time>2021-04-12T13:20:23.000Z</time>
      </trkpt>
      <trkpt lat="47.25099" lon="-1.61064">
        <ele>98</ele>
        <time>2021-04-12T13:20:25.000Z</time>
      </trkpt>
      <trkpt lat="47.25091" lon="-1.61053">
        <ele>98</ele>
        <time>2021-04-12T13:20:27.000Z</time>
      </trkpt>
      <trkpt lat="47.25083" lon="-1.61042">
        <ele>98</ele>
        <time>2021-04-12T13:20:29.000Z</time>
      </trkpt>
      <trkpt lat="47.25075" lon="-1.6103">
        <ele>98</ele>
        <time>2021-04-12T13:20:31.000Z</time>
      </trkpt>
      <trkpt lat="47.25068" lon="-1.61018">
        <ele>98</ele>
        <time>2021-04-12T13:20:33.000Z</time>
      </trkpt>
      <trkpt lat="47.2506" lon="-1.61006">
        <ele>99</ele>
        <time>2021-04-12T13:20:35.000Z</time>
      </trkpt>
      <trkpt lat="47.25053" lon="-1.60993">
        <ele>99</ele>
        <time>2021-04-12T13:20:37.000Z</time>
      </trkpt>
      <trkpt lat="47.25046" lon="-1.60981">
        <ele>99</ele>
        <time>2021-04-12T13:20:39.000Z</time>
      </trkpt>
      <trkpt lat="47.2504" lon="-1.60967">
        <ele>99</ele>
        <time>2021-04-12T13:20:41.000Z</time>
      </trkpt>
      <trkpt lat="47.25033" lon="-1.60954">
        <ele>99</ele>
        <time>2021-04-12T13:20:43.000Z</time>
      </trkpt>
      <trkpt lat="47.25027" lon="-1.60941">
        <ele>99</ele>
        <time>2021-04-12T13:20:45.000Z</time>
      </trkpt>
      <trkpt lat="47.25021" lon="-1.60927">
        <ele>100</ele>
        <time>2021-04-12T13:20:47.000Z</time>
      </trkpt>
      <trkpt lat="47.25015" lon="-1.60913">
        <ele>100</ele>
        <time>2021-04-12T13:20:49.000Z</time>
      </trkpt>
      <trkpt lat="47.25009" lon="-1.60898">
        <ele>100</ele>
        <time>2021-04-12T13:20:51.000Z</time>
      </trkpt>
      <trkpt lat="47.25003" lon="-1.60883">
        <ele>100</ele>
        <time>2021-04-12T13:20:53.000Z</time>
      </trkpt>
      <trkpt lat="47.24998" lon="-1.60869">
        <ele>100</ele>
        <time>2021-04-12T13:20:55.000Z</time>
      </trkpt>
      <trkpt lat="47.24992" lon="-1.60855">
        <ele>100</ele>
        <time>2021-04-12T13:20:57.000Z</time>
      </trkpt>
      <trkpt lat="47.24987" lon="-1.60843">
        <ele>100</ele>
        <time>2021-04-12T13:20:59.000Z</time>
      </trkpt>
      <trkpt lat="47.2498" lon="-1.60833">
        <ele>100</ele>
        <time>2021-04-12T13:21:01.000Z</time>
      </trkpt>
      <trkpt lat="47.24972" lon="-1.60822">
        <ele>100</ele>
        <time>2021-04-12T13:21:03.000Z</time>
      </trkpt>
      <trkpt lat="47.24967" lon="-1.60806">
        <ele>100</ele>
        <time>2021-04-12T13:21:05.000Z</time>
      </trkpt>
      <trkpt lat="47.24965" lon="-1.60789">
        <ele>100</ele>
        <time>2021-04-12T13:21:07.000Z</time>
      </trkpt>
      <trkpt lat="47.24958" lon="-1.60773">
        <ele>100</ele>
        <time>2021-04-12T13:21:09.000Z</time>
      </trkpt>
      <trkpt lat="47.24951" lon="-1.60758">
        <ele>99</ele>
        <time>2021-04-12T13:21:11.000Z</time>
      </trkpt>
      <trkpt lat="47.24945" lon="-1.60742">
        <ele>99</ele>
        <time>2021-04-12T13:21:13.000Z</time>
      </trkpt>
      <trkpt lat="47.24938" lon="-1.60725">
        <ele>99</ele>
        <time>2021-04-12T13:21:15.000Z</time>
      </trkpt>
      <trkpt lat="47.24932" lon="-1.60708">
        <ele>99</ele>
        <time>2021-04-12T13:21:17.000Z</time>
      </trkpt>
      <trkpt lat="47.24925" lon="-1.60692">
        <ele>99</ele>
        <time>2021-04-12T13:21:19.000Z</time>
      </trkpt>
      <trkpt lat="47.24918" lon="-1.60675">
        <ele>99</ele>
        <time>2021-04-12T13:21:21.000Z</time>
      </trkpt>
      <trkpt lat="47.2491" lon="-1.60658">
        <ele>99</ele>
        <time>2021-04-12T13:21:23.000Z</time>
      </trkpt>
      <trkpt lat="47.24903" lon="-1.60642">
        <ele>99</ele>
        <time>2021-04-12T13:21:25.000Z</time>
      </trkpt>
      <trkpt lat="47.24897" lon="-1.60627">
        <ele>99</ele>
        <time>2021-04-12T13:21:27.000Z</time>
      </trkpt>
      <trkpt lat="47.2489" lon="-1.6061">
        <ele>98</ele>
        <time>2021-04-12T13:21:29.000Z</time>
      </trkpt>
      <trkpt lat="47.24883" lon="-1.60594">
        <ele>98</ele>
        <time>2021-04-12T13:21:31.000Z</time>
      </trkpt>
      <trkpt lat="47.24876" lon="-1.60577">
        <ele>98</ele>
        <time>2021-04-12T13:21:33.000Z</time>
      </trkpt>
      <trkpt lat="47.24869" lon="-1.6056">
        <ele>98</ele>
        <time>2021-04-12T13:21:35.000Z</time>
      </trkpt>
      <trkpt lat="47.24862" lon="-1.60544">
        <ele>98</ele>
        <time>2021-04-12T13:21:37.000Z</time>
      </trkpt>
      <trkpt lat="47.24855" lon="-1.60528">
        <ele>98</ele>
        <time>2021-04-12T13:21:39.000Z</time>
      </trkpt>
      <trkpt lat="47.24847" lon="-1.60512">
        <ele>98</ele>
        <time>2021-04-12T13:21:41.000Z</time>
      </trkpt>
      <trkpt lat="47.2484" lon="-1.60495">
        <ele>98</ele>
        <time>2021-04-12T13:21:43.000Z</time>
      </trkpt>
      <trkpt lat="47.24833" lon="-1.60479">
        <ele>98</ele>
        <time>2021-04-12T13:21:45.000Z</time>
      </trkpt>
      <trkpt lat="47.24826" lon="-1.60462">
        <ele>98</ele>
        <time>2021-04-12T13:21:47.000Z</time>
      </trkpt>
      <trkpt lat="47.24819" lon="-1.60446">
        <ele>99</ele>
        <time>2021-04-12T13:21:49.000Z</time>
      </trkpt>
      <trkpt lat="47.24812" lon="-1.60431">
        <ele>98</ele>
        <time>2021-04-12T13:21:51.000Z</time>
      </trkpt>
      <trkpt lat="47.24804" lon="-1.60415">
        <ele>98</ele>
        <time>2021-04-12T13:21:53.000Z</time>
      </trkpt>
      <trkpt lat="47.24798" lon="-1.60398">
        <ele>98</ele>
        <time>2021-04-12T13:21:55.000Z</time>
      </trkpt>
      <trkpt lat="47.24791" lon="-1.60383">
        <ele>98</ele>
        <time>2021-04-12T13:21:57.000Z</time>
      </trkpt>
      <trkpt lat="47.24783" lon="-1.60366">
        <ele>98</ele>
        <time>2021-04-12T13:21:59.000Z</time>
      </trkpt>
      <trkpt lat="47.24776" lon="-1.6035">
        <ele>99</ele>
        <time>2021-04-12T13:22:01.000Z</time>
      </trkpt>
      <trkpt lat="47.24769" lon="-1.60334">
        <ele>99</ele>
        <time>2021-04-12T13:22:03.000Z</time>
      </trkpt>
      <trkpt lat="47.24762" lon="-1.60319">
        <ele>99</ele>
        <time>2021-04-12T13:22:05.000Z</time>
      </trkpt>
      <trkpt lat="47.24756" lon="-1.60305">
        <ele>99</ele>
        <time>2021-04-12T13:22:07.000Z</time>
      </trkpt>
      <trkpt lat="47.24749" lon="-1.60293">
        <ele>99</ele>
        <time>2021-04-12T13:22:09.000Z</time>
      </trkpt>
      <trkpt lat="47.24738" lon="-1.60283">
        <ele>100</ele>
        <time>2021-04-12T13:22:11.000Z</time>
      </trkpt>
      <trkpt lat="47.24731" lon="-1.6027">
        <ele>100</ele>
        <time>2021-04-12T13:22:13.000Z</time>
      </trkpt>
      <trkpt lat="47.24728" lon="-1.60252">
        <ele>100</ele>
        <time>2021-04-12T13:22:15.000Z</time>
      </trkpt>
      <trkpt lat="47.24723" lon="-1.60235">
        <ele>100</ele>
        <time>2021-04-12T13:22:17.000Z</time>
      </trkpt>
      <trkpt lat="47.24716" lon="-1.60219">
        <ele>100</ele>
        <time>2021-04-12T13:22:19.000Z</time>
      </trkpt>
      <trkpt lat="47.24708" lon="-1.60203">
        <ele>100</ele>
        <time>2021-04-12T13:22:21.000Z</time>
      </trkpt>
      <trkpt lat="47.24701" lon="-1.60186">
        <ele>99</ele>
        <time>2021-04-12T13:22:23.000Z</time>
      </trkpt>
      <trkpt lat="47.24693" lon="-1.60171">
        <ele>99</ele>
        <time>2021-04-12T13:22:25.000Z</time>
      </trkpt>
      <trkpt lat="47.24685" lon="-1.60156">
        <ele>99</ele>
        <time>2021-04-12T13:22:27.000Z</time>
      </trkpt>
      <trkpt lat="47.24676" lon="-1.6014">
        <ele>99</ele>
        <time>2021-04-12T13:22:29.000Z</time>
      </trkpt>
      <trkpt lat="47.24668" lon="-1.60124">
        <ele>98</ele>
        <time>2021-04-12T13:22:31.000Z</time>
      </trkpt>
      <trkpt lat="47.24659" lon="-1.60108">
        <ele>98</ele>
        <time>2021-04-12T13:22:33.000Z</time>
      </trkpt>
      <trkpt lat="47.2465" lon="-1.60094">
        <ele>97</ele>
        <time>2021-04-12T13:22:35.000Z</time>
      </trkpt>
      <trkpt lat="47.24641" lon="-1.60078">
        <ele>97</ele>
        <time>2021-04-12T13:22:37.000Z</time>
      </trkpt>
      <trkpt lat="47.24632" lon="-1.60062">
        <ele>96</ele>
        <time>2021-04-12T13:22:39.000Z</time>
      </trkpt>
      <trkpt lat="47.24623" lon="-1.60046">
        <ele>96</ele>
        <time>2021-04-12T13:22:41.000Z</time>
      </trkpt>
      <trkpt lat="47.24613" lon="-1.6003">
        <ele>95</ele>
        <time>2021-04-12T13:22:43.000Z</time>
      </trkpt>
      <trkpt lat="47.24604" lon="-1.60014">
        <ele>95</ele>
        <time>2021-04-12T13:22:45.000Z</time>
      </trkpt>
      <trkpt lat="47.24595" lon="-1.59998">
        <ele>95</ele>
        <time>2021-04-12T13:22:47.000Z</time>
      </trkpt>
      <trkpt lat="47.24585" lon="-1.59982">
        <ele>95</ele>
        <time>2021-04-12T13:22:49.000Z</time>
      </trkpt>
      <trkpt lat="47.24576" lon="-1.59967">
        <ele>94</ele>
        <time>2021-04-12T13:22:51.000Z</time>
      </trkpt>
      <trkpt lat="47.24567" lon="-1.59951">
        <ele>94</ele>
        <time>2021-04-12T13:22:53.000Z</time>
      </trkpt>
      <trkpt lat="47.24558" lon="-1.59936">
        <ele>94</ele>
        <time>2021-04-12T13:22:55.000Z</time>
      </trkpt>
      <trkpt lat="47.24549" lon="-1.59921">
        <ele>94</ele>
        <time>2021-04-12T13:22:57.000Z</time>
      </trkpt>
      <trkpt lat="47.2454" lon="-1.59906">
        <ele>94</ele>
        <time>2021-04-12T13:22:59.000Z</time>
      </trkpt>
      <trkpt lat="47.24532" lon="-1.59891">
        <ele>94</ele>
        <time>2021-04-12T13:23:01.000Z</time>
      </trkpt>
      <trkpt lat="47.24523" lon="-1.59877">
        <ele>94</ele>
        <time>2021-04-12T13:23:03.000Z</time>
      </trkpt>
      <trkpt lat="47.24513" lon="-1.59863">
        <ele>94</ele>
        <time>2021-04-12T13:23:05.000Z</time>
      </trkpt>
      <trkpt lat="47.24504" lon="-1.59848">
        <ele>94</ele>
        <time>2021-04-12T13:23:07.000Z</time>
      </trkpt>
      <trkpt lat="47.24496" lon="-1.59834">
        <ele>94</ele>
        <time>2021-04-12T13:23:09.000Z</time>
      </trkpt>
      <trkpt lat="47.24486" lon="-1.59821">
        <ele>94</ele>
        <time>2021-04-12T13:23:11.000Z</time>
      </trkpt>
      <trkpt lat="47.24476" lon="-1.59812">
        <ele>94</ele>
        <time>2021-04-12T13:23:13.000Z</time>
      </trkpt>
      <trkpt lat="47.24463" lon="-1.59808">
        <ele>94</ele>
        <time>2021-04-12T13:23:15.000Z</time>
      </trkpt>
      <trkpt lat="47.2445" lon="-1.59807">
        <ele>94</ele>
        <time>2021-04-12T13:23:17.000Z</time>
      </trkpt>
      <trkpt lat="47.24438" lon="-1.59804">
        <ele>93</ele>
        <time>2021-04-12T13:23:19.000Z</time>
      </trkpt>
      <trkpt lat="47.24425" lon="-1.59801">
        <ele>93</ele>
        <time>2021-04-12T13:23:21.000Z</time>
      </trkpt>
      <trkpt lat="47.24411" lon="-1.59798">
        <ele>94</ele>
        <time>2021-04-12T13:23:23.000Z</time>
      </trkpt>
      <trkpt lat="47.24399" lon="-1.59795">
        <ele>94</ele>
        <time>2021-04-12T13:23:25.000Z</time>
      </trkpt>
      <trkpt lat="47.24387" lon="-1.59792">
        <ele>94</ele>
        <time>2021-04-12T13:23:27.000Z</time>
      </trkpt>
      <trkpt lat="47.24376" lon="-1.59788">
        <ele>95</ele>
        <time>2021-04-12T13:23:29.000Z</time>
      </trkpt>
      <trkpt lat="47.24367" lon="-1.59787">
        <ele>95</ele>
        <time>2021-04-12T13:23:31.000Z</time>
      </trkpt>
      <trkpt lat="47.24358" lon="-1.59792">
        <ele>95</ele>
        <time>2021-04-12T13:23:36.000Z</time>
      </trkpt>
      <trkpt lat="47.24348" lon="-1.59796">
        <ele>96</ele>
        <time>2021-04-12T13:23:39.000Z</time>
      </trkpt>
      <trkpt lat="47.24339" lon="-1.59786">
        <ele>96</ele>
        <time>2021-04-12T13:23:41.000Z</time>
      </trkpt>
      <trkpt lat="47.24331" lon="-1.59773">
        <ele>96</ele>
        <time>2021-04-12T13:23:43.000Z</time>
      </trkpt>
      <trkpt lat="47.24324" lon="-1.5976">
        <ele>96</ele>
        <time>2021-04-12T13:23:45.000Z</time>
      </trkpt>
      <trkpt lat="47.24317" lon="-1.59745">
        <ele>96</ele>
        <time>2021-04-12T13:23:47.000Z</time>
      </trkpt>
      <trkpt lat="47.2431" lon="-1.59731">
        <ele>95</ele>
        <time>2021-04-12T13:23:49.000Z</time>
      </trkpt>
      <trkpt lat="47.24302" lon="-1.59716">
        <ele>95</ele>
        <time>2021-04-12T13:23:51.000Z</time>
      </trkpt>
      <trkpt lat="47.24295" lon="-1.59703">
        <ele>94</ele>
        <time>2021-04-12T13:23:53.000Z</time>
      </trkpt>
      <trkpt lat="47.24288" lon="-1.59689">
        <ele>94</ele>
        <time>2021-04-12T13:23:55.000Z</time>
      </trkpt>
      <trkpt lat="47.24281" lon="-1.59675">
        <ele>93</ele>
        <time>2021-04-12T13:23:57.000Z</time>
      </trkpt>
      <trkpt lat="47.24274" lon="-1.59661">
        <ele>93</ele>
        <time>2021-04-12T13:23:59.000Z</time>
      </trkpt>
      <trkpt lat="47.24266" lon="-1.59649">
        <ele>93</ele>
        <time>2021-04-12T13:24:01.000Z</time>
      </trkpt>
      <trkpt lat="47.24259" lon="-1.59635">
        <ele>93</ele>
        <time>2021-04-12T13:24:03.000Z</time>
      </trkpt>
      <trkpt lat="47.24252" lon="-1.59621">
        <ele>94</ele>
        <time>2021-04-12T13:24:05.000Z</time>
      </trkpt>
      <trkpt lat="47.24246" lon="-1.59607">
        <ele>94</ele>
        <time>2021-04-12T13:24:07.000Z</time>
      </trkpt>
      <trkpt lat="47.24239" lon="-1.59594">
        <ele>94</ele>
        <time>2021-04-12T13:24:09.000Z</time>
      </trkpt>
      <trkpt lat="47.24232" lon="-1.59579">
        <ele>94</ele>
        <time>2021-04-12T13:24:11.000Z</time>
      </trkpt>
      <trkpt lat="47.24225" lon="-1.59565">
        <ele>94</ele>
        <time>2021-04-12T13:24:13.000Z</time>
      </trkpt>
      <trkpt lat="47.24218" lon="-1.59551">
        <ele>95</ele>
        <time>2021-04-12T13:24:15.000Z</time>
      </trkpt>
      <trkpt lat="47.24212" lon="-1.59538">
        <ele>95</ele>
        <time>2021-04-12T13:24:17.000Z</time>
      </trkpt>
      <trkpt lat="47.24205" lon="-1.59524">
        <ele>95</ele>
        <time>2021-04-12T13:24:19.000Z</time>
      </trkpt>
      <trkpt lat="47.24198" lon="-1.59511">
        <ele>95</ele>
        <time>2021-04-12T13:24:21.000Z</time>
      </trkpt>
      <trkpt lat="47.24191" lon="-1.59497">
        <ele>95</ele>
        <time>2021-04-12T13:24:23.000Z</time>
      </trkpt>
      <trkpt lat="47.24184" lon="-1.59483">
        <ele>95</ele>
        <time>2021-04-12T13:24:25.000Z</time>
      </trkpt>
      <trkpt lat="47.24178" lon="-1.59468">
        <ele>95</ele>
        <time>2021-04-12T13:24:27.000Z</time>
      </trkpt>
      <trkpt lat="47.24172" lon="-1.59454">
        <ele>95</ele>
        <time>2021-04-12T13:24:29.000Z</time>
      </trkpt>
      <trkpt lat="47.24165" lon="-1.59441">
        <ele>95</ele>
        <time>2021-04-12T13:24:31.000Z</time>
      </trkpt>
      <trkpt lat="47.24157" lon="-1.59427">
        <ele>95</ele>
        <time>2021-04-12T13:24:33.000Z</time>
      </trkpt>
      <trkpt lat="47.2415" lon="-1.59414">
        <ele>95</ele>
        <time>2021-04-12T13:24:35.000Z</time>
      </trkpt>
      <trkpt lat="47.24143" lon="-1.59401">
        <ele>95</ele>
        <time>2021-04-12T13:24:37.000Z</time>
      </trkpt>
      <trkpt lat="47.24136" lon="-1.59387">
        <ele>95</ele>
        <time>2021-04-12T13:24:39.000Z</time>
      </trkpt>
      <trkpt lat="47.24128" lon="-1.59373">
        <ele>95</ele>
        <time>2021-04-12T13:24:41.000Z</time>
      </trkpt>
      <trkpt lat="47.24122" lon="-1.5936">
        <ele>95</ele>
        <time>2021-04-12T13:24:43.000Z</time>
      </trkpt>
      <trkpt lat="47.24115" lon="-1.59346">
        <ele>95</ele>
        <time>2021-04-12T13:24:45.000Z</time>
      </trkpt>
      <trkpt lat="47.24109" lon="-1.59332">
        <ele>95</ele>
        <time>2021-04-12T13:24:47.000Z</time>
      </trkpt>
      <trkpt lat="47.24102" lon="-1.59317">
        <ele>95</ele>
        <time>2021-04-12T13:24:49.000Z</time>
      </trkpt>
      <trkpt lat="47.24096" lon="-1.59303">
        <ele>95</ele>
        <time>2021-04-12T13:24:51.000Z</time>
      </trkpt>
      <trkpt lat="47.24089" lon="-1.59289">
        <ele>95</ele>
        <time>2021-04-12T13:24:53.000Z</time>
      </trkpt>
      <trkpt lat="47.24082" lon="-1.59276">
        <ele>95</ele>
        <time>2021-04-12T13:24:55.000Z</time>
      </trkpt>
      <trkpt lat="47.24075" lon="-1.59265">
        <ele>95</ele>
        <time>2021-04-12T13:24:57.000Z</time>
      </trkpt>
      <trkpt lat="47.24069" lon="-1.59251">
        <ele>95</ele>
        <time>2021-04-12T13:24:59.000Z</time>
      </trkpt>
      <trkpt lat="47.24064" lon="-1.59234">
        <ele>95</ele>
        <time>2021-04-12T13:25:01.000Z</time>
      </trkpt>
      <trkpt lat="47.24056" lon="-1.5922">
        <ele>94</ele>
        <time>2021-04-12T13:25:03.000Z</time>
      </trkpt>
      <trkpt lat="47.24047" lon="-1.59206">
        <ele>94</ele>
        <time>2021-04-12T13:25:05.000Z</time>
      </trkpt>
      <trkpt lat="47.24039" lon="-1.59192">
        <ele>94</ele>
        <time>2021-04-12T13:25:07.000Z</time>
      </trkpt>
      <trkpt lat="47.24031" lon="-1.59177">
        <ele>94</ele>
        <time>2021-04-12T13:25:09.000Z</time>
      </trkpt>
      <trkpt lat="47.24023" lon="-1.59162">
        <ele>94</ele>
        <time>2021-04-12T13:25:11.000Z</time>
      </trkpt>
      <trkpt lat="47.24016" lon="-1.59147">
        <ele>94</ele>
        <time>2021-04-12T13:25:13.000Z</time>
      </trkpt>
      <trkpt lat="47.24008" lon="-1.59133">
        <ele>95</ele>
        <time>2021-04-12T13:25:15.000Z</time>
      </trkpt>
      <trkpt lat="47.24001" lon="-1.59119">
        <ele>95</ele>
        <time>2021-04-12T13:25:17.000Z</time>
      </trkpt>
      <trkpt lat="47.23993" lon="-1.59106">
        <ele>95</ele>
        <time>2021-04-12T13:25:19.000Z</time>
      </trkpt>
      <trkpt lat="47.23986" lon="-1.59092">
        <ele>94</ele>
        <time>2021-04-12T13:25:21.000Z</time>
      </trkpt>
      <trkpt lat="47.2398" lon="-1.59076">
        <ele>95</ele>
        <time>2021-04-12T13:25:23.000Z</time>
      </trkpt>
      <trkpt lat="47.23974" lon="-1.59061">
        <ele>95</ele>
        <time>2021-04-12T13:25:25.000Z</time>
      </trkpt>
      <trkpt lat="47.23967" lon="-1.59046">
        <ele>95</ele>
        <time>2021-04-12T13:25:27.000Z</time>
      </trkpt>
      <trkpt lat="47.23959" lon="-1.59032">
        <ele>95</ele>
        <time>2021-04-12T13:25:29.000Z</time>
      </trkpt>
      <trkpt lat="47.23952" lon="-1.59018">
        <ele>95</ele>
        <time>2021-04-12T13:25:31.000Z</time>
      </trkpt>
      <trkpt lat="47.23944" lon="-1.59004">
        <ele>95</ele>
        <time>2021-04-12T13:25:33.000Z</time>
      </trkpt>
      <trkpt lat="47.23936" lon="-1.58991">
        <ele>94</ele>
        <time>2021-04-12T13:25:35.000Z</time>
      </trkpt>
      <trkpt lat="47.23928" lon="-1.58979">
        <ele>94</ele>
        <time>2021-04-12T13:25:37.000Z</time>
      </trkpt>
      <trkpt lat="47.23921" lon="-1.58968">
        <ele>95</ele>
        <time>2021-04-12T13:25:40.000Z</time>
      </trkpt>
      <trkpt lat="47.23914" lon="-1.58955">
        <ele>95</ele>
        <time>2021-04-12T13:25:43.000Z</time>
      </trkpt>
      <trkpt lat="47.2391" lon="-1.5894">
        <ele>95</ele>
        <time>2021-04-12T13:25:45.000Z</time>
      </trkpt>
      <trkpt lat="47.23906" lon="-1.58924">
        <ele>95</ele>
        <time>2021-04-12T13:25:47.000Z</time>
      </trkpt>
      <trkpt lat="47.23899" lon="-1.58909">
        <ele>95</ele>
        <time>2021-04-12T13:25:49.000Z</time>
      </trkpt>
      <trkpt lat="47.23892" lon="-1.58893">
        <ele>94</ele>
        <time>2021-04-12T13:25:51.000Z</time>
      </trkpt>
      <trkpt lat="47.23885" lon="-1.58879">
        <ele>94</ele>
        <time>2021-04-12T13:25:53.000Z</time>
      </trkpt>
      <trkpt lat="47.23877" lon="-1.58865">
        <ele>93</ele>
        <time>2021-04-12T13:25:55.000Z</time>
      </trkpt>
      <trkpt lat="47.2387" lon="-1.5885">
        <ele>93</ele>
        <time>2021-04-12T13:25:57.000Z</time>
      </trkpt>
      <trkpt lat="47.23864" lon="-1.58836">
        <ele>93</ele>
        <time>2021-04-12T13:25:59.000Z</time>
      </trkpt>
      <trkpt lat="47.23856" lon="-1.58822">
        <ele>93</ele>
        <time>2021-04-12T13:26:01.000Z</time>
      </trkpt>
      <trkpt lat="47.23849" lon="-1.58809">
        <ele>93</ele>
        <time>2021-04-12T13:26:03.000Z</time>
      </trkpt>
      <trkpt lat="47.23841" lon="-1.588">
        <ele>93</ele>
        <time>2021-04-12T13:26:05.000Z</time>
      </trkpt>
      <trkpt lat="47.23834" lon="-1.58791">
        <ele>92</ele>
        <time>2021-04-12T13:26:07.000Z</time>
      </trkpt>
      <trkpt lat="47.23824" lon="-1.58777">
        <ele>92</ele>
        <time>2021-04-12T13:26:10.000Z</time>
      </trkpt>
      <trkpt lat="47.23816" lon="-1.58763">
        <ele>92</ele>
        <time>2021-04-12T13:26:12.000Z</time>
      </trkpt>
      <trkpt lat="47.23809" lon="-1.58749">
        <ele>92</ele>
        <time>2021-04-12T13:26:14.000Z</time>
      </trkpt>
      <trkpt lat="47.23801" lon="-1.58734">
        <ele>93</ele>
        <time>2021-04-12T13:26:16.000Z</time>
      </trkpt>
      <trkpt lat="47.23794" lon="-1.58721">
        <ele>94</ele>
        <time>2021-04-12T13:26:18.000Z</time>
      </trkpt>
      <trkpt lat="47.23789" lon="-1.58708">
        <ele>95</ele>
        <time>2021-04-12T13:26:20.000Z</time>
      </trkpt>
      <trkpt lat="47.23783" lon="-1.58693">
        <ele>95</ele>
        <time>2021-04-12T13:26:22.000Z</time>
      </trkpt>
      <trkpt lat="47.23775" lon="-1.58677">
        <ele>94</ele>
        <time>2021-04-12T13:26:24.000Z</time>
      </trkpt>
      <trkpt lat="47.23767" lon="-1.58661">
        <ele>93</ele>
        <time>2021-04-12T13:26:26.000Z</time>
      </trkpt>
      <trkpt lat="47.2376" lon="-1.5865">
        <ele>92</ele>
        <time>2021-04-12T13:26:28.000Z</time>
      </trkpt>
      <trkpt lat="47.23753" lon="-1.5864">
        <ele>92</ele>
        <time>2021-04-12T13:26:30.000Z</time>
      </trkpt>
      <trkpt lat="47.23746" lon="-1.58627">
        <ele>92</ele>
        <time>2021-04-12T13:26:32.000Z</time>
      </trkpt>
      <trkpt lat="47.23741" lon="-1.58611">
        <ele>91</ele>
        <time>2021-04-12T13:26:34.000Z</time>
      </trkpt>
      <trkpt lat="47.23734" lon="-1.58599">
        <ele>91</ele>
        <time>2021-04-12T13:26:36.000Z</time>
      </trkpt>
      <trkpt lat="47.23726" lon="-1.58588">
        <ele>91</ele>
        <time>2021-04-12T13:26:38.000Z</time>
      </trkpt>
      <trkpt lat="47.23716" lon="-1.58576">
        <ele>90</ele>
        <time>2021-04-12T13:26:40.000Z</time>
      </trkpt>
      <trkpt lat="47.23706" lon="-1.58564">
        <ele>90</ele>
        <time>2021-04-12T13:26:42.000Z</time>
      </trkpt>
      <trkpt lat="47.23696" lon="-1.58551">
        <ele>90</ele>
        <time>2021-04-12T13:26:44.000Z</time>
      </trkpt>
      <trkpt lat="47.23686" lon="-1.58538">
        <ele>90</ele>
        <time>2021-04-12T13:26:46.000Z</time>
      </trkpt>
      <trkpt lat="47.23677" lon="-1.58524">
        <ele>90</ele>
        <time>2021-04-12T13:26:48.000Z</time>
      </trkpt>
      <trkpt lat="47.23669" lon="-1.58511">
        <ele>90</ele>
        <time>2021-04-12T13:26:50.000Z</time>
      </trkpt>
      <trkpt lat="47.23659" lon="-1.58497">
        <ele>90</ele>
        <time>2021-04-12T13:26:52.000Z</time>
      </trkpt>
      <trkpt lat="47.23651" lon="-1.58484">
        <ele>90</ele>
        <time>2021-04-12T13:26:54.000Z</time>
      </trkpt>
      <trkpt lat="47.23641" lon="-1.58471">
        <ele>91</ele>
        <time>2021-04-12T13:26:56.000Z</time>
      </trkpt>
      <trkpt lat="47.23631" lon="-1.58459">
        <ele>91</ele>
        <time>2021-04-12T13:26:58.000Z</time>
      </trkpt>
      <trkpt lat="47.23622" lon="-1.58447">
        <ele>91</ele>
        <time>2021-04-12T13:27:00.000Z</time>
      </trkpt>
      <trkpt lat="47.23613" lon="-1.58434">
        <ele>91</ele>
        <time>2021-04-12T13:27:02.000Z</time>
      </trkpt>
      <trkpt lat="47.23603" lon="-1.58421">
        <ele>91</ele>
        <time>2021-04-12T13:27:04.000Z</time>
      </trkpt>
      <trkpt lat="47.23593" lon="-1.58407">
        <ele>90</ele>
        <time>2021-04-12T13:27:06.000Z</time>
      </trkpt>
      <trkpt lat="47.23583" lon="-1.58394">
        <ele>90</ele>
        <time>2021-04-12T13:27:08.000Z</time>
      </trkpt>
      <trkpt lat="47.23575" lon="-1.58382">
        <ele>90</ele>
        <time>2021-04-12T13:27:10.000Z</time>
      </trkpt>
      <trkpt lat="47.23565" lon="-1.58369">
        <ele>90</ele>
        <time>2021-04-12T13:27:12.000Z</time>
      </trkpt>
      <trkpt lat="47.23556" lon="-1.58356">
        <ele>90</ele>
        <time>2021-04-12T13:27:14.000Z</time>
      </trkpt>
      <trkpt lat="47.23547" lon="-1.58344">
        <ele>90</ele>
        <time>2021-04-12T13:27:16.000Z</time>
      </trkpt>
      <trkpt lat="47.23538" lon="-1.58333">
        <ele>89</ele>
        <time>2021-04-12T13:27:18.000Z</time>
      </trkpt>
      <trkpt lat="47.2353" lon="-1.58323">
        <ele>89</ele>
        <time>2021-04-12T13:27:20.000Z</time>
      </trkpt>
      <trkpt lat="47.23522" lon="-1.58312">
        <ele>88</ele>
        <time>2021-04-12T13:27:23.000Z</time>
      </trkpt>
      <trkpt lat="47.23517" lon="-1.58301">
        <ele>89</ele>
        <time>2021-04-12T13:27:25.000Z</time>
      </trkpt>
      <trkpt lat="47.23511" lon="-1.58286">
        <ele>89</ele>
        <time>2021-04-12T13:27:27.000Z</time>
      </trkpt>
      <trkpt lat="47.23504" lon="-1.58271">
        <ele>89</ele>
        <time>2021-04-12T13:27:29.000Z</time>
      </trkpt>
      <trkpt lat="47.23496" lon="-1.58254">
        <ele>89</ele>
        <time>2021-04-12T13:27:31.000Z</time>
      </trkpt>
      <trkpt lat="47.23488" lon="-1.58238">
        <ele>88</ele>
        <time>2021-04-12T13:27:33.000Z</time>
      </trkpt>
      <trkpt lat="47.2348" lon="-1.58221">
        <ele>88</ele>
        <time>2021-04-12T13:27:35.000Z</time>
      </trkpt>
      <trkpt lat="47.23472" lon="-1.58204">
        <ele>88</ele>
        <time>2021-04-12T13:27:37.000Z</time>
      </trkpt>
      <trkpt lat="47.23465" lon="-1.58187">
        <ele>88</ele>
        <time>2021-04-12T13:27:39.000Z</time>
      </trkpt>
      <trkpt lat="47.23459" lon="-1.58169">
        <ele>87</ele>
        <time>2021-04-12T13:27:41.000Z</time>
      </trkpt>
      <trkpt lat="47.23452" lon="-1.58153">
        <ele>88</ele>
        <time>2021-04-12T13:27:43.000Z</time>
      </trkpt>
      <trkpt lat="47.23445" lon="-1.58137">
        <ele>87</ele>
        <time>2021-04-12T13:27:45.000Z</time>
      </trkpt>
      <trkpt lat="47.23439" lon="-1.5812">
        <ele>87</ele>
        <time>2021-04-12T13:27:47.000Z</time>
      </trkpt>
      <trkpt lat="47.23433" lon="-1.58105">
        <ele>87</ele>
        <time>2021-04-12T13:27:49.000Z</time>
      </trkpt>
      <trkpt lat="47.23427" lon="-1.5809">
        <ele>87</ele>
        <time>2021-04-12T13:27:51.000Z</time>
      </trkpt>
      <trkpt lat="47.23421" lon="-1.58075">
        <ele>86</ele>
        <time>2021-04-12T13:27:53.000Z</time>
      </trkpt>
      <trkpt lat="47.23415" lon="-1.58063">
        <ele>85</ele>
        <time>2021-04-12T13:27:55.000Z</time>
      </trkpt>
      <trkpt lat="47.23409" lon="-1.58051">
        <ele>85</ele>
        <time>2021-04-12T13:27:57.000Z</time>
      </trkpt>
      <trkpt lat="47.23404" lon="-1.58038">
        <ele>85</ele>
        <time>2021-04-12T13:27:59.000Z</time>
      </trkpt>
      <trkpt lat="47.23398" lon="-1.58023">
        <ele>85</ele>
        <time>2021-04-12T13:28:01.000Z</time>
      </trkpt>
      <trkpt lat="47.23389" lon="-1.58005">
        <ele>85</ele>
        <time>2021-04-12T13:28:03.000Z</time>
      </trkpt>
      <trkpt lat="47.23382" lon="-1.57986">
        <ele>84</ele>
        <time>2021-04-12T13:28:05.000Z</time>
      </trkpt>
      <trkpt lat="47.23373" lon="-1.57968">
        <ele>84</ele>
        <time>2021-04-12T13:28:07.000Z</time>
      </trkpt>
      <trkpt lat="47.23364" lon="-1.57949">
        <ele>84</ele>
        <time>2021-04-12T13:28:09.000Z</time>
      </trkpt>
      <trkpt lat="47.23356" lon="-1.5793">
        <ele>84</ele>
        <time>2021-04-12T13:28:11.000Z</time>
      </trkpt>
      <trkpt lat="47.23348" lon="-1.57911">
        <ele>83</ele>
        <time>2021-04-12T13:28:13.000Z</time>
      </trkpt>
      <trkpt lat="47.23339" lon="-1.57892">
        <ele>83</ele>
        <time>2021-04-12T13:28:15.000Z</time>
      </trkpt>
      <trkpt lat="47.23331" lon="-1.57874">
        <ele>83</ele>
        <time>2021-04-12T13:28:17.000Z</time>
      </trkpt>
      <trkpt lat="47.23323" lon="-1.57855">
        <ele>83</ele>
        <time>2021-04-12T13:28:19.000Z</time>
      </trkpt>
      <trkpt lat="47.23314" lon="-1.57838">
        <ele>83</ele>
        <time>2021-04-12T13:28:21.000Z</time>
      </trkpt>
      <trkpt lat="47.23306" lon="-1.57821">
        <ele>82</ele>
        <time>2021-04-12T13:28:23.000Z</time>
      </trkpt>
      <trkpt lat="47.23299" lon="-1.57806">
        <ele>82</ele>
        <time>2021-04-12T13:28:25.000Z</time>
      </trkpt>
      <trkpt lat="47.23291" lon="-1.57793">
        <ele>82</ele>
        <time>2021-04-12T13:28:27.000Z</time>
      </trkpt>
      <trkpt lat="47.23284" lon="-1.5778">
        <ele>83</ele>
        <time>2021-04-12T13:28:29.000Z</time>
      </trkpt>
      <trkpt lat="47.23278" lon="-1.57765">
        <ele>83</ele>
        <time>2021-04-12T13:28:31.000Z</time>
      </trkpt>
      <trkpt lat="47.23271" lon="-1.5775">
        <ele>83</ele>
        <time>2021-04-12T13:28:33.000Z</time>
      </trkpt>
      <trkpt lat="47.23265" lon="-1.57737">
        <ele>82</ele>
        <time>2021-04-12T13:28:35.000Z</time>
      </trkpt>
      <trkpt lat="47.23258" lon="-1.57723">
        <ele>83</ele>
        <time>2021-04-12T13:28:37.000Z</time>
      </trkpt>
      <trkpt lat="47.23249" lon="-1.57712">
        <ele>83</ele>
        <time>2021-04-12T13:28:39.000Z</time>
      </trkpt>
      <trkpt lat="47.23242" lon="-1.57697">
        <ele>82</ele>
        <time>2021-04-12T13:28:41.000Z</time>
      </trkpt>
      <trkpt lat="47.23239" lon="-1.57677">
        <ele>83</ele>
        <time>2021-04-12T13:28:43.000Z</time>
      </trkpt>
      <trkpt lat="47.23234" lon="-1.57658">
        <ele>83</ele>
        <time>2021-04-12T13:28:45.000Z</time>
      </trkpt>
      <trkpt lat="47.23227" lon="-1.5764">
        <ele>83</ele>
        <time>2021-04-12T13:28:47.000Z</time>
      </trkpt>
      <trkpt lat="47.23218" lon="-1.57622">
        <ele>82</ele>
        <time>2021-04-12T13:28:49.000Z</time>
      </trkpt>
      <trkpt lat="47.23209" lon="-1.57605">
        <ele>82</ele>
        <time>2021-04-12T13:28:51.000Z</time>
      </trkpt>
      <trkpt lat="47.23201" lon="-1.57587">
        <ele>81</ele>
        <time>2021-04-12T13:28:53.000Z</time>
      </trkpt>
      <trkpt lat="47.23193" lon="-1.57569">
        <ele>81</ele>
        <time>2021-04-12T13:28:55.000Z</time>
      </trkpt>
      <trkpt lat="47.23185" lon="-1.57551">
        <ele>81</ele>
        <time>2021-04-12T13:28:57.000Z</time>
      </trkpt>
      <trkpt lat="47.23177" lon="-1.57533">
        <ele>81</ele>
        <time>2021-04-12T13:28:59.000Z</time>
      </trkpt>
      <trkpt lat="47.23168" lon="-1.57515">
        <ele>81</ele>
        <time>2021-04-12T13:29:01.000Z</time>
      </trkpt>
      <trkpt lat="47.23159" lon="-1.57498">
        <ele>81</ele>
        <time>2021-04-12T13:29:03.000Z</time>
      </trkpt>
      <trkpt lat="47.2315" lon="-1.57481">
        <ele>81</ele>
        <time>2021-04-12T13:29:05.000Z</time>
      </trkpt>
      <trkpt lat="47.23141" lon="-1.57466">
        <ele>81</ele>
        <time>2021-04-12T13:29:07.000Z</time>
      </trkpt>
      <trkpt lat="47.23132" lon="-1.5745">
        <ele>81</ele>
        <time>2021-04-12T13:29:09.000Z</time>
      </trkpt>
      <trkpt lat="47.23121" lon="-1.57436">
        <ele>81</ele>
        <time>2021-04-12T13:29:11.000Z</time>
      </trkpt>
      <trkpt lat="47.23111" lon="-1.57422">
        <ele>81</ele>
        <time>2021-04-12T13:29:13.000Z</time>
      </trkpt>
      <trkpt lat="47.23101" lon="-1.57408">
        <ele>82</ele>
        <time>2021-04-12T13:29:15.000Z</time>
      </trkpt>
      <trkpt lat="47.2309" lon="-1.57395">
        <ele>82</ele>
        <time>2021-04-12T13:29:17.000Z</time>
      </trkpt>
      <trkpt lat="47.2308" lon="-1.57382">
        <ele>82</ele>
        <time>2021-04-12T13:29:19.000Z</time>
      </trkpt>
      <trkpt lat="47.23069" lon="-1.5737">
        <ele>82</ele>
        <time>2021-04-12T13:29:21.000Z</time>
      </trkpt>
      <trkpt lat="47.23058" lon="-1.57357">
        <ele>82</ele>
        <time>2021-04-12T13:29:23.000Z</time>
      </trkpt>
      <trkpt lat="47.23047" lon="-1.57345">
        <ele>82</ele>
        <time>2021-04-12T13:29:25.000Z</time>
      </trkpt>
      <trkpt lat="47.23036" lon="-1.57333">
        <ele>81</ele>
        <time>2021-04-12T13:29:27.000Z</time>
      </trkpt>
      <trkpt lat="47.23026" lon="-1.57323">
        <ele>81</ele>
        <time>2021-04-12T13:29:29.000Z</time>
      </trkpt>
      <trkpt lat="47.23015" lon="-1.57312">
        <ele>81</ele>
        <time>2021-04-12T13:29:31.000Z</time>
      </trkpt>
      <trkpt lat="47.23003" lon="-1.57303">
        <ele>81</ele>
        <time>2021-04-12T13:29:33.000Z</time>
      </trkpt>
      <trkpt lat="47.22992" lon="-1.57293">
        <ele>82</ele>
        <time>2021-04-12T13:29:35.000Z</time>
      </trkpt>
      <trkpt lat="47.22981" lon="-1.57284">
        <ele>82</ele>
        <time>2021-04-12T13:29:37.000Z</time>
      </trkpt>
      <trkpt lat="47.22973" lon="-1.57277">
        <ele>82</ele>
        <time>2021-04-12T13:29:39.000Z</time>
      </trkpt>
      <trkpt lat="47.22964" lon="-1.57269">
        <ele>82</ele>
        <time>2021-04-12T13:29:43.000Z</time>
      </trkpt>
      <trkpt lat="47.22955" lon="-1.57265">
        <ele>82</ele>
        <time>2021-04-12T13:29:50.000Z</time>
      </trkpt>
      <trkpt lat="47.22949" lon="-1.57254">
        <ele>83</ele>
        <time>2021-04-12T13:29:54.000Z</time>
      </trkpt>
      <trkpt lat="47.22944" lon="-1.57242">
        <ele>83</ele>
        <time>2021-04-12T13:29:56.000Z</time>
      </trkpt>
      <trkpt lat="47.22938" lon="-1.57229">
        <ele>84</ele>
        <time>2021-04-12T13:29:58.000Z</time>
      </trkpt>
      <trkpt lat="47.2293" lon="-1.5722">
        <ele>83</ele>
        <time>2021-04-12T13:30:00.000Z</time>
      </trkpt>
      <trkpt lat="47.2292" lon="-1.5721">
        <ele>83</ele>
        <time>2021-04-12T13:30:02.000Z</time>
      </trkpt>
      <trkpt lat="47.22909" lon="-1.57199">
        <ele>82</ele>
        <time>2021-04-12T13:30:04.000Z</time>
      </trkpt>
      <trkpt lat="47.22898" lon="-1.57189">
        <ele>82</ele>
        <time>2021-04-12T13:30:06.000Z</time>
      </trkpt>
      <trkpt lat="47.22887" lon="-1.57178">
        <ele>82</ele>
        <time>2021-04-12T13:30:08.000Z</time>
      </trkpt>
      <trkpt lat="47.22878" lon="-1.57168">
        <ele>82</ele>
        <time>2021-04-12T13:30:10.000Z</time>
      </trkpt>
      <trkpt lat="47.22868" lon="-1.57157">
        <ele>83</ele>
        <time>2021-04-12T13:30:12.000Z</time>
      </trkpt>
      <trkpt lat="47.22857" lon="-1.57146">
        <ele>82</ele>
        <time>2021-04-12T13:30:14.000Z</time>
      </trkpt>
      <trkpt lat="47.22847" lon="-1.57137">
        <ele>82</ele>
        <time>2021-04-12T13:30:16.000Z</time>
      </trkpt>
      <trkpt lat="47.22837" lon="-1.57126">
        <ele>82</ele>
        <time>2021-04-12T13:30:18.000Z</time>
      </trkpt>
      <trkpt lat="47.22827" lon="-1.57115">
        <ele>81</ele>
        <time>2021-04-12T13:30:20.000Z</time>
      </trkpt>
      <trkpt lat="47.22817" lon="-1.57102">
        <ele>81</ele>
        <time>2021-04-12T13:30:22.000Z</time>
      </trkpt>
      <trkpt lat="47.22806" lon="-1.5709">
        <ele>82</ele>
        <time>2021-04-12T13:30:24.000Z</time>
      </trkpt>
      <trkpt lat="47.22795" lon="-1.57078">
        <ele>81</ele>
        <time>2021-04-12T13:30:26.000Z</time>
      </trkpt>
      <trkpt lat="47.22785" lon="-1.57068">
        <ele>81</ele>
        <time>2021-04-12T13:30:28.000Z</time>
      </trkpt>
      <trkpt lat="47.22776" lon="-1.57055">
        <ele>81</ele>
        <time>2021-04-12T13:30:30.000Z</time>
      </trkpt>
      <trkpt lat="47.22766" lon="-1.57041">
        <ele>81</ele>
        <time>2021-04-12T13:30:32.000Z</time>
      </trkpt>
      <trkpt lat="47.22758" lon="-1.5703">
        <ele>81</ele>
        <time>2021-04-12T13:30:34.000Z</time>
      </trkpt>
      <trkpt lat="47.22747" lon="-1.57018">
        <ele>81</ele>
        <time>2021-04-12T13:30:37.000Z</time>
      </trkpt>
      <trkpt lat="47.22738" lon="-1.57005">
        <ele>80</ele>
        <time>2021-04-12T13:30:39.000Z</time>
      </trkpt>
      <trkpt lat="47.2273" lon="-1.56992">
        <ele>80</ele>
        <time>2021-04-12T13:30:41.000Z</time>
      </trkpt>
      <trkpt lat="47.22719" lon="-1.5698">
        <ele>81</ele>
        <time>2021-04-12T13:30:43.000Z</time>
      </trkpt>
      <trkpt lat="47.2271" lon="-1.56967">
        <ele>81</ele>
        <time>2021-04-12T13:30:45.000Z</time>
      </trkpt>
      <trkpt lat="47.227" lon="-1.56953">
        <ele>81</ele>
        <time>2021-04-12T13:30:47.000Z</time>
      </trkpt>
      <trkpt lat="47.22689" lon="-1.56941">
        <ele>80</ele>
        <time>2021-04-12T13:30:49.000Z</time>
      </trkpt>
      <trkpt lat="47.2268" lon="-1.56927">
        <ele>81</ele>
        <time>2021-04-12T13:30:51.000Z</time>
      </trkpt>
      <trkpt lat="47.2267" lon="-1.56913">
        <ele>81</ele>
        <time>2021-04-12T13:30:53.000Z</time>
      </trkpt>
      <trkpt lat="47.22659" lon="-1.56901">
        <ele>81</ele>
        <time>2021-04-12T13:30:55.000Z</time>
      </trkpt>
      <trkpt lat="47.22649" lon="-1.5689">
        <ele>81</ele>
        <time>2021-04-12T13:30:57.000Z</time>
      </trkpt>
      <trkpt lat="47.22639" lon="-1.56878">
        <ele>81</ele>
        <time>2021-04-12T13:30:59.000Z</time>
      </trkpt>
      <trkpt lat="47.22631" lon="-1.56867">
        <ele>81</ele>
        <time>2021-04-12T13:31:01.000Z</time>
      </trkpt>
      <trkpt lat="47.22623" lon="-1.56857">
        <ele>81</ele>
        <time>2021-04-12T13:31:04.000Z</time>
      </trkpt>
      <trkpt lat="47.22614" lon="-1.56849">
        <ele>81</ele>
        <time>2021-04-12T13:31:09.000Z</time>
      </trkpt>
      <trkpt lat="47.22608" lon="-1.5684">
        <ele>81</ele>
        <time>2021-04-12T13:31:15.000Z</time>
      </trkpt>
      <trkpt lat="47.22597" lon="-1.56826">
        <ele>80</ele>
        <time>2021-04-12T13:31:18.000Z</time>
      </trkpt>
      <trkpt lat="47.22587" lon="-1.56812">
        <ele>80</ele>
        <time>2021-04-12T13:31:20.000Z</time>
      </trkpt>
      <trkpt lat="47.22577" lon="-1.56796">
        <ele>80</ele>
        <time>2021-04-12T13:31:22.000Z</time>
      </trkpt>
      <trkpt lat="47.22567" lon="-1.56779">
        <ele>80</ele>
        <time>2021-04-12T13:31:24.000Z</time>
      </trkpt>
      <trkpt lat="47.22556" lon="-1.56761">
        <ele>80</ele>
        <time>2021-04-12T13:31:26.000Z</time>
      </trkpt>
      <trkpt lat="47.22545" lon="-1.56746">
        <ele>79</ele>
        <time>2021-04-12T13:31:28.000Z</time>
      </trkpt>
      <trkpt lat="47.22533" lon="-1.56732">
        <ele>79</ele>
        <time>2021-04-12T13:31:30.000Z</time>
      </trkpt>
      <trkpt lat="47.22522" lon="-1.5672">
        <ele>79</ele>
        <time>2021-04-12T13:31:32.000Z</time>
      </trkpt>
      <trkpt lat="47.22512" lon="-1.56704">
        <ele>79</ele>
        <time>2021-04-12T13:31:34.000Z</time>
      </trkpt>
      <trkpt lat="47.22504" lon="-1.56688">
        <ele>79</ele>
        <time>2021-04-12T13:31:36.000Z</time>
      </trkpt>
      <trkpt lat="47.22494" lon="-1.56674">
        <ele>79</ele>
        <time>2021-04-12T13:31:38.000Z</time>
      </trkpt>
      <trkpt lat="47.22485" lon="-1.56658">
        <ele>79</ele>
        <time>2021-04-12T13:31:40.000Z</time>
      </trkpt>
      <trkpt lat="47.22477" lon="-1.56642">
        <ele>79</ele>
        <time>2021-04-12T13:31:42.000Z</time>
      </trkpt>
      <trkpt lat="47.22468" lon="-1.56626">
        <ele>79</ele>
        <time>2021-04-12T13:31:44.000Z</time>
      </trkpt>
      <trkpt lat="47.22459" lon="-1.5661">
        <ele>78</ele>
        <time>2021-04-12T13:31:46.000Z</time>
      </trkpt>
      <trkpt lat="47.2245" lon="-1.56593">
        <ele>77</ele>
        <time>2021-04-12T13:31:48.000Z</time>
      </trkpt>
      <trkpt lat="47.22441" lon="-1.56577">
        <ele>77</ele>
        <time>2021-04-12T13:31:50.000Z</time>
      </trkpt>
      <trkpt lat="47.22432" lon="-1.56562">
        <ele>77</ele>
        <time>2021-04-12T13:31:52.000Z</time>
      </trkpt>
      <trkpt lat="47.22424" lon="-1.56548">
        <ele>77</ele>
        <time>2021-04-12T13:31:54.000Z</time>
      </trkpt>
      <trkpt lat="47.22414" lon="-1.56533">
        <ele>78</ele>
        <time>2021-04-12T13:31:56.000Z</time>
      </trkpt>
      <trkpt lat="47.22405" lon="-1.5652">
        <ele>78</ele>
        <time>2021-04-12T13:31:58.000Z</time>
      </trkpt>
      <trkpt lat="47.22395" lon="-1.56505">
        <ele>78</ele>
        <time>2021-04-12T13:32:00.000Z</time>
      </trkpt>
      <trkpt lat="47.22386" lon="-1.56492">
        <ele>78</ele>
        <time>2021-04-12T13:32:02.000Z</time>
      </trkpt>
      <trkpt lat="47.22376" lon="-1.5648">
        <ele>79</ele>
        <time>2021-04-12T13:32:04.000Z</time>
      </trkpt>
      <trkpt lat="47.22365" lon="-1.56471">
        <ele>79</ele>
        <time>2021-04-12T13:32:06.000Z</time>
      </trkpt>
      <trkpt lat="47.22354" lon="-1.56461">
        <ele>78</ele>
        <time>2021-04-12T13:32:08.000Z</time>
      </trkpt>
      <trkpt lat="47.22345" lon="-1.56451">
        <ele>79</ele>
        <time>2021-04-12T13:32:10.000Z</time>
      </trkpt>
      <trkpt lat="47.22334" lon="-1.5644">
        <ele>79</ele>
        <time>2021-04-12T13:32:12.000Z</time>
      </trkpt>
      <trkpt lat="47.22324" lon="-1.56429">
        <ele>79</ele>
        <time>2021-04-12T13:32:14.000Z</time>
      </trkpt>
      <trkpt lat="47.22314" lon="-1.5642">
        <ele>79</ele>
        <time>2021-04-12T13:32:16.000Z</time>
      </trkpt>
      <trkpt lat="47.22303" lon="-1.56411">
        <ele>80</ele>
        <time>2021-04-12T13:32:18.000Z</time>
      </trkpt>
      <trkpt lat="47.22293" lon="-1.56402">
        <ele>80</ele>
        <time>2021-04-12T13:32:20.000Z</time>
      </trkpt>
      <trkpt lat="47.22283" lon="-1.56394">
        <ele>80</ele>
        <time>2021-04-12T13:32:22.000Z</time>
      </trkpt>
      <trkpt lat="47.22273" lon="-1.56389">
        <ele>79</ele>
        <time>2021-04-12T13:32:24.000Z</time>
      </trkpt>
      <trkpt lat="47.22256" lon="-1.56379">
        <ele>79</ele>
        <time>2021-04-12T13:32:27.000Z</time>
      </trkpt>
      <trkpt lat="47.22239" lon="-1.5637">
        <ele>79</ele>
        <time>2021-04-12T13:32:30.000Z</time>
      </trkpt>
      <trkpt lat="47.22223" lon="-1.5636">
        <ele>78</ele>
        <time>2021-04-12T13:32:33.000Z</time>
      </trkpt>
      <trkpt lat="47.22212" lon="-1.56352">
        <ele>77</ele>
        <time>2021-04-12T13:32:35.000Z</time>
      </trkpt>
      <trkpt lat="47.22202" lon="-1.56344">
        <ele>77</ele>
        <time>2021-04-12T13:32:37.000Z</time>
      </trkpt>
      <trkpt lat="47.22191" lon="-1.56336">
        <ele>77</ele>
        <time>2021-04-12T13:32:39.000Z</time>
      </trkpt>
      <trkpt lat="47.22176" lon="-1.56323">
        <ele>77</ele>
        <time>2021-04-12T13:32:42.000Z</time>
      </trkpt>
      <trkpt lat="47.22161" lon="-1.56314">
        <ele>77</ele>
        <time>2021-04-12T13:32:45.000Z</time>
      </trkpt>
      <trkpt lat="47.22149" lon="-1.56327">
        <ele>77</ele>
        <time>2021-04-12T13:32:48.000Z</time>
      </trkpt>
      <trkpt lat="47.22136" lon="-1.5634">
        <ele>78</ele>
        <time>2021-04-12T13:32:51.000Z</time>
      </trkpt>
      <trkpt lat="47.2212" lon="-1.56334">
        <ele>79</ele>
        <time>2021-04-12T13:32:54.000Z</time>
      </trkpt>
      <trkpt lat="47.22108" lon="-1.56328">
        <ele>78</ele>
        <time>2021-04-12T13:32:56.000Z</time>
      </trkpt>
      <trkpt lat="47.22098" lon="-1.56321">
        <ele>78</ele>
        <time>2021-04-12T13:32:58.000Z</time>
      </trkpt>
      <trkpt lat="47.22089" lon="-1.56316">
        <ele>79</ele>
        <time>2021-04-12T13:33:00.000Z</time>
      </trkpt>
      <trkpt lat="47.22073" lon="-1.56305">
        <ele>79</ele>
        <time>2021-04-12T13:33:03.000Z</time>
      </trkpt>
      <trkpt lat="47.22061" lon="-1.56299">
        <ele>78</ele>
        <time>2021-04-12T13:33:05.000Z</time>
      </trkpt>
      <trkpt lat="47.22049" lon="-1.56292">
        <ele>77</ele>
        <time>2021-04-12T13:33:07.000Z</time>
      </trkpt>
      <trkpt lat="47.22039" lon="-1.56285">
        <ele>77</ele>
        <time>2021-04-12T13:33:09.000Z</time>
      </trkpt>
      <trkpt lat="47.22028" lon="-1.56278">
        <ele>76</ele>
        <time>2021-04-12T13:33:11.000Z</time>
      </trkpt>
      <trkpt lat="47.22017" lon="-1.56268">
        <ele>77</ele>
        <time>2021-04-12T13:33:13.000Z</time>
      </trkpt>
      <trkpt lat="47.22015" lon="-1.56252">
        <ele>78</ele>
        <time>2021-04-12T13:33:15.000Z</time>
      </trkpt>
      <trkpt lat="47.22017" lon="-1.56231">
        <ele>80</ele>
        <time>2021-04-12T13:33:17.000Z</time>
      </trkpt>
      <trkpt lat="47.22017" lon="-1.56213">
        <ele>79</ele>
        <time>2021-04-12T13:33:19.000Z</time>
      </trkpt>
      <trkpt lat="47.22013" lon="-1.56199">
        <ele>79</ele>
        <time>2021-04-12T13:33:21.000Z</time>
      </trkpt>
      <trkpt lat="47.22005" lon="-1.56192">
        <ele>78</ele>
        <time>2021-04-12T13:33:23.000Z</time>
      </trkpt>
      <trkpt lat="47.21994" lon="-1.56188">
        <ele>77</ele>
        <time>2021-04-12T13:33:25.000Z</time>
      </trkpt>
      <trkpt lat="47.21979" lon="-1.56185">
        <ele>76</ele>
        <time>2021-04-12T13:33:27.000Z</time>
      </trkpt>
      <trkpt lat="47.21965" lon="-1.5618">
        <ele>76</ele>
        <time>2021-04-12T13:33:29.000Z</time>
      </trkpt>
      <trkpt lat="47.21952" lon="-1.56176">
        <ele>76</ele>
        <time>2021-04-12T13:33:31.000Z</time>
      </trkpt>
      <trkpt lat="47.21938" lon="-1.56168">
        <ele>77</ele>
        <time>2021-04-12T13:33:33.000Z</time>
      </trkpt>
      <trkpt lat="47.21926" lon="-1.56157">
        <ele>77</ele>
        <time>2021-04-12T13:33:35.000Z</time>
      </trkpt>
      <trkpt lat="47.21914" lon="-1.56144">
        <ele>78</ele>
        <time>2021-04-12T13:33:37.000Z</time>
      </trkpt>
      <trkpt lat="47.21906" lon="-1.56135">
        <ele>78</ele>
        <time>2021-04-12T13:33:39.000Z</time>
      </trkpt>
      <trkpt lat="47.21899" lon="-1.56123">
        <ele>78</ele>
        <time>2021-04-12T13:33:42.000Z</time>
      </trkpt>
      <trkpt lat="47.21894" lon="-1.56112">
        <ele>77</ele>
        <time>2021-04-12T13:33:49.000Z</time>
      </trkpt>
      <trkpt lat="47.21889" lon="-1.56099">
        <ele>76</ele>
        <time>2021-04-12T13:34:07.000Z</time>
      </trkpt>
      <trkpt lat="47.21882" lon="-1.56086">
        <ele>76</ele>
        <time>2021-04-12T13:34:09.000Z</time>
      </trkpt>
      <trkpt lat="47.21873" lon="-1.56072">
        <ele>75</ele>
        <time>2021-04-12T13:34:11.000Z</time>
      </trkpt>
      <trkpt lat="47.21864" lon="-1.56056">
        <ele>74</ele>
        <time>2021-04-12T13:34:13.000Z</time>
      </trkpt>
      <trkpt lat="47.21854" lon="-1.5604">
        <ele>73</ele>
        <time>2021-04-12T13:34:15.000Z</time>
      </trkpt>
      <trkpt lat="47.21843" lon="-1.56025">
        <ele>74</ele>
        <time>2021-04-12T13:34:17.000Z</time>
      </trkpt>
      <trkpt lat="47.21832" lon="-1.5601">
        <ele>74</ele>
        <time>2021-04-12T13:34:19.000Z</time>
      </trkpt>
      <trkpt lat="47.2182" lon="-1.55995">
        <ele>74</ele>
        <time>2021-04-12T13:34:21.000Z</time>
      </trkpt>
      <trkpt lat="47.21809" lon="-1.5598">
        <ele>74</ele>
        <time>2021-04-12T13:34:23.000Z</time>
      </trkpt>
      <trkpt lat="47.21798" lon="-1.55964">
        <ele>73</ele>
        <time>2021-04-12T13:34:25.000Z</time>
      </trkpt>
      <trkpt lat="47.21787" lon="-1.55951">
        <ele>72</ele>
        <time>2021-04-12T13:34:27.000Z</time>
      </trkpt>
      <trkpt lat="47.21781" lon="-1.55942">
        <ele>71</ele>
        <time>2021-04-12T13:34:29.000Z</time>
      </trkpt>
      <trkpt lat="47.21775" lon="-1.55931">
        <ele>71</ele>
        <time>2021-04-12T13:34:31.000Z</time>
      </trkpt>
      <trkpt lat="47.2177" lon="-1.55919">
        <ele>71</ele>
        <time>2021-04-12T13:34:33.000Z</time>
      </trkpt>
      <trkpt lat="47.21764" lon="-1.55908">
        <ele>71</ele>
        <time>2021-04-12T13:34:35.000Z</time>
      </trkpt>
      <trkpt lat="47.21755" lon="-1.55898">
        <ele>70</ele>
        <time>2021-04-12T13:34:37.000Z</time>
      </trkpt>
      <trkpt lat="47.21745" lon="-1.55889">
        <ele>69</ele>
        <time>2021-04-12T13:34:39.000Z</time>
      </trkpt>
      <trkpt lat="47.21738" lon="-1.55877">
        <ele>68</ele>
        <time>2021-04-12T13:34:41.000Z</time>
      </trkpt>
      <trkpt lat="47.2173" lon="-1.55864">
        <ele>68</ele>
        <time>2021-04-12T13:34:43.000Z</time>
      </trkpt>
      <trkpt lat="47.21722" lon="-1.55852">
        <ele>68</ele>
        <time>2021-04-12T13:34:45.000Z</time>
      </trkpt>
      <trkpt lat="47.21714" lon="-1.55841">
        <ele>67</ele>
        <time>2021-04-12T13:34:47.000Z</time>
      </trkpt>
      <trkpt lat="47.21705" lon="-1.5583">
        <ele>67</ele>
        <time>2021-04-12T13:34:49.000Z</time>
      </trkpt>
      <trkpt lat="47.21697" lon="-1.55818">
        <ele>67</ele>
        <time>2021-04-12T13:34:51.000Z</time>
      </trkpt>
      <trkpt lat="47.21693" lon="-1.55803">
        <ele>65</ele>
        <time>2021-04-12T13:34:53.000Z</time>
      </trkpt>
      <trkpt lat="47.21688" lon="-1.55788">
        <ele>65</ele>
        <time>2021-04-12T13:34:55.000Z</time>
      </trkpt>
      <trkpt lat="47.21678" lon="-1.55775">
        <ele>63</ele>
        <time>2021-04-12T13:34:57.000Z</time>
      </trkpt>
      <trkpt lat="47.21667" lon="-1.55761">
        <ele>62</ele>
        <time>2021-04-12T13:34:59.000Z</time>
      </trkpt>
      <trkpt lat="47.21656" lon="-1.55748">
        <ele>61</ele>
        <time>2021-04-12T13:35:01.000Z</time>
      </trkpt>
      <trkpt lat="47.21646" lon="-1.55736">
        <ele>60</ele>
        <time>2021-04-12T13:35:03.000Z</time>
      </trkpt>
      <trkpt lat="47.21635" lon="-1.55726">
        <ele>60</ele>
        <time>2021-04-12T13:35:05.000Z</time>
      </trkpt>
      <trkpt lat="47.21626" lon="-1.55717">
        <ele>59</ele>
        <time>2021-04-12T13:35:07.000Z</time>
      </trkpt>
      <trkpt lat="47.21617" lon="-1.55708">
        <ele>59</ele>
        <time>2021-04-12T13:35:09.000Z</time>
      </trkpt>
      <trkpt lat="47.2161" lon="-1.557">
        <ele>59</ele>
        <time>2021-04-12T13:35:11.000Z</time>
      </trkpt>
      <trkpt lat="47.21607" lon="-1.55687">
        <ele>58</ele>
        <time>2021-04-12T13:35:13.000Z</time>
      </trkpt>
      <trkpt lat="47.21603" lon="-1.55675">
        <ele>59</ele>
        <time>2021-04-12T13:35:15.000Z</time>
      </trkpt>
      <trkpt lat="47.21599" lon="-1.55661">
        <ele>58</ele>
        <time>2021-04-12T13:35:17.000Z</time>
      </trkpt>
      <trkpt lat="47.2159" lon="-1.5565">
        <ele>58</ele>
        <time>2021-04-12T13:35:19.000Z</time>
      </trkpt>
      <trkpt lat="47.21576" lon="-1.55645">
        <ele>58</ele>
        <time>2021-04-12T13:35:21.000Z</time>
      </trkpt>
      <trkpt lat="47.21559" lon="-1.55641">
        <ele>58</ele>
        <time>2021-04-12T13:35:23.000Z</time>
      </trkpt>
      <trkpt lat="47.21542" lon="-1.55634">
        <ele>59</ele>
        <time>2021-04-12T13:35:25.000Z</time>
      </trkpt>
      <trkpt lat="47.21529" lon="-1.55628">
        <ele>59</ele>
        <time>2021-04-12T13:35:27.000Z</time>
      </trkpt>
      <trkpt lat="47.21518" lon="-1.55623">
        <ele>59</ele>
        <time>2021-04-12T13:35:30.000Z</time>
      </trkpt>
      <trkpt lat="47.21508" lon="-1.55623">
        <ele>59</ele>
        <time>2021-04-12T13:35:34.000Z</time>
      </trkpt>
      <trkpt lat="47.21499" lon="-1.55618">
        <ele>59</ele>
        <time>2021-04-12T13:35:36.000Z</time>
      </trkpt>
      <trkpt lat="47.21489" lon="-1.55612">
        <ele>58</ele>
        <time>2021-04-12T13:35:39.000Z</time>
      </trkpt>
      <trkpt lat="47.21477" lon="-1.55601">
        <ele>58</ele>
        <time>2021-04-12T13:35:42.000Z</time>
      </trkpt>
      <trkpt lat="47.21468" lon="-1.5559">
        <ele>57</ele>
        <time>2021-04-12T13:35:44.000Z</time>
      </trkpt>
      <trkpt lat="47.21456" lon="-1.55579">
        <ele>57</ele>
        <time>2021-04-12T13:35:46.000Z</time>
      </trkpt>
      <trkpt lat="47.21445" lon="-1.55567">
        <ele>57</ele>
        <time>2021-04-12T13:35:48.000Z</time>
      </trkpt>
      <trkpt lat="47.21437" lon="-1.55559">
        <ele>57</ele>
        <time>2021-04-12T13:35:50.000Z</time>
      </trkpt>
      <trkpt lat="47.21429" lon="-1.5555">
        <ele>57</ele>
        <time>2021-04-12T13:35:53.000Z</time>
      </trkpt>
      <trkpt lat="47.21421" lon="-1.55543">
        <ele>57</ele>
        <time>2021-04-12T13:36:03.000Z</time>
      </trkpt>
      <trkpt lat="47.21413" lon="-1.55538">
        <ele>57</ele>
        <time>2021-04-12T13:36:18.000Z</time>
      </trkpt>
      <trkpt lat="47.21404" lon="-1.55527">
        <ele>57</ele>
        <time>2021-04-12T13:36:20.000Z</time>
      </trkpt>
      <trkpt lat="47.21394" lon="-1.55515">
        <ele>55</ele>
        <time>2021-04-12T13:36:22.000Z</time>
      </trkpt>
      <trkpt lat="47.21385" lon="-1.55504">
        <ele>55</ele>
        <time>2021-04-12T13:36:24.000Z</time>
      </trkpt>
      <trkpt lat="47.21375" lon="-1.55493">
        <ele>54</ele>
        <time>2021-04-12T13:36:26.000Z</time>
      </trkpt>
      <trkpt lat="47.21363" lon="-1.55481">
        <ele>53</ele>
        <time>2021-04-12T13:36:28.000Z</time>
      </trkpt>
      <trkpt lat="47.21351" lon="-1.55469">
        <ele>53</ele>
        <time>2021-04-12T13:36:30.000Z</time>
      </trkpt>
      <trkpt lat="47.21338" lon="-1.55458">
        <ele>52</ele>
        <time>2021-04-12T13:36:32.000Z</time>
      </trkpt>
      <trkpt lat="47.21325" lon="-1.55447">
        <ele>52</ele>
        <time>2021-04-12T13:36:34.000Z</time>
      </trkpt>
      <trkpt lat="47.21312" lon="-1.55437">
        <ele>52</ele>
        <time>2021-04-12T13:36:36.000Z</time>
      </trkpt>
      <trkpt lat="47.213" lon="-1.55426">
        <ele>52</ele>
        <time>2021-04-12T13:36:38.000Z</time>
      </trkpt>
      <trkpt lat="47.21289" lon="-1.55417">
        <ele>53</ele>
        <time>2021-04-12T13:36:40.000Z</time>
      </trkpt>
      <trkpt lat="47.21278" lon="-1.55411">
        <ele>53</ele>
        <time>2021-04-12T13:36:42.000Z</time>
      </trkpt>
      <trkpt lat="47.21267" lon="-1.55414">
        <ele>53</ele>
        <time>2021-04-12T13:36:46.000Z</time>
      </trkpt>
      <trkpt lat="47.21256" lon="-1.55404">
        <ele>53</ele>
        <time>2021-04-12T13:36:49.000Z</time>
      </trkpt>
      <trkpt lat="47.21244" lon="-1.55394">
        <ele>53</ele>
        <time>2021-04-12T13:36:52.000Z</time>
      </trkpt>
      <trkpt lat="47.21233" lon="-1.55393">
        <ele>53</ele>
        <time>2021-04-12T13:36:54.000Z</time>
      </trkpt>
      <trkpt lat="47.21222" lon="-1.55387">
        <ele>54</ele>
        <time>2021-04-12T13:36:56.000Z</time>
      </trkpt>
      <trkpt lat="47.21213" lon="-1.55382">
        <ele>54</ele>
        <time>2021-04-12T13:36:58.000Z</time>
      </trkpt>
      <trkpt lat="47.21205" lon="-1.55372">
        <ele>54</ele>
        <time>2021-04-12T13:37:00.000Z</time>
      </trkpt>
      <trkpt lat="47.21198" lon="-1.55361">
        <ele>53</ele>
        <time>2021-04-12T13:37:02.000Z</time>
      </trkpt>
      <trkpt lat="47.21189" lon="-1.55351">
        <ele>54</ele>
        <time>2021-04-12T13:37:04.000Z</time>
      </trkpt>
      <trkpt lat="47.21179" lon="-1.55342">
        <ele>54</ele>
        <time>2021-04-12T13:37:06.000Z</time>
      </trkpt>
      <trkpt lat="47.21171" lon="-1.55335">
        <ele>54</ele>
        <time>2021-04-12T13:37:08.000Z</time>
      </trkpt>
      <trkpt lat="47.21162" lon="-1.55326">
        <ele>54</ele>
        <time>2021-04-12T13:37:10.000Z</time>
      </trkpt>
      <trkpt lat="47.21152" lon="-1.55313">
        <ele>54</ele>
        <time>2021-04-12T13:37:12.000Z</time>
      </trkpt>
      <trkpt lat="47.21141" lon="-1.553">
        <ele>54</ele>
        <time>2021-04-12T13:37:14.000Z</time>
      </trkpt>
      <trkpt lat="47.2113" lon="-1.55287">
        <ele>54</ele>
        <time>2021-04-12T13:37:16.000Z</time>
      </trkpt>
      <trkpt lat="47.21119" lon="-1.55273">
        <ele>54</ele>
        <time>2021-04-12T13:37:18.000Z</time>
      </trkpt>
      <trkpt lat="47.21108" lon="-1.5526">
        <ele>55</ele>
        <time>2021-04-12T13:37:20.000Z</time>
      </trkpt>
      <trkpt lat="47.21098" lon="-1.55248">
        <ele>55</ele>
        <time>2021-04-12T13:37:22.000Z</time>
      </trkpt>
      <trkpt lat="47.21087" lon="-1.55237">
        <ele>55</ele>
        <time>2021-04-12T13:37:24.000Z</time>
      </trkpt>
      <trkpt lat="47.21077" lon="-1.55226">
        <ele>55</ele>
        <time>2021-04-12T13:37:26.000Z</time>
      </trkpt>
      <trkpt lat="47.21066" lon="-1.55215">
        <ele>54</ele>
        <time>2021-04-12T13:37:28.000Z</time>
      </trkpt>
      <trkpt lat="47.21055" lon="-1.55203">
        <ele>54</ele>
        <time>2021-04-12T13:37:30.000Z</time>
      </trkpt>
      <trkpt lat="47.21045" lon="-1.55192">
        <ele>54</ele>
        <time>2021-04-12T13:37:32.000Z</time>
      </trkpt>
      <trkpt lat="47.21033" lon="-1.55181">
        <ele>54</ele>
        <time>2021-04-12T13:37:34.000Z</time>
      </trkpt>
      <trkpt lat="47.21022" lon="-1.55171">
        <ele>54</ele>
        <time>2021-04-12T13:37:36.000Z</time>
      </trkpt>
      <trkpt lat="47.21011" lon="-1.55156">
        <ele>53</ele>
        <time>2021-04-12T13:37:38.000Z</time>
      </trkpt>
      <trkpt lat="47.21001" lon="-1.55143">
        <ele>53</ele>
        <time>2021-04-12T13:37:40.000Z</time>
      </trkpt>
      <trkpt lat="47.20989" lon="-1.5513">
        <ele>53</ele>
        <time>2021-04-12T13:37:42.000Z</time>
      </trkpt>
      <trkpt lat="47.20978" lon="-1.55118">
        <ele>52</ele>
        <time>2021-04-12T13:37:44.000Z</time>
      </trkpt>
      <trkpt lat="47.20966" lon="-1.55105">
        <ele>53</ele>
        <time>2021-04-12T13:37:46.000Z</time>
      </trkpt>
      <trkpt lat="47.20955" lon="-1.55092">
        <ele>53</ele>
        <time>2021-04-12T13:37:48.000Z</time>
      </trkpt>
      <trkpt lat="47.20944" lon="-1.55081">
        <ele>53</ele>
        <time>2021-04-12T13:37:50.000Z</time>
      </trkpt>
      <trkpt lat="47.20935" lon="-1.5507">
        <ele>53</ele>
        <time>2021-04-12T13:37:52.000Z</time>
      </trkpt>
      <trkpt lat="47.20924" lon="-1.55058">
        <ele>52</ele>
        <time>2021-04-12T13:37:54.000Z</time>
      </trkpt>
      <trkpt lat="47.20914" lon="-1.55047">
        <ele>52</ele>
        <time>2021-04-12T13:37:56.000Z</time>
      </trkpt>
      <trkpt lat="47.20904" lon="-1.55036">
        <ele>53</ele>
        <time>2021-04-12T13:37:58.000Z</time>
      </trkpt>
      <trkpt lat="47.20896" lon="-1.55029">
        <ele>53</ele>
        <time>2021-04-12T13:38:00.000Z</time>
      </trkpt>
      <trkpt lat="47.20887" lon="-1.55022">
        <ele>53</ele>
        <time>2021-04-12T13:38:03.000Z</time>
      </trkpt>
      <trkpt lat="47.20875" lon="-1.55012">
        <ele>53</ele>
        <time>2021-04-12T13:38:09.000Z</time>
      </trkpt>
      <trkpt lat="47.20865" lon="-1.55002">
        <ele>53</ele>
        <time>2021-04-12T13:38:11.000Z</time>
      </trkpt>
      <trkpt lat="47.20855" lon="-1.54993">
        <ele>53</ele>
        <time>2021-04-12T13:38:13.000Z</time>
      </trkpt>
      <trkpt lat="47.20844" lon="-1.54986">
        <ele>53</ele>
        <time>2021-04-12T13:38:15.000Z</time>
      </trkpt>
      <trkpt lat="47.20832" lon="-1.54977">
        <ele>54</ele>
        <time>2021-04-12T13:38:17.000Z</time>
      </trkpt>
      <trkpt lat="47.2082" lon="-1.54968">
        <ele>54</ele>
        <time>2021-04-12T13:38:19.000Z</time>
      </trkpt>
      <trkpt lat="47.20808" lon="-1.5496">
        <ele>54</ele>
        <time>2021-04-12T13:38:21.000Z</time>
      </trkpt>
      <trkpt lat="47.20797" lon="-1.54952">
        <ele>55</ele>
        <time>2021-04-12T13:38:23.000Z</time>
      </trkpt>
      <trkpt lat="47.20785" lon="-1.54944">
        <ele>55</ele>
        <time>2021-04-12T13:38:25.000Z</time>
      </trkpt>
      <trkpt lat="47.20774" lon="-1.54937">
        <ele>56</ele>
        <time>2021-04-12T13:38:27.000Z</time>
      </trkpt>
      <trkpt lat="47.20764" lon="-1.5493">
        <ele>55</ele>
        <time>2021-04-12T13:38:29.000Z</time>
      </trkpt>
      <trkpt lat="47.20752" lon="-1.54923">
        <ele>55</ele>
        <time>2021-04-12T13:38:31.000Z</time>
      </trkpt>
      <trkpt lat="47.2074" lon="-1.54915">
        <ele>55</ele>
        <time>2021-04-12T13:38:33.000Z</time>
      </trkpt>
      <trkpt lat="47.20726" lon="-1.54906">
        <ele>54</ele>
        <time>2021-04-12T13:38:35.000Z</time>
      </trkpt>
      <trkpt lat="47.20711" lon="-1.54897">
        <ele>53</ele>
        <time>2021-04-12T13:38:37.000Z</time>
      </trkpt>
      <trkpt lat="47.20696" lon="-1.54888">
        <ele>52</ele>
        <time>2021-04-12T13:38:39.000Z</time>
      </trkpt>
      <trkpt lat="47.2068" lon="-1.54876">
        <ele>52</ele>
        <time>2021-04-12T13:38:41.000Z</time>
      </trkpt>
      <trkpt lat="47.20666" lon="-1.54865">
        <ele>52</ele>
        <time>2021-04-12T13:38:43.000Z</time>
      </trkpt>
      <trkpt lat="47.20653" lon="-1.54854">
        <ele>53</ele>
        <time>2021-04-12T13:38:45.000Z</time>
      </trkpt>
      <trkpt lat="47.20642" lon="-1.54844">
        <ele>54</ele>
        <time>2021-04-12T13:38:47.000Z</time>
      </trkpt>
      <trkpt lat="47.20632" lon="-1.54837">
        <ele>54</ele>
        <time>2021-04-12T13:38:50.000Z</time>
      </trkpt>
      <trkpt lat="47.20623" lon="-1.54833">
        <ele>53</ele>
        <time>2021-04-12T13:39:18.000Z</time>
      </trkpt>
      <trkpt lat="47.20613" lon="-1.54825">
        <ele>53</ele>
        <time>2021-04-12T13:39:21.000Z</time>
      </trkpt>
      <trkpt lat="47.206" lon="-1.54812">
        <ele>54</ele>
        <time>2021-04-12T13:39:24.000Z</time>
      </trkpt>
      <trkpt lat="47.20587" lon="-1.548">
        <ele>54</ele>
        <time>2021-04-12T13:39:26.000Z</time>
      </trkpt>
      <trkpt lat="47.20573" lon="-1.54788">
        <ele>54</ele>
        <time>2021-04-12T13:39:28.000Z</time>
      </trkpt>
      <trkpt lat="47.20558" lon="-1.54778">
        <ele>55</ele>
        <time>2021-04-12T13:39:30.000Z</time>
      </trkpt>
      <trkpt lat="47.20543" lon="-1.54768">
        <ele>55</ele>
        <time>2021-04-12T13:39:32.000Z</time>
      </trkpt>
      <trkpt lat="47.2053" lon="-1.54764">
        <ele>56</ele>
        <time>2021-04-12T13:39:34.000Z</time>
      </trkpt>
      <trkpt lat="47.2052" lon="-1.54777">
        <ele>56</ele>
        <time>2021-04-12T13:39:36.000Z</time>
      </trkpt>
      <trkpt lat="47.20516" lon="-1.54796">
        <ele>56</ele>
        <time>2021-04-12T13:39:38.000Z</time>
      </trkpt>
      <trkpt lat="47.20511" lon="-1.54817">
        <ele>55</ele>
        <time>2021-04-12T13:39:40.000Z</time>
      </trkpt>
      <trkpt lat="47.20505" lon="-1.54838">
        <ele>56</ele>
        <time>2021-04-12T13:39:42.000Z</time>
      </trkpt>
      <trkpt lat="47.20499" lon="-1.54857">
        <ele>56</ele>
        <time>2021-04-12T13:39:44.000Z</time>
      </trkpt>
      <trkpt lat="47.20494" lon="-1.54876">
        <ele>56</ele>
        <time>2021-04-12T13:39:46.000Z</time>
      </trkpt>
      <trkpt lat="47.20487" lon="-1.54896">
        <ele>56</ele>
        <time>2021-04-12T13:39:48.000Z</time>
      </trkpt>
      <trkpt lat="47.20482" lon="-1.54916">
        <ele>55</ele>
        <time>2021-04-12T13:39:50.000Z</time>
      </trkpt>
      <trkpt lat="47.20477" lon="-1.54935">
        <ele>55</ele>
        <time>2021-04-12T13:39:52.000Z</time>
      </trkpt>
      <trkpt lat="47.20472" lon="-1.54956">
        <ele>54</ele>
        <time>2021-04-12T13:39:54.000Z</time>
      </trkpt>
      <trkpt lat="47.20467" lon="-1.54975">
        <ele>54</ele>
        <time>2021-04-12T13:39:56.000Z</time>
      </trkpt>
      <trkpt lat="47.20461" lon="-1.54994">
        <ele>54</ele>
        <time>2021-04-12T13:39:58.000Z</time>
      </trkpt>
      <trkpt lat="47.20454" lon="-1.55014">
        <ele>53</ele>
        <time>2021-04-12T13:40:00.000Z</time>
      </trkpt>
      <trkpt lat="47.20447" lon="-1.55032">
        <ele>52</ele>
        <time>2021-04-12T13:40:02.000Z</time>
      </trkpt>
      <trkpt lat="47.20441" lon="-1.5505">
        <ele>52</ele>
        <time>2021-04-12T13:40:04.000Z</time>
      </trkpt>
      <trkpt lat="47.20435" lon="-1.55067">
        <ele>53</ele>
        <time>2021-04-12T13:40:06.000Z</time>
      </trkpt>
      <trkpt lat="47.20429" lon="-1.55084">
        <ele>53</ele>
        <time>2021-04-12T13:40:08.000Z</time>
      </trkpt>
      <trkpt lat="47.20423" lon="-1.551">
        <ele>54</ele>
        <time>2021-04-12T13:40:10.000Z</time>
      </trkpt>
      <trkpt lat="47.20416" lon="-1.55117">
        <ele>55</ele>
        <time>2021-04-12T13:40:12.000Z</time>
      </trkpt>
      <trkpt lat="47.20411" lon="-1.55133">
        <ele>55</ele>
        <time>2021-04-12T13:40:14.000Z</time>
      </trkpt>
      <trkpt lat="47.20406" lon="-1.55148">
        <ele>56</ele>
        <time>2021-04-12T13:40:16.000Z</time>
      </trkpt>
      <trkpt lat="47.20401" lon="-1.55161">
        <ele>57</ele>
        <time>2021-04-12T13:40:18.000Z</time>
      </trkpt>
      <trkpt lat="47.20393" lon="-1.55174">
        <ele>57</ele>
        <time>2021-04-12T13:40:20.000Z</time>
      </trkpt>
      <trkpt lat="47.2038" lon="-1.55181">
        <ele>57</ele>
        <time>2021-04-12T13:40:22.000Z</time>
      </trkpt>
      <trkpt lat="47.20368" lon="-1.55191">
        <ele>58</ele>
        <time>2021-04-12T13:40:24.000Z</time>
      </trkpt>
      <trkpt lat="47.20356" lon="-1.55205">
        <ele>58</ele>
        <time>2021-04-12T13:40:26.000Z</time>
      </trkpt>
      <trkpt lat="47.20344" lon="-1.5522">
        <ele>57</ele>
        <time>2021-04-12T13:40:28.000Z</time>
      </trkpt>
      <trkpt lat="47.20333" lon="-1.55235">
        <ele>57</ele>
        <time>2021-04-12T13:40:30.000Z</time>
      </trkpt>
      <trkpt lat="47.20321" lon="-1.55251">
        <ele>57</ele>
        <time>2021-04-12T13:40:32.000Z</time>
      </trkpt>
      <trkpt lat="47.20311" lon="-1.55265">
        <ele>58</ele>
        <time>2021-04-12T13:40:34.000Z</time>
      </trkpt>
      <trkpt lat="47.203" lon="-1.55278">
        <ele>59</ele>
        <time>2021-04-12T13:40:36.000Z</time>
      </trkpt>
      <trkpt lat="47.20289" lon="-1.55293">
        <ele>59</ele>
        <time>2021-04-12T13:40:38.000Z</time>
      </trkpt>
      <trkpt lat="47.20278" lon="-1.55307">
        <ele>60</ele>
        <time>2021-04-12T13:40:40.000Z</time>
      </trkpt>
      <trkpt lat="47.20268" lon="-1.55321">
        <ele>60</ele>
        <time>2021-04-12T13:40:42.000Z</time>
      </trkpt>
      <trkpt lat="47.20258" lon="-1.55335">
        <ele>60</ele>
        <time>2021-04-12T13:40:44.000Z</time>
      </trkpt>
      <trkpt lat="47.20248" lon="-1.55349">
        <ele>59</ele>
        <time>2021-04-12T13:40:46.000Z</time>
      </trkpt>
      <trkpt lat="47.20238" lon="-1.55362">
        <ele>59</ele>
        <time>2021-04-12T13:40:48.000Z</time>
      </trkpt>
      <trkpt lat="47.20228" lon="-1.55376">
        <ele>58</ele>
        <time>2021-04-12T13:40:50.000Z</time>
      </trkpt>
      <trkpt lat="47.20217" lon="-1.55389">
        <ele>57</ele>
        <time>2021-04-12T13:40:52.000Z</time>
      </trkpt>
      <trkpt lat="47.20207" lon="-1.55402">
        <ele>57</ele>
        <time>2021-04-12T13:40:54.000Z</time>
      </trkpt>
      <trkpt lat="47.20198" lon="-1.55415">
        <ele>58</ele>
        <time>2021-04-12T13:40:56.000Z</time>
      </trkpt>
      <trkpt lat="47.20187" lon="-1.55429">
        <ele>57</ele>
        <time>2021-04-12T13:40:58.000Z</time>
      </trkpt>
      <trkpt lat="47.20177" lon="-1.55442">
        <ele>57</ele>
        <time>2021-04-12T13:41:00.000Z</time>
      </trkpt>
      <trkpt lat="47.20168" lon="-1.55452">
        <ele>57</ele>
        <time>2021-04-12T13:41:02.000Z</time>
      </trkpt>
      <trkpt lat="47.2016" lon="-1.55461">
        <ele>56</ele>
        <time>2021-04-12T13:41:04.000Z</time>
      </trkpt>
      <trkpt lat="47.20151" lon="-1.55472">
        <ele>56</ele>
        <time>2021-04-12T13:41:06.000Z</time>
      </trkpt>
      <trkpt lat="47.2014" lon="-1.5548">
        <ele>56</ele>
        <time>2021-04-12T13:41:08.000Z</time>
      </trkpt>
      <trkpt lat="47.20127" lon="-1.55489">
        <ele>56</ele>
        <time>2021-04-12T13:41:10.000Z</time>
      </trkpt>
      <trkpt lat="47.20116" lon="-1.55502">
        <ele>56</ele>
        <time>2021-04-12T13:41:12.000Z</time>
      </trkpt>
      <trkpt lat="47.20106" lon="-1.55516">
        <ele>55</ele>
        <time>2021-04-12T13:41:14.000Z</time>
      </trkpt>
      <trkpt lat="47.20095" lon="-1.5553">
        <ele>55</ele>
        <time>2021-04-12T13:41:16.000Z</time>
      </trkpt>
      <trkpt lat="47.20084" lon="-1.55544">
        <ele>55</ele>
        <time>2021-04-12T13:41:18.000Z</time>
      </trkpt>
      <trkpt lat="47.20074" lon="-1.55558">
        <ele>55</ele>
        <time>2021-04-12T13:41:20.000Z</time>
      </trkpt>
      <trkpt lat="47.20064" lon="-1.55572">
        <ele>55</ele>
        <time>2021-04-12T13:41:22.000Z</time>
      </trkpt>
      <trkpt lat="47.20054" lon="-1.55585">
        <ele>56</ele>
        <time>2021-04-12T13:41:24.000Z</time>
      </trkpt>
      <trkpt lat="47.20043" lon="-1.55598">
        <ele>56</ele>
        <time>2021-04-12T13:41:26.000Z</time>
      </trkpt>
      <trkpt lat="47.20032" lon="-1.55612">
        <ele>56</ele>
        <time>2021-04-12T13:41:28.000Z</time>
      </trkpt>
      <trkpt lat="47.20023" lon="-1.55624">
        <ele>56</ele>
        <time>2021-04-12T13:41:30.000Z</time>
      </trkpt>
      <trkpt lat="47.20011" lon="-1.55632">
        <ele>56</ele>
        <time>2021-04-12T13:41:32.000Z</time>
      </trkpt>
      <trkpt lat="47.19998" lon="-1.55635">
        <ele>57</ele>
        <time>2021-04-12T13:41:34.000Z</time>
      </trkpt>
      <trkpt lat="47.19985" lon="-1.55642">
        <ele>57</ele>
        <time>2021-04-12T13:41:36.000Z</time>
      </trkpt>
      <trkpt lat="47.19973" lon="-1.55649">
        <ele>57</ele>
        <time>2021-04-12T13:41:38.000Z</time>
      </trkpt>
      <trkpt lat="47.19961" lon="-1.55658">
        <ele>57</ele>
        <time>2021-04-12T13:41:40.000Z</time>
      </trkpt>
      <trkpt lat="47.19951" lon="-1.55669">
        <ele>56</ele>
        <time>2021-04-12T13:41:42.000Z</time>
      </trkpt>
      <trkpt lat="47.19942" lon="-1.55684">
        <ele>56</ele>
        <time>2021-04-12T13:41:44.000Z</time>
      </trkpt>
      <trkpt lat="47.19936" lon="-1.55701">
        <ele>55</ele>
        <time>2021-04-12T13:41:46.000Z</time>
      </trkpt>
      <trkpt lat="47.19933" lon="-1.55719">
        <ele>55</ele>
        <time>2021-04-12T13:41:48.000Z</time>
      </trkpt>
      <trkpt lat="47.19932" lon="-1.55738">
        <ele>55</ele>
        <time>2021-04-12T13:41:50.000Z</time>
      </trkpt>
      <trkpt lat="47.19931" lon="-1.55757">
        <ele>55</ele>
        <time>2021-04-12T13:41:52.000Z</time>
      </trkpt>
      <trkpt lat="47.19931" lon="-1.55776">
        <ele>55</ele>
        <time>2021-04-12T13:41:54.000Z</time>
      </trkpt>
      <trkpt lat="47.19931" lon="-1.55795">
        <ele>55</ele>
        <time>2021-04-12T13:41:56.000Z</time>
      </trkpt>
      <trkpt lat="47.19931" lon="-1.55814">
        <ele>55</ele>
        <time>2021-04-12T13:41:58.000Z</time>
      </trkpt>
      <trkpt lat="47.19932" lon="-1.55832">
        <ele>54</ele>
        <time>2021-04-12T13:42:00.000Z</time>
      </trkpt>
      <trkpt lat="47.19933" lon="-1.55852">
        <ele>54</ele>
        <time>2021-04-12T13:42:02.000Z</time>
      </trkpt>
      <trkpt lat="47.19933" lon="-1.5587">
        <ele>54</ele>
        <time>2021-04-12T13:42:04.000Z</time>
      </trkpt>
      <trkpt lat="47.19933" lon="-1.55889">
        <ele>54</ele>
        <time>2021-04-12T13:42:06.000Z</time>
      </trkpt>
      <trkpt lat="47.19933" lon="-1.55907">
        <ele>54</ele>
        <time>2021-04-12T13:42:08.000Z</time>
      </trkpt>
      <trkpt lat="47.19933" lon="-1.55926">
        <ele>53</ele>
        <time>2021-04-12T13:42:10.000Z</time>
      </trkpt>
      <trkpt lat="47.19933" lon="-1.55945">
        <ele>53</ele>
        <time>2021-04-12T13:42:12.000Z</time>
      </trkpt>
      <trkpt lat="47.19933" lon="-1.55964">
        <ele>53</ele>
        <time>2021-04-12T13:42:14.000Z</time>
      </trkpt>
      <trkpt lat="47.19933" lon="-1.55983">
        <ele>53</ele>
        <time>2021-04-12T13:42:16.000Z</time>
      </trkpt>
      <trkpt lat="47.19933" lon="-1.56002">
        <ele>54</ele>
        <time>2021-04-12T13:42:18.000Z</time>
      </trkpt>
      <trkpt lat="47.19933" lon="-1.5602">
        <ele>54</ele>
        <time>2021-04-12T13:42:20.000Z</time>
      </trkpt>
      <trkpt lat="47.19933" lon="-1.56038">
        <ele>54</ele>
        <time>2021-04-12T13:42:22.000Z</time>
      </trkpt>
      <trkpt lat="47.19934" lon="-1.56055">
        <ele>54</ele>
        <time>2021-04-12T13:42:24.000Z</time>
      </trkpt>
      <trkpt lat="47.19937" lon="-1.56072">
        <ele>54</ele>
        <time>2021-04-12T13:42:26.000Z</time>
      </trkpt>
      <trkpt lat="47.19943" lon="-1.56088">
        <ele>54</ele>
        <time>2021-04-12T13:42:28.000Z</time>
      </trkpt>
      <trkpt lat="47.1995" lon="-1.56101">
        <ele>54</ele>
        <time>2021-04-12T13:42:30.000Z</time>
      </trkpt>
      <trkpt lat="47.19956" lon="-1.56114">
        <ele>54</ele>
        <time>2021-04-12T13:42:32.000Z</time>
      </trkpt>
      <trkpt lat="47.19959" lon="-1.56131">
        <ele>54</ele>
        <time>2021-04-12T13:42:35.000Z</time>
      </trkpt>
      <trkpt lat="47.19965" lon="-1.56141">
        <ele>54</ele>
        <time>2021-04-12T13:42:38.000Z</time>
      </trkpt>
      <trkpt lat="47.19969" lon="-1.56157">
        <ele>54</ele>
        <time>2021-04-12T13:42:41.000Z</time>
      </trkpt>
      <trkpt lat="47.19961" lon="-1.56168">
        <ele>55</ele>
        <time>2021-04-12T13:42:44.000Z</time>
      </trkpt>
      <trkpt lat="47.19951" lon="-1.56171">
        <ele>56</ele>
        <time>2021-04-12T13:42:46.000Z</time>
      </trkpt>
      <trkpt lat="47.1994" lon="-1.56172">
        <ele>57</ele>
        <time>2021-04-12T13:42:48.000Z</time>
      </trkpt>
      <trkpt lat="47.1993" lon="-1.56173">
        <ele>57</ele>
        <time>2021-04-12T13:42:50.000Z</time>
      </trkpt>
      <trkpt lat="47.19919" lon="-1.56175">
        <ele>59</ele>
        <time>2021-04-12T13:42:52.000Z</time>
      </trkpt>
      <trkpt lat="47.19908" lon="-1.56176">
        <ele>59</ele>
        <time>2021-04-12T13:42:54.000Z</time>
      </trkpt>
      <trkpt lat="47.19897" lon="-1.56178">
        <ele>59</ele>
        <time>2021-04-12T13:42:56.000Z</time>
      </trkpt>
      <trkpt lat="47.19886" lon="-1.5618">
        <ele>59</ele>
        <time>2021-04-12T13:42:58.000Z</time>
      </trkpt>
      <trkpt lat="47.19875" lon="-1.56181">
        <ele>60</ele>
        <time>2021-04-12T13:43:00.000Z</time>
      </trkpt>
      <trkpt lat="47.19864" lon="-1.56184">
        <ele>60</ele>
        <time>2021-04-12T13:43:02.000Z</time>
      </trkpt>
      <trkpt lat="47.19854" lon="-1.56186">
        <ele>60</ele>
        <time>2021-04-12T13:43:04.000Z</time>
      </trkpt>
      <trkpt lat="47.19843" lon="-1.56188">
        <ele>60</ele>
        <time>2021-04-12T13:43:06.000Z</time>
      </trkpt>
      <trkpt lat="47.19833" lon="-1.5619">
        <ele>60</ele>
        <time>2021-04-12T13:43:08.000Z</time>
      </trkpt>
      <trkpt lat="47.19823" lon="-1.56192">
        <ele>60</ele>
        <time>2021-04-12T13:43:10.000Z</time>
      </trkpt>
      <trkpt lat="47.19812" lon="-1.56194">
        <ele>60</ele>
        <time>2021-04-12T13:43:12.000Z</time>
      </trkpt>
      <trkpt lat="47.19801" lon="-1.56196">
        <ele>59</ele>
        <time>2021-04-12T13:43:14.000Z</time>
      </trkpt>
      <trkpt lat="47.1979" lon="-1.56198">
        <ele>59</ele>
        <time>2021-04-12T13:43:16.000Z</time>
      </trkpt>
      <trkpt lat="47.19779" lon="-1.562">
        <ele>59</ele>
        <time>2021-04-12T13:43:18.000Z</time>
      </trkpt>
      <trkpt lat="47.19768" lon="-1.56203">
        <ele>58</ele>
        <time>2021-04-12T13:43:20.000Z</time>
      </trkpt>
      <trkpt lat="47.19756" lon="-1.56205">
        <ele>58</ele>
        <time>2021-04-12T13:43:22.000Z</time>
      </trkpt>
      <trkpt lat="47.19744" lon="-1.56207">
        <ele>58</ele>
        <time>2021-04-12T13:43:24.000Z</time>
      </trkpt>
      <trkpt lat="47.19731" lon="-1.56209">
        <ele>57</ele>
        <time>2021-04-12T13:43:26.000Z</time>
      </trkpt>
      <trkpt lat="47.19717" lon="-1.56211">
        <ele>57</ele>
        <time>2021-04-12T13:43:28.000Z</time>
      </trkpt>
      <trkpt lat="47.19703" lon="-1.56214">
        <ele>56</ele>
        <time>2021-04-12T13:43:30.000Z</time>
      </trkpt>
      <trkpt lat="47.19688" lon="-1.56217">
        <ele>56</ele>
        <time>2021-04-12T13:43:32.000Z</time>
      </trkpt>
      <trkpt lat="47.19672" lon="-1.56221">
        <ele>55</ele>
        <time>2021-04-12T13:43:34.000Z</time>
      </trkpt>
      <trkpt lat="47.19656" lon="-1.56226">
        <ele>54</ele>
        <time>2021-04-12T13:43:36.000Z</time>
      </trkpt>
      <trkpt lat="47.19641" lon="-1.56234">
        <ele>53</ele>
        <time>2021-04-12T13:43:38.000Z</time>
      </trkpt>
      <trkpt lat="47.19636" lon="-1.56255">
        <ele>53</ele>
        <time>2021-04-12T13:43:40.000Z</time>
      </trkpt>
      <trkpt lat="47.19635" lon="-1.56276">
        <ele>53</ele>
        <time>2021-04-12T13:43:42.000Z</time>
      </trkpt>
      <trkpt lat="47.19634" lon="-1.56297">
        <ele>53</ele>
        <time>2021-04-12T13:43:44.000Z</time>
      </trkpt>
      <trkpt lat="47.19633" lon="-1.56316">
        <ele>53</ele>
        <time>2021-04-12T13:43:46.000Z</time>
      </trkpt>
      <trkpt lat="47.19632" lon="-1.56336">
        <ele>53</ele>
        <time>2021-04-12T13:43:48.000Z</time>
      </trkpt>
      <trkpt lat="47.19631" lon="-1.56354">
        <ele>52</ele>
        <time>2021-04-12T13:43:50.000Z</time>
      </trkpt>
      <trkpt lat="47.1963" lon="-1.56372">
        <ele>52</ele>
        <time>2021-04-12T13:43:52.000Z</time>
      </trkpt>
      <trkpt lat="47.19631" lon="-1.56391">
        <ele>51</ele>
        <time>2021-04-12T13:43:54.000Z</time>
      </trkpt>
      <trkpt lat="47.19631" lon="-1.5641">
        <ele>51</ele>
        <time>2021-04-12T13:43:56.000Z</time>
      </trkpt>
      <trkpt lat="47.19632" lon="-1.56428">
        <ele>51</ele>
        <time>2021-04-12T13:43:58.000Z</time>
      </trkpt>
      <trkpt lat="47.19632" lon="-1.56447">
        <ele>51</ele>
        <time>2021-04-12T13:44:00.000Z</time>
      </trkpt>
      <trkpt lat="47.19632" lon="-1.56465">
        <ele>51</ele>
        <time>2021-04-12T13:44:02.000Z</time>
      </trkpt>
      <trkpt lat="47.19633" lon="-1.56483">
        <ele>52</ele>
        <time>2021-04-12T13:44:04.000Z</time>
      </trkpt>
      <trkpt lat="47.19633" lon="-1.565">
        <ele>52</ele>
        <time>2021-04-12T13:44:06.000Z</time>
      </trkpt>
      <trkpt lat="47.19633" lon="-1.56518">
        <ele>52</ele>
        <time>2021-04-12T13:44:08.000Z</time>
      </trkpt>
      <trkpt lat="47.19633" lon="-1.56536">
        <ele>52</ele>
        <time>2021-04-12T13:44:10.000Z</time>
      </trkpt>
      <trkpt lat="47.19632" lon="-1.56554">
        <ele>52</ele>
        <time>2021-04-12T13:44:12.000Z</time>
      </trkpt>
      <trkpt lat="47.19632" lon="-1.56573">
        <ele>52</ele>
        <time>2021-04-12T13:44:14.000Z</time>
      </trkpt>
      <trkpt lat="47.19632" lon="-1.56593">
        <ele>53</ele>
        <time>2021-04-12T13:44:16.000Z</time>
      </trkpt>
      <trkpt lat="47.19631" lon="-1.56611">
        <ele>53</ele>
        <time>2021-04-12T13:44:18.000Z</time>
      </trkpt>
      <trkpt lat="47.19631" lon="-1.5663">
        <ele>53</ele>
        <time>2021-04-12T13:44:20.000Z</time>
      </trkpt>
      <trkpt lat="47.1963" lon="-1.5665">
        <ele>54</ele>
        <time>2021-04-12T13:44:22.000Z</time>
      </trkpt>
      <trkpt lat="47.19629" lon="-1.56668">
        <ele>53</ele>
        <time>2021-04-12T13:44:24.000Z</time>
      </trkpt>
      <trkpt lat="47.19629" lon="-1.56686">
        <ele>54</ele>
        <time>2021-04-12T13:44:26.000Z</time>
      </trkpt>
      <trkpt lat="47.19627" lon="-1.56706">
        <ele>54</ele>
        <time>2021-04-12T13:44:28.000Z</time>
      </trkpt>
      <trkpt lat="47.19625" lon="-1.56725">
        <ele>54</ele>
        <time>2021-04-12T13:44:30.000Z</time>
      </trkpt>
      <trkpt lat="47.19623" lon="-1.56744">
        <ele>54</ele>
        <time>2021-04-12T13:44:32.000Z</time>
      </trkpt>
      <trkpt lat="47.19622" lon="-1.56763">
        <ele>55</ele>
        <time>2021-04-12T13:44:34.000Z</time>
      </trkpt>
      <trkpt lat="47.19621" lon="-1.56781">
        <ele>55</ele>
        <time>2021-04-12T13:44:36.000Z</time>
      </trkpt>
      <trkpt lat="47.1962" lon="-1.568">
        <ele>54</ele>
        <time>2021-04-12T13:44:38.000Z</time>
      </trkpt>
      <trkpt lat="47.19618" lon="-1.5682">
        <ele>54</ele>
        <time>2021-04-12T13:44:40.000Z</time>
      </trkpt>
      <trkpt lat="47.19617" lon="-1.56839">
        <ele>54</ele>
        <time>2021-04-12T13:44:42.000Z</time>
      </trkpt>
      <trkpt lat="47.19617" lon="-1.56858">
        <ele>54</ele>
        <time>2021-04-12T13:44:44.000Z</time>
      </trkpt>
      <trkpt lat="47.19616" lon="-1.56875">
        <ele>53</ele>
        <time>2021-04-12T13:44:46.000Z</time>
      </trkpt>
      <trkpt lat="47.19615" lon="-1.56893">
        <ele>53</ele>
        <time>2021-04-12T13:44:48.000Z</time>
      </trkpt>
      <trkpt lat="47.19613" lon="-1.56911">
        <ele>54</ele>
        <time>2021-04-12T13:44:50.000Z</time>
      </trkpt>
      <trkpt lat="47.19612" lon="-1.5693">
        <ele>54</ele>
        <time>2021-04-12T13:44:52.000Z</time>
      </trkpt>
      <trkpt lat="47.19611" lon="-1.56948">
        <ele>54</ele>
        <time>2021-04-12T13:44:54.000Z</time>
      </trkpt>
      <trkpt lat="47.19609" lon="-1.56966">
        <ele>54</ele>
        <time>2021-04-12T13:44:56.000Z</time>
      </trkpt>
      <trkpt lat="47.19608" lon="-1.56985">
        <ele>54</ele>
        <time>2021-04-12T13:44:58.000Z</time>
      </trkpt>
      <trkpt lat="47.19607" lon="-1.57002">
        <ele>55</ele>
        <time>2021-04-12T13:45:00.000Z</time>
      </trkpt>
      <trkpt lat="47.19606" lon="-1.57019">
        <ele>55</ele>
        <time>2021-04-12T13:45:02.000Z</time>
      </trkpt>
      <trkpt lat="47.19605" lon="-1.57034">
        <ele>54</ele>
        <time>2021-04-12T13:45:04.000Z</time>
      </trkpt>
      <trkpt lat="47.19605" lon="-1.57051">
        <ele>54</ele>
        <time>2021-04-12T13:45:06.000Z</time>
      </trkpt>
      <trkpt lat="47.19604" lon="-1.5707">
        <ele>54</ele>
        <time>2021-04-12T13:45:08.000Z</time>
      </trkpt>
      <trkpt lat="47.19602" lon="-1.57089">
        <ele>54</ele>
        <time>2021-04-12T13:45:10.000Z</time>
      </trkpt>
      <trkpt lat="47.19601" lon="-1.57107">
        <ele>54</ele>
        <time>2021-04-12T13:45:12.000Z</time>
      </trkpt>
      <trkpt lat="47.196" lon="-1.57125">
        <ele>54</ele>
        <time>2021-04-12T13:45:14.000Z</time>
      </trkpt>
      <trkpt lat="47.19598" lon="-1.57143">
        <ele>54</ele>
        <time>2021-04-12T13:45:16.000Z</time>
      </trkpt>
      <trkpt lat="47.19596" lon="-1.57161">
        <ele>54</ele>
        <time>2021-04-12T13:45:18.000Z</time>
      </trkpt>
      <trkpt lat="47.19596" lon="-1.57176">
        <ele>54</ele>
        <time>2021-04-12T13:45:20.000Z</time>
      </trkpt>
      <trkpt lat="47.19596" lon="-1.57194">
        <ele>54</ele>
        <time>2021-04-12T13:45:22.000Z</time>
      </trkpt>
      <trkpt lat="47.19594" lon="-1.57213">
        <ele>53</ele>
        <time>2021-04-12T13:45:24.000Z</time>
      </trkpt>
      <trkpt lat="47.19593" lon="-1.57231">
        <ele>53</ele>
        <time>2021-04-12T13:45:26.000Z</time>
      </trkpt>
      <trkpt lat="47.19591" lon="-1.57249">
        <ele>52</ele>
        <time>2021-04-12T13:45:28.000Z</time>
      </trkpt>
      <trkpt lat="47.19589" lon="-1.57266">
        <ele>52</ele>
        <time>2021-04-12T13:45:30.000Z</time>
      </trkpt>
      <trkpt lat="47.19588" lon="-1.57284">
        <ele>52</ele>
        <time>2021-04-12T13:45:32.000Z</time>
      </trkpt>
      <trkpt lat="47.19587" lon="-1.57302">
        <ele>52</ele>
        <time>2021-04-12T13:45:34.000Z</time>
      </trkpt>
      <trkpt lat="47.19585" lon="-1.57318">
        <ele>53</ele>
        <time>2021-04-12T13:45:36.000Z</time>
      </trkpt>
      <trkpt lat="47.19583" lon="-1.57334">
        <ele>53</ele>
        <time>2021-04-12T13:45:38.000Z</time>
      </trkpt>
      <trkpt lat="47.19579" lon="-1.5735">
        <ele>52</ele>
        <time>2021-04-12T13:45:40.000Z</time>
      </trkpt>
      <trkpt lat="47.19575" lon="-1.57367">
        <ele>52</ele>
        <time>2021-04-12T13:45:42.000Z</time>
      </trkpt>
      <trkpt lat="47.19573" lon="-1.57384">
        <ele>53</ele>
        <time>2021-04-12T13:45:44.000Z</time>
      </trkpt>
      <trkpt lat="47.1957" lon="-1.57402">
        <ele>52</ele>
        <time>2021-04-12T13:45:46.000Z</time>
      </trkpt>
      <trkpt lat="47.19567" lon="-1.57422">
        <ele>52</ele>
        <time>2021-04-12T13:45:48.000Z</time>
      </trkpt>
      <trkpt lat="47.19564" lon="-1.57441">
        <ele>52</ele>
        <time>2021-04-12T13:45:50.000Z</time>
      </trkpt>
      <trkpt lat="47.19561" lon="-1.57461">
        <ele>51</ele>
        <time>2021-04-12T13:45:52.000Z</time>
      </trkpt>
      <trkpt lat="47.19558" lon="-1.5748">
        <ele>50</ele>
        <time>2021-04-12T13:45:54.000Z</time>
      </trkpt>
      <trkpt lat="47.19554" lon="-1.57501">
        <ele>50</ele>
        <time>2021-04-12T13:45:56.000Z</time>
      </trkpt>
      <trkpt lat="47.1955" lon="-1.57522">
        <ele>51</ele>
        <time>2021-04-12T13:45:58.000Z</time>
      </trkpt>
      <trkpt lat="47.19546" lon="-1.57541">
        <ele>50</ele>
        <time>2021-04-12T13:46:00.000Z</time>
      </trkpt>
      <trkpt lat="47.19542" lon="-1.57561">
        <ele>50</ele>
        <time>2021-04-12T13:46:02.000Z</time>
      </trkpt>
      <trkpt lat="47.19539" lon="-1.57581">
        <ele>50</ele>
        <time>2021-04-12T13:46:04.000Z</time>
      </trkpt>
      <trkpt lat="47.19532" lon="-1.57601">
        <ele>50</ele>
        <time>2021-04-12T13:46:06.000Z</time>
      </trkpt>
      <trkpt lat="47.19528" lon="-1.57622">
        <ele>51</ele>
        <time>2021-04-12T13:46:08.000Z</time>
      </trkpt>
      <trkpt lat="47.19524" lon="-1.57641">
        <ele>51</ele>
        <time>2021-04-12T13:46:10.000Z</time>
      </trkpt>
      <trkpt lat="47.19519" lon="-1.5766">
        <ele>51</ele>
        <time>2021-04-12T13:46:12.000Z</time>
      </trkpt>
      <trkpt lat="47.19515" lon="-1.57679">
        <ele>52</ele>
        <time>2021-04-12T13:46:14.000Z</time>
      </trkpt>
      <trkpt lat="47.19511" lon="-1.57698">
        <ele>52</ele>
        <time>2021-04-12T13:46:16.000Z</time>
      </trkpt>
      <trkpt lat="47.19507" lon="-1.57717">
        <ele>53</ele>
        <time>2021-04-12T13:46:18.000Z</time>
      </trkpt>
      <trkpt lat="47.19504" lon="-1.57735">
        <ele>53</ele>
        <time>2021-04-12T13:46:20.000Z</time>
      </trkpt>
      <trkpt lat="47.195" lon="-1.57755">
        <ele>54</ele>
        <time>2021-04-12T13:46:22.000Z</time>
      </trkpt>
      <trkpt lat="47.19495" lon="-1.57775">
        <ele>54</ele>
        <time>2021-04-12T13:46:24.000Z</time>
      </trkpt>
      <trkpt lat="47.19491" lon="-1.57794">
        <ele>54</ele>
        <time>2021-04-12T13:46:26.000Z</time>
      </trkpt>
      <trkpt lat="47.19487" lon="-1.57812">
        <ele>54</ele>
        <time>2021-04-12T13:46:28.000Z</time>
      </trkpt>
      <trkpt lat="47.19483" lon="-1.57831">
        <ele>54</ele>
        <time>2021-04-12T13:46:30.000Z</time>
      </trkpt>
      <trkpt lat="47.19482" lon="-1.5785">
        <ele>54</ele>
        <time>2021-04-12T13:46:32.000Z</time>
      </trkpt>
      <trkpt lat="47.19479" lon="-1.57869">
        <ele>54</ele>
        <time>2021-04-12T13:46:34.000Z</time>
      </trkpt>
      <trkpt lat="47.19475" lon="-1.57887">
        <ele>54</ele>
        <time>2021-04-12T13:46:36.000Z</time>
      </trkpt>
      <trkpt lat="47.19472" lon="-1.57906">
        <ele>54</ele>
        <time>2021-04-12T13:46:38.000Z</time>
      </trkpt>
      <trkpt lat="47.19469" lon="-1.57926">
        <ele>53</ele>
        <time>2021-04-12T13:46:40.000Z</time>
      </trkpt>
      <trkpt lat="47.19467" lon="-1.57946">
        <ele>54</ele>
        <time>2021-04-12T13:46:42.000Z</time>
      </trkpt>
      <trkpt lat="47.19466" lon="-1.57965">
        <ele>54</ele>
        <time>2021-04-12T13:46:44.000Z</time>
      </trkpt>
      <trkpt lat="47.19465" lon="-1.57983">
        <ele>54</ele>
        <time>2021-04-12T13:46:46.000Z</time>
      </trkpt>
      <trkpt lat="47.19463" lon="-1.58002">
        <ele>54</ele>
        <time>2021-04-12T13:46:48.000Z</time>
      </trkpt>
      <trkpt lat="47.19462" lon="-1.58019">
        <ele>54</ele>
        <time>2021-04-12T13:46:50.000Z</time>
      </trkpt>
      <trkpt lat="47.19461" lon="-1.58036">
        <ele>54</ele>
        <time>2021-04-12T13:46:52.000Z</time>
      </trkpt>
      <trkpt lat="47.19459" lon="-1.58051">
        <ele>54</ele>
        <time>2021-04-12T13:46:54.000Z</time>
      </trkpt>
      <trkpt lat="47.19458" lon="-1.58066">
        <ele>53</ele>
        <time>2021-04-12T13:46:56.000Z</time>
      </trkpt>
      <trkpt lat="47.19456" lon="-1.58081">
        <ele>53</ele>
        <time>2021-04-12T13:46:58.000Z</time>
      </trkpt>
      <trkpt lat="47.19452" lon="-1.58094">
        <ele>54</ele>
        <time>2021-04-12T13:47:00.000Z</time>
      </trkpt>
      <trkpt lat="47.19444" lon="-1.58105">
        <ele>55</ele>
        <time>2021-04-12T13:47:02.000Z</time>
      </trkpt>
      <trkpt lat="47.19435" lon="-1.58116">
        <ele>54</ele>
        <time>2021-04-12T13:47:04.000Z</time>
      </trkpt>
      <trkpt lat="47.19426" lon="-1.58128">
        <ele>55</ele>
        <time>2021-04-12T13:47:06.000Z</time>
      </trkpt>
      <trkpt lat="47.19416" lon="-1.5814">
        <ele>55</ele>
        <time>2021-04-12T13:47:08.000Z</time>
      </trkpt>
      <trkpt lat="47.19407" lon="-1.58152">
        <ele>55</ele>
        <time>2021-04-12T13:47:10.000Z</time>
      </trkpt>
      <trkpt lat="47.19399" lon="-1.58166">
        <ele>55</ele>
        <time>2021-04-12T13:47:12.000Z</time>
      </trkpt>
      <trkpt lat="47.19393" lon="-1.58181">
        <ele>56</ele>
        <time>2021-04-12T13:47:14.000Z</time>
      </trkpt>
      <trkpt lat="47.19386" lon="-1.58196">
        <ele>56</ele>
        <time>2021-04-12T13:47:16.000Z</time>
      </trkpt>
      <trkpt lat="47.1938" lon="-1.58211">
        <ele>56</ele>
        <time>2021-04-12T13:47:18.000Z</time>
      </trkpt>
      <trkpt lat="47.19373" lon="-1.58226">
        <ele>56</ele>
        <time>2021-04-12T13:47:20.000Z</time>
      </trkpt>
      <trkpt lat="47.19367" lon="-1.58243">
        <ele>55</ele>
        <time>2021-04-12T13:47:22.000Z</time>
      </trkpt>
      <trkpt lat="47.1936" lon="-1.58259">
        <ele>55</ele>
        <time>2021-04-12T13:47:24.000Z</time>
      </trkpt>
      <trkpt lat="47.19353" lon="-1.58273">
        <ele>55</ele>
        <time>2021-04-12T13:47:26.000Z</time>
      </trkpt>
      <trkpt lat="47.19344" lon="-1.58287">
        <ele>55</ele>
        <time>2021-04-12T13:47:28.000Z</time>
      </trkpt>
      <trkpt lat="47.19333" lon="-1.58297">
        <ele>54</ele>
        <time>2021-04-12T13:47:30.000Z</time>
      </trkpt>
      <trkpt lat="47.19323" lon="-1.58307">
        <ele>55</ele>
        <time>2021-04-12T13:47:32.000Z</time>
      </trkpt>
      <trkpt lat="47.19313" lon="-1.58315">
        <ele>54</ele>
        <time>2021-04-12T13:47:34.000Z</time>
      </trkpt>
      <trkpt lat="47.19303" lon="-1.58324">
        <ele>54</ele>
        <time>2021-04-12T13:47:36.000Z</time>
      </trkpt>
      <trkpt lat="47.19294" lon="-1.58332">
        <ele>55</ele>
        <time>2021-04-12T13:47:38.000Z</time>
      </trkpt>
      <trkpt lat="47.19283" lon="-1.58341">
        <ele>55</ele>
        <time>2021-04-12T13:47:40.000Z</time>
      </trkpt>
      <trkpt lat="47.19273" lon="-1.58351">
        <ele>55</ele>
        <time>2021-04-12T13:47:42.000Z</time>
      </trkpt>
      <trkpt lat="47.19262" lon="-1.58362">
        <ele>55</ele>
        <time>2021-04-12T13:47:44.000Z</time>
      </trkpt>
      <trkpt lat="47.19251" lon="-1.58371">
        <ele>55</ele>
        <time>2021-04-12T13:47:46.000Z</time>
      </trkpt>
      <trkpt lat="47.1924" lon="-1.58381">
        <ele>55</ele>
        <time>2021-04-12T13:47:48.000Z</time>
      </trkpt>
      <trkpt lat="47.19229" lon="-1.58391">
        <ele>55</ele>
        <time>2021-04-12T13:47:50.000Z</time>
      </trkpt>
      <trkpt lat="47.19218" lon="-1.58401">
        <ele>55</ele>
        <time>2021-04-12T13:47:52.000Z</time>
      </trkpt>
      <trkpt lat="47.19207" lon="-1.58411">
        <ele>55</ele>
        <time>2021-04-12T13:47:54.000Z</time>
      </trkpt>
      <trkpt lat="47.19196" lon="-1.5842">
        <ele>55</ele>
        <time>2021-04-12T13:47:56.000Z</time>
      </trkpt>
      <trkpt lat="47.19186" lon="-1.5843">
        <ele>56</ele>
        <time>2021-04-12T13:47:58.000Z</time>
      </trkpt>
      <trkpt lat="47.19176" lon="-1.58441">
        <ele>55</ele>
        <time>2021-04-12T13:48:00.000Z</time>
      </trkpt>
      <trkpt lat="47.19167" lon="-1.5845">
        <ele>56</ele>
        <time>2021-04-12T13:48:02.000Z</time>
      </trkpt>
      <trkpt lat="47.1916" lon="-1.58458">
        <ele>56</ele>
        <time>2021-04-12T13:48:04.000Z</time>
      </trkpt>
      <trkpt lat="47.1915" lon="-1.58469">
        <ele>55</ele>
        <time>2021-04-12T13:48:07.000Z</time>
      </trkpt>
      <trkpt lat="47.1914" lon="-1.58481">
        <ele>53</ele>
        <time>2021-04-12T13:48:10.000Z</time>
      </trkpt>
      <trkpt lat="47.19129" lon="-1.5849">
        <ele>53</ele>
        <time>2021-04-12T13:48:12.000Z</time>
      </trkpt>
      <trkpt lat="47.19119" lon="-1.58499">
        <ele>53</ele>
        <time>2021-04-12T13:48:14.000Z</time>
      </trkpt>
      <trkpt lat="47.19109" lon="-1.58508">
        <ele>52</ele>
        <time>2021-04-12T13:48:16.000Z</time>
      </trkpt>
      <trkpt lat="47.19099" lon="-1.58518">
        <ele>53</ele>
        <time>2021-04-12T13:48:18.000Z</time>
      </trkpt>
      <trkpt lat="47.19089" lon="-1.58527">
        <ele>53</ele>
        <time>2021-04-12T13:48:20.000Z</time>
      </trkpt>
      <trkpt lat="47.19079" lon="-1.58537">
        <ele>53</ele>
        <time>2021-04-12T13:48:22.000Z</time>
      </trkpt>
      <trkpt lat="47.19069" lon="-1.58547">
        <ele>53</ele>
        <time>2021-04-12T13:48:24.000Z</time>
      </trkpt>
      <trkpt lat="47.19059" lon="-1.58557">
        <ele>53</ele>
        <time>2021-04-12T13:48:26.000Z</time>
      </trkpt>
      <trkpt lat="47.1905" lon="-1.58567">
        <ele>54</ele>
        <time>2021-04-12T13:48:28.000Z</time>
      </trkpt>
      <trkpt lat="47.1904" lon="-1.58577">
        <ele>54</ele>
        <time>2021-04-12T13:48:30.000Z</time>
      </trkpt>
      <trkpt lat="47.19031" lon="-1.58587">
        <ele>54</ele>
        <time>2021-04-12T13:48:32.000Z</time>
      </trkpt>
      <trkpt lat="47.19021" lon="-1.58598">
        <ele>54</ele>
        <time>2021-04-12T13:48:34.000Z</time>
      </trkpt>
      <trkpt lat="47.19011" lon="-1.58608">
        <ele>54</ele>
        <time>2021-04-12T13:48:36.000Z</time>
      </trkpt>
      <trkpt lat="47.19002" lon="-1.58617">
        <ele>54</ele>
        <time>2021-04-12T13:48:38.000Z</time>
      </trkpt>
      <trkpt lat="47.18993" lon="-1.58626">
        <ele>54</ele>
        <time>2021-04-12T13:48:40.000Z</time>
      </trkpt>
      <trkpt lat="47.18983" lon="-1.58635">
        <ele>55</ele>
        <time>2021-04-12T13:48:42.000Z</time>
      </trkpt>
      <trkpt lat="47.18973" lon="-1.58646">
        <ele>55</ele>
        <time>2021-04-12T13:48:44.000Z</time>
      </trkpt>
      <trkpt lat="47.18963" lon="-1.58655">
        <ele>56</ele>
        <time>2021-04-12T13:48:46.000Z</time>
      </trkpt>
      <trkpt lat="47.18953" lon="-1.58664">
        <ele>56</ele>
        <time>2021-04-12T13:48:48.000Z</time>
      </trkpt>
      <trkpt lat="47.18943" lon="-1.58673">
        <ele>56</ele>
        <time>2021-04-12T13:48:50.000Z</time>
      </trkpt>
      <trkpt lat="47.18933" lon="-1.58683">
        <ele>56</ele>
        <time>2021-04-12T13:48:52.000Z</time>
      </trkpt>
      <trkpt lat="47.18924" lon="-1.58692">
        <ele>55</ele>
        <time>2021-04-12T13:48:54.000Z</time>
      </trkpt>
      <trkpt lat="47.18914" lon="-1.58701">
        <ele>55</ele>
        <time>2021-04-12T13:48:56.000Z</time>
      </trkpt>
      <trkpt lat="47.18904" lon="-1.58709">
        <ele>55</ele>
        <time>2021-04-12T13:48:58.000Z</time>
      </trkpt>
      <trkpt lat="47.18894" lon="-1.58715">
        <ele>55</ele>
        <time>2021-04-12T13:49:00.000Z</time>
      </trkpt>
      <trkpt lat="47.18884" lon="-1.58721">
        <ele>55</ele>
        <time>2021-04-12T13:49:02.000Z</time>
      </trkpt>
      <trkpt lat="47.18875" lon="-1.58726">
        <ele>55</ele>
        <time>2021-04-12T13:49:04.000Z</time>
      </trkpt>
      <trkpt lat="47.18866" lon="-1.58739">
        <ele>54</ele>
        <time>2021-04-12T13:49:07.000Z</time>
      </trkpt>
      <trkpt lat="47.18861" lon="-1.58758">
        <ele>54</ele>
        <time>2021-04-12T13:49:10.000Z</time>
      </trkpt>
      <trkpt lat="47.1886" lon="-1.58773">
        <ele>54</ele>
        <time>2021-04-12T13:49:12.000Z</time>
      </trkpt>
      <trkpt lat="47.18859" lon="-1.58788">
        <ele>53</ele>
        <time>2021-04-12T13:49:14.000Z</time>
      </trkpt>
      <trkpt lat="47.18859" lon="-1.58804">
        <ele>53</ele>
        <time>2021-04-12T13:49:16.000Z</time>
      </trkpt>
      <trkpt lat="47.18857" lon="-1.5882">
        <ele>53</ele>
        <time>2021-04-12T13:49:18.000Z</time>
      </trkpt>
      <trkpt lat="47.18848" lon="-1.58827">
        <ele>53</ele>
        <time>2021-04-12T13:49:20.000Z</time>
      </trkpt>
      <trkpt lat="47.18837" lon="-1.58822">
        <ele>53</ele>
        <time>2021-04-12T13:49:22.000Z</time>
      </trkpt>
      <trkpt lat="47.18828" lon="-1.58814">
        <ele>52</ele>
        <time>2021-04-12T13:49:24.000Z</time>
      </trkpt>
      <trkpt lat="47.18819" lon="-1.58806">
        <ele>53</ele>
        <time>2021-04-12T13:49:26.000Z</time>
      </trkpt>
      <trkpt lat="47.1881" lon="-1.58805">
        <ele>53</ele>
        <time>2021-04-12T13:49:28.000Z</time>
      </trkpt>
      <trkpt lat="47.188" lon="-1.58812">
        <ele>53</ele>
        <time>2021-04-12T13:49:30.000Z</time>
      </trkpt>
      <trkpt lat="47.18791" lon="-1.58818">
        <ele>53</ele>
        <time>2021-04-12T13:49:32.000Z</time>
      </trkpt>
      <trkpt lat="47.18787" lon="-1.58835">
        <ele>53</ele>
        <time>2021-04-12T13:49:34.000Z</time>
      </trkpt>
      <trkpt lat="47.18783" lon="-1.58853">
        <ele>53</ele>
        <time>2021-04-12T13:49:36.000Z</time>
      </trkpt>
      <trkpt lat="47.1878" lon="-1.5887">
        <ele>53</ele>
        <time>2021-04-12T13:49:38.000Z</time>
      </trkpt>
      <trkpt lat="47.18777" lon="-1.58887">
        <ele>53</ele>
        <time>2021-04-12T13:49:40.000Z</time>
      </trkpt>
      <trkpt lat="47.18774" lon="-1.58906">
        <ele>53</ele>
        <time>2021-04-12T13:49:42.000Z</time>
      </trkpt>
      <trkpt lat="47.18772" lon="-1.58925">
        <ele>53</ele>
        <time>2021-04-12T13:49:44.000Z</time>
      </trkpt>
      <trkpt lat="47.1877" lon="-1.58943">
        <ele>53</ele>
        <time>2021-04-12T13:49:46.000Z</time>
      </trkpt>
      <trkpt lat="47.18768" lon="-1.58962">
        <ele>53</ele>
        <time>2021-04-12T13:49:48.000Z</time>
      </trkpt>
      <trkpt lat="47.18766" lon="-1.58981">
        <ele>54</ele>
        <time>2021-04-12T13:49:50.000Z</time>
      </trkpt>
      <trkpt lat="47.18764" lon="-1.59">
        <ele>54</ele>
        <time>2021-04-12T13:49:52.000Z</time>
      </trkpt>
      <trkpt lat="47.18761" lon="-1.5902">
        <ele>54</ele>
        <time>2021-04-12T13:49:54.000Z</time>
      </trkpt>
      <trkpt lat="47.18759" lon="-1.5904">
        <ele>54</ele>
        <time>2021-04-12T13:49:56.000Z</time>
      </trkpt>
      <trkpt lat="47.18757" lon="-1.59059">
        <ele>54</ele>
        <time>2021-04-12T13:49:58.000Z</time>
      </trkpt>
      <trkpt lat="47.18755" lon="-1.59078">
        <ele>54</ele>
        <time>2021-04-12T13:50:00.000Z</time>
      </trkpt>
      <trkpt lat="47.18753" lon="-1.59098">
        <ele>54</ele>
        <time>2021-04-12T13:50:02.000Z</time>
      </trkpt>
      <trkpt lat="47.1875" lon="-1.59117">
        <ele>54</ele>
        <time>2021-04-12T13:50:04.000Z</time>
      </trkpt>
      <trkpt lat="47.18748" lon="-1.59137">
        <ele>55</ele>
        <time>2021-04-12T13:50:06.000Z</time>
      </trkpt>
      <trkpt lat="47.18746" lon="-1.59157">
        <ele>55</ele>
        <time>2021-04-12T13:50:08.000Z</time>
      </trkpt>
      <trkpt lat="47.18744" lon="-1.59177">
        <ele>54</ele>
        <time>2021-04-12T13:50:10.000Z</time>
      </trkpt>
      <trkpt lat="47.18742" lon="-1.59196">
        <ele>54</ele>
        <time>2021-04-12T13:50:12.000Z</time>
      </trkpt>
      <trkpt lat="47.1874" lon="-1.59215">
        <ele>54</ele>
        <time>2021-04-12T13:50:14.000Z</time>
      </trkpt>
      <trkpt lat="47.18738" lon="-1.59234">
        <ele>54</ele>
        <time>2021-04-12T13:50:16.000Z</time>
      </trkpt>
      <trkpt lat="47.18736" lon="-1.59254">
        <ele>54</ele>
        <time>2021-04-12T13:50:18.000Z</time>
      </trkpt>
      <trkpt lat="47.18734" lon="-1.59274">
        <ele>54</ele>
        <time>2021-04-12T13:50:20.000Z</time>
      </trkpt>
      <trkpt lat="47.18732" lon="-1.59293">
        <ele>54</ele>
        <time>2021-04-12T13:50:22.000Z</time>
      </trkpt>
      <trkpt lat="47.1873" lon="-1.59313">
        <ele>54</ele>
        <time>2021-04-12T13:50:24.000Z</time>
      </trkpt>
      <trkpt lat="47.18728" lon="-1.59332">
        <ele>54</ele>
        <time>2021-04-12T13:50:26.000Z</time>
      </trkpt>
      <trkpt lat="47.18725" lon="-1.59351">
        <ele>54</ele>
        <time>2021-04-12T13:50:28.000Z</time>
      </trkpt>
      <trkpt lat="47.18723" lon="-1.59371">
        <ele>54</ele>
        <time>2021-04-12T13:50:30.000Z</time>
      </trkpt>
      <trkpt lat="47.18721" lon="-1.59391">
        <ele>53</ele>
        <time>2021-04-12T13:50:32.000Z</time>
      </trkpt>
      <trkpt lat="47.1872" lon="-1.5941">
        <ele>53</ele>
        <time>2021-04-12T13:50:34.000Z</time>
      </trkpt>
      <trkpt lat="47.18717" lon="-1.5943">
        <ele>53</ele>
        <time>2021-04-12T13:50:36.000Z</time>
      </trkpt>
      <trkpt lat="47.18715" lon="-1.5945">
        <ele>53</ele>
        <time>2021-04-12T13:50:38.000Z</time>
      </trkpt>
      <trkpt lat="47.18713" lon="-1.59469">
        <ele>53</ele>
        <time>2021-04-12T13:50:40.000Z</time>
      </trkpt>
      <trkpt lat="47.18711" lon="-1.59489">
        <ele>53</ele>
        <time>2021-04-12T13:50:42.000Z</time>
      </trkpt>
      <trkpt lat="47.18709" lon="-1.59509">
        <ele>53</ele>
        <time>2021-04-12T13:50:44.000Z</time>
      </trkpt>
      <trkpt lat="47.18706" lon="-1.59528">
        <ele>53</ele>
        <time>2021-04-12T13:50:46.000Z</time>
      </trkpt>
      <trkpt lat="47.18704" lon="-1.59548">
        <ele>53</ele>
        <time>2021-04-12T13:50:48.000Z</time>
      </trkpt>
      <trkpt lat="47.18702" lon="-1.59567">
        <ele>53</ele>
        <time>2021-04-12T13:50:50.000Z</time>
      </trkpt>
      <trkpt lat="47.18699" lon="-1.59587">
        <ele>53</ele>
        <time>2021-04-12T13:50:52.000Z</time>
      </trkpt>
      <trkpt lat="47.18697" lon="-1.59606">
        <ele>53</ele>
        <time>2021-04-12T13:50:54.000Z</time>
      </trkpt>
      <trkpt lat="47.18695" lon="-1.59625">
        <ele>53</ele>
        <time>2021-04-12T13:50:56.000Z</time>
      </trkpt>
      <trkpt lat="47.18692" lon="-1.59645">
        <ele>53</ele>
        <time>2021-04-12T13:50:58.000Z</time>
      </trkpt>
      <trkpt lat="47.1869" lon="-1.59664">
        <ele>53</ele>
        <time>2021-04-12T13:51:00.000Z</time>
      </trkpt>
      <trkpt lat="47.18687" lon="-1.59682">
        <ele>53</ele>
        <time>2021-04-12T13:51:02.000Z</time>
      </trkpt>
      <trkpt lat="47.18685" lon="-1.59701">
        <ele>54</ele>
        <time>2021-04-12T13:51:04.000Z</time>
      </trkpt>
      <trkpt lat="47.18683" lon="-1.5972">
        <ele>54</ele>
        <time>2021-04-12T13:51:06.000Z</time>
      </trkpt>
      <trkpt lat="47.18683" lon="-1.59738">
        <ele>54</ele>
        <time>2021-04-12T13:51:08.000Z</time>
      </trkpt>
      <trkpt lat="47.18684" lon="-1.59756">
        <ele>54</ele>
        <time>2021-04-12T13:51:10.000Z</time>
      </trkpt>
      <trkpt lat="47.18687" lon="-1.59773">
        <ele>53</ele>
        <time>2021-04-12T13:51:12.000Z</time>
      </trkpt>
      <trkpt lat="47.1869" lon="-1.59791">
        <ele>53</ele>
        <time>2021-04-12T13:51:14.000Z</time>
      </trkpt>
      <trkpt lat="47.18686" lon="-1.59809">
        <ele>53</ele>
        <time>2021-04-12T13:51:16.000Z</time>
      </trkpt>
      <trkpt lat="47.18678" lon="-1.59826">
        <ele>53</ele>
        <time>2021-04-12T13:51:18.000Z</time>
      </trkpt>
      <trkpt lat="47.18666" lon="-1.59841">
        <ele>53</ele>
        <time>2021-04-12T13:51:20.000Z</time>
      </trkpt>
      <trkpt lat="47.18652" lon="-1.59845">
        <ele>53</ele>
        <time>2021-04-12T13:51:22.000Z</time>
      </trkpt>
      <trkpt lat="47.18638" lon="-1.5984">
        <ele>53</ele>
        <time>2021-04-12T13:51:24.000Z</time>
      </trkpt>
      <trkpt lat="47.18626" lon="-1.59832">
        <ele>52</ele>
        <time>2021-04-12T13:51:26.000Z</time>
      </trkpt>
      <trkpt lat="47.18616" lon="-1.5984">
        <ele>52</ele>
        <time>2021-04-12T13:51:28.000Z</time>
      </trkpt>
      <trkpt lat="47.18619" lon="-1.59854">
        <ele>52</ele>
        <time>2021-04-12T13:51:30.000Z</time>
      </trkpt>
      <trkpt lat="47.18623" lon="-1.5987">
        <ele>53</ele>
        <time>2021-04-12T13:51:32.000Z</time>
      </trkpt>
      <trkpt lat="47.1862" lon="-1.59886">
        <ele>54</ele>
        <time>2021-04-12T13:51:34.000Z</time>
      </trkpt>
      <trkpt lat="47.18616" lon="-1.59904">
        <ele>54</ele>
        <time>2021-04-12T13:51:36.000Z</time>
      </trkpt>
      <trkpt lat="47.18611" lon="-1.59921">
        <ele>54</ele>
        <time>2021-04-12T13:51:38.000Z</time>
      </trkpt>
      <trkpt lat="47.18605" lon="-1.59939">
        <ele>53</ele>
        <time>2021-04-12T13:51:40.000Z</time>
      </trkpt>
      <trkpt lat="47.186" lon="-1.59957">
        <ele>53</ele>
        <time>2021-04-12T13:51:42.000Z</time>
      </trkpt>
      <trkpt lat="47.18594" lon="-1.59974">
        <ele>53</ele>
        <time>2021-04-12T13:51:44.000Z</time>
      </trkpt>
      <trkpt lat="47.18589" lon="-1.59992">
        <ele>54</ele>
        <time>2021-04-12T13:51:46.000Z</time>
      </trkpt>
      <trkpt lat="47.18584" lon="-1.60009">
        <ele>54</ele>
        <time>2021-04-12T13:51:48.000Z</time>
      </trkpt>
      <trkpt lat="47.18578" lon="-1.60026">
        <ele>54</ele>
        <time>2021-04-12T13:51:50.000Z</time>
      </trkpt>
      <trkpt lat="47.18572" lon="-1.60043">
        <ele>53</ele>
        <time>2021-04-12T13:51:52.000Z</time>
      </trkpt>
      <trkpt lat="47.18566" lon="-1.60059">
        <ele>53</ele>
        <time>2021-04-12T13:51:54.000Z</time>
      </trkpt>
      <trkpt lat="47.1856" lon="-1.60076">
        <ele>53</ele>
        <time>2021-04-12T13:51:56.000Z</time>
      </trkpt>
      <trkpt lat="47.18553" lon="-1.60092">
        <ele>53</ele>
        <time>2021-04-12T13:51:58.000Z</time>
      </trkpt>
      <trkpt lat="47.18547" lon="-1.60108">
        <ele>53</ele>
        <time>2021-04-12T13:52:00.000Z</time>
      </trkpt>
      <trkpt lat="47.1854" lon="-1.60124">
        <ele>53</ele>
        <time>2021-04-12T13:52:02.000Z</time>
      </trkpt>
      <trkpt lat="47.18533" lon="-1.6014">
        <ele>53</ele>
        <time>2021-04-12T13:52:04.000Z</time>
      </trkpt>
      <trkpt lat="47.18526" lon="-1.60155">
        <ele>53</ele>
        <time>2021-04-12T13:52:06.000Z</time>
      </trkpt>
      <trkpt lat="47.18519" lon="-1.60171">
        <ele>53</ele>
        <time>2021-04-12T13:52:08.000Z</time>
      </trkpt>
      <trkpt lat="47.18511" lon="-1.60186">
        <ele>53</ele>
        <time>2021-04-12T13:52:10.000Z</time>
      </trkpt>
      <trkpt lat="47.18503" lon="-1.60201">
        <ele>53</ele>
        <time>2021-04-12T13:52:12.000Z</time>
      </trkpt>
      <trkpt lat="47.18496" lon="-1.60216">
        <ele>53</ele>
        <time>2021-04-12T13:52:14.000Z</time>
      </trkpt>
      <trkpt lat="47.18488" lon="-1.60231">
        <ele>53</ele>
        <time>2021-04-12T13:52:16.000Z</time>
      </trkpt>
      <trkpt lat="47.1848" lon="-1.60247">
        <ele>53</ele>
        <time>2021-04-12T13:52:18.000Z</time>
      </trkpt>
      <trkpt lat="47.18472" lon="-1.60262">
        <ele>53</ele>
        <time>2021-04-12T13:52:20.000Z</time>
      </trkpt>
      <trkpt lat="47.18464" lon="-1.60277">
        <ele>52</ele>
        <time>2021-04-12T13:52:22.000Z</time>
      </trkpt>
      <trkpt lat="47.18455" lon="-1.60291">
        <ele>52</ele>
        <time>2021-04-12T13:52:24.000Z</time>
      </trkpt>
      <trkpt lat="47.18447" lon="-1.60305">
        <ele>52</ele>
        <time>2021-04-12T13:52:26.000Z</time>
      </trkpt>
      <trkpt lat="47.18439" lon="-1.60319">
        <ele>52</ele>
        <time>2021-04-12T13:52:28.000Z</time>
      </trkpt>
      <trkpt lat="47.1843" lon="-1.60333">
        <ele>52</ele>
        <time>2021-04-12T13:52:30.000Z</time>
      </trkpt>
      <trkpt lat="47.18421" lon="-1.60346">
        <ele>52</ele>
        <time>2021-04-12T13:52:32.000Z</time>
      </trkpt>
      <trkpt lat="47.18412" lon="-1.60359">
        <ele>52</ele>
        <time>2021-04-12T13:52:34.000Z</time>
      </trkpt>
      <trkpt lat="47.18403" lon="-1.60372">
        <ele>52</ele>
        <time>2021-04-12T13:52:36.000Z</time>
      </trkpt>
      <trkpt lat="47.18393" lon="-1.60385">
        <ele>52</ele>
        <time>2021-04-12T13:52:38.000Z</time>
      </trkpt>
      <trkpt lat="47.18383" lon="-1.60398">
        <ele>52</ele>
        <time>2021-04-12T13:52:40.000Z</time>
      </trkpt>
      <trkpt lat="47.18374" lon="-1.60411">
        <ele>52</ele>
        <time>2021-04-12T13:52:42.000Z</time>
      </trkpt>
      <trkpt lat="47.18364" lon="-1.60424">
        <ele>52</ele>
        <time>2021-04-12T13:52:44.000Z</time>
      </trkpt>
      <trkpt lat="47.18353" lon="-1.60436">
        <ele>52</ele>
        <time>2021-04-12T13:52:46.000Z</time>
      </trkpt>
      <trkpt lat="47.18344" lon="-1.60449">
        <ele>53</ele>
        <time>2021-04-12T13:52:48.000Z</time>
      </trkpt>
      <trkpt lat="47.18333" lon="-1.60461">
        <ele>52</ele>
        <time>2021-04-12T13:52:50.000Z</time>
      </trkpt>
      <trkpt lat="47.18323" lon="-1.60472">
        <ele>52</ele>
        <time>2021-04-12T13:52:52.000Z</time>
      </trkpt>
      <trkpt lat="47.18313" lon="-1.60484">
        <ele>52</ele>
        <time>2021-04-12T13:52:54.000Z</time>
      </trkpt>
      <trkpt lat="47.18302" lon="-1.60496">
        <ele>52</ele>
        <time>2021-04-12T13:52:56.000Z</time>
      </trkpt>
      <trkpt lat="47.18291" lon="-1.60507">
        <ele>52</ele>
        <time>2021-04-12T13:52:58.000Z</time>
      </trkpt>
      <trkpt lat="47.18281" lon="-1.60519">
        <ele>52</ele>
        <time>2021-04-12T13:53:00.000Z</time>
      </trkpt>
      <trkpt lat="47.1827" lon="-1.6053">
        <ele>52</ele>
        <time>2021-04-12T13:53:02.000Z</time>
      </trkpt>
      <trkpt lat="47.18259" lon="-1.60539">
        <ele>52</ele>
        <time>2021-04-12T13:53:04.000Z</time>
      </trkpt>
      <trkpt lat="47.18247" lon="-1.60548">
        <ele>52</ele>
        <time>2021-04-12T13:53:06.000Z</time>
      </trkpt>
      <trkpt lat="47.18236" lon="-1.60556">
        <ele>51</ele>
        <time>2021-04-12T13:53:08.000Z</time>
      </trkpt>
      <trkpt lat="47.18225" lon="-1.60562">
        <ele>51</ele>
        <time>2021-04-12T13:53:10.000Z</time>
      </trkpt>
      <trkpt lat="47.18215" lon="-1.60568">
        <ele>51</ele>
        <time>2021-04-12T13:53:12.000Z</time>
      </trkpt>
      <trkpt lat="47.18205" lon="-1.60573">
        <ele>51</ele>
        <time>2021-04-12T13:53:14.000Z</time>
      </trkpt>
      <trkpt lat="47.18196" lon="-1.60576">
        <ele>51</ele>
        <time>2021-04-12T13:53:16.000Z</time>
      </trkpt>
      <trkpt lat="47.18188" lon="-1.60582">
        <ele>52</ele>
        <time>2021-04-12T13:53:23.000Z</time>
      </trkpt>
      <trkpt lat="47.18187" lon="-1.60598">
        <ele>53</ele>
        <time>2021-04-12T13:53:26.000Z</time>
      </trkpt>
      <trkpt lat="47.18177" lon="-1.60603">
        <ele>53</ele>
        <time>2021-04-12T13:53:28.000Z</time>
      </trkpt>
      <trkpt lat="47.18168" lon="-1.60605">
        <ele>53</ele>
        <time>2021-04-12T13:53:30.000Z</time>
      </trkpt>
      <trkpt lat="47.18156" lon="-1.60606">
        <ele>53</ele>
        <time>2021-04-12T13:53:32.000Z</time>
      </trkpt>
      <trkpt lat="47.18145" lon="-1.60605">
        <ele>53</ele>
        <time>2021-04-12T13:53:34.000Z</time>
      </trkpt>
      <trkpt lat="47.18133" lon="-1.60605">
        <ele>53</ele>
        <time>2021-04-12T13:53:36.000Z</time>
      </trkpt>
      <trkpt lat="47.18122" lon="-1.60602">
        <ele>53</ele>
        <time>2021-04-12T13:53:38.000Z</time>
      </trkpt>
      <trkpt lat="47.18111" lon="-1.60598">
        <ele>53</ele>
        <time>2021-04-12T13:53:40.000Z</time>
      </trkpt>
      <trkpt lat="47.181" lon="-1.60593">
        <ele>53</ele>
        <time>2021-04-12T13:53:42.000Z</time>
      </trkpt>
      <trkpt lat="47.18089" lon="-1.60588">
        <ele>53</ele>
        <time>2021-04-12T13:53:44.000Z</time>
      </trkpt>
      <trkpt lat="47.18078" lon="-1.60581">
        <ele>53</ele>
        <time>2021-04-12T13:53:46.000Z</time>
      </trkpt>
      <trkpt lat="47.18067" lon="-1.60575">
        <ele>53</ele>
        <time>2021-04-12T13:53:48.000Z</time>
      </trkpt>
      <trkpt lat="47.18056" lon="-1.60569">
        <ele>53</ele>
        <time>2021-04-12T13:53:50.000Z</time>
      </trkpt>
      <trkpt lat="47.18045" lon="-1.60561">
        <ele>53</ele>
        <time>2021-04-12T13:53:52.000Z</time>
      </trkpt>
      <trkpt lat="47.18035" lon="-1.60555">
        <ele>54</ele>
        <time>2021-04-12T13:53:54.000Z</time>
      </trkpt>
      <trkpt lat="47.18024" lon="-1.60553">
        <ele>53</ele>
        <time>2021-04-12T13:53:56.000Z</time>
      </trkpt>
      <trkpt lat="47.18012" lon="-1.60553">
        <ele>53</ele>
        <time>2021-04-12T13:53:58.000Z</time>
      </trkpt>
      <trkpt lat="47.18001" lon="-1.60555">
        <ele>53</ele>
        <time>2021-04-12T13:54:00.000Z</time>
      </trkpt>
      <trkpt lat="47.17991" lon="-1.60559">
        <ele>53</ele>
        <time>2021-04-12T13:54:02.000Z</time>
      </trkpt>
      <trkpt lat="47.1798" lon="-1.60564">
        <ele>53</ele>
        <time>2021-04-12T13:54:04.000Z</time>
      </trkpt>
      <trkpt lat="47.1797" lon="-1.60568">
        <ele>53</ele>
        <time>2021-04-12T13:54:06.000Z</time>
      </trkpt>
      <trkpt lat="47.1796" lon="-1.60571">
        <ele>53</ele>
        <time>2021-04-12T13:54:08.000Z</time>
      </trkpt>
      <trkpt lat="47.1795" lon="-1.60577">
        <ele>53</ele>
        <time>2021-04-12T13:54:10.000Z</time>
      </trkpt>
      <trkpt lat="47.1794" lon="-1.60583">
        <ele>53</ele>
        <time>2021-04-12T13:54:12.000Z</time>
      </trkpt>
      <trkpt lat="47.1793" lon="-1.60588">
        <ele>53</ele>
        <time>2021-04-12T13:54:14.000Z</time>
      </trkpt>
      <trkpt lat="47.1792" lon="-1.6059">
        <ele>54</ele>
        <time>2021-04-12T13:54:16.000Z</time>
      </trkpt>
      <trkpt lat="47.17907" lon="-1.60596">
        <ele>53</ele>
        <time>2021-04-12T13:54:19.000Z</time>
      </trkpt>
      <trkpt lat="47.17903" lon="-1.60613">
        <ele>53</ele>
        <time>2021-04-12T13:54:21.000Z</time>
      </trkpt>
      <trkpt lat="47.17898" lon="-1.6063">
        <ele>52</ele>
        <time>2021-04-12T13:54:23.000Z</time>
      </trkpt>
      <trkpt lat="47.17892" lon="-1.60649">
        <ele>52</ele>
        <time>2021-04-12T13:54:25.000Z</time>
      </trkpt>
      <trkpt lat="47.17886" lon="-1.60667">
        <ele>52</ele>
        <time>2021-04-12T13:54:27.000Z</time>
      </trkpt>
      <trkpt lat="47.1788" lon="-1.60685">
        <ele>51</ele>
        <time>2021-04-12T13:54:29.000Z</time>
      </trkpt>
      <trkpt lat="47.17875" lon="-1.60704">
        <ele>51</ele>
        <time>2021-04-12T13:54:31.000Z</time>
      </trkpt>
      <trkpt lat="47.17871" lon="-1.60721">
        <ele>52</ele>
        <time>2021-04-12T13:54:33.000Z</time>
      </trkpt>
      <trkpt lat="47.17866" lon="-1.60739">
        <ele>52</ele>
        <time>2021-04-12T13:54:35.000Z</time>
      </trkpt>
      <trkpt lat="47.17863" lon="-1.60756">
        <ele>52</ele>
        <time>2021-04-12T13:54:37.000Z</time>
      </trkpt>
      <trkpt lat="47.17859" lon="-1.60773">
        <ele>52</ele>
        <time>2021-04-12T13:54:39.000Z</time>
      </trkpt>
      <trkpt lat="47.17856" lon="-1.60789">
        <ele>52</ele>
        <time>2021-04-12T13:54:41.000Z</time>
      </trkpt>
      <trkpt lat="47.17852" lon="-1.60805">
        <ele>52</ele>
        <time>2021-04-12T13:54:43.000Z</time>
      </trkpt>
      <trkpt lat="47.17848" lon="-1.60821">
        <ele>52</ele>
        <time>2021-04-12T13:54:45.000Z</time>
      </trkpt>
      <trkpt lat="47.17843" lon="-1.60837">
        <ele>53</ele>
        <time>2021-04-12T13:54:47.000Z</time>
      </trkpt>
      <trkpt lat="47.17837" lon="-1.60853">
        <ele>53</ele>
        <time>2021-04-12T13:54:49.000Z</time>
      </trkpt>
      <trkpt lat="47.17829" lon="-1.60866">
        <ele>53</ele>
        <time>2021-04-12T13:54:51.000Z</time>
      </trkpt>
      <trkpt lat="47.17821" lon="-1.6088">
        <ele>53</ele>
        <time>2021-04-12T13:54:53.000Z</time>
      </trkpt>
      <trkpt lat="47.17811" lon="-1.60891">
        <ele>53</ele>
        <time>2021-04-12T13:54:55.000Z</time>
      </trkpt>
      <trkpt lat="47.178" lon="-1.609">
        <ele>53</ele>
        <time>2021-04-12T13:54:57.000Z</time>
      </trkpt>
      <trkpt lat="47.1779" lon="-1.60908">
        <ele>53</ele>
        <time>2021-04-12T13:54:59.000Z</time>
      </trkpt>
      <trkpt lat="47.17779" lon="-1.60916">
        <ele>53</ele>
        <time>2021-04-12T13:55:01.000Z</time>
      </trkpt>
      <trkpt lat="47.17768" lon="-1.60924">
        <ele>52</ele>
        <time>2021-04-12T13:55:03.000Z</time>
      </trkpt>
      <trkpt lat="47.17758" lon="-1.60932">
        <ele>53</ele>
        <time>2021-04-12T13:55:05.000Z</time>
      </trkpt>
      <trkpt lat="47.17747" lon="-1.6094">
        <ele>53</ele>
        <time>2021-04-12T13:55:07.000Z</time>
      </trkpt>
      <trkpt lat="47.17736" lon="-1.60949">
        <ele>53</ele>
        <time>2021-04-12T13:55:09.000Z</time>
      </trkpt>
      <trkpt lat="47.17725" lon="-1.60957">
        <ele>52</ele>
        <time>2021-04-12T13:55:11.000Z</time>
      </trkpt>
      <trkpt lat="47.17714" lon="-1.60965">
        <ele>52</ele>
        <time>2021-04-12T13:55:13.000Z</time>
      </trkpt>
      <trkpt lat="47.17703" lon="-1.60971">
        <ele>52</ele>
        <time>2021-04-12T13:55:15.000Z</time>
      </trkpt>
      <trkpt lat="47.17692" lon="-1.60975">
        <ele>52</ele>
        <time>2021-04-12T13:55:17.000Z</time>
      </trkpt>
      <trkpt lat="47.1768" lon="-1.60973">
        <ele>52</ele>
        <time>2021-04-12T13:55:19.000Z</time>
      </trkpt>
      <trkpt lat="47.17666" lon="-1.60973">
        <ele>51</ele>
        <time>2021-04-12T13:55:21.000Z</time>
      </trkpt>
      <trkpt lat="47.17653" lon="-1.60979">
        <ele>51</ele>
        <time>2021-04-12T13:55:23.000Z</time>
      </trkpt>
      <trkpt lat="47.17642" lon="-1.60989">
        <ele>51</ele>
        <time>2021-04-12T13:55:25.000Z</time>
      </trkpt>
      <trkpt lat="47.17631" lon="-1.60998">
        <ele>51</ele>
        <time>2021-04-12T13:55:27.000Z</time>
      </trkpt>
      <trkpt lat="47.1762" lon="-1.61008">
        <ele>51</ele>
        <time>2021-04-12T13:55:29.000Z</time>
      </trkpt>
      <trkpt lat="47.1761" lon="-1.61017">
        <ele>51</ele>
        <time>2021-04-12T13:55:31.000Z</time>
      </trkpt>
      <trkpt lat="47.17599" lon="-1.61026">
        <ele>51</ele>
        <time>2021-04-12T13:55:33.000Z</time>
      </trkpt>
      <trkpt lat="47.17588" lon="-1.61036">
        <ele>51</ele>
        <time>2021-04-12T13:55:35.000Z</time>
      </trkpt>
      <trkpt lat="47.17577" lon="-1.61045">
        <ele>50</ele>
        <time>2021-04-12T13:55:37.000Z</time>
      </trkpt>
      <trkpt lat="47.17566" lon="-1.61054">
        <ele>50</ele>
        <time>2021-04-12T13:55:39.000Z</time>
      </trkpt>
      <trkpt lat="47.17555" lon="-1.61064">
        <ele>50</ele>
        <time>2021-04-12T13:55:41.000Z</time>
      </trkpt>
      <trkpt lat="47.17544" lon="-1.61073">
        <ele>50</ele>
        <time>2021-04-12T13:55:43.000Z</time>
      </trkpt>
      <trkpt lat="47.17534" lon="-1.61082">
        <ele>51</ele>
        <time>2021-04-12T13:55:45.000Z</time>
      </trkpt>
      <trkpt lat="47.17524" lon="-1.6109">
        <ele>51</ele>
        <time>2021-04-12T13:55:47.000Z</time>
      </trkpt>
      <trkpt lat="47.17515" lon="-1.61098">
        <ele>51</ele>
        <time>2021-04-12T13:55:49.000Z</time>
      </trkpt>
      <trkpt lat="47.17505" lon="-1.61104">
        <ele>51</ele>
        <time>2021-04-12T13:55:51.000Z</time>
      </trkpt>
      <trkpt lat="47.17493" lon="-1.61106">
        <ele>51</ele>
        <time>2021-04-12T13:55:53.000Z</time>
      </trkpt>
      <trkpt lat="47.17482" lon="-1.61105">
        <ele>51</ele>
        <time>2021-04-12T13:55:55.000Z</time>
      </trkpt>
      <trkpt lat="47.17471" lon="-1.611">
        <ele>52</ele>
        <time>2021-04-12T13:55:57.000Z</time>
      </trkpt>
      <trkpt lat="47.17462" lon="-1.61092">
        <ele>53</ele>
        <time>2021-04-12T13:55:59.000Z</time>
      </trkpt>
      <trkpt lat="47.17454" lon="-1.61084">
        <ele>54</ele>
        <time>2021-04-12T13:56:01.000Z</time>
      </trkpt>
      <trkpt lat="47.17447" lon="-1.61075">
        <ele>54</ele>
        <time>2021-04-12T13:56:03.000Z</time>
      </trkpt>
      <trkpt lat="47.17441" lon="-1.61063">
        <ele>54</ele>
        <time>2021-04-12T13:56:05.000Z</time>
      </trkpt>
      <trkpt lat="47.17436" lon="-1.61051">
        <ele>54</ele>
        <time>2021-04-12T13:56:07.000Z</time>
      </trkpt>
      <trkpt lat="47.17432" lon="-1.61037">
        <ele>55</ele>
        <time>2021-04-12T13:56:09.000Z</time>
      </trkpt>
      <trkpt lat="47.17427" lon="-1.61021">
        <ele>54</ele>
        <time>2021-04-12T13:56:12.000Z</time>
      </trkpt>
      <trkpt lat="47.17422" lon="-1.61035">
        <ele>55</ele>
        <time>2021-04-12T13:56:16.000Z</time>
      </trkpt>
      <trkpt lat="47.17424" lon="-1.6105">
        <ele>56</ele>
        <time>2021-04-12T13:56:18.000Z</time>
      </trkpt>
      <trkpt lat="47.17429" lon="-1.61063">
        <ele>56</ele>
        <time>2021-04-12T13:56:20.000Z</time>
      </trkpt>
      <trkpt lat="47.17435" lon="-1.61077">
        <ele>57</ele>
        <time>2021-04-12T13:56:22.000Z</time>
      </trkpt>
      <trkpt lat="47.17441" lon="-1.61091">
        <ele>57</ele>
        <time>2021-04-12T13:56:24.000Z</time>
      </trkpt>
      <trkpt lat="47.17447" lon="-1.61104">
        <ele>58</ele>
        <time>2021-04-12T13:56:26.000Z</time>
      </trkpt>
      <trkpt lat="47.17453" lon="-1.61119">
        <ele>58</ele>
        <time>2021-04-12T13:56:28.000Z</time>
      </trkpt>
      <trkpt lat="47.17458" lon="-1.61132">
        <ele>59</ele>
        <time>2021-04-12T13:56:30.000Z</time>
      </trkpt>
      <trkpt lat="47.17463" lon="-1.61145">
        <ele>59</ele>
        <time>2021-04-12T13:56:32.000Z</time>
      </trkpt>
      <trkpt lat="47.17468" lon="-1.61156">
        <ele>59</ele>
        <time>2021-04-12T13:56:34.000Z</time>
      </trkpt>
      <trkpt lat="47.17473" lon="-1.61169">
        <ele>60</ele>
        <time>2021-04-12T13:56:36.000Z</time>
      </trkpt>
      <trkpt lat="47.17478" lon="-1.61181">
        <ele>60</ele>
        <time>2021-04-12T13:56:38.000Z</time>
      </trkpt>
      <trkpt lat="47.17483" lon="-1.61193">
        <ele>60</ele>
        <time>2021-04-12T13:56:40.000Z</time>
      </trkpt>
      <trkpt lat="47.17488" lon="-1.61206">
        <ele>60</ele>
        <time>2021-04-12T13:56:42.000Z</time>
      </trkpt>
      <trkpt lat="47.17493" lon="-1.61218">
        <ele>60</ele>
        <time>2021-04-12T13:56:44.000Z</time>
      </trkpt>
      <trkpt lat="47.17498" lon="-1.61231">
        <ele>60</ele>
        <time>2021-04-12T13:56:46.000Z</time>
      </trkpt>
      <trkpt lat="47.17503" lon="-1.61243">
        <ele>61</ele>
        <time>2021-04-12T13:56:48.000Z</time>
      </trkpt>
      <trkpt lat="47.1751" lon="-1.61254">
        <ele>61</ele>
        <time>2021-04-12T13:56:50.000Z</time>
      </trkpt>
      <trkpt lat="47.17516" lon="-1.61265">
        <ele>62</ele>
        <time>2021-04-12T13:56:52.000Z</time>
      </trkpt>
      <trkpt lat="47.17524" lon="-1.61275">
        <ele>61</ele>
        <time>2021-04-12T13:56:54.000Z</time>
      </trkpt>
      <trkpt lat="47.17534" lon="-1.61282">
        <ele>61</ele>
        <time>2021-04-12T13:56:56.000Z</time>
      </trkpt>
      <trkpt lat="47.17544" lon="-1.6129">
        <ele>61</ele>
        <time>2021-04-12T13:56:58.000Z</time>
      </trkpt>
      <trkpt lat="47.17555" lon="-1.61298">
        <ele>61</ele>
        <time>2021-04-12T13:57:00.000Z</time>
      </trkpt>
      <trkpt lat="47.1756" lon="-1.61315">
        <ele>62</ele>
        <time>2021-04-12T13:57:02.000Z</time>
      </trkpt>
      <trkpt lat="47.17558" lon="-1.61334">
        <ele>62</ele>
        <time>2021-04-12T13:57:04.000Z</time>
      </trkpt>
      <trkpt lat="47.1755" lon="-1.61351">
        <ele>62</ele>
        <time>2021-04-12T13:57:06.000Z</time>
      </trkpt>
      <trkpt lat="47.17539" lon="-1.61361">
        <ele>61</ele>
        <time>2021-04-12T13:57:08.000Z</time>
      </trkpt>
      <trkpt lat="47.1753" lon="-1.61375">
        <ele>60</ele>
        <time>2021-04-12T13:57:10.000Z</time>
      </trkpt>
      <trkpt lat="47.17526" lon="-1.61391">
        <ele>60</ele>
        <time>2021-04-12T13:57:12.000Z</time>
      </trkpt>
      <trkpt lat="47.17522" lon="-1.61407">
        <ele>61</ele>
        <time>2021-04-12T13:57:14.000Z</time>
      </trkpt>
      <trkpt lat="47.17519" lon="-1.61421">
        <ele>61</ele>
        <time>2021-04-12T13:57:16.000Z</time>
      </trkpt>
      <trkpt lat="47.17516" lon="-1.61435">
        <ele>61</ele>
        <time>2021-04-12T13:57:18.000Z</time>
      </trkpt>
      <trkpt lat="47.17512" lon="-1.61451">
        <ele>62</ele>
        <time>2021-04-12T13:57:20.000Z</time>
      </trkpt>
      <trkpt lat="47.17503" lon="-1.61463">
        <ele>63</ele>
        <time>2021-04-12T13:57:22.000Z</time>
      </trkpt>
      <trkpt lat="47.17492" lon="-1.61468">
        <ele>63</ele>
        <time>2021-04-12T13:57:24.000Z</time>
      </trkpt>
      <trkpt lat="47.17481" lon="-1.61472">
        <ele>65</ele>
        <time>2021-04-12T13:57:26.000Z</time>
      </trkpt>
      <trkpt lat="47.1747" lon="-1.61477">
        <ele>66</ele>
        <time>2021-04-12T13:57:28.000Z</time>
      </trkpt>
      <trkpt lat="47.17459" lon="-1.61482">
        <ele>66</ele>
        <time>2021-04-12T13:57:30.000Z</time>
      </trkpt>
      <trkpt lat="47.17448" lon="-1.61488">
        <ele>66</ele>
        <time>2021-04-12T13:57:32.000Z</time>
      </trkpt>
      <trkpt lat="47.17437" lon="-1.61494">
        <ele>67</ele>
        <time>2021-04-12T13:57:34.000Z</time>
      </trkpt>
      <trkpt lat="47.17426" lon="-1.61501">
        <ele>67</ele>
        <time>2021-04-12T13:57:36.000Z</time>
      </trkpt>
      <trkpt lat="47.17416" lon="-1.61508">
        <ele>68</ele>
        <time>2021-04-12T13:57:38.000Z</time>
      </trkpt>
      <trkpt lat="47.17406" lon="-1.61517">
        <ele>68</ele>
        <time>2021-04-12T13:57:40.000Z</time>
      </trkpt>
      <trkpt lat="47.17395" lon="-1.61524">
        <ele>68</ele>
        <time>2021-04-12T13:57:42.000Z</time>
      </trkpt>
      <trkpt lat="47.17385" lon="-1.61532">
        <ele>69</ele>
        <time>2021-04-12T13:57:44.000Z</time>
      </trkpt>
      <trkpt lat="47.17375" lon="-1.61542">
        <ele>69</ele>
        <time>2021-04-12T13:57:46.000Z</time>
      </trkpt>
      <trkpt lat="47.17366" lon="-1.61551">
        <ele>70</ele>
        <time>2021-04-12T13:57:48.000Z</time>
      </trkpt>
      <trkpt lat="47.17357" lon="-1.61561">
        <ele>70</ele>
        <time>2021-04-12T13:57:50.000Z</time>
      </trkpt>
      <trkpt lat="47.17348" lon="-1.61571">
        <ele>71</ele>
        <time>2021-04-12T13:57:52.000Z</time>
      </trkpt>
      <trkpt lat="47.1734" lon="-1.61581">
        <ele>71</ele>
        <time>2021-04-12T13:57:54.000Z</time>
      </trkpt>
      <trkpt lat="47.17332" lon="-1.61593">
        <ele>70</ele>
        <time>2021-04-12T13:57:56.000Z</time>
      </trkpt>
      <trkpt lat="47.17323" lon="-1.61603">
        <ele>71</ele>
        <time>2021-04-12T13:57:58.000Z</time>
      </trkpt>
      <trkpt lat="47.17315" lon="-1.61614">
        <ele>71</ele>
        <time>2021-04-12T13:58:00.000Z</time>
      </trkpt>
      <trkpt lat="47.17308" lon="-1.61625">
        <ele>71</ele>
        <time>2021-04-12T13:58:02.000Z</time>
      </trkpt>
      <trkpt lat="47.17301" lon="-1.61638">
        <ele>71</ele>
        <time>2021-04-12T13:58:04.000Z</time>
      </trkpt>
      <trkpt lat="47.17294" lon="-1.6165">
        <ele>71</ele>
        <time>2021-04-12T13:58:06.000Z</time>
      </trkpt>
      <trkpt lat="47.17287" lon="-1.61662">
        <ele>71</ele>
        <time>2021-04-12T13:58:08.000Z</time>
      </trkpt>
      <trkpt lat="47.1728" lon="-1.61675">
        <ele>71</ele>
        <time>2021-04-12T13:58:10.000Z</time>
      </trkpt>
      <trkpt lat="47.17274" lon="-1.61688">
        <ele>70</ele>
        <time>2021-04-12T13:58:12.000Z</time>
      </trkpt>
      <trkpt lat="47.17268" lon="-1.61701">
        <ele>71</ele>
        <time>2021-04-12T13:58:14.000Z</time>
      </trkpt>
      <trkpt lat="47.17261" lon="-1.61713">
        <ele>71</ele>
        <time>2021-04-12T13:58:16.000Z</time>
      </trkpt>
      <trkpt lat="47.17255" lon="-1.61727">
        <ele>71</ele>
        <time>2021-04-12T13:58:18.000Z</time>
      </trkpt>
      <trkpt lat="47.1725" lon="-1.61741">
        <ele>71</ele>
        <time>2021-04-12T13:58:20.000Z</time>
      </trkpt>
      <trkpt lat="47.17247" lon="-1.61758">
        <ele>70</ele>
        <time>2021-04-12T13:58:22.000Z</time>
      </trkpt>
      <trkpt lat="47.17244" lon="-1.61773">
        <ele>70</ele>
        <time>2021-04-12T13:58:24.000Z</time>
      </trkpt>
      <trkpt lat="47.17237" lon="-1.61786">
        <ele>69</ele>
        <time>2021-04-12T13:58:26.000Z</time>
      </trkpt>
      <trkpt lat="47.17226" lon="-1.61794">
        <ele>69</ele>
        <time>2021-04-12T13:58:28.000Z</time>
      </trkpt>
      <trkpt lat="47.17217" lon="-1.61802">
        <ele>69</ele>
        <time>2021-04-12T13:58:30.000Z</time>
      </trkpt>
      <trkpt lat="47.17207" lon="-1.6181">
        <ele>69</ele>
        <time>2021-04-12T13:58:32.000Z</time>
      </trkpt>
      <trkpt lat="47.17197" lon="-1.61819">
        <ele>69</ele>
        <time>2021-04-12T13:58:34.000Z</time>
      </trkpt>
      <trkpt lat="47.17187" lon="-1.61827">
        <ele>68</ele>
        <time>2021-04-12T13:58:36.000Z</time>
      </trkpt>
      <trkpt lat="47.17177" lon="-1.61837">
        <ele>68</ele>
        <time>2021-04-12T13:58:38.000Z</time>
      </trkpt>
      <trkpt lat="47.17168" lon="-1.61846">
        <ele>68</ele>
        <time>2021-04-12T13:58:40.000Z</time>
      </trkpt>
      <trkpt lat="47.17158" lon="-1.61855">
        <ele>68</ele>
        <time>2021-04-12T13:58:42.000Z</time>
      </trkpt>
      <trkpt lat="47.17148" lon="-1.61864">
        <ele>68</ele>
        <time>2021-04-12T13:58:44.000Z</time>
      </trkpt>
      <trkpt lat="47.17138" lon="-1.61873">
        <ele>68</ele>
        <time>2021-04-12T13:58:46.000Z</time>
      </trkpt>
      <trkpt lat="47.17128" lon="-1.61882">
        <ele>68</ele>
        <time>2021-04-12T13:58:48.000Z</time>
      </trkpt>
      <trkpt lat="47.17118" lon="-1.61892">
        <ele>67</ele>
        <time>2021-04-12T13:58:50.000Z</time>
      </trkpt>
      <trkpt lat="47.17109" lon="-1.61902">
        <ele>67</ele>
        <time>2021-04-12T13:58:52.000Z</time>
      </trkpt>
      <trkpt lat="47.17099" lon="-1.61912">
        <ele>67</ele>
        <time>2021-04-12T13:58:54.000Z</time>
      </trkpt>
      <trkpt lat="47.17089" lon="-1.61921">
        <ele>68</ele>
        <time>2021-04-12T13:58:56.000Z</time>
      </trkpt>
      <trkpt lat="47.17079" lon="-1.61931">
        <ele>68</ele>
        <time>2021-04-12T13:58:58.000Z</time>
      </trkpt>
      <trkpt lat="47.17069" lon="-1.61942">
        <ele>68</ele>
        <time>2021-04-12T13:59:00.000Z</time>
      </trkpt>
      <trkpt lat="47.17059" lon="-1.61953">
        <ele>68</ele>
        <time>2021-04-12T13:59:02.000Z</time>
      </trkpt>
      <trkpt lat="47.1705" lon="-1.61966">
        <ele>68</ele>
        <time>2021-04-12T13:59:04.000Z</time>
      </trkpt>
      <trkpt lat="47.17042" lon="-1.61978">
        <ele>68</ele>
        <time>2021-04-12T13:59:06.000Z</time>
      </trkpt>
      <trkpt lat="47.17034" lon="-1.6199">
        <ele>69</ele>
        <time>2021-04-12T13:59:08.000Z</time>
      </trkpt>
      <trkpt lat="47.17025" lon="-1.62003">
        <ele>69</ele>
        <time>2021-04-12T13:59:10.000Z</time>
      </trkpt>
      <trkpt lat="47.17017" lon="-1.62015">
        <ele>69</ele>
        <time>2021-04-12T13:59:12.000Z</time>
      </trkpt>
      <trkpt lat="47.17008" lon="-1.62028">
        <ele>69</ele>
        <time>2021-04-12T13:59:14.000Z</time>
      </trkpt>
      <trkpt lat="47.17" lon="-1.62042">
        <ele>68</ele>
        <time>2021-04-12T13:59:16.000Z</time>
      </trkpt>
      <trkpt lat="47.16992" lon="-1.62057">
        <ele>68</ele>
        <time>2021-04-12T13:59:18.000Z</time>
      </trkpt>
      <trkpt lat="47.16984" lon="-1.62071">
        <ele>68</ele>
        <time>2021-04-12T13:59:20.000Z</time>
      </trkpt>
      <trkpt lat="47.16976" lon="-1.62084">
        <ele>68</ele>
        <time>2021-04-12T13:59:22.000Z</time>
      </trkpt>
      <trkpt lat="47.16968" lon="-1.62097">
        <ele>68</ele>
        <time>2021-04-12T13:59:24.000Z</time>
      </trkpt>
      <trkpt lat="47.16961" lon="-1.62111">
        <ele>68</ele>
        <time>2021-04-12T13:59:26.000Z</time>
      </trkpt>
      <trkpt lat="47.16954" lon="-1.62125">
        <ele>68</ele>
        <time>2021-04-12T13:59:28.000Z</time>
      </trkpt>
      <trkpt lat="47.16946" lon="-1.62139">
        <ele>68</ele>
        <time>2021-04-12T13:59:30.000Z</time>
      </trkpt>
      <trkpt lat="47.16939" lon="-1.62153">
        <ele>68</ele>
        <time>2021-04-12T13:59:32.000Z</time>
      </trkpt>
      <trkpt lat="47.16933" lon="-1.62167">
        <ele>68</ele>
        <time>2021-04-12T13:59:34.000Z</time>
      </trkpt>
      <trkpt lat="47.16926" lon="-1.62182">
        <ele>68</ele>
        <time>2021-04-12T13:59:36.000Z</time>
      </trkpt>
      <trkpt lat="47.16918" lon="-1.62196">
        <ele>69</ele>
        <time>2021-04-12T13:59:38.000Z</time>
      </trkpt>
      <trkpt lat="47.1691" lon="-1.6221">
        <ele>69</ele>
        <time>2021-04-12T13:59:40.000Z</time>
      </trkpt>
      <trkpt lat="47.16901" lon="-1.62222">
        <ele>69</ele>
        <time>2021-04-12T13:59:42.000Z</time>
      </trkpt>
      <trkpt lat="47.16892" lon="-1.62234">
        <ele>69</ele>
        <time>2021-04-12T13:59:44.000Z</time>
      </trkpt>
      <trkpt lat="47.16882" lon="-1.62245">
        <ele>70</ele>
        <time>2021-04-12T13:59:46.000Z</time>
      </trkpt>
      <trkpt lat="47.16873" lon="-1.62256">
        <ele>70</ele>
        <time>2021-04-12T13:59:48.000Z</time>
      </trkpt>
      <trkpt lat="47.16864" lon="-1.62267">
        <ele>70</ele>
        <time>2021-04-12T13:59:50.000Z</time>
      </trkpt>
      <trkpt lat="47.16855" lon="-1.62279">
        <ele>70</ele>
        <time>2021-04-12T13:59:52.000Z</time>
      </trkpt>
      <trkpt lat="47.16846" lon="-1.62291">
        <ele>70</ele>
        <time>2021-04-12T13:59:54.000Z</time>
      </trkpt>
      <trkpt lat="47.16837" lon="-1.62302">
        <ele>70</ele>
        <time>2021-04-12T13:59:56.000Z</time>
      </trkpt>
      <trkpt lat="47.16827" lon="-1.62312">
        <ele>70</ele>
        <time>2021-04-12T13:59:58.000Z</time>
      </trkpt>
      <trkpt lat="47.16816" lon="-1.62321">
        <ele>70</ele>
        <time>2021-04-12T14:00:00.000Z</time>
      </trkpt>
      <trkpt lat="47.16805" lon="-1.62327">
        <ele>70</ele>
        <time>2021-04-12T14:00:02.000Z</time>
      </trkpt>
      <trkpt lat="47.16794" lon="-1.62334">
        <ele>70</ele>
        <time>2021-04-12T14:00:04.000Z</time>
      </trkpt>
      <trkpt lat="47.16782" lon="-1.6234">
        <ele>69</ele>
        <time>2021-04-12T14:00:06.000Z</time>
      </trkpt>
      <trkpt lat="47.1677" lon="-1.62347">
        <ele>69</ele>
        <time>2021-04-12T14:00:08.000Z</time>
      </trkpt>
      <trkpt lat="47.16758" lon="-1.62355">
        <ele>68</ele>
        <time>2021-04-12T14:00:10.000Z</time>
      </trkpt>
      <trkpt lat="47.16748" lon="-1.62365">
        <ele>68</ele>
        <time>2021-04-12T14:00:12.000Z</time>
      </trkpt>
      <trkpt lat="47.16738" lon="-1.62378">
        <ele>68</ele>
        <time>2021-04-12T14:00:14.000Z</time>
      </trkpt>
      <trkpt lat="47.16732" lon="-1.62393">
        <ele>68</ele>
        <time>2021-04-12T14:00:16.000Z</time>
      </trkpt>
      <trkpt lat="47.16728" lon="-1.6241">
        <ele>68</ele>
        <time>2021-04-12T14:00:18.000Z</time>
      </trkpt>
      <trkpt lat="47.16726" lon="-1.62427">
        <ele>68</ele>
        <time>2021-04-12T14:00:20.000Z</time>
      </trkpt>
      <trkpt lat="47.16724" lon="-1.62445">
        <ele>68</ele>
        <time>2021-04-12T14:00:22.000Z</time>
      </trkpt>
      <trkpt lat="47.16719" lon="-1.62462">
        <ele>68</ele>
        <time>2021-04-12T14:00:24.000Z</time>
      </trkpt>
      <trkpt lat="47.16715" lon="-1.62479">
        <ele>68</ele>
        <time>2021-04-12T14:00:26.000Z</time>
      </trkpt>
      <trkpt lat="47.16718" lon="-1.62494">
        <ele>67</ele>
        <time>2021-04-12T14:00:28.000Z</time>
      </trkpt>
      <trkpt lat="47.16729" lon="-1.62499">
        <ele>68</ele>
        <time>2021-04-12T14:00:30.000Z</time>
      </trkpt>
      <trkpt lat="47.1674" lon="-1.62503">
        <ele>69</ele>
        <time>2021-04-12T14:00:32.000Z</time>
      </trkpt>
      <trkpt lat="47.16751" lon="-1.62509">
        <ele>69</ele>
        <time>2021-04-12T14:00:34.000Z</time>
      </trkpt>
      <trkpt lat="47.1676" lon="-1.62514">
        <ele>70</ele>
        <time>2021-04-12T14:00:36.000Z</time>
      </trkpt>
      <trkpt lat="47.1677" lon="-1.6252">
        <ele>70</ele>
        <time>2021-04-12T14:00:38.000Z</time>
      </trkpt>
      <trkpt lat="47.1678" lon="-1.62527">
        <ele>70</ele>
        <time>2021-04-12T14:00:40.000Z</time>
      </trkpt>
      <trkpt lat="47.16791" lon="-1.62534">
        <ele>70</ele>
        <time>2021-04-12T14:00:42.000Z</time>
      </trkpt>
      <trkpt lat="47.168" lon="-1.6254">
        <ele>70</ele>
        <time>2021-04-12T14:00:44.000Z</time>
      </trkpt>
      <trkpt lat="47.16809" lon="-1.62547">
        <ele>70</ele>
        <time>2021-04-12T14:00:46.000Z</time>
      </trkpt>
      <trkpt lat="47.16819" lon="-1.62557">
        <ele>71</ele>
        <time>2021-04-12T14:00:48.000Z</time>
      </trkpt>
      <trkpt lat="47.16827" lon="-1.62568">
        <ele>70</ele>
        <time>2021-04-12T14:00:50.000Z</time>
      </trkpt>
      <trkpt lat="47.16829" lon="-1.62585">
        <ele>70</ele>
        <time>2021-04-12T14:00:52.000Z</time>
      </trkpt>
      <trkpt lat="47.16822" lon="-1.626">
        <ele>70</ele>
        <time>2021-04-12T14:00:54.000Z</time>
      </trkpt>
      <trkpt lat="47.16815" lon="-1.62612">
        <ele>69</ele>
        <time>2021-04-12T14:00:56.000Z</time>
      </trkpt>
      <trkpt lat="47.16808" lon="-1.62624">
        <ele>69</ele>
        <time>2021-04-12T14:00:58.000Z</time>
      </trkpt>
      <trkpt lat="47.16801" lon="-1.62635">
        <ele>69</ele>
        <time>2021-04-12T14:01:00.000Z</time>
      </trkpt>
      <trkpt lat="47.16795" lon="-1.62645">
        <ele>68</ele>
        <time>2021-04-12T14:01:02.000Z</time>
      </trkpt>
      <trkpt lat="47.16788" lon="-1.62659">
        <ele>69</ele>
        <time>2021-04-12T14:01:05.000Z</time>
      </trkpt>
      <trkpt lat="47.16779" lon="-1.62657">
        <ele>70</ele>
        <time>2021-04-12T14:01:09.000Z</time>
      </trkpt>
    </trkseg>
  </trk>
</gpx>